<?xml version="1.0" encoding="UTF-8" standalone="no" ?>
<gpx xmlns="http://www.topografix.com/GPX/1/1" xmlns:xsi="http://www.w3.org/2001/XMLSchema-instance" xsi:schemaLocation="http://www.topografix.com/GPX/1/1 http://www.topografix.com/GPX/1/1/gpx.xsd" version="1.1" creator="VisuGPX - https://www.visugpx.com">
  <metadata>
    <name>Desnes  (jura) </name>
    <desc><![CDATA[Rando autour des  étangs de  Desnes  ]]></desc>
  </metadata>
  <trk>
    <name><![CDATA[Desnes]]></name>
    <desc><![CDATA[]]></desc>
    <trkseg>
      <trkpt lat="46.76588" lon="5.46871">
        <ele>253.1</ele>
        <time>2012-10-31T12:47:04.000Z</time>
      </trkpt>
      <trkpt lat="46.76593" lon="5.46885">
        <ele>227.3</ele>
        <time>2012-10-31T12:47:05.000Z</time>
      </trkpt>
      <trkpt lat="46.76593" lon="5.46878">
        <ele>238.4</ele>
        <time>2012-10-31T12:47:07.000Z</time>
      </trkpt>
      <trkpt lat="46.76593" lon="5.46878">
        <ele>238.4</ele>
        <time>2012-10-31T12:47:10.000Z</time>
      </trkpt>
      <trkpt lat="46.76592" lon="5.46869">
        <ele>245.2</ele>
        <time>2012-10-31T12:47:11.000Z</time>
      </trkpt>
      <trkpt lat="46.76593" lon="5.46864">
        <ele>247.7</ele>
        <time>2012-10-31T12:47:15.000Z</time>
      </trkpt>
      <trkpt lat="46.76593" lon="5.46863">
        <ele>247.6</ele>
        <time>2012-10-31T12:47:16.000Z</time>
      </trkpt>
      <trkpt lat="46.76595" lon="5.46857">
        <ele>249.1</ele>
        <time>2012-10-31T12:47:21.000Z</time>
      </trkpt>
      <trkpt lat="46.76595" lon="5.46857">
        <ele>248.9</ele>
        <time>2012-10-31T12:47:22.000Z</time>
      </trkpt>
      <trkpt lat="46.76597" lon="5.46851">
        <ele>246.7</ele>
        <time>2012-10-31T12:47:28.000Z</time>
      </trkpt>
      <trkpt lat="46.76597" lon="5.46849">
        <ele>246.4</ele>
        <time>2012-10-31T12:47:29.000Z</time>
      </trkpt>
      <trkpt lat="46.76597" lon="5.46843">
        <ele>248.6</ele>
        <time>2012-10-31T12:47:33.000Z</time>
      </trkpt>
      <trkpt lat="46.76597" lon="5.46841">
        <ele>249.2</ele>
        <time>2012-10-31T12:47:34.000Z</time>
      </trkpt>
      <trkpt lat="46.76598" lon="5.46836">
        <ele>248.7</ele>
        <time>2012-10-31T12:47:37.000Z</time>
      </trkpt>
      <trkpt lat="46.76599" lon="5.46835">
        <ele>248.9</ele>
        <time>2012-10-31T12:47:38.000Z</time>
      </trkpt>
      <trkpt lat="46.766" lon="5.46829">
        <ele>248.6</ele>
        <time>2012-10-31T12:47:42.000Z</time>
      </trkpt>
      <trkpt lat="46.76601" lon="5.46828">
        <ele>248.5</ele>
        <time>2012-10-31T12:47:43.000Z</time>
      </trkpt>
      <trkpt lat="46.76602" lon="5.46822">
        <ele>248</ele>
        <time>2012-10-31T12:47:47.000Z</time>
      </trkpt>
      <trkpt lat="46.76602" lon="5.46821">
        <ele>247.8</ele>
        <time>2012-10-31T12:47:48.000Z</time>
      </trkpt>
      <trkpt lat="46.76606" lon="5.46818">
        <ele>247.3</ele>
        <time>2012-10-31T12:47:54.000Z</time>
      </trkpt>
      <trkpt lat="46.76606" lon="5.46816">
        <ele>247.1</ele>
        <time>2012-10-31T12:47:55.000Z</time>
      </trkpt>
      <trkpt lat="46.76607" lon="5.46811">
        <ele>247.2</ele>
        <time>2012-10-31T12:47:58.000Z</time>
      </trkpt>
      <trkpt lat="46.76607" lon="5.46809">
        <ele>247.6</ele>
        <time>2012-10-31T12:47:59.000Z</time>
      </trkpt>
      <trkpt lat="46.76608" lon="5.46803">
        <ele>247.8</ele>
        <time>2012-10-31T12:48:03.000Z</time>
      </trkpt>
      <trkpt lat="46.76609" lon="5.46802">
        <ele>248</ele>
        <time>2012-10-31T12:48:04.000Z</time>
      </trkpt>
      <trkpt lat="46.7661" lon="5.46796">
        <ele>248.3</ele>
        <time>2012-10-31T12:48:08.000Z</time>
      </trkpt>
      <trkpt lat="46.7661" lon="5.46794">
        <ele>248.6</ele>
        <time>2012-10-31T12:48:09.000Z</time>
      </trkpt>
      <trkpt lat="46.76611" lon="5.46789">
        <ele>249.3</ele>
        <time>2012-10-31T12:48:12.000Z</time>
      </trkpt>
      <trkpt lat="46.76612" lon="5.46787">
        <ele>249.6</ele>
        <time>2012-10-31T12:48:13.000Z</time>
      </trkpt>
      <trkpt lat="46.76613" lon="5.46782">
        <ele>250.2</ele>
        <time>2012-10-31T12:48:16.000Z</time>
      </trkpt>
      <trkpt lat="46.76613" lon="5.4678">
        <ele>250.3</ele>
        <time>2012-10-31T12:48:17.000Z</time>
      </trkpt>
      <trkpt lat="46.76614" lon="5.46775">
        <ele>250.7</ele>
        <time>2012-10-31T12:48:20.000Z</time>
      </trkpt>
      <trkpt lat="46.76614" lon="5.46773">
        <ele>250.7</ele>
        <time>2012-10-31T12:48:21.000Z</time>
      </trkpt>
      <trkpt lat="46.76615" lon="5.46769">
        <ele>251.2</ele>
        <time>2012-10-31T12:48:24.000Z</time>
      </trkpt>
      <trkpt lat="46.76615" lon="5.46767">
        <ele>251.5</ele>
        <time>2012-10-31T12:48:25.000Z</time>
      </trkpt>
      <trkpt lat="46.76617" lon="5.46762">
        <ele>252</ele>
        <time>2012-10-31T12:48:28.000Z</time>
      </trkpt>
      <trkpt lat="46.76617" lon="5.4676">
        <ele>252.2</ele>
        <time>2012-10-31T12:48:29.000Z</time>
      </trkpt>
      <trkpt lat="46.76619" lon="5.46755">
        <ele>252.5</ele>
        <time>2012-10-31T12:48:32.000Z</time>
      </trkpt>
      <trkpt lat="46.76619" lon="5.46754">
        <ele>252.5</ele>
        <time>2012-10-31T12:48:33.000Z</time>
      </trkpt>
      <trkpt lat="46.7662" lon="5.46749">
        <ele>252.5</ele>
        <time>2012-10-31T12:48:36.000Z</time>
      </trkpt>
      <trkpt lat="46.76621" lon="5.46748">
        <ele>252.5</ele>
        <time>2012-10-31T12:48:37.000Z</time>
      </trkpt>
      <trkpt lat="46.76622" lon="5.46742">
        <ele>252.8</ele>
        <time>2012-10-31T12:48:41.000Z</time>
      </trkpt>
      <trkpt lat="46.76623" lon="5.4674">
        <ele>252.9</ele>
        <time>2012-10-31T12:48:42.000Z</time>
      </trkpt>
      <trkpt lat="46.76624" lon="5.46734">
        <ele>253</ele>
        <time>2012-10-31T12:48:46.000Z</time>
      </trkpt>
      <trkpt lat="46.76625" lon="5.46733">
        <ele>253.1</ele>
        <time>2012-10-31T12:48:47.000Z</time>
      </trkpt>
      <trkpt lat="46.76626" lon="5.46727">
        <ele>253.2</ele>
        <time>2012-10-31T12:48:51.000Z</time>
      </trkpt>
      <trkpt lat="46.76627" lon="5.46726">
        <ele>253.3</ele>
        <time>2012-10-31T12:48:52.000Z</time>
      </trkpt>
      <trkpt lat="46.76628" lon="5.4672">
        <ele>253.5</ele>
        <time>2012-10-31T12:48:56.000Z</time>
      </trkpt>
      <trkpt lat="46.76629" lon="5.46719">
        <ele>253.6</ele>
        <time>2012-10-31T12:48:57.000Z</time>
      </trkpt>
      <trkpt lat="46.7663" lon="5.46714">
        <ele>254</ele>
        <time>2012-10-31T12:49:00.000Z</time>
      </trkpt>
      <trkpt lat="46.76631" lon="5.46712">
        <ele>254.1</ele>
        <time>2012-10-31T12:49:01.000Z</time>
      </trkpt>
      <trkpt lat="46.76632" lon="5.46708">
        <ele>254.4</ele>
        <time>2012-10-31T12:49:04.000Z</time>
      </trkpt>
      <trkpt lat="46.76633" lon="5.46706">
        <ele>254.5</ele>
        <time>2012-10-31T12:49:05.000Z</time>
      </trkpt>
      <trkpt lat="46.76635" lon="5.46701">
        <ele>254.8</ele>
        <time>2012-10-31T12:49:09.000Z</time>
      </trkpt>
      <trkpt lat="46.76636" lon="5.46699">
        <ele>254.9</ele>
        <time>2012-10-31T12:49:10.000Z</time>
      </trkpt>
      <trkpt lat="46.76638" lon="5.46695">
        <ele>255.2</ele>
        <time>2012-10-31T12:49:13.000Z</time>
      </trkpt>
      <trkpt lat="46.76638" lon="5.46693">
        <ele>255.3</ele>
        <time>2012-10-31T12:49:14.000Z</time>
      </trkpt>
      <trkpt lat="46.7664" lon="5.46689">
        <ele>255.5</ele>
        <time>2012-10-31T12:49:17.000Z</time>
      </trkpt>
      <trkpt lat="46.76641" lon="5.46688">
        <ele>255.5</ele>
        <time>2012-10-31T12:49:18.000Z</time>
      </trkpt>
      <trkpt lat="46.76643" lon="5.46683">
        <ele>255.5</ele>
        <time>2012-10-31T12:49:22.000Z</time>
      </trkpt>
      <trkpt lat="46.76644" lon="5.46681">
        <ele>255.6</ele>
        <time>2012-10-31T12:49:23.000Z</time>
      </trkpt>
      <trkpt lat="46.76646" lon="5.46677">
        <ele>255.7</ele>
        <time>2012-10-31T12:49:26.000Z</time>
      </trkpt>
      <trkpt lat="46.76647" lon="5.46676">
        <ele>255.8</ele>
        <time>2012-10-31T12:49:27.000Z</time>
      </trkpt>
      <trkpt lat="46.76649" lon="5.46671">
        <ele>255.8</ele>
        <time>2012-10-31T12:49:30.000Z</time>
      </trkpt>
      <trkpt lat="46.7665" lon="5.4667">
        <ele>255.8</ele>
        <time>2012-10-31T12:49:31.000Z</time>
      </trkpt>
      <trkpt lat="46.76652" lon="5.46665">
        <ele>255.7</ele>
        <time>2012-10-31T12:49:35.000Z</time>
      </trkpt>
      <trkpt lat="46.76653" lon="5.46664">
        <ele>255.7</ele>
        <time>2012-10-31T12:49:36.000Z</time>
      </trkpt>
      <trkpt lat="46.76655" lon="5.46659">
        <ele>255.7</ele>
        <time>2012-10-31T12:49:40.000Z</time>
      </trkpt>
      <trkpt lat="46.76656" lon="5.46658">
        <ele>255.6</ele>
        <time>2012-10-31T12:49:41.000Z</time>
      </trkpt>
      <trkpt lat="46.76659" lon="5.46653">
        <ele>255.7</ele>
        <time>2012-10-31T12:49:45.000Z</time>
      </trkpt>
      <trkpt lat="46.76659" lon="5.46652">
        <ele>255.7</ele>
        <time>2012-10-31T12:49:46.000Z</time>
      </trkpt>
      <trkpt lat="46.76662" lon="5.46648">
        <ele>255.6</ele>
        <time>2012-10-31T12:49:50.000Z</time>
      </trkpt>
      <trkpt lat="46.76662" lon="5.46646">
        <ele>255.6</ele>
        <time>2012-10-31T12:49:51.000Z</time>
      </trkpt>
      <trkpt lat="46.76665" lon="5.46641">
        <ele>255.8</ele>
        <time>2012-10-31T12:49:55.000Z</time>
      </trkpt>
      <trkpt lat="46.76665" lon="5.4664">
        <ele>255.8</ele>
        <time>2012-10-31T12:49:56.000Z</time>
      </trkpt>
      <trkpt lat="46.76668" lon="5.46635">
        <ele>255.7</ele>
        <time>2012-10-31T12:50:00.000Z</time>
      </trkpt>
      <trkpt lat="46.76668" lon="5.46634">
        <ele>255.7</ele>
        <time>2012-10-31T12:50:01.000Z</time>
      </trkpt>
      <trkpt lat="46.76671" lon="5.46629">
        <ele>256.1</ele>
        <time>2012-10-31T12:50:05.000Z</time>
      </trkpt>
      <trkpt lat="46.76672" lon="5.46628">
        <ele>256.1</ele>
        <time>2012-10-31T12:50:06.000Z</time>
      </trkpt>
      <trkpt lat="46.76675" lon="5.46623">
        <ele>256.1</ele>
        <time>2012-10-31T12:50:10.000Z</time>
      </trkpt>
      <trkpt lat="46.76675" lon="5.46622">
        <ele>256</ele>
        <time>2012-10-31T12:50:11.000Z</time>
      </trkpt>
      <trkpt lat="46.76678" lon="5.4662">
        <ele>255.7</ele>
        <time>2012-10-31T12:50:15.000Z</time>
      </trkpt>
      <trkpt lat="46.76679" lon="5.46619">
        <ele>255.7</ele>
        <time>2012-10-31T12:50:16.500Z</time>
      </trkpt>
      <trkpt lat="46.76687" lon="5.46599">
        <ele>259.4</ele>
        <time>2012-10-31T12:50:22.000Z</time>
      </trkpt>
      <trkpt lat="46.7669" lon="5.46594">
        <ele>258.8</ele>
        <time>2012-10-31T12:50:30.000Z</time>
      </trkpt>
      <trkpt lat="46.7669" lon="5.46592">
        <ele>258.9</ele>
        <time>2012-10-31T12:50:31.000Z</time>
      </trkpt>
      <trkpt lat="46.76692" lon="5.46587">
        <ele>257</ele>
        <time>2012-10-31T12:50:35.000Z</time>
      </trkpt>
      <trkpt lat="46.76693" lon="5.46586">
        <ele>256.5</ele>
        <time>2012-10-31T12:50:36.000Z</time>
      </trkpt>
      <trkpt lat="46.76695" lon="5.46582">
        <ele>255.2</ele>
        <time>2012-10-31T12:50:40.000Z</time>
      </trkpt>
      <trkpt lat="46.76696" lon="5.46581">
        <ele>254.7</ele>
        <time>2012-10-31T12:50:41.000Z</time>
      </trkpt>
      <trkpt lat="46.76698" lon="5.46576">
        <ele>255.5</ele>
        <time>2012-10-31T12:50:45.000Z</time>
      </trkpt>
      <trkpt lat="46.76699" lon="5.46574">
        <ele>255.5</ele>
        <time>2012-10-31T12:50:46.000Z</time>
      </trkpt>
      <trkpt lat="46.76701" lon="5.46569">
        <ele>254.9</ele>
        <time>2012-10-31T12:50:50.000Z</time>
      </trkpt>
      <trkpt lat="46.76702" lon="5.46568">
        <ele>254.9</ele>
        <time>2012-10-31T12:50:51.000Z</time>
      </trkpt>
      <trkpt lat="46.76704" lon="5.46563">
        <ele>254.8</ele>
        <time>2012-10-31T12:50:55.000Z</time>
      </trkpt>
      <trkpt lat="46.76705" lon="5.46562">
        <ele>254.8</ele>
        <time>2012-10-31T12:50:56.000Z</time>
      </trkpt>
      <trkpt lat="46.76707" lon="5.46558">
        <ele>254.4</ele>
        <time>2012-10-31T12:51:00.000Z</time>
      </trkpt>
      <trkpt lat="46.76708" lon="5.46557">
        <ele>254.3</ele>
        <time>2012-10-31T12:51:01.000Z</time>
      </trkpt>
      <trkpt lat="46.76711" lon="5.46552">
        <ele>253.9</ele>
        <time>2012-10-31T12:51:05.000Z</time>
      </trkpt>
      <trkpt lat="46.76712" lon="5.46551">
        <ele>254</ele>
        <time>2012-10-31T12:51:06.000Z</time>
      </trkpt>
      <trkpt lat="46.76714" lon="5.46546">
        <ele>254</ele>
        <time>2012-10-31T12:51:09.000Z</time>
      </trkpt>
      <trkpt lat="46.76714" lon="5.46545">
        <ele>253.9</ele>
        <time>2012-10-31T12:51:10.000Z</time>
      </trkpt>
      <trkpt lat="46.76717" lon="5.4654">
        <ele>253.8</ele>
        <time>2012-10-31T12:51:14.000Z</time>
      </trkpt>
      <trkpt lat="46.76718" lon="5.46539">
        <ele>253.6</ele>
        <time>2012-10-31T12:51:15.000Z</time>
      </trkpt>
      <trkpt lat="46.7672" lon="5.46534">
        <ele>252.4</ele>
        <time>2012-10-31T12:51:19.000Z</time>
      </trkpt>
      <trkpt lat="46.76721" lon="5.46533">
        <ele>252.1</ele>
        <time>2012-10-31T12:51:20.000Z</time>
      </trkpt>
      <trkpt lat="46.76723" lon="5.46528">
        <ele>251.6</ele>
        <time>2012-10-31T12:51:28.000Z</time>
      </trkpt>
      <trkpt lat="46.76724" lon="5.46527">
        <ele>251.9</ele>
        <time>2012-10-31T12:51:29.000Z</time>
      </trkpt>
      <trkpt lat="46.76725" lon="5.46521">
        <ele>252.7</ele>
        <time>2012-10-31T12:51:33.000Z</time>
      </trkpt>
      <trkpt lat="46.76725" lon="5.46519">
        <ele>253.2</ele>
        <time>2012-10-31T12:51:34.000Z</time>
      </trkpt>
      <trkpt lat="46.76727" lon="5.46514">
        <ele>254</ele>
        <time>2012-10-31T12:51:37.000Z</time>
      </trkpt>
      <trkpt lat="46.76728" lon="5.46513">
        <ele>254.2</ele>
        <time>2012-10-31T12:51:38.000Z</time>
      </trkpt>
      <trkpt lat="46.7673" lon="5.46508">
        <ele>254.1</ele>
        <time>2012-10-31T12:51:42.000Z</time>
      </trkpt>
      <trkpt lat="46.76731" lon="5.46506">
        <ele>254.2</ele>
        <time>2012-10-31T12:51:43.000Z</time>
      </trkpt>
      <trkpt lat="46.76734" lon="5.46501">
        <ele>254.4</ele>
        <time>2012-10-31T12:51:47.000Z</time>
      </trkpt>
      <trkpt lat="46.76735" lon="5.465">
        <ele>254.4</ele>
        <time>2012-10-31T12:51:48.000Z</time>
      </trkpt>
      <trkpt lat="46.76737" lon="5.46496">
        <ele>254.5</ele>
        <time>2012-10-31T12:51:51.000Z</time>
      </trkpt>
      <trkpt lat="46.76737" lon="5.46494">
        <ele>254.6</ele>
        <time>2012-10-31T12:51:52.000Z</time>
      </trkpt>
      <trkpt lat="46.76739" lon="5.46489">
        <ele>254.8</ele>
        <time>2012-10-31T12:51:56.000Z</time>
      </trkpt>
      <trkpt lat="46.76739" lon="5.46488">
        <ele>254.8</ele>
        <time>2012-10-31T12:51:57.000Z</time>
      </trkpt>
      <trkpt lat="46.76742" lon="5.46482">
        <ele>254.8</ele>
        <time>2012-10-31T12:52:02.000Z</time>
      </trkpt>
      <trkpt lat="46.76742" lon="5.46481">
        <ele>255</ele>
        <time>2012-10-31T12:52:03.000Z</time>
      </trkpt>
      <trkpt lat="46.76746" lon="5.46478">
        <ele>254.9</ele>
        <time>2012-10-31T12:52:08.000Z</time>
      </trkpt>
      <trkpt lat="46.76746" lon="5.46477">
        <ele>255.1</ele>
        <time>2012-10-31T12:52:09.000Z</time>
      </trkpt>
      <trkpt lat="46.76749" lon="5.46472">
        <ele>255.4</ele>
        <time>2012-10-31T12:52:13.000Z</time>
      </trkpt>
      <trkpt lat="46.76749" lon="5.46471">
        <ele>255.4</ele>
        <time>2012-10-31T12:52:14.000Z</time>
      </trkpt>
      <trkpt lat="46.76752" lon="5.46465">
        <ele>255.9</ele>
        <time>2012-10-31T12:52:18.000Z</time>
      </trkpt>
      <trkpt lat="46.76752" lon="5.46464">
        <ele>256</ele>
        <time>2012-10-31T12:52:19.000Z</time>
      </trkpt>
      <trkpt lat="46.76754" lon="5.46459">
        <ele>256.1</ele>
        <time>2012-10-31T12:52:22.000Z</time>
      </trkpt>
      <trkpt lat="46.76754" lon="5.46458">
        <ele>256.1</ele>
        <time>2012-10-31T12:52:23.000Z</time>
      </trkpt>
      <trkpt lat="46.76757" lon="5.46454">
        <ele>256.6</ele>
        <time>2012-10-31T12:52:28.000Z</time>
      </trkpt>
      <trkpt lat="46.76758" lon="5.46454">
        <ele>256.7</ele>
        <time>2012-10-31T12:52:29.000Z</time>
      </trkpt>
      <trkpt lat="46.76762" lon="5.46456">
        <ele>257.3</ele>
        <time>2012-10-31T12:52:35.000Z</time>
      </trkpt>
      <trkpt lat="46.76763" lon="5.46455">
        <ele>257.4</ele>
        <time>2012-10-31T12:52:36.000Z</time>
      </trkpt>
      <trkpt lat="46.76767" lon="5.46455">
        <ele>257.8</ele>
        <time>2012-10-31T12:52:41.000Z</time>
      </trkpt>
      <trkpt lat="46.76768" lon="5.46455">
        <ele>258</ele>
        <time>2012-10-31T12:52:42.000Z</time>
      </trkpt>
      <trkpt lat="46.76772" lon="5.46457">
        <ele>258.6</ele>
        <time>2012-10-31T12:52:47.000Z</time>
      </trkpt>
      <trkpt lat="46.76772" lon="5.46457">
        <ele>258.6</ele>
        <time>2012-10-31T12:52:48.000Z</time>
      </trkpt>
      <trkpt lat="46.76777" lon="5.46457">
        <ele>258.7</ele>
        <time>2012-10-31T12:52:55.000Z</time>
      </trkpt>
      <trkpt lat="46.76777" lon="5.46457">
        <ele>258.7</ele>
        <time>2012-10-31T12:52:56.000Z</time>
      </trkpt>
      <trkpt lat="46.76782" lon="5.46459">
        <ele>258.5</ele>
        <time>2012-10-31T12:53:03.000Z</time>
      </trkpt>
      <trkpt lat="46.76784" lon="5.46459">
        <ele>258.5</ele>
        <time>2012-10-31T12:53:04.000Z</time>
      </trkpt>
      <trkpt lat="46.76787" lon="5.46459">
        <ele>258.7</ele>
        <time>2012-10-31T12:53:07.000Z</time>
      </trkpt>
      <trkpt lat="46.76789" lon="5.46459">
        <ele>258.6</ele>
        <time>2012-10-31T12:53:08.000Z</time>
      </trkpt>
      <trkpt lat="46.76793" lon="5.46457">
        <ele>258.6</ele>
        <time>2012-10-31T12:53:12.000Z</time>
      </trkpt>
      <trkpt lat="46.76793" lon="5.46457">
        <ele>258.6</ele>
        <time>2012-10-31T12:53:13.000Z</time>
      </trkpt>
      <trkpt lat="46.76798" lon="5.46457">
        <ele>258.9</ele>
        <time>2012-10-31T12:53:16.000Z</time>
      </trkpt>
      <trkpt lat="46.768" lon="5.46457">
        <ele>259.2</ele>
        <time>2012-10-31T12:53:17.000Z</time>
      </trkpt>
      <trkpt lat="46.76802" lon="5.46458">
        <ele>259.4</ele>
        <time>2012-10-31T12:53:18.000Z</time>
      </trkpt>
      <trkpt lat="46.76805" lon="5.46458">
        <ele>259.6</ele>
        <time>2012-10-31T12:53:19.000Z</time>
      </trkpt>
      <trkpt lat="46.76808" lon="5.4646">
        <ele>259.8</ele>
        <time>2012-10-31T12:53:21.000Z</time>
      </trkpt>
      <trkpt lat="46.7681" lon="5.46461">
        <ele>259.8</ele>
        <time>2012-10-31T12:53:22.000Z</time>
      </trkpt>
      <trkpt lat="46.76813" lon="5.46461">
        <ele>259.9</ele>
        <time>2012-10-31T12:53:24.000Z</time>
      </trkpt>
      <trkpt lat="46.76816" lon="5.46461">
        <ele>259.9</ele>
        <time>2012-10-31T12:53:25.000Z</time>
      </trkpt>
      <trkpt lat="46.76819" lon="5.4646">
        <ele>259.7</ele>
        <time>2012-10-31T12:53:28.000Z</time>
      </trkpt>
      <trkpt lat="46.76821" lon="5.4646">
        <ele>259.2</ele>
        <time>2012-10-31T12:53:29.000Z</time>
      </trkpt>
      <trkpt lat="46.76825" lon="5.46461">
        <ele>259.2</ele>
        <time>2012-10-31T12:53:31.000Z</time>
      </trkpt>
      <trkpt lat="46.76826" lon="5.46462">
        <ele>259.2</ele>
        <time>2012-10-31T12:53:32.000Z</time>
      </trkpt>
      <trkpt lat="46.7683" lon="5.46463">
        <ele>259.1</ele>
        <time>2012-10-31T12:53:38.000Z</time>
      </trkpt>
      <trkpt lat="46.76832" lon="5.46464">
        <ele>258.7</ele>
        <time>2012-10-31T12:53:39.000Z</time>
      </trkpt>
      <trkpt lat="46.76835" lon="5.46465">
        <ele>258.7</ele>
        <time>2012-10-31T12:53:42.000Z</time>
      </trkpt>
      <trkpt lat="46.76836" lon="5.46465">
        <ele>258.8</ele>
        <time>2012-10-31T12:53:43.000Z</time>
      </trkpt>
      <trkpt lat="46.7684" lon="5.46466">
        <ele>257.8</ele>
        <time>2012-10-31T12:53:47.000Z</time>
      </trkpt>
      <trkpt lat="46.76841" lon="5.46467">
        <ele>257.5</ele>
        <time>2012-10-31T12:53:48.000Z</time>
      </trkpt>
      <trkpt lat="46.76844" lon="5.46469">
        <ele>257.3</ele>
        <time>2012-10-31T12:54:02.000Z</time>
      </trkpt>
      <trkpt lat="46.7685" lon="5.46468">
        <ele>257.5</ele>
        <time>2012-10-31T12:54:03.000Z</time>
      </trkpt>
      <trkpt lat="46.76854" lon="5.46466">
        <ele>257.6</ele>
        <time>2012-10-31T12:54:04.000Z</time>
      </trkpt>
      <trkpt lat="46.76856" lon="5.46465">
        <ele>257.8</ele>
        <time>2012-10-31T12:54:05.000Z</time>
      </trkpt>
      <trkpt lat="46.76859" lon="5.46463">
        <ele>257.8</ele>
        <time>2012-10-31T12:54:06.000Z</time>
      </trkpt>
      <trkpt lat="46.7686" lon="5.46462">
        <ele>257.8</ele>
        <time>2012-10-31T12:54:07.000Z</time>
      </trkpt>
      <trkpt lat="46.76864" lon="5.4646">
        <ele>257.8</ele>
        <time>2012-10-31T12:54:14.000Z</time>
      </trkpt>
      <trkpt lat="46.76868" lon="5.46461">
        <ele>258.6</ele>
        <time>2012-10-31T12:54:15.000Z</time>
      </trkpt>
      <trkpt lat="46.76871" lon="5.46463">
        <ele>258.6</ele>
        <time>2012-10-31T12:54:16.000Z</time>
      </trkpt>
      <trkpt lat="46.76873" lon="5.46463">
        <ele>258.6</ele>
        <time>2012-10-31T12:54:17.000Z</time>
      </trkpt>
      <trkpt lat="46.76876" lon="5.46465">
        <ele>258.5</ele>
        <time>2012-10-31T12:54:18.000Z</time>
      </trkpt>
      <trkpt lat="46.76877" lon="5.46467">
        <ele>258.5</ele>
        <time>2012-10-31T12:54:19.000Z</time>
      </trkpt>
      <trkpt lat="46.7688" lon="5.46468">
        <ele>258.4</ele>
        <time>2012-10-31T12:54:21.000Z</time>
      </trkpt>
      <trkpt lat="46.76882" lon="5.4647">
        <ele>258.3</ele>
        <time>2012-10-31T12:54:22.000Z</time>
      </trkpt>
      <trkpt lat="46.76883" lon="5.46474">
        <ele>258.5</ele>
        <time>2012-10-31T12:54:24.000Z</time>
      </trkpt>
      <trkpt lat="46.76884" lon="5.46476">
        <ele>258.5</ele>
        <time>2012-10-31T12:54:25.000Z</time>
      </trkpt>
      <trkpt lat="46.76885" lon="5.46481">
        <ele>258.4</ele>
        <time>2012-10-31T12:54:29.000Z</time>
      </trkpt>
      <trkpt lat="46.76886" lon="5.46482">
        <ele>258.3</ele>
        <time>2012-10-31T12:54:30.000Z</time>
      </trkpt>
      <trkpt lat="46.7689" lon="5.46484">
        <ele>258.2</ele>
        <time>2012-10-31T12:54:33.000Z</time>
      </trkpt>
      <trkpt lat="46.76892" lon="5.46484">
        <ele>258.2</ele>
        <time>2012-10-31T12:54:34.000Z</time>
      </trkpt>
      <trkpt lat="46.76896" lon="5.46486">
        <ele>258.2</ele>
        <time>2012-10-31T12:54:38.000Z</time>
      </trkpt>
      <trkpt lat="46.76897" lon="5.46486">
        <ele>258.2</ele>
        <time>2012-10-31T12:54:39.000Z</time>
      </trkpt>
      <trkpt lat="46.76899" lon="5.46491">
        <ele>258</ele>
        <time>2012-10-31T12:54:43.000Z</time>
      </trkpt>
      <trkpt lat="46.76898" lon="5.46493">
        <ele>258.2</ele>
        <time>2012-10-31T12:54:44.000Z</time>
      </trkpt>
      <trkpt lat="46.76899" lon="5.46499">
        <ele>259.2</ele>
        <time>2012-10-31T12:54:48.000Z</time>
      </trkpt>
      <trkpt lat="46.76899" lon="5.465">
        <ele>259.2</ele>
        <time>2012-10-31T12:54:49.000Z</time>
      </trkpt>
      <trkpt lat="46.76901" lon="5.46503">
        <ele>259.8</ele>
        <time>2012-10-31T12:54:54.000Z</time>
      </trkpt>
      <trkpt lat="46.76903" lon="5.46504">
        <ele>259.9</ele>
        <time>2012-10-31T12:54:55.000Z</time>
      </trkpt>
      <trkpt lat="46.76905" lon="5.46505">
        <ele>260.2</ele>
        <time>2012-10-31T12:54:57.000Z</time>
      </trkpt>
      <trkpt lat="46.76908" lon="5.46506">
        <ele>260.3</ele>
        <time>2012-10-31T12:54:58.000Z</time>
      </trkpt>
      <trkpt lat="46.7691" lon="5.46508">
        <ele>257.4</ele>
        <time>2012-10-31T12:54:59.000Z</time>
      </trkpt>
      <trkpt lat="46.76913" lon="5.46511">
        <ele>256.3</ele>
        <time>2012-10-31T12:55:00.000Z</time>
      </trkpt>
      <trkpt lat="46.76915" lon="5.46513">
        <ele>255.6</ele>
        <time>2012-10-31T12:55:01.000Z</time>
      </trkpt>
      <trkpt lat="46.76918" lon="5.46515">
        <ele>255.2</ele>
        <time>2012-10-31T12:55:02.000Z</time>
      </trkpt>
      <trkpt lat="46.7692" lon="5.46517">
        <ele>255</ele>
        <time>2012-10-31T12:55:03.000Z</time>
      </trkpt>
      <trkpt lat="46.76922" lon="5.46519">
        <ele>254.8</ele>
        <time>2012-10-31T12:55:04.000Z</time>
      </trkpt>
      <trkpt lat="46.76925" lon="5.46523">
        <ele>254.9</ele>
        <time>2012-10-31T12:55:06.000Z</time>
      </trkpt>
      <trkpt lat="46.76926" lon="5.46524">
        <ele>255</ele>
        <time>2012-10-31T12:55:07.000Z</time>
      </trkpt>
      <trkpt lat="46.76929" lon="5.46528">
        <ele>255.7</ele>
        <time>2012-10-31T12:55:09.000Z</time>
      </trkpt>
      <trkpt lat="46.7693" lon="5.4653">
        <ele>256.3</ele>
        <time>2012-10-31T12:55:10.000Z</time>
      </trkpt>
      <trkpt lat="46.76934" lon="5.46531">
        <ele>256.6</ele>
        <time>2012-10-31T12:55:14.000Z</time>
      </trkpt>
      <trkpt lat="46.76935" lon="5.4653">
        <ele>255.9</ele>
        <time>2012-10-31T12:55:15.000Z</time>
      </trkpt>
      <trkpt lat="46.76936" lon="5.46524">
        <ele>254.6</ele>
        <time>2012-10-31T12:55:18.000Z</time>
      </trkpt>
      <trkpt lat="46.76937" lon="5.46522">
        <ele>253.9</ele>
        <time>2012-10-31T12:55:19.000Z</time>
      </trkpt>
      <trkpt lat="46.76936" lon="5.46515">
        <ele>253.5</ele>
        <time>2012-10-31T12:55:22.000Z</time>
      </trkpt>
      <trkpt lat="46.76936" lon="5.46514">
        <ele>253.4</ele>
        <time>2012-10-31T12:55:23.000Z</time>
      </trkpt>
      <trkpt lat="46.76935" lon="5.46508">
        <ele>253.3</ele>
        <time>2012-10-31T12:55:26.000Z</time>
      </trkpt>
      <trkpt lat="46.76935" lon="5.46506">
        <ele>253.4</ele>
        <time>2012-10-31T12:55:27.000Z</time>
      </trkpt>
      <trkpt lat="46.76934" lon="5.46501">
        <ele>252.9</ele>
        <time>2012-10-31T12:55:31.000Z</time>
      </trkpt>
      <trkpt lat="46.76934" lon="5.46499">
        <ele>252.7</ele>
        <time>2012-10-31T12:55:32.000Z</time>
      </trkpt>
      <trkpt lat="46.76937" lon="5.46496">
        <ele>250.3</ele>
        <time>2012-10-31T12:55:36.000Z</time>
      </trkpt>
      <trkpt lat="46.76938" lon="5.46495">
        <ele>249.8</ele>
        <time>2012-10-31T12:55:37.000Z</time>
      </trkpt>
      <trkpt lat="46.76941" lon="5.46491">
        <ele>249.5</ele>
        <time>2012-10-31T12:55:41.000Z</time>
      </trkpt>
      <trkpt lat="46.76942" lon="5.46489">
        <ele>249.6</ele>
        <time>2012-10-31T12:55:42.000Z</time>
      </trkpt>
      <trkpt lat="46.76943" lon="5.46483">
        <ele>249.8</ele>
        <time>2012-10-31T12:55:49.000Z</time>
      </trkpt>
      <trkpt lat="46.76943" lon="5.46482">
        <ele>249.8</ele>
        <time>2012-10-31T12:55:50.000Z</time>
      </trkpt>
      <trkpt lat="46.76946" lon="5.46478">
        <ele>250.8</ele>
        <time>2012-10-31T12:55:52.000Z</time>
      </trkpt>
      <trkpt lat="46.76947" lon="5.46477">
        <ele>250.8</ele>
        <time>2012-10-31T12:55:53.000Z</time>
      </trkpt>
      <trkpt lat="46.76949" lon="5.46474">
        <ele>250.8</ele>
        <time>2012-10-31T12:55:55.000Z</time>
      </trkpt>
      <trkpt lat="46.76951" lon="5.46473">
        <ele>250.6</ele>
        <time>2012-10-31T12:55:56.000Z</time>
      </trkpt>
      <trkpt lat="46.76954" lon="5.46471">
        <ele>250.2</ele>
        <time>2012-10-31T12:55:58.000Z</time>
      </trkpt>
      <trkpt lat="46.76955" lon="5.4647">
        <ele>250.3</ele>
        <time>2012-10-31T12:55:59.000Z</time>
      </trkpt>
      <trkpt lat="46.76958" lon="5.46467">
        <ele>250.3</ele>
        <time>2012-10-31T12:56:02.000Z</time>
      </trkpt>
      <trkpt lat="46.76959" lon="5.46467">
        <ele>250.5</ele>
        <time>2012-10-31T12:56:03.000Z</time>
      </trkpt>
      <trkpt lat="46.76962" lon="5.46463">
        <ele>250.4</ele>
        <time>2012-10-31T12:56:07.000Z</time>
      </trkpt>
      <trkpt lat="46.76963" lon="5.46462">
        <ele>250.5</ele>
        <time>2012-10-31T12:56:08.000Z</time>
      </trkpt>
      <trkpt lat="46.76966" lon="5.46459">
        <ele>250.1</ele>
        <time>2012-10-31T12:56:11.000Z</time>
      </trkpt>
      <trkpt lat="46.76968" lon="5.46457">
        <ele>250.3</ele>
        <time>2012-10-31T12:56:12.000Z</time>
      </trkpt>
      <trkpt lat="46.7697" lon="5.46454">
        <ele>250.9</ele>
        <time>2012-10-31T12:56:14.000Z</time>
      </trkpt>
      <trkpt lat="46.76971" lon="5.46453">
        <ele>250.9</ele>
        <time>2012-10-31T12:56:15.000Z</time>
      </trkpt>
      <trkpt lat="46.76974" lon="5.46449">
        <ele>251.2</ele>
        <time>2012-10-31T12:56:18.000Z</time>
      </trkpt>
      <trkpt lat="46.76974" lon="5.46447">
        <ele>251.3</ele>
        <time>2012-10-31T12:56:19.000Z</time>
      </trkpt>
      <trkpt lat="46.76977" lon="5.46444">
        <ele>251.9</ele>
        <time>2012-10-31T12:56:22.000Z</time>
      </trkpt>
      <trkpt lat="46.76978" lon="5.46443">
        <ele>252</ele>
        <time>2012-10-31T12:56:23.000Z</time>
      </trkpt>
      <trkpt lat="46.76981" lon="5.46438">
        <ele>252.4</ele>
        <time>2012-10-31T12:56:27.000Z</time>
      </trkpt>
      <trkpt lat="46.76982" lon="5.46437">
        <ele>252.4</ele>
        <time>2012-10-31T12:56:28.000Z</time>
      </trkpt>
      <trkpt lat="46.76985" lon="5.46433">
        <ele>252.2</ele>
        <time>2012-10-31T12:56:31.000Z</time>
      </trkpt>
      <trkpt lat="46.76986" lon="5.46432">
        <ele>252.3</ele>
        <time>2012-10-31T12:56:32.000Z</time>
      </trkpt>
      <trkpt lat="46.76989" lon="5.46428">
        <ele>253.3</ele>
        <time>2012-10-31T12:56:36.000Z</time>
      </trkpt>
      <trkpt lat="46.76989" lon="5.46427">
        <ele>253.5</ele>
        <time>2012-10-31T12:56:37.000Z</time>
      </trkpt>
      <trkpt lat="46.76991" lon="5.46422">
        <ele>253.8</ele>
        <time>2012-10-31T12:56:41.000Z</time>
      </trkpt>
      <trkpt lat="46.76992" lon="5.4642">
        <ele>253.7</ele>
        <time>2012-10-31T12:56:42.000Z</time>
      </trkpt>
      <trkpt lat="46.76994" lon="5.46415">
        <ele>253.8</ele>
        <time>2012-10-31T12:56:46.000Z</time>
      </trkpt>
      <trkpt lat="46.76995" lon="5.46414">
        <ele>253.6</ele>
        <time>2012-10-31T12:56:47.000Z</time>
      </trkpt>
      <trkpt lat="46.76998" lon="5.46411">
        <ele>253.9</ele>
        <time>2012-10-31T12:56:50.000Z</time>
      </trkpt>
      <trkpt lat="46.76999" lon="5.4641">
        <ele>254.1</ele>
        <time>2012-10-31T12:56:51.000Z</time>
      </trkpt>
      <trkpt lat="46.77002" lon="5.46405">
        <ele>254.9</ele>
        <time>2012-10-31T12:56:55.000Z</time>
      </trkpt>
      <trkpt lat="46.77002" lon="5.46404">
        <ele>254.9</ele>
        <time>2012-10-31T12:56:56.000Z</time>
      </trkpt>
      <trkpt lat="46.77005" lon="5.46399">
        <ele>255.3</ele>
        <time>2012-10-31T12:57:00.000Z</time>
      </trkpt>
      <trkpt lat="46.77006" lon="5.46398">
        <ele>255.5</ele>
        <time>2012-10-31T12:57:01.000Z</time>
      </trkpt>
      <trkpt lat="46.77008" lon="5.46394">
        <ele>255.5</ele>
        <time>2012-10-31T12:57:04.000Z</time>
      </trkpt>
      <trkpt lat="46.77009" lon="5.46393">
        <ele>255.7</ele>
        <time>2012-10-31T12:57:05.000Z</time>
      </trkpt>
      <trkpt lat="46.77011" lon="5.46389">
        <ele>255.7</ele>
        <time>2012-10-31T12:57:08.000Z</time>
      </trkpt>
      <trkpt lat="46.77012" lon="5.46388">
        <ele>255.9</ele>
        <time>2012-10-31T12:57:09.000Z</time>
      </trkpt>
      <trkpt lat="46.77014" lon="5.46384">
        <ele>256.2</ele>
        <time>2012-10-31T12:57:12.000Z</time>
      </trkpt>
      <trkpt lat="46.77015" lon="5.46382">
        <ele>256.3</ele>
        <time>2012-10-31T12:57:13.000Z</time>
      </trkpt>
      <trkpt lat="46.77017" lon="5.46378">
        <ele>256.8</ele>
        <time>2012-10-31T12:57:17.000Z</time>
      </trkpt>
      <trkpt lat="46.77018" lon="5.46377">
        <ele>256.8</ele>
        <time>2012-10-31T12:57:18.000Z</time>
      </trkpt>
      <trkpt lat="46.7702" lon="5.46373">
        <ele>257.5</ele>
        <time>2012-10-31T12:57:21.000Z</time>
      </trkpt>
      <trkpt lat="46.77021" lon="5.46372">
        <ele>257.6</ele>
        <time>2012-10-31T12:57:22.000Z</time>
      </trkpt>
      <trkpt lat="46.77023" lon="5.46368">
        <ele>258.1</ele>
        <time>2012-10-31T12:57:25.000Z</time>
      </trkpt>
      <trkpt lat="46.77024" lon="5.46366">
        <ele>258.4</ele>
        <time>2012-10-31T12:57:26.000Z</time>
      </trkpt>
      <trkpt lat="46.77026" lon="5.46361">
        <ele>259.3</ele>
        <time>2012-10-31T12:57:29.000Z</time>
      </trkpt>
      <trkpt lat="46.77026" lon="5.4636">
        <ele>259.1</ele>
        <time>2012-10-31T12:57:30.000Z</time>
      </trkpt>
      <trkpt lat="46.77029" lon="5.46356">
        <ele>258.9</ele>
        <time>2012-10-31T12:57:33.000Z</time>
      </trkpt>
      <trkpt lat="46.7703" lon="5.46354">
        <ele>259.1</ele>
        <time>2012-10-31T12:57:34.000Z</time>
      </trkpt>
      <trkpt lat="46.77033" lon="5.4635">
        <ele>259.2</ele>
        <time>2012-10-31T12:57:37.000Z</time>
      </trkpt>
      <trkpt lat="46.77034" lon="5.46349">
        <ele>259.4</ele>
        <time>2012-10-31T12:57:38.000Z</time>
      </trkpt>
      <trkpt lat="46.77036" lon="5.46345">
        <ele>259.8</ele>
        <time>2012-10-31T12:57:41.000Z</time>
      </trkpt>
      <trkpt lat="46.77037" lon="5.46343">
        <ele>259.8</ele>
        <time>2012-10-31T12:57:42.000Z</time>
      </trkpt>
      <trkpt lat="46.77039" lon="5.46339">
        <ele>259.8</ele>
        <time>2012-10-31T12:57:45.000Z</time>
      </trkpt>
      <trkpt lat="46.7704" lon="5.46338">
        <ele>259.9</ele>
        <time>2012-10-31T12:57:46.000Z</time>
      </trkpt>
      <trkpt lat="46.77043" lon="5.46333">
        <ele>260</ele>
        <time>2012-10-31T12:57:50.000Z</time>
      </trkpt>
      <trkpt lat="46.77044" lon="5.46332">
        <ele>260</ele>
        <time>2012-10-31T12:57:51.000Z</time>
      </trkpt>
      <trkpt lat="46.77047" lon="5.46327">
        <ele>260.1</ele>
        <time>2012-10-31T12:57:55.000Z</time>
      </trkpt>
      <trkpt lat="46.77047" lon="5.46326">
        <ele>260.3</ele>
        <time>2012-10-31T12:57:56.000Z</time>
      </trkpt>
      <trkpt lat="46.7705" lon="5.46321">
        <ele>260.8</ele>
        <time>2012-10-31T12:58:00.000Z</time>
      </trkpt>
      <trkpt lat="46.77051" lon="5.46319">
        <ele>261</ele>
        <time>2012-10-31T12:58:01.000Z</time>
      </trkpt>
      <trkpt lat="46.77052" lon="5.46315">
        <ele>262.6</ele>
        <time>2012-10-31T12:58:04.000Z</time>
      </trkpt>
      <trkpt lat="46.77053" lon="5.46314">
        <ele>262.7</ele>
        <time>2012-10-31T12:58:05.000Z</time>
      </trkpt>
      <trkpt lat="46.77055" lon="5.46308">
        <ele>262.7</ele>
        <time>2012-10-31T12:58:09.000Z</time>
      </trkpt>
      <trkpt lat="46.77056" lon="5.46307">
        <ele>262.7</ele>
        <time>2012-10-31T12:58:10.000Z</time>
      </trkpt>
      <trkpt lat="46.77058" lon="5.46302">
        <ele>263.2</ele>
        <time>2012-10-31T12:58:13.000Z</time>
      </trkpt>
      <trkpt lat="46.77058" lon="5.46301">
        <ele>263.5</ele>
        <time>2012-10-31T12:58:14.000Z</time>
      </trkpt>
      <trkpt lat="46.77061" lon="5.46297">
        <ele>262.7</ele>
        <time>2012-10-31T12:58:17.000Z</time>
      </trkpt>
      <trkpt lat="46.77061" lon="5.46295">
        <ele>262.6</ele>
        <time>2012-10-31T12:58:18.000Z</time>
      </trkpt>
      <trkpt lat="46.77063" lon="5.46291">
        <ele>261.8</ele>
        <time>2012-10-31T12:58:21.000Z</time>
      </trkpt>
      <trkpt lat="46.77064" lon="5.4629">
        <ele>261.6</ele>
        <time>2012-10-31T12:58:22.000Z</time>
      </trkpt>
      <trkpt lat="46.77065" lon="5.46285">
        <ele>261.8</ele>
        <time>2012-10-31T12:58:25.000Z</time>
      </trkpt>
      <trkpt lat="46.77066" lon="5.46283">
        <ele>262</ele>
        <time>2012-10-31T12:58:26.000Z</time>
      </trkpt>
      <trkpt lat="46.77067" lon="5.46278">
        <ele>262.6</ele>
        <time>2012-10-31T12:58:29.000Z</time>
      </trkpt>
      <trkpt lat="46.77067" lon="5.46276">
        <ele>262.8</ele>
        <time>2012-10-31T12:58:30.000Z</time>
      </trkpt>
      <trkpt lat="46.77068" lon="5.46271">
        <ele>263</ele>
        <time>2012-10-31T12:58:33.000Z</time>
      </trkpt>
      <trkpt lat="46.77069" lon="5.4627">
        <ele>263.3</ele>
        <time>2012-10-31T12:58:34.000Z</time>
      </trkpt>
      <trkpt lat="46.7707" lon="5.46264">
        <ele>263.2</ele>
        <time>2012-10-31T12:58:38.000Z</time>
      </trkpt>
      <trkpt lat="46.77071" lon="5.46262">
        <ele>263.3</ele>
        <time>2012-10-31T12:58:39.000Z</time>
      </trkpt>
      <trkpt lat="46.77073" lon="5.46258">
        <ele>263.4</ele>
        <time>2012-10-31T12:58:42.000Z</time>
      </trkpt>
      <trkpt lat="46.77073" lon="5.46256">
        <ele>263.3</ele>
        <time>2012-10-31T12:58:43.000Z</time>
      </trkpt>
      <trkpt lat="46.77075" lon="5.46251">
        <ele>262.3</ele>
        <time>2012-10-31T12:58:47.000Z</time>
      </trkpt>
      <trkpt lat="46.77076" lon="5.4625">
        <ele>262.2</ele>
        <time>2012-10-31T12:58:48.000Z</time>
      </trkpt>
      <trkpt lat="46.77077" lon="5.46244">
        <ele>263.1</ele>
        <time>2012-10-31T12:58:52.000Z</time>
      </trkpt>
      <trkpt lat="46.77077" lon="5.46242">
        <ele>263.2</ele>
        <time>2012-10-31T12:58:53.000Z</time>
      </trkpt>
      <trkpt lat="46.77078" lon="5.46236">
        <ele>264.1</ele>
        <time>2012-10-31T12:58:57.000Z</time>
      </trkpt>
      <trkpt lat="46.77079" lon="5.46235">
        <ele>264.3</ele>
        <time>2012-10-31T12:58:58.000Z</time>
      </trkpt>
      <trkpt lat="46.7708" lon="5.46229">
        <ele>265.5</ele>
        <time>2012-10-31T12:59:02.000Z</time>
      </trkpt>
      <trkpt lat="46.7708" lon="5.46227">
        <ele>265.7</ele>
        <time>2012-10-31T12:59:03.000Z</time>
      </trkpt>
      <trkpt lat="46.77081" lon="5.46221">
        <ele>266.6</ele>
        <time>2012-10-31T12:59:06.000Z</time>
      </trkpt>
      <trkpt lat="46.77081" lon="5.4622">
        <ele>266.4</ele>
        <time>2012-10-31T12:59:07.000Z</time>
      </trkpt>
      <trkpt lat="46.77083" lon="5.46215">
        <ele>266.3</ele>
        <time>2012-10-31T12:59:10.000Z</time>
      </trkpt>
      <trkpt lat="46.77083" lon="5.46213">
        <ele>266.2</ele>
        <time>2012-10-31T12:59:11.000Z</time>
      </trkpt>
      <trkpt lat="46.77085" lon="5.46207">
        <ele>266.6</ele>
        <time>2012-10-31T12:59:15.000Z</time>
      </trkpt>
      <trkpt lat="46.77085" lon="5.46206">
        <ele>267</ele>
        <time>2012-10-31T12:59:16.000Z</time>
      </trkpt>
      <trkpt lat="46.77085" lon="5.46199">
        <ele>266.8</ele>
        <time>2012-10-31T12:59:20.000Z</time>
      </trkpt>
      <trkpt lat="46.77086" lon="5.46198">
        <ele>266.4</ele>
        <time>2012-10-31T12:59:21.000Z</time>
      </trkpt>
      <trkpt lat="46.77087" lon="5.46192">
        <ele>266.6</ele>
        <time>2012-10-31T12:59:25.000Z</time>
      </trkpt>
      <trkpt lat="46.77087" lon="5.46191">
        <ele>266.5</ele>
        <time>2012-10-31T12:59:26.000Z</time>
      </trkpt>
      <trkpt lat="46.77089" lon="5.46186">
        <ele>265.9</ele>
        <time>2012-10-31T12:59:30.000Z</time>
      </trkpt>
      <trkpt lat="46.77089" lon="5.46184">
        <ele>265.8</ele>
        <time>2012-10-31T12:59:31.000Z</time>
      </trkpt>
      <trkpt lat="46.77089" lon="5.46179">
        <ele>266.7</ele>
        <time>2012-10-31T12:59:34.000Z</time>
      </trkpt>
      <trkpt lat="46.77089" lon="5.46178">
        <ele>266.8</ele>
        <time>2012-10-31T12:59:35.000Z</time>
      </trkpt>
      <trkpt lat="46.7709" lon="5.46172">
        <ele>267.3</ele>
        <time>2012-10-31T12:59:38.000Z</time>
      </trkpt>
      <trkpt lat="46.7709" lon="5.4617">
        <ele>267.7</ele>
        <time>2012-10-31T12:59:39.000Z</time>
      </trkpt>
      <trkpt lat="46.77091" lon="5.46165">
        <ele>268.3</ele>
        <time>2012-10-31T12:59:42.000Z</time>
      </trkpt>
      <trkpt lat="46.77091" lon="5.46163">
        <ele>268.4</ele>
        <time>2012-10-31T12:59:43.000Z</time>
      </trkpt>
      <trkpt lat="46.77092" lon="5.46157">
        <ele>270.6</ele>
        <time>2012-10-31T12:59:46.000Z</time>
      </trkpt>
      <trkpt lat="46.77092" lon="5.46155">
        <ele>270.6</ele>
        <time>2012-10-31T12:59:47.000Z</time>
      </trkpt>
      <trkpt lat="46.77093" lon="5.46149">
        <ele>271.1</ele>
        <time>2012-10-31T12:59:50.000Z</time>
      </trkpt>
      <trkpt lat="46.77093" lon="5.46147">
        <ele>271.6</ele>
        <time>2012-10-31T12:59:51.000Z</time>
      </trkpt>
      <trkpt lat="46.77094" lon="5.46142">
        <ele>273.3</ele>
        <time>2012-10-31T12:59:54.000Z</time>
      </trkpt>
      <trkpt lat="46.77094" lon="5.4614">
        <ele>273.8</ele>
        <time>2012-10-31T12:59:55.000Z</time>
      </trkpt>
      <trkpt lat="46.77096" lon="5.46135">
        <ele>274.3</ele>
        <time>2012-10-31T12:59:58.000Z</time>
      </trkpt>
      <trkpt lat="46.77096" lon="5.46134">
        <ele>274.3</ele>
        <time>2012-10-31T12:59:59.000Z</time>
      </trkpt>
      <trkpt lat="46.77098" lon="5.46129">
        <ele>275</ele>
        <time>2012-10-31T13:00:02.000Z</time>
      </trkpt>
      <trkpt lat="46.77098" lon="5.46128">
        <ele>275.5</ele>
        <time>2012-10-31T13:00:03.000Z</time>
      </trkpt>
      <trkpt lat="46.771" lon="5.46123">
        <ele>275.4</ele>
        <time>2012-10-31T13:00:06.000Z</time>
      </trkpt>
      <trkpt lat="46.77101" lon="5.46122">
        <ele>275.2</ele>
        <time>2012-10-31T13:00:07.000Z</time>
      </trkpt>
      <trkpt lat="46.77105" lon="5.46122">
        <ele>272.4</ele>
        <time>2012-10-31T13:00:10.000Z</time>
      </trkpt>
      <trkpt lat="46.77106" lon="5.46123">
        <ele>271.7</ele>
        <time>2012-10-31T13:00:11.000Z</time>
      </trkpt>
      <trkpt lat="46.77109" lon="5.46125">
        <ele>270.4</ele>
        <time>2012-10-31T13:00:13.000Z</time>
      </trkpt>
      <trkpt lat="46.7711" lon="5.46126">
        <ele>269.9</ele>
        <time>2012-10-31T13:00:14.000Z</time>
      </trkpt>
      <trkpt lat="46.77112" lon="5.46127">
        <ele>269.4</ele>
        <time>2012-10-31T13:00:15.000Z</time>
      </trkpt>
      <trkpt lat="46.77153" lon="5.4613">
        <ele>268.8</ele>
        <time>2012-10-31T13:00:24.000Z</time>
      </trkpt>
      <trkpt lat="46.77157" lon="5.4613">
        <ele>267.5</ele>
        <time>2012-10-31T13:00:27.000Z</time>
      </trkpt>
      <trkpt lat="46.77158" lon="5.46131">
        <ele>266</ele>
        <time>2012-10-31T13:00:28.000Z</time>
      </trkpt>
      <trkpt lat="46.77162" lon="5.46134">
        <ele>264.8</ele>
        <time>2012-10-31T13:00:32.000Z</time>
      </trkpt>
      <trkpt lat="46.77163" lon="5.46134">
        <ele>264.2</ele>
        <time>2012-10-31T13:00:33.000Z</time>
      </trkpt>
      <trkpt lat="46.77166" lon="5.46137">
        <ele>262.2</ele>
        <time>2012-10-31T13:00:38.000Z</time>
      </trkpt>
      <trkpt lat="46.77167" lon="5.46137">
        <ele>262.2</ele>
        <time>2012-10-31T13:00:39.000Z</time>
      </trkpt>
      <trkpt lat="46.77171" lon="5.46137">
        <ele>262.6</ele>
        <time>2012-10-31T13:00:43.000Z</time>
      </trkpt>
      <trkpt lat="46.77172" lon="5.46137">
        <ele>262.7</ele>
        <time>2012-10-31T13:00:44.000Z</time>
      </trkpt>
      <trkpt lat="46.77176" lon="5.46139">
        <ele>260.6</ele>
        <time>2012-10-31T13:00:54.000Z</time>
      </trkpt>
      <trkpt lat="46.77176" lon="5.4614">
        <ele>260.9</ele>
        <time>2012-10-31T13:00:55.000Z</time>
      </trkpt>
      <trkpt lat="46.77181" lon="5.46141">
        <ele>262.5</ele>
        <time>2012-10-31T13:01:00.000Z</time>
      </trkpt>
      <trkpt lat="46.77182" lon="5.46142">
        <ele>262.5</ele>
        <time>2012-10-31T13:01:01.500Z</time>
      </trkpt>
      <trkpt lat="46.77186" lon="5.46143">
        <ele>265</ele>
        <time>2012-10-31T13:01:06.000Z</time>
      </trkpt>
      <trkpt lat="46.77187" lon="5.46143">
        <ele>265.3</ele>
        <time>2012-10-31T13:01:07.000Z</time>
      </trkpt>
      <trkpt lat="46.7719" lon="5.46146">
        <ele>265.4</ele>
        <time>2012-10-31T13:01:15.000Z</time>
      </trkpt>
      <trkpt lat="46.77192" lon="5.46146">
        <ele>265.3</ele>
        <time>2012-10-31T13:01:16.000Z</time>
      </trkpt>
      <trkpt lat="46.77197" lon="5.46145">
        <ele>263.9</ele>
        <time>2012-10-31T13:01:19.000Z</time>
      </trkpt>
      <trkpt lat="46.77198" lon="5.46145">
        <ele>264</ele>
        <time>2012-10-31T13:01:20.000Z</time>
      </trkpt>
      <trkpt lat="46.77201" lon="5.46144">
        <ele>264.2</ele>
        <time>2012-10-31T13:01:24.000Z</time>
      </trkpt>
      <trkpt lat="46.77202" lon="5.46144">
        <ele>264.2</ele>
        <time>2012-10-31T13:01:25.000Z</time>
      </trkpt>
      <trkpt lat="46.77206" lon="5.46145">
        <ele>264.5</ele>
        <time>2012-10-31T13:01:29.000Z</time>
      </trkpt>
      <trkpt lat="46.77207" lon="5.46145">
        <ele>264.6</ele>
        <time>2012-10-31T13:01:30.000Z</time>
      </trkpt>
      <trkpt lat="46.77211" lon="5.46147">
        <ele>264.9</ele>
        <time>2012-10-31T13:01:35.000Z</time>
      </trkpt>
      <trkpt lat="46.77212" lon="5.46147">
        <ele>265.1</ele>
        <time>2012-10-31T13:01:36.000Z</time>
      </trkpt>
      <trkpt lat="46.77216" lon="5.46146">
        <ele>265.3</ele>
        <time>2012-10-31T13:01:39.000Z</time>
      </trkpt>
      <trkpt lat="46.77217" lon="5.46146">
        <ele>265</ele>
        <time>2012-10-31T13:01:40.000Z</time>
      </trkpt>
      <trkpt lat="46.77221" lon="5.46148">
        <ele>264.7</ele>
        <time>2012-10-31T13:01:44.000Z</time>
      </trkpt>
      <trkpt lat="46.77221" lon="5.46149">
        <ele>264.8</ele>
        <time>2012-10-31T13:01:45.000Z</time>
      </trkpt>
      <trkpt lat="46.77226" lon="5.46149">
        <ele>264.8</ele>
        <time>2012-10-31T13:01:49.000Z</time>
      </trkpt>
      <trkpt lat="46.77226" lon="5.46149">
        <ele>264.6</ele>
        <time>2012-10-31T13:01:50.000Z</time>
      </trkpt>
      <trkpt lat="46.77231" lon="5.46149">
        <ele>264.8</ele>
        <time>2012-10-31T13:01:54.000Z</time>
      </trkpt>
      <trkpt lat="46.77232" lon="5.46149">
        <ele>265.1</ele>
        <time>2012-10-31T13:01:55.000Z</time>
      </trkpt>
      <trkpt lat="46.77236" lon="5.4615">
        <ele>265.5</ele>
        <time>2012-10-31T13:01:59.000Z</time>
      </trkpt>
      <trkpt lat="46.77237" lon="5.4615">
        <ele>265.4</ele>
        <time>2012-10-31T13:02:00.000Z</time>
      </trkpt>
      <trkpt lat="46.77241" lon="5.4615">
        <ele>265</ele>
        <time>2012-10-31T13:02:04.000Z</time>
      </trkpt>
      <trkpt lat="46.77242" lon="5.4615">
        <ele>264.9</ele>
        <time>2012-10-31T13:02:05.000Z</time>
      </trkpt>
      <trkpt lat="46.77245" lon="5.4615">
        <ele>264.1</ele>
        <time>2012-10-31T13:02:08.000Z</time>
      </trkpt>
      <trkpt lat="46.77247" lon="5.4615">
        <ele>263.8</ele>
        <time>2012-10-31T13:02:09.000Z</time>
      </trkpt>
      <trkpt lat="46.77251" lon="5.4615">
        <ele>263</ele>
        <time>2012-10-31T13:02:13.000Z</time>
      </trkpt>
      <trkpt lat="46.77252" lon="5.4615">
        <ele>262.8</ele>
        <time>2012-10-31T13:02:14.000Z</time>
      </trkpt>
      <trkpt lat="46.77256" lon="5.46152">
        <ele>262.3</ele>
        <time>2012-10-31T13:02:17.000Z</time>
      </trkpt>
      <trkpt lat="46.77257" lon="5.46152">
        <ele>262.4</ele>
        <time>2012-10-31T13:02:18.000Z</time>
      </trkpt>
      <trkpt lat="46.77261" lon="5.46154">
        <ele>262.1</ele>
        <time>2012-10-31T13:02:22.000Z</time>
      </trkpt>
      <trkpt lat="46.77262" lon="5.46155">
        <ele>262.1</ele>
        <time>2012-10-31T13:02:23.000Z</time>
      </trkpt>
      <trkpt lat="46.77265" lon="5.46156">
        <ele>262.1</ele>
        <time>2012-10-31T13:02:26.000Z</time>
      </trkpt>
      <trkpt lat="46.77266" lon="5.46156">
        <ele>262.1</ele>
        <time>2012-10-31T13:02:27.000Z</time>
      </trkpt>
      <trkpt lat="46.7727" lon="5.46156">
        <ele>262</ele>
        <time>2012-10-31T13:02:30.000Z</time>
      </trkpt>
      <trkpt lat="46.77271" lon="5.46156">
        <ele>262.1</ele>
        <time>2012-10-31T13:02:31.000Z</time>
      </trkpt>
      <trkpt lat="46.77275" lon="5.46155">
        <ele>262.4</ele>
        <time>2012-10-31T13:02:33.000Z</time>
      </trkpt>
      <trkpt lat="46.77276" lon="5.46155">
        <ele>262.3</ele>
        <time>2012-10-31T13:02:34.000Z</time>
      </trkpt>
      <trkpt lat="46.7728" lon="5.46154">
        <ele>262.4</ele>
        <time>2012-10-31T13:02:36.000Z</time>
      </trkpt>
      <trkpt lat="46.77281" lon="5.46154">
        <ele>262.5</ele>
        <time>2012-10-31T13:02:37.000Z</time>
      </trkpt>
      <trkpt lat="46.77286" lon="5.46153">
        <ele>262.4</ele>
        <time>2012-10-31T13:02:40.000Z</time>
      </trkpt>
      <trkpt lat="46.77287" lon="5.46153">
        <ele>262.7</ele>
        <time>2012-10-31T13:02:41.000Z</time>
      </trkpt>
      <trkpt lat="46.77291" lon="5.46154">
        <ele>263.2</ele>
        <time>2012-10-31T13:02:45.000Z</time>
      </trkpt>
      <trkpt lat="46.77292" lon="5.46153">
        <ele>263.4</ele>
        <time>2012-10-31T13:02:46.000Z</time>
      </trkpt>
      <trkpt lat="46.77296" lon="5.46153">
        <ele>263.6</ele>
        <time>2012-10-31T13:02:50.000Z</time>
      </trkpt>
      <trkpt lat="46.77298" lon="5.46153">
        <ele>263.6</ele>
        <time>2012-10-31T13:02:51.000Z</time>
      </trkpt>
      <trkpt lat="46.77301" lon="5.46154">
        <ele>263.9</ele>
        <time>2012-10-31T13:02:55.000Z</time>
      </trkpt>
      <trkpt lat="46.77302" lon="5.46154">
        <ele>263.8</ele>
        <time>2012-10-31T13:02:56.000Z</time>
      </trkpt>
      <trkpt lat="46.77306" lon="5.46155">
        <ele>263.3</ele>
        <time>2012-10-31T13:03:00.000Z</time>
      </trkpt>
      <trkpt lat="46.77307" lon="5.46155">
        <ele>263.3</ele>
        <time>2012-10-31T13:03:01.000Z</time>
      </trkpt>
      <trkpt lat="46.77311" lon="5.46156">
        <ele>263.2</ele>
        <time>2012-10-31T13:03:05.000Z</time>
      </trkpt>
      <trkpt lat="46.77312" lon="5.46156">
        <ele>263.2</ele>
        <time>2012-10-31T13:03:06.000Z</time>
      </trkpt>
      <trkpt lat="46.77315" lon="5.46157">
        <ele>263.2</ele>
        <time>2012-10-31T13:03:14.000Z</time>
      </trkpt>
      <trkpt lat="46.77317" lon="5.46157">
        <ele>263.3</ele>
        <time>2012-10-31T13:03:15.000Z</time>
      </trkpt>
      <trkpt lat="46.7732" lon="5.46155">
        <ele>263.1</ele>
        <time>2012-10-31T13:03:17.000Z</time>
      </trkpt>
      <trkpt lat="46.77322" lon="5.46154">
        <ele>263.1</ele>
        <time>2012-10-31T13:03:18.000Z</time>
      </trkpt>
      <trkpt lat="46.77325" lon="5.46152">
        <ele>263.4</ele>
        <time>2012-10-31T13:03:21.000Z</time>
      </trkpt>
      <trkpt lat="46.77326" lon="5.46152">
        <ele>263.5</ele>
        <time>2012-10-31T13:03:22.000Z</time>
      </trkpt>
      <trkpt lat="46.7733" lon="5.46152">
        <ele>263.5</ele>
        <time>2012-10-31T13:03:26.000Z</time>
      </trkpt>
      <trkpt lat="46.77331" lon="5.46152">
        <ele>263.6</ele>
        <time>2012-10-31T13:03:27.000Z</time>
      </trkpt>
      <trkpt lat="46.77335" lon="5.46152">
        <ele>263.4</ele>
        <time>2012-10-31T13:03:31.000Z</time>
      </trkpt>
      <trkpt lat="46.77336" lon="5.46153">
        <ele>263.4</ele>
        <time>2012-10-31T13:03:32.000Z</time>
      </trkpt>
      <trkpt lat="46.7734" lon="5.46155">
        <ele>262.5</ele>
        <time>2012-10-31T13:03:35.000Z</time>
      </trkpt>
      <trkpt lat="46.77341" lon="5.46156">
        <ele>261.9</ele>
        <time>2012-10-31T13:03:36.000Z</time>
      </trkpt>
      <trkpt lat="46.77345" lon="5.46157">
        <ele>262.7</ele>
        <time>2012-10-31T13:03:40.000Z</time>
      </trkpt>
      <trkpt lat="46.77346" lon="5.46157">
        <ele>262.9</ele>
        <time>2012-10-31T13:03:41.000Z</time>
      </trkpt>
      <trkpt lat="46.7735" lon="5.46158">
        <ele>263.3</ele>
        <time>2012-10-31T13:03:45.000Z</time>
      </trkpt>
      <trkpt lat="46.77351" lon="5.46158">
        <ele>263.4</ele>
        <time>2012-10-31T13:03:46.000Z</time>
      </trkpt>
      <trkpt lat="46.77355" lon="5.46157">
        <ele>263.1</ele>
        <time>2012-10-31T13:03:49.000Z</time>
      </trkpt>
      <trkpt lat="46.77356" lon="5.46157">
        <ele>262.8</ele>
        <time>2012-10-31T13:03:50.000Z</time>
      </trkpt>
      <trkpt lat="46.7736" lon="5.46157">
        <ele>262.4</ele>
        <time>2012-10-31T13:03:53.000Z</time>
      </trkpt>
      <trkpt lat="46.77361" lon="5.46157">
        <ele>262.4</ele>
        <time>2012-10-31T13:03:54.000Z</time>
      </trkpt>
      <trkpt lat="46.77365" lon="5.46158">
        <ele>262.4</ele>
        <time>2012-10-31T13:03:57.000Z</time>
      </trkpt>
      <trkpt lat="46.77366" lon="5.46159">
        <ele>262.1</ele>
        <time>2012-10-31T13:03:58.000Z</time>
      </trkpt>
      <trkpt lat="46.7737" lon="5.46159">
        <ele>261.7</ele>
        <time>2012-10-31T13:04:01.000Z</time>
      </trkpt>
      <trkpt lat="46.77371" lon="5.46159">
        <ele>261.6</ele>
        <time>2012-10-31T13:04:02.000Z</time>
      </trkpt>
      <trkpt lat="46.77374" lon="5.46158">
        <ele>261.6</ele>
        <time>2012-10-31T13:04:04.000Z</time>
      </trkpt>
      <trkpt lat="46.77375" lon="5.46158">
        <ele>261.3</ele>
        <time>2012-10-31T13:04:05.000Z</time>
      </trkpt>
      <trkpt lat="46.77379" lon="5.46158">
        <ele>261.2</ele>
        <time>2012-10-31T13:04:08.000Z</time>
      </trkpt>
      <trkpt lat="46.77381" lon="5.46157">
        <ele>261.2</ele>
        <time>2012-10-31T13:04:09.000Z</time>
      </trkpt>
      <trkpt lat="46.77385" lon="5.46158">
        <ele>261.9</ele>
        <time>2012-10-31T13:04:14.000Z</time>
      </trkpt>
      <trkpt lat="46.77386" lon="5.46158">
        <ele>262</ele>
        <time>2012-10-31T13:04:15.000Z</time>
      </trkpt>
      <trkpt lat="46.7739" lon="5.46158">
        <ele>262.1</ele>
        <time>2012-10-31T13:04:20.000Z</time>
      </trkpt>
      <trkpt lat="46.77391" lon="5.46158">
        <ele>262.2</ele>
        <time>2012-10-31T13:04:21.000Z</time>
      </trkpt>
      <trkpt lat="46.77395" lon="5.46159">
        <ele>262.6</ele>
        <time>2012-10-31T13:04:26.000Z</time>
      </trkpt>
      <trkpt lat="46.77396" lon="5.46159">
        <ele>262.5</ele>
        <time>2012-10-31T13:04:27.000Z</time>
      </trkpt>
      <trkpt lat="46.77399" lon="5.46158">
        <ele>262.4</ele>
        <time>2012-10-31T13:04:30.000Z</time>
      </trkpt>
      <trkpt lat="46.77401" lon="5.46158">
        <ele>262.4</ele>
        <time>2012-10-31T13:04:31.000Z</time>
      </trkpt>
      <trkpt lat="46.77405" lon="5.46158">
        <ele>262.5</ele>
        <time>2012-10-31T13:04:34.000Z</time>
      </trkpt>
      <trkpt lat="46.77406" lon="5.46158">
        <ele>262.5</ele>
        <time>2012-10-31T13:04:35.000Z</time>
      </trkpt>
      <trkpt lat="46.7741" lon="5.46158">
        <ele>262.5</ele>
        <time>2012-10-31T13:04:38.000Z</time>
      </trkpt>
      <trkpt lat="46.77411" lon="5.46158">
        <ele>262.4</ele>
        <time>2012-10-31T13:04:39.000Z</time>
      </trkpt>
      <trkpt lat="46.77416" lon="5.46158">
        <ele>262.1</ele>
        <time>2012-10-31T13:04:42.000Z</time>
      </trkpt>
      <trkpt lat="46.77417" lon="5.46158">
        <ele>262.2</ele>
        <time>2012-10-31T13:04:43.000Z</time>
      </trkpt>
      <trkpt lat="46.77421" lon="5.4616">
        <ele>262.1</ele>
        <time>2012-10-31T13:04:46.000Z</time>
      </trkpt>
      <trkpt lat="46.77422" lon="5.4616">
        <ele>262.1</ele>
        <time>2012-10-31T13:04:47.000Z</time>
      </trkpt>
      <trkpt lat="46.77425" lon="5.4616">
        <ele>262.4</ele>
        <time>2012-10-31T13:04:49.000Z</time>
      </trkpt>
      <trkpt lat="46.77427" lon="5.4616">
        <ele>262.5</ele>
        <time>2012-10-31T13:04:50.000Z</time>
      </trkpt>
      <trkpt lat="46.77431" lon="5.4616">
        <ele>262.2</ele>
        <time>2012-10-31T13:04:53.000Z</time>
      </trkpt>
      <trkpt lat="46.77432" lon="5.4616">
        <ele>262.1</ele>
        <time>2012-10-31T13:04:54.000Z</time>
      </trkpt>
      <trkpt lat="46.77435" lon="5.46162">
        <ele>261.9</ele>
        <time>2012-10-31T13:04:58.000Z</time>
      </trkpt>
      <trkpt lat="46.77436" lon="5.46162">
        <ele>261.8</ele>
        <time>2012-10-31T13:04:59.000Z</time>
      </trkpt>
      <trkpt lat="46.7744" lon="5.46162">
        <ele>261.5</ele>
        <time>2012-10-31T13:05:03.000Z</time>
      </trkpt>
      <trkpt lat="46.77441" lon="5.46162">
        <ele>261.2</ele>
        <time>2012-10-31T13:05:04.000Z</time>
      </trkpt>
      <trkpt lat="46.77445" lon="5.46164">
        <ele>260.6</ele>
        <time>2012-10-31T13:05:08.000Z</time>
      </trkpt>
      <trkpt lat="46.77446" lon="5.46164">
        <ele>260.3</ele>
        <time>2012-10-31T13:05:09.000Z</time>
      </trkpt>
      <trkpt lat="46.77449" lon="5.46164">
        <ele>260</ele>
        <time>2012-10-31T13:05:11.000Z</time>
      </trkpt>
      <trkpt lat="46.77451" lon="5.46163">
        <ele>260</ele>
        <time>2012-10-31T13:05:12.000Z</time>
      </trkpt>
      <trkpt lat="46.77455" lon="5.46163">
        <ele>259.4</ele>
        <time>2012-10-31T13:05:15.000Z</time>
      </trkpt>
      <trkpt lat="46.77457" lon="5.46163">
        <ele>259.2</ele>
        <time>2012-10-31T13:05:16.000Z</time>
      </trkpt>
      <trkpt lat="46.77461" lon="5.46163">
        <ele>258.8</ele>
        <time>2012-10-31T13:05:19.000Z</time>
      </trkpt>
      <trkpt lat="46.77463" lon="5.46163">
        <ele>258.9</ele>
        <time>2012-10-31T13:05:20.000Z</time>
      </trkpt>
      <trkpt lat="46.77467" lon="5.46163">
        <ele>259.3</ele>
        <time>2012-10-31T13:05:23.000Z</time>
      </trkpt>
      <trkpt lat="46.77468" lon="5.46162">
        <ele>259.4</ele>
        <time>2012-10-31T13:05:24.000Z</time>
      </trkpt>
      <trkpt lat="46.77472" lon="5.46162">
        <ele>259.5</ele>
        <time>2012-10-31T13:05:27.000Z</time>
      </trkpt>
      <trkpt lat="46.77474" lon="5.46162">
        <ele>259.5</ele>
        <time>2012-10-31T13:05:28.000Z</time>
      </trkpt>
      <trkpt lat="46.77477" lon="5.46162">
        <ele>259.3</ele>
        <time>2012-10-31T13:05:31.000Z</time>
      </trkpt>
      <trkpt lat="46.77478" lon="5.46162">
        <ele>259.2</ele>
        <time>2012-10-31T13:05:32.000Z</time>
      </trkpt>
      <trkpt lat="46.77482" lon="5.46161">
        <ele>259.3</ele>
        <time>2012-10-31T13:05:35.000Z</time>
      </trkpt>
      <trkpt lat="46.77483" lon="5.46161">
        <ele>259.1</ele>
        <time>2012-10-31T13:05:36.000Z</time>
      </trkpt>
      <trkpt lat="46.77487" lon="5.46161">
        <ele>259.8</ele>
        <time>2012-10-31T13:05:39.000Z</time>
      </trkpt>
      <trkpt lat="46.77489" lon="5.46161">
        <ele>259.9</ele>
        <time>2012-10-31T13:05:40.000Z</time>
      </trkpt>
      <trkpt lat="46.77492" lon="5.46161">
        <ele>259.8</ele>
        <time>2012-10-31T13:05:43.000Z</time>
      </trkpt>
      <trkpt lat="46.77493" lon="5.46162">
        <ele>260</ele>
        <time>2012-10-31T13:05:44.000Z</time>
      </trkpt>
      <trkpt lat="46.77497" lon="5.46162">
        <ele>260.2</ele>
        <time>2012-10-31T13:05:48.000Z</time>
      </trkpt>
      <trkpt lat="46.77498" lon="5.46162">
        <ele>260.3</ele>
        <time>2012-10-31T13:05:49.000Z</time>
      </trkpt>
      <trkpt lat="46.77502" lon="5.46163">
        <ele>260.1</ele>
        <time>2012-10-31T13:05:52.000Z</time>
      </trkpt>
      <trkpt lat="46.77503" lon="5.46163">
        <ele>260.2</ele>
        <time>2012-10-31T13:05:53.000Z</time>
      </trkpt>
      <trkpt lat="46.77507" lon="5.46163">
        <ele>260</ele>
        <time>2012-10-31T13:05:56.000Z</time>
      </trkpt>
      <trkpt lat="46.77508" lon="5.46163">
        <ele>260</ele>
        <time>2012-10-31T13:05:57.000Z</time>
      </trkpt>
      <trkpt lat="46.77512" lon="5.46164">
        <ele>259.6</ele>
        <time>2012-10-31T13:06:01.000Z</time>
      </trkpt>
      <trkpt lat="46.77514" lon="5.46164">
        <ele>259.5</ele>
        <time>2012-10-31T13:06:02.000Z</time>
      </trkpt>
      <trkpt lat="46.77517" lon="5.46164">
        <ele>259.3</ele>
        <time>2012-10-31T13:06:06.000Z</time>
      </trkpt>
      <trkpt lat="46.77518" lon="5.46165">
        <ele>259.7</ele>
        <time>2012-10-31T13:06:07.000Z</time>
      </trkpt>
      <trkpt lat="46.77523" lon="5.46166">
        <ele>260.7</ele>
        <time>2012-10-31T13:06:11.000Z</time>
      </trkpt>
      <trkpt lat="46.77524" lon="5.46165">
        <ele>260.9</ele>
        <time>2012-10-31T13:06:12.000Z</time>
      </trkpt>
      <trkpt lat="46.77528" lon="5.46165">
        <ele>261.1</ele>
        <time>2012-10-31T13:06:15.000Z</time>
      </trkpt>
      <trkpt lat="46.77529" lon="5.46165">
        <ele>261</ele>
        <time>2012-10-31T13:06:16.000Z</time>
      </trkpt>
      <trkpt lat="46.77533" lon="5.46164">
        <ele>261.4</ele>
        <time>2012-10-31T13:06:19.000Z</time>
      </trkpt>
      <trkpt lat="46.77534" lon="5.46164">
        <ele>261.5</ele>
        <time>2012-10-31T13:06:20.000Z</time>
      </trkpt>
      <trkpt lat="46.77538" lon="5.46163">
        <ele>261.6</ele>
        <time>2012-10-31T13:06:23.000Z</time>
      </trkpt>
      <trkpt lat="46.77539" lon="5.46163">
        <ele>261.5</ele>
        <time>2012-10-31T13:06:24.000Z</time>
      </trkpt>
      <trkpt lat="46.77543" lon="5.46165">
        <ele>261.8</ele>
        <time>2012-10-31T13:06:29.000Z</time>
      </trkpt>
      <trkpt lat="46.77544" lon="5.46164">
        <ele>261.8</ele>
        <time>2012-10-31T13:06:30.000Z</time>
      </trkpt>
      <trkpt lat="46.77548" lon="5.46163">
        <ele>261.9</ele>
        <time>2012-10-31T13:06:33.000Z</time>
      </trkpt>
      <trkpt lat="46.77549" lon="5.46163">
        <ele>262.1</ele>
        <time>2012-10-31T13:06:34.000Z</time>
      </trkpt>
      <trkpt lat="46.77554" lon="5.46162">
        <ele>262.8</ele>
        <time>2012-10-31T13:06:39.000Z</time>
      </trkpt>
      <trkpt lat="46.77554" lon="5.46162">
        <ele>262.8</ele>
        <time>2012-10-31T13:06:40.000Z</time>
      </trkpt>
      <trkpt lat="46.77558" lon="5.46163">
        <ele>263.6</ele>
        <time>2012-10-31T13:06:46.000Z</time>
      </trkpt>
      <trkpt lat="46.77558" lon="5.46164">
        <ele>263.7</ele>
        <time>2012-10-31T13:06:47.000Z</time>
      </trkpt>
      <trkpt lat="46.77563" lon="5.46163">
        <ele>264.1</ele>
        <time>2012-10-31T13:06:51.000Z</time>
      </trkpt>
      <trkpt lat="46.77564" lon="5.46163">
        <ele>264.1</ele>
        <time>2012-10-31T13:06:52.000Z</time>
      </trkpt>
      <trkpt lat="46.77568" lon="5.46164">
        <ele>263.9</ele>
        <time>2012-10-31T13:06:58.000Z</time>
      </trkpt>
      <trkpt lat="46.77568" lon="5.46165">
        <ele>264</ele>
        <time>2012-10-31T13:06:59.000Z</time>
      </trkpt>
      <trkpt lat="46.77572" lon="5.46168">
        <ele>264.4</ele>
        <time>2012-10-31T13:07:10.000Z</time>
      </trkpt>
      <trkpt lat="46.77572" lon="5.46168">
        <ele>264.4</ele>
        <time>2012-10-31T13:07:11.000Z</time>
      </trkpt>
      <trkpt lat="46.77576" lon="5.46169">
        <ele>263.1</ele>
        <time>2012-10-31T13:07:14.000Z</time>
      </trkpt>
      <trkpt lat="46.77579" lon="5.46169">
        <ele>263.1</ele>
        <time>2012-10-31T13:07:15.000Z</time>
      </trkpt>
      <trkpt lat="46.77581" lon="5.46169">
        <ele>263</ele>
        <time>2012-10-31T13:07:16.000Z</time>
      </trkpt>
      <trkpt lat="46.77583" lon="5.4617">
        <ele>263</ele>
        <time>2012-10-31T13:07:17.000Z</time>
      </trkpt>
      <trkpt lat="46.77588" lon="5.4617">
        <ele>262.9</ele>
        <time>2012-10-31T13:07:21.000Z</time>
      </trkpt>
      <trkpt lat="46.77588" lon="5.4617">
        <ele>262.9</ele>
        <time>2012-10-31T13:07:22.000Z</time>
      </trkpt>
      <trkpt lat="46.77592" lon="5.4617">
        <ele>262.3</ele>
        <time>2012-10-31T13:07:24.000Z</time>
      </trkpt>
      <trkpt lat="46.77594" lon="5.46171">
        <ele>262.2</ele>
        <time>2012-10-31T13:07:25.000Z</time>
      </trkpt>
      <trkpt lat="46.77597" lon="5.46171">
        <ele>261.6</ele>
        <time>2012-10-31T13:07:27.000Z</time>
      </trkpt>
      <trkpt lat="46.77599" lon="5.46171">
        <ele>261.4</ele>
        <time>2012-10-31T13:07:28.000Z</time>
      </trkpt>
      <trkpt lat="46.77602" lon="5.46171">
        <ele>261</ele>
        <time>2012-10-31T13:07:30.000Z</time>
      </trkpt>
      <trkpt lat="46.77604" lon="5.46172">
        <ele>261</ele>
        <time>2012-10-31T13:07:31.000Z</time>
      </trkpt>
      <trkpt lat="46.77608" lon="5.46172">
        <ele>261.4</ele>
        <time>2012-10-31T13:07:34.000Z</time>
      </trkpt>
      <trkpt lat="46.77609" lon="5.46173">
        <ele>261.6</ele>
        <time>2012-10-31T13:07:35.000Z</time>
      </trkpt>
      <trkpt lat="46.77613" lon="5.46174">
        <ele>262.3</ele>
        <time>2012-10-31T13:07:39.000Z</time>
      </trkpt>
      <trkpt lat="46.77614" lon="5.46174">
        <ele>262.6</ele>
        <time>2012-10-31T13:07:40.000Z</time>
      </trkpt>
      <trkpt lat="46.77618" lon="5.46175">
        <ele>262.5</ele>
        <time>2012-10-31T13:07:44.000Z</time>
      </trkpt>
      <trkpt lat="46.77619" lon="5.46174">
        <ele>262.7</ele>
        <time>2012-10-31T13:07:45.000Z</time>
      </trkpt>
      <trkpt lat="46.77623" lon="5.46173">
        <ele>263</ele>
        <time>2012-10-31T13:07:48.000Z</time>
      </trkpt>
      <trkpt lat="46.77624" lon="5.46173">
        <ele>263</ele>
        <time>2012-10-31T13:07:49.000Z</time>
      </trkpt>
      <trkpt lat="46.77627" lon="5.46171">
        <ele>263.2</ele>
        <time>2012-10-31T13:07:52.000Z</time>
      </trkpt>
      <trkpt lat="46.77629" lon="5.46171">
        <ele>262.9</ele>
        <time>2012-10-31T13:07:53.000Z</time>
      </trkpt>
      <trkpt lat="46.77633" lon="5.46173">
        <ele>262.3</ele>
        <time>2012-10-31T13:07:56.000Z</time>
      </trkpt>
      <trkpt lat="46.77634" lon="5.46172">
        <ele>262.2</ele>
        <time>2012-10-31T13:07:57.000Z</time>
      </trkpt>
      <trkpt lat="46.77638" lon="5.46172">
        <ele>262.1</ele>
        <time>2012-10-31T13:07:59.000Z</time>
      </trkpt>
      <trkpt lat="46.77639" lon="5.46172">
        <ele>262.2</ele>
        <time>2012-10-31T13:08:00.000Z</time>
      </trkpt>
      <trkpt lat="46.77642" lon="5.46172">
        <ele>262.3</ele>
        <time>2012-10-31T13:08:02.000Z</time>
      </trkpt>
      <trkpt lat="46.77644" lon="5.46172">
        <ele>262.1</ele>
        <time>2012-10-31T13:08:03.000Z</time>
      </trkpt>
      <trkpt lat="46.77648" lon="5.46173">
        <ele>262.2</ele>
        <time>2012-10-31T13:08:06.000Z</time>
      </trkpt>
      <trkpt lat="46.7765" lon="5.46172">
        <ele>262.1</ele>
        <time>2012-10-31T13:08:07.000Z</time>
      </trkpt>
      <trkpt lat="46.77653" lon="5.46172">
        <ele>262.4</ele>
        <time>2012-10-31T13:08:10.000Z</time>
      </trkpt>
      <trkpt lat="46.77655" lon="5.46172">
        <ele>262.6</ele>
        <time>2012-10-31T13:08:11.000Z</time>
      </trkpt>
      <trkpt lat="46.77659" lon="5.46173">
        <ele>263.5</ele>
        <time>2012-10-31T13:08:15.000Z</time>
      </trkpt>
      <trkpt lat="46.7766" lon="5.46172">
        <ele>263.9</ele>
        <time>2012-10-31T13:08:16.000Z</time>
      </trkpt>
      <trkpt lat="46.77663" lon="5.4617">
        <ele>264.8</ele>
        <time>2012-10-31T13:08:20.000Z</time>
      </trkpt>
      <trkpt lat="46.77664" lon="5.4617">
        <ele>265</ele>
        <time>2012-10-31T13:08:21.000Z</time>
      </trkpt>
      <trkpt lat="46.77668" lon="5.4617">
        <ele>265.6</ele>
        <time>2012-10-31T13:08:26.000Z</time>
      </trkpt>
      <trkpt lat="46.7767" lon="5.4617">
        <ele>265.3</ele>
        <time>2012-10-31T13:08:27.000Z</time>
      </trkpt>
      <trkpt lat="46.77673" lon="5.4617">
        <ele>265.7</ele>
        <time>2012-10-31T13:08:29.000Z</time>
      </trkpt>
      <trkpt lat="46.77675" lon="5.4617">
        <ele>265.7</ele>
        <time>2012-10-31T13:08:30.000Z</time>
      </trkpt>
      <trkpt lat="46.77678" lon="5.46172">
        <ele>266.1</ele>
        <time>2012-10-31T13:08:33.000Z</time>
      </trkpt>
      <trkpt lat="46.77679" lon="5.46172">
        <ele>266</ele>
        <time>2012-10-31T13:08:34.000Z</time>
      </trkpt>
      <trkpt lat="46.77682" lon="5.46175">
        <ele>265.7</ele>
        <time>2012-10-31T13:08:39.000Z</time>
      </trkpt>
      <trkpt lat="46.77684" lon="5.46175">
        <ele>265.8</ele>
        <time>2012-10-31T13:08:40.000Z</time>
      </trkpt>
      <trkpt lat="46.77688" lon="5.46176">
        <ele>266.3</ele>
        <time>2012-10-31T13:08:43.000Z</time>
      </trkpt>
      <trkpt lat="46.77689" lon="5.46176">
        <ele>266.4</ele>
        <time>2012-10-31T13:08:44.000Z</time>
      </trkpt>
      <trkpt lat="46.77693" lon="5.46176">
        <ele>266.6</ele>
        <time>2012-10-31T13:08:47.000Z</time>
      </trkpt>
      <trkpt lat="46.77694" lon="5.46176">
        <ele>266.6</ele>
        <time>2012-10-31T13:08:48.000Z</time>
      </trkpt>
      <trkpt lat="46.77696" lon="5.46176">
        <ele>266.6</ele>
        <time>2012-10-31T13:08:51.000Z</time>
      </trkpt>
      <trkpt lat="46.77699" lon="5.46177">
        <ele>266.8</ele>
        <time>2012-10-31T13:08:52.000Z</time>
      </trkpt>
      <trkpt lat="46.77704" lon="5.46176">
        <ele>267.4</ele>
        <time>2012-10-31T13:08:54.000Z</time>
      </trkpt>
      <trkpt lat="46.77705" lon="5.46176">
        <ele>267.4</ele>
        <time>2012-10-31T13:08:55.000Z</time>
      </trkpt>
      <trkpt lat="46.7771" lon="5.46176">
        <ele>267.6</ele>
        <time>2012-10-31T13:08:58.000Z</time>
      </trkpt>
      <trkpt lat="46.77711" lon="5.46175">
        <ele>267.6</ele>
        <time>2012-10-31T13:08:59.000Z</time>
      </trkpt>
      <trkpt lat="46.77713" lon="5.4617">
        <ele>268.6</ele>
        <time>2012-10-31T13:09:05.000Z</time>
      </trkpt>
      <trkpt lat="46.77713" lon="5.46169">
        <ele>268.9</ele>
        <time>2012-10-31T13:09:06.000Z</time>
      </trkpt>
      <trkpt lat="46.77716" lon="5.46172">
        <ele>268.9</ele>
        <time>2012-10-31T13:09:12.000Z</time>
      </trkpt>
      <trkpt lat="46.77717" lon="5.46173">
        <ele>268.6</ele>
        <time>2012-10-31T13:09:13.000Z</time>
      </trkpt>
      <trkpt lat="46.77721" lon="5.46175">
        <ele>268.7</ele>
        <time>2012-10-31T13:09:15.000Z</time>
      </trkpt>
      <trkpt lat="46.77723" lon="5.46175">
        <ele>268.8</ele>
        <time>2012-10-31T13:09:16.000Z</time>
      </trkpt>
      <trkpt lat="46.77727" lon="5.46176">
        <ele>269</ele>
        <time>2012-10-31T13:09:28.000Z</time>
      </trkpt>
      <trkpt lat="46.77732" lon="5.46177">
        <ele>271</ele>
        <time>2012-10-31T13:09:29.000Z</time>
      </trkpt>
      <trkpt lat="46.77735" lon="5.46177">
        <ele>271.2</ele>
        <time>2012-10-31T13:09:30.000Z</time>
      </trkpt>
      <trkpt lat="46.77737" lon="5.46178">
        <ele>271.5</ele>
        <time>2012-10-31T13:09:31.000Z</time>
      </trkpt>
      <trkpt lat="46.77741" lon="5.46178">
        <ele>271.5</ele>
        <time>2012-10-31T13:09:33.000Z</time>
      </trkpt>
      <trkpt lat="46.77743" lon="5.46178">
        <ele>271.6</ele>
        <time>2012-10-31T13:09:34.000Z</time>
      </trkpt>
      <trkpt lat="46.77747" lon="5.46178">
        <ele>271.6</ele>
        <time>2012-10-31T13:09:40.000Z</time>
      </trkpt>
      <trkpt lat="46.77747" lon="5.46179">
        <ele>271.6</ele>
        <time>2012-10-31T13:09:41.000Z</time>
      </trkpt>
      <trkpt lat="46.77748" lon="5.46178">
        <ele>271.6</ele>
        <time>2012-10-31T13:09:47.000Z</time>
      </trkpt>
      <trkpt lat="46.77754" lon="5.46179">
        <ele>270.8</ele>
        <time>2012-10-31T13:09:48.000Z</time>
      </trkpt>
      <trkpt lat="46.77756" lon="5.4618">
        <ele>271</ele>
        <time>2012-10-31T13:09:49.000Z</time>
      </trkpt>
      <trkpt lat="46.77758" lon="5.46181">
        <ele>271.2</ele>
        <time>2012-10-31T13:09:50.000Z</time>
      </trkpt>
      <trkpt lat="46.77763" lon="5.46181">
        <ele>270.9</ele>
        <time>2012-10-31T13:09:53.000Z</time>
      </trkpt>
      <trkpt lat="46.77764" lon="5.46182">
        <ele>270.9</ele>
        <time>2012-10-31T13:09:54.000Z</time>
      </trkpt>
      <trkpt lat="46.77767" lon="5.46182">
        <ele>270.8</ele>
        <time>2012-10-31T13:09:56.000Z</time>
      </trkpt>
      <trkpt lat="46.77769" lon="5.46182">
        <ele>271</ele>
        <time>2012-10-31T13:09:57.000Z</time>
      </trkpt>
      <trkpt lat="46.77773" lon="5.46182">
        <ele>270.3</ele>
        <time>2012-10-31T13:10:02.000Z</time>
      </trkpt>
      <trkpt lat="46.77773" lon="5.46182">
        <ele>270.3</ele>
        <time>2012-10-31T13:10:03.000Z</time>
      </trkpt>
      <trkpt lat="46.77777" lon="5.46182">
        <ele>270</ele>
        <time>2012-10-31T13:10:07.000Z</time>
      </trkpt>
      <trkpt lat="46.77779" lon="5.46182">
        <ele>269.7</ele>
        <time>2012-10-31T13:10:08.000Z</time>
      </trkpt>
      <trkpt lat="46.77783" lon="5.46183">
        <ele>268.6</ele>
        <time>2012-10-31T13:10:11.000Z</time>
      </trkpt>
      <trkpt lat="46.77784" lon="5.46182">
        <ele>268.4</ele>
        <time>2012-10-31T13:10:12.000Z</time>
      </trkpt>
      <trkpt lat="46.77787" lon="5.46182">
        <ele>268.2</ele>
        <time>2012-10-31T13:10:16.000Z</time>
      </trkpt>
      <trkpt lat="46.77789" lon="5.46183">
        <ele>267.6</ele>
        <time>2012-10-31T13:10:17.000Z</time>
      </trkpt>
      <trkpt lat="46.77793" lon="5.46183">
        <ele>267.4</ele>
        <time>2012-10-31T13:10:19.000Z</time>
      </trkpt>
      <trkpt lat="46.77795" lon="5.46184">
        <ele>267.4</ele>
        <time>2012-10-31T13:10:20.000Z</time>
      </trkpt>
      <trkpt lat="46.778" lon="5.46185">
        <ele>267.4</ele>
        <time>2012-10-31T13:10:23.000Z</time>
      </trkpt>
      <trkpt lat="46.778" lon="5.46185">
        <ele>267.4</ele>
        <time>2012-10-31T13:10:24.000Z</time>
      </trkpt>
      <trkpt lat="46.77805" lon="5.46185">
        <ele>267.3</ele>
        <time>2012-10-31T13:10:27.000Z</time>
      </trkpt>
      <trkpt lat="46.77806" lon="5.46185">
        <ele>267.3</ele>
        <time>2012-10-31T13:10:28.000Z</time>
      </trkpt>
      <trkpt lat="46.7781" lon="5.46183">
        <ele>267.5</ele>
        <time>2012-10-31T13:10:35.000Z</time>
      </trkpt>
      <trkpt lat="46.7781" lon="5.46182">
        <ele>267.5</ele>
        <time>2012-10-31T13:10:36.000Z</time>
      </trkpt>
      <trkpt lat="46.7781" lon="5.46182">
        <ele>267.5</ele>
        <time>2012-10-31T13:10:45.000Z</time>
      </trkpt>
      <trkpt lat="46.77818" lon="5.46181">
        <ele>268.3</ele>
        <time>2012-10-31T13:10:46.000Z</time>
      </trkpt>
      <trkpt lat="46.77821" lon="5.46182">
        <ele>268.1</ele>
        <time>2012-10-31T13:10:47.000Z</time>
      </trkpt>
      <trkpt lat="46.77825" lon="5.46181">
        <ele>268.3</ele>
        <time>2012-10-31T13:10:48.000Z</time>
      </trkpt>
      <trkpt lat="46.77828" lon="5.46182">
        <ele>268.4</ele>
        <time>2012-10-31T13:10:49.000Z</time>
      </trkpt>
      <trkpt lat="46.7783" lon="5.46181">
        <ele>268.4</ele>
        <time>2012-10-31T13:10:50.000Z</time>
      </trkpt>
      <trkpt lat="46.77834" lon="5.46181">
        <ele>268.7</ele>
        <time>2012-10-31T13:10:52.000Z</time>
      </trkpt>
      <trkpt lat="46.77835" lon="5.46181">
        <ele>268.7</ele>
        <time>2012-10-31T13:10:53.000Z</time>
      </trkpt>
      <trkpt lat="46.77837" lon="5.4618">
        <ele>268.7</ele>
        <time>2012-10-31T13:10:58.000Z</time>
      </trkpt>
      <trkpt lat="46.77839" lon="5.4618">
        <ele>268</ele>
        <time>2012-10-31T13:10:59.000Z</time>
      </trkpt>
      <trkpt lat="46.77843" lon="5.46176">
        <ele>268.5</ele>
        <time>2012-10-31T13:11:09.000Z</time>
      </trkpt>
      <trkpt lat="46.77843" lon="5.46176">
        <ele>268.5</ele>
        <time>2012-10-31T13:11:10.000Z</time>
      </trkpt>
      <trkpt lat="46.77848" lon="5.46177">
        <ele>266.7</ele>
        <time>2012-10-31T13:11:11.000Z</time>
      </trkpt>
      <trkpt lat="46.77852" lon="5.46178">
        <ele>266.4</ele>
        <time>2012-10-31T13:11:12.000Z</time>
      </trkpt>
      <trkpt lat="46.77855" lon="5.46179">
        <ele>266.6</ele>
        <time>2012-10-31T13:11:13.000Z</time>
      </trkpt>
      <trkpt lat="46.77859" lon="5.46179">
        <ele>267</ele>
        <time>2012-10-31T13:11:14.000Z</time>
      </trkpt>
      <trkpt lat="46.77862" lon="5.46179">
        <ele>267</ele>
        <time>2012-10-31T13:11:15.000Z</time>
      </trkpt>
      <trkpt lat="46.77866" lon="5.46179">
        <ele>267.3</ele>
        <time>2012-10-31T13:11:17.000Z</time>
      </trkpt>
      <trkpt lat="46.77867" lon="5.46179">
        <ele>267.3</ele>
        <time>2012-10-31T13:11:18.000Z</time>
      </trkpt>
      <trkpt lat="46.7787" lon="5.46179">
        <ele>267.3</ele>
        <time>2012-10-31T13:11:21.000Z</time>
      </trkpt>
      <trkpt lat="46.77873" lon="5.46179">
        <ele>266.5</ele>
        <time>2012-10-31T13:11:22.000Z</time>
      </trkpt>
      <trkpt lat="46.77877" lon="5.46181">
        <ele>266.1</ele>
        <time>2012-10-31T13:11:24.000Z</time>
      </trkpt>
      <trkpt lat="46.77878" lon="5.46181">
        <ele>266.3</ele>
        <time>2012-10-31T13:11:25.000Z</time>
      </trkpt>
      <trkpt lat="46.7788" lon="5.46179">
        <ele>266.4</ele>
        <time>2012-10-31T13:11:35.000Z</time>
      </trkpt>
      <trkpt lat="46.77883" lon="5.46178">
        <ele>267</ele>
        <time>2012-10-31T13:11:36.000Z</time>
      </trkpt>
      <trkpt lat="46.77887" lon="5.4618">
        <ele>266.7</ele>
        <time>2012-10-31T13:11:38.000Z</time>
      </trkpt>
      <trkpt lat="46.77889" lon="5.46181">
        <ele>266.8</ele>
        <time>2012-10-31T13:11:39.000Z</time>
      </trkpt>
      <trkpt lat="46.77891" lon="5.46182">
        <ele>266.1</ele>
        <time>2012-10-31T13:11:40.000Z</time>
      </trkpt>
      <trkpt lat="46.77894" lon="5.46183">
        <ele>265.9</ele>
        <time>2012-10-31T13:11:41.000Z</time>
      </trkpt>
      <trkpt lat="46.77896" lon="5.46184">
        <ele>266</ele>
        <time>2012-10-31T13:11:42.000Z</time>
      </trkpt>
      <trkpt lat="46.77898" lon="5.46185">
        <ele>266.1</ele>
        <time>2012-10-31T13:11:43.000Z</time>
      </trkpt>
      <trkpt lat="46.77901" lon="5.46187">
        <ele>266.5</ele>
        <time>2012-10-31T13:11:45.000Z</time>
      </trkpt>
      <trkpt lat="46.77902" lon="5.46188">
        <ele>266.9</ele>
        <time>2012-10-31T13:11:46.000Z</time>
      </trkpt>
      <trkpt lat="46.77906" lon="5.46191">
        <ele>268.3</ele>
        <time>2012-10-31T13:11:49.000Z</time>
      </trkpt>
      <trkpt lat="46.77907" lon="5.46192">
        <ele>269</ele>
        <time>2012-10-31T13:11:50.000Z</time>
      </trkpt>
      <trkpt lat="46.77911" lon="5.46194">
        <ele>270.4</ele>
        <time>2012-10-31T13:11:58.000Z</time>
      </trkpt>
      <trkpt lat="46.77913" lon="5.46194">
        <ele>270.6</ele>
        <time>2012-10-31T13:11:59.000Z</time>
      </trkpt>
      <trkpt lat="46.77917" lon="5.46191">
        <ele>269.6</ele>
        <time>2012-10-31T13:12:02.000Z</time>
      </trkpt>
      <trkpt lat="46.77918" lon="5.4619">
        <ele>269.2</ele>
        <time>2012-10-31T13:12:03.000Z</time>
      </trkpt>
      <trkpt lat="46.7792" lon="5.46188">
        <ele>268.1</ele>
        <time>2012-10-31T13:12:05.000Z</time>
      </trkpt>
      <trkpt lat="46.77922" lon="5.46186">
        <ele>267.1</ele>
        <time>2012-10-31T13:12:06.000Z</time>
      </trkpt>
      <trkpt lat="46.77925" lon="5.46182">
        <ele>265.9</ele>
        <time>2012-10-31T13:12:09.000Z</time>
      </trkpt>
      <trkpt lat="46.77926" lon="5.46181">
        <ele>265.5</ele>
        <time>2012-10-31T13:12:10.000Z</time>
      </trkpt>
      <trkpt lat="46.77928" lon="5.46177">
        <ele>264.7</ele>
        <time>2012-10-31T13:12:13.000Z</time>
      </trkpt>
      <trkpt lat="46.77929" lon="5.46175">
        <ele>264.3</ele>
        <time>2012-10-31T13:12:14.000Z</time>
      </trkpt>
      <trkpt lat="46.77931" lon="5.46172">
        <ele>263.8</ele>
        <time>2012-10-31T13:12:16.000Z</time>
      </trkpt>
      <trkpt lat="46.77955" lon="5.46163">
        <ele>272.9</ele>
        <time>2012-10-31T13:12:23.000Z</time>
      </trkpt>
      <trkpt lat="46.77958" lon="5.46164">
        <ele>279.8</ele>
        <time>2012-10-31T13:12:41.000Z</time>
      </trkpt>
      <trkpt lat="46.77959" lon="5.46163">
        <ele>279.9</ele>
        <time>2012-10-31T13:12:42.000Z</time>
      </trkpt>
      <trkpt lat="46.77964" lon="5.46163">
        <ele>279.3</ele>
        <time>2012-10-31T13:12:48.000Z</time>
      </trkpt>
      <trkpt lat="46.77964" lon="5.46163">
        <ele>279.3</ele>
        <time>2012-10-31T13:12:49.000Z</time>
      </trkpt>
      <trkpt lat="46.77964" lon="5.46163">
        <ele>279.3</ele>
        <time>2012-10-31T13:13:05.000Z</time>
      </trkpt>
      <trkpt lat="46.77971" lon="5.4616">
        <ele>276.7</ele>
        <time>2012-10-31T13:13:06.000Z</time>
      </trkpt>
      <trkpt lat="46.77973" lon="5.4616">
        <ele>276.8</ele>
        <time>2012-10-31T13:13:07.000Z</time>
      </trkpt>
      <trkpt lat="46.77976" lon="5.46159">
        <ele>276.8</ele>
        <time>2012-10-31T13:13:08.000Z</time>
      </trkpt>
      <trkpt lat="46.77979" lon="5.46157">
        <ele>276.7</ele>
        <time>2012-10-31T13:13:11.000Z</time>
      </trkpt>
      <trkpt lat="46.7798" lon="5.46157">
        <ele>276.7</ele>
        <time>2012-10-31T13:13:12.000Z</time>
      </trkpt>
      <trkpt lat="46.77982" lon="5.46156">
        <ele>276.7</ele>
        <time>2012-10-31T13:13:29.000Z</time>
      </trkpt>
      <trkpt lat="46.77987" lon="5.46155">
        <ele>276</ele>
        <time>2012-10-31T13:13:30.000Z</time>
      </trkpt>
      <trkpt lat="46.7799" lon="5.46153">
        <ele>276</ele>
        <time>2012-10-31T13:13:31.000Z</time>
      </trkpt>
      <trkpt lat="46.77993" lon="5.46151">
        <ele>275.9</ele>
        <time>2012-10-31T13:13:32.000Z</time>
      </trkpt>
      <trkpt lat="46.77996" lon="5.4615">
        <ele>275.3</ele>
        <time>2012-10-31T13:13:33.000Z</time>
      </trkpt>
      <trkpt lat="46.77998" lon="5.46148">
        <ele>275.1</ele>
        <time>2012-10-31T13:13:34.000Z</time>
      </trkpt>
      <trkpt lat="46.78003" lon="5.46146">
        <ele>275.1</ele>
        <time>2012-10-31T13:13:37.000Z</time>
      </trkpt>
      <trkpt lat="46.78005" lon="5.46146">
        <ele>274.8</ele>
        <time>2012-10-31T13:13:38.000Z</time>
      </trkpt>
      <trkpt lat="46.78009" lon="5.46148">
        <ele>274.5</ele>
        <time>2012-10-31T13:13:40.000Z</time>
      </trkpt>
      <trkpt lat="46.78011" lon="5.46149">
        <ele>274.6</ele>
        <time>2012-10-31T13:13:41.000Z</time>
      </trkpt>
      <trkpt lat="46.78014" lon="5.46151">
        <ele>274.4</ele>
        <time>2012-10-31T13:13:43.000Z</time>
      </trkpt>
      <trkpt lat="46.78015" lon="5.46151">
        <ele>274.3</ele>
        <time>2012-10-31T13:13:44.000Z</time>
      </trkpt>
      <trkpt lat="46.78019" lon="5.46152">
        <ele>272.6</ele>
        <time>2012-10-31T13:13:46.000Z</time>
      </trkpt>
      <trkpt lat="46.7802" lon="5.46152">
        <ele>272.3</ele>
        <time>2012-10-31T13:13:47.000Z</time>
      </trkpt>
      <trkpt lat="46.78023" lon="5.46153">
        <ele>272.3</ele>
        <time>2012-10-31T13:13:51.000Z</time>
      </trkpt>
      <trkpt lat="46.78027" lon="5.46152">
        <ele>271.4</ele>
        <time>2012-10-31T13:13:52.000Z</time>
      </trkpt>
      <trkpt lat="46.78031" lon="5.46152">
        <ele>272.2</ele>
        <time>2012-10-31T13:13:55.000Z</time>
      </trkpt>
      <trkpt lat="46.78032" lon="5.46151">
        <ele>272.3</ele>
        <time>2012-10-31T13:13:56.000Z</time>
      </trkpt>
      <trkpt lat="46.78033" lon="5.46151">
        <ele>272.3</ele>
        <time>2012-10-31T13:14:05.000Z</time>
      </trkpt>
      <trkpt lat="46.78036" lon="5.46149">
        <ele>271.3</ele>
        <time>2012-10-31T13:14:06.000Z</time>
      </trkpt>
      <trkpt lat="46.78039" lon="5.46146">
        <ele>271.7</ele>
        <time>2012-10-31T13:14:08.000Z</time>
      </trkpt>
      <trkpt lat="46.7804" lon="5.46145">
        <ele>271.9</ele>
        <time>2012-10-31T13:14:09.000Z</time>
      </trkpt>
      <trkpt lat="46.78044" lon="5.46142">
        <ele>272.1</ele>
        <time>2012-10-31T13:14:12.000Z</time>
      </trkpt>
      <trkpt lat="46.78045" lon="5.46142">
        <ele>272</ele>
        <time>2012-10-31T13:14:13.000Z</time>
      </trkpt>
      <trkpt lat="46.78048" lon="5.46141">
        <ele>272</ele>
        <time>2012-10-31T13:14:21.000Z</time>
      </trkpt>
      <trkpt lat="46.78052" lon="5.46141">
        <ele>272.5</ele>
        <time>2012-10-31T13:14:22.000Z</time>
      </trkpt>
      <trkpt lat="46.78054" lon="5.46141">
        <ele>272.5</ele>
        <time>2012-10-31T13:14:23.000Z</time>
      </trkpt>
      <trkpt lat="46.78057" lon="5.4614">
        <ele>272.5</ele>
        <time>2012-10-31T13:14:24.000Z</time>
      </trkpt>
      <trkpt lat="46.78061" lon="5.46139">
        <ele>272.7</ele>
        <time>2012-10-31T13:14:26.000Z</time>
      </trkpt>
      <trkpt lat="46.78062" lon="5.46138">
        <ele>272.7</ele>
        <time>2012-10-31T13:14:27.000Z</time>
      </trkpt>
      <trkpt lat="46.78065" lon="5.46137">
        <ele>272.7</ele>
        <time>2012-10-31T13:14:35.000Z</time>
      </trkpt>
      <trkpt lat="46.78068" lon="5.46137">
        <ele>272.1</ele>
        <time>2012-10-31T13:14:36.000Z</time>
      </trkpt>
      <trkpt lat="46.78071" lon="5.46134">
        <ele>272</ele>
        <time>2012-10-31T13:14:38.000Z</time>
      </trkpt>
      <trkpt lat="46.78073" lon="5.46133">
        <ele>272</ele>
        <time>2012-10-31T13:14:39.000Z</time>
      </trkpt>
      <trkpt lat="46.78076" lon="5.46131">
        <ele>271.5</ele>
        <time>2012-10-31T13:14:41.000Z</time>
      </trkpt>
      <trkpt lat="46.78077" lon="5.46131">
        <ele>271.4</ele>
        <time>2012-10-31T13:14:42.000Z</time>
      </trkpt>
      <trkpt lat="46.78081" lon="5.46132">
        <ele>270.3</ele>
        <time>2012-10-31T13:14:47.000Z</time>
      </trkpt>
      <trkpt lat="46.78082" lon="5.46133">
        <ele>270.1</ele>
        <time>2012-10-31T13:14:48.000Z</time>
      </trkpt>
      <trkpt lat="46.78084" lon="5.46133">
        <ele>270.1</ele>
        <time>2012-10-31T13:15:03.000Z</time>
      </trkpt>
      <trkpt lat="46.7809" lon="5.4613">
        <ele>270.9</ele>
        <time>2012-10-31T13:15:04.000Z</time>
      </trkpt>
      <trkpt lat="46.78094" lon="5.46129">
        <ele>270.9</ele>
        <time>2012-10-31T13:15:06.000Z</time>
      </trkpt>
      <trkpt lat="46.78095" lon="5.46128">
        <ele>271</ele>
        <time>2012-10-31T13:15:07.000Z</time>
      </trkpt>
      <trkpt lat="46.78097" lon="5.46126">
        <ele>271.1</ele>
        <time>2012-10-31T13:15:09.000Z</time>
      </trkpt>
      <trkpt lat="46.78099" lon="5.46124">
        <ele>271</ele>
        <time>2012-10-31T13:15:10.000Z</time>
      </trkpt>
      <trkpt lat="46.78101" lon="5.46121">
        <ele>271</ele>
        <time>2012-10-31T13:15:15.000Z</time>
      </trkpt>
      <trkpt lat="46.78103" lon="5.46119">
        <ele>270.3</ele>
        <time>2012-10-31T13:15:16.000Z</time>
      </trkpt>
      <trkpt lat="46.78143" lon="5.46108">
        <ele>273</ele>
        <time>2012-10-31T13:15:24.000Z</time>
      </trkpt>
      <trkpt lat="46.78146" lon="5.46108">
        <ele>273</ele>
        <time>2012-10-31T13:15:40.000Z</time>
      </trkpt>
      <trkpt lat="46.78152" lon="5.46107">
        <ele>268.3</ele>
        <time>2012-10-31T13:15:41.000Z</time>
      </trkpt>
      <trkpt lat="46.78155" lon="5.46107">
        <ele>268.5</ele>
        <time>2012-10-31T13:15:42.000Z</time>
      </trkpt>
      <trkpt lat="46.78158" lon="5.46107">
        <ele>268</ele>
        <time>2012-10-31T13:15:43.000Z</time>
      </trkpt>
      <trkpt lat="46.78162" lon="5.46107">
        <ele>268</ele>
        <time>2012-10-31T13:15:45.000Z</time>
      </trkpt>
      <trkpt lat="46.78163" lon="5.46108">
        <ele>268</ele>
        <time>2012-10-31T13:15:46.000Z</time>
      </trkpt>
      <trkpt lat="46.78167" lon="5.46108">
        <ele>268.6</ele>
        <time>2012-10-31T13:15:54.000Z</time>
      </trkpt>
      <trkpt lat="46.78167" lon="5.46108">
        <ele>269.3</ele>
        <time>2012-10-31T13:15:55.000Z</time>
      </trkpt>
      <trkpt lat="46.78171" lon="5.46105">
        <ele>270.7</ele>
        <time>2012-10-31T13:16:06.000Z</time>
      </trkpt>
      <trkpt lat="46.78172" lon="5.46105">
        <ele>270.7</ele>
        <time>2012-10-31T13:16:07.000Z</time>
      </trkpt>
      <trkpt lat="46.78176" lon="5.46106">
        <ele>271.1</ele>
        <time>2012-10-31T13:16:11.000Z</time>
      </trkpt>
      <trkpt lat="46.78177" lon="5.46105">
        <ele>271.1</ele>
        <time>2012-10-31T13:16:12.000Z</time>
      </trkpt>
      <trkpt lat="46.78181" lon="5.46104">
        <ele>272.2</ele>
        <time>2012-10-31T13:16:19.000Z</time>
      </trkpt>
      <trkpt lat="46.78182" lon="5.46104">
        <ele>272.1</ele>
        <time>2012-10-31T13:16:20.000Z</time>
      </trkpt>
      <trkpt lat="46.78186" lon="5.46104">
        <ele>273.3</ele>
        <time>2012-10-31T13:16:25.000Z</time>
      </trkpt>
      <trkpt lat="46.78186" lon="5.46104">
        <ele>273</ele>
        <time>2012-10-31T13:16:26.000Z</time>
      </trkpt>
      <trkpt lat="46.7819" lon="5.46101">
        <ele>273.1</ele>
        <time>2012-10-31T13:16:32.000Z</time>
      </trkpt>
      <trkpt lat="46.78191" lon="5.46101">
        <ele>273.1</ele>
        <time>2012-10-31T13:16:33.000Z</time>
      </trkpt>
      <trkpt lat="46.78191" lon="5.46101">
        <ele>273.1</ele>
        <time>2012-10-31T13:16:38.000Z</time>
      </trkpt>
      <trkpt lat="46.78197" lon="5.461">
        <ele>273.8</ele>
        <time>2012-10-31T13:16:39.000Z</time>
      </trkpt>
      <trkpt lat="46.78199" lon="5.461">
        <ele>274</ele>
        <time>2012-10-31T13:16:40.000Z</time>
      </trkpt>
      <trkpt lat="46.78202" lon="5.46099">
        <ele>273.9</ele>
        <time>2012-10-31T13:16:41.000Z</time>
      </trkpt>
      <trkpt lat="46.78204" lon="5.46099">
        <ele>273.8</ele>
        <time>2012-10-31T13:16:42.000Z</time>
      </trkpt>
      <trkpt lat="46.78206" lon="5.46098">
        <ele>273.8</ele>
        <time>2012-10-31T13:16:43.000Z</time>
      </trkpt>
      <trkpt lat="46.7821" lon="5.46097">
        <ele>273.7</ele>
        <time>2012-10-31T13:16:45.000Z</time>
      </trkpt>
      <trkpt lat="46.78211" lon="5.46097">
        <ele>273.6</ele>
        <time>2012-10-31T13:16:46.000Z</time>
      </trkpt>
      <trkpt lat="46.78215" lon="5.46095">
        <ele>273.6</ele>
        <time>2012-10-31T13:16:53.000Z</time>
      </trkpt>
      <trkpt lat="46.78218" lon="5.46095">
        <ele>273.6</ele>
        <time>2012-10-31T13:16:54.000Z</time>
      </trkpt>
      <trkpt lat="46.78221" lon="5.46095">
        <ele>273.8</ele>
        <time>2012-10-31T13:16:55.000Z</time>
      </trkpt>
      <trkpt lat="46.78223" lon="5.46095">
        <ele>274</ele>
        <time>2012-10-31T13:16:56.000Z</time>
      </trkpt>
      <trkpt lat="46.78226" lon="5.46094">
        <ele>274.3</ele>
        <time>2012-10-31T13:16:57.000Z</time>
      </trkpt>
      <trkpt lat="46.78228" lon="5.46094">
        <ele>274.7</ele>
        <time>2012-10-31T13:16:58.000Z</time>
      </trkpt>
      <trkpt lat="46.78232" lon="5.46093">
        <ele>275.3</ele>
        <time>2012-10-31T13:17:00.000Z</time>
      </trkpt>
      <trkpt lat="46.78233" lon="5.46093">
        <ele>275.6</ele>
        <time>2012-10-31T13:17:01.000Z</time>
      </trkpt>
      <trkpt lat="46.78235" lon="5.46093">
        <ele>275.6</ele>
        <time>2012-10-31T13:17:14.000Z</time>
      </trkpt>
      <trkpt lat="46.7824" lon="5.4609">
        <ele>275.6</ele>
        <time>2012-10-31T13:17:15.000Z</time>
      </trkpt>
      <trkpt lat="46.78243" lon="5.46089">
        <ele>275.6</ele>
        <time>2012-10-31T13:17:16.000Z</time>
      </trkpt>
      <trkpt lat="46.78246" lon="5.46088">
        <ele>274.9</ele>
        <time>2012-10-31T13:17:17.000Z</time>
      </trkpt>
      <trkpt lat="46.78249" lon="5.46087">
        <ele>274</ele>
        <time>2012-10-31T13:17:18.000Z</time>
      </trkpt>
      <trkpt lat="46.78252" lon="5.46085">
        <ele>273.6</ele>
        <time>2012-10-31T13:17:19.000Z</time>
      </trkpt>
      <trkpt lat="46.78256" lon="5.46083">
        <ele>273.6</ele>
        <time>2012-10-31T13:17:23.000Z</time>
      </trkpt>
      <trkpt lat="46.78256" lon="5.46083">
        <ele>273.6</ele>
        <time>2012-10-31T13:17:24.000Z</time>
      </trkpt>
      <trkpt lat="46.78257" lon="5.46083">
        <ele>273.6</ele>
        <time>2012-10-31T13:17:38.000Z</time>
      </trkpt>
      <trkpt lat="46.78265" lon="5.4608">
        <ele>272.1</ele>
        <time>2012-10-31T13:17:39.000Z</time>
      </trkpt>
      <trkpt lat="46.78267" lon="5.46078">
        <ele>272</ele>
        <time>2012-10-31T13:17:40.000Z</time>
      </trkpt>
      <trkpt lat="46.78269" lon="5.46076">
        <ele>272</ele>
        <time>2012-10-31T13:17:41.000Z</time>
      </trkpt>
      <trkpt lat="46.78273" lon="5.46074">
        <ele>271.8</ele>
        <time>2012-10-31T13:17:43.000Z</time>
      </trkpt>
      <trkpt lat="46.78275" lon="5.46074">
        <ele>271.8</ele>
        <time>2012-10-31T13:17:44.000Z</time>
      </trkpt>
      <trkpt lat="46.78277" lon="5.46073">
        <ele>271.8</ele>
        <time>2012-10-31T13:17:48.000Z</time>
      </trkpt>
      <trkpt lat="46.7828" lon="5.46073">
        <ele>270.9</ele>
        <time>2012-10-31T13:17:49.000Z</time>
      </trkpt>
      <trkpt lat="46.78283" lon="5.46076">
        <ele>271.6</ele>
        <time>2012-10-31T13:17:52.000Z</time>
      </trkpt>
      <trkpt lat="46.78283" lon="5.46077">
        <ele>271.8</ele>
        <time>2012-10-31T13:17:53.000Z</time>
      </trkpt>
      <trkpt lat="46.78287" lon="5.46077">
        <ele>272.6</ele>
        <time>2012-10-31T13:17:58.000Z</time>
      </trkpt>
      <trkpt lat="46.78288" lon="5.46077">
        <ele>273</ele>
        <time>2012-10-31T13:17:59.000Z</time>
      </trkpt>
      <trkpt lat="46.78293" lon="5.46078">
        <ele>273.2</ele>
        <time>2012-10-31T13:18:06.000Z</time>
      </trkpt>
      <trkpt lat="46.78295" lon="5.46077">
        <ele>272.9</ele>
        <time>2012-10-31T13:18:07.000Z</time>
      </trkpt>
      <trkpt lat="46.78298" lon="5.46076">
        <ele>273</ele>
        <time>2012-10-31T13:18:10.000Z</time>
      </trkpt>
      <trkpt lat="46.78299" lon="5.46074">
        <ele>272.9</ele>
        <time>2012-10-31T13:18:11.000Z</time>
      </trkpt>
      <trkpt lat="46.78302" lon="5.4607">
        <ele>272.8</ele>
        <time>2012-10-31T13:18:17.000Z</time>
      </trkpt>
      <trkpt lat="46.78304" lon="5.46069">
        <ele>272.7</ele>
        <time>2012-10-31T13:18:18.000Z</time>
      </trkpt>
      <trkpt lat="46.78308" lon="5.46067">
        <ele>272.6</ele>
        <time>2012-10-31T13:18:22.000Z</time>
      </trkpt>
      <trkpt lat="46.78309" lon="5.46067">
        <ele>272.6</ele>
        <time>2012-10-31T13:18:23.000Z</time>
      </trkpt>
      <trkpt lat="46.78312" lon="5.46065">
        <ele>271.9</ele>
        <time>2012-10-31T13:18:28.000Z</time>
      </trkpt>
      <trkpt lat="46.78314" lon="5.46063">
        <ele>271.7</ele>
        <time>2012-10-31T13:18:29.000Z</time>
      </trkpt>
      <trkpt lat="46.78318" lon="5.46061">
        <ele>272</ele>
        <time>2012-10-31T13:18:32.000Z</time>
      </trkpt>
      <trkpt lat="46.7832" lon="5.46061">
        <ele>272.1</ele>
        <time>2012-10-31T13:18:33.000Z</time>
      </trkpt>
      <trkpt lat="46.78324" lon="5.46061">
        <ele>272.1</ele>
        <time>2012-10-31T13:18:36.000Z</time>
      </trkpt>
      <trkpt lat="46.78326" lon="5.46061">
        <ele>272</ele>
        <time>2012-10-31T13:18:37.000Z</time>
      </trkpt>
      <trkpt lat="46.78329" lon="5.46062">
        <ele>272</ele>
        <time>2012-10-31T13:18:43.000Z</time>
      </trkpt>
      <trkpt lat="46.78332" lon="5.4606">
        <ele>270.5</ele>
        <time>2012-10-31T13:18:44.000Z</time>
      </trkpt>
      <trkpt lat="46.78334" lon="5.4606">
        <ele>270.4</ele>
        <time>2012-10-31T13:18:45.000Z</time>
      </trkpt>
      <trkpt lat="46.78337" lon="5.46059">
        <ele>270.5</ele>
        <time>2012-10-31T13:18:46.000Z</time>
      </trkpt>
      <trkpt lat="46.7834" lon="5.46058">
        <ele>270.6</ele>
        <time>2012-10-31T13:18:48.000Z</time>
      </trkpt>
      <trkpt lat="46.78341" lon="5.46057">
        <ele>270.6</ele>
        <time>2012-10-31T13:18:49.000Z</time>
      </trkpt>
      <trkpt lat="46.78344" lon="5.46057">
        <ele>270.6</ele>
        <time>2012-10-31T13:19:00.000Z</time>
      </trkpt>
      <trkpt lat="46.7835" lon="5.46055">
        <ele>270.3</ele>
        <time>2012-10-31T13:19:01.000Z</time>
      </trkpt>
      <trkpt lat="46.78353" lon="5.46054">
        <ele>270.3</ele>
        <time>2012-10-31T13:19:02.000Z</time>
      </trkpt>
      <trkpt lat="46.78356" lon="5.46051">
        <ele>270.4</ele>
        <time>2012-10-31T13:19:03.000Z</time>
      </trkpt>
      <trkpt lat="46.78359" lon="5.46048">
        <ele>270</ele>
        <time>2012-10-31T13:19:05.000Z</time>
      </trkpt>
      <trkpt lat="46.78361" lon="5.46047">
        <ele>269.9</ele>
        <time>2012-10-31T13:19:06.000Z</time>
      </trkpt>
      <trkpt lat="46.78363" lon="5.46045">
        <ele>269.9</ele>
        <time>2012-10-31T13:19:14.000Z</time>
      </trkpt>
      <trkpt lat="46.78367" lon="5.46045">
        <ele>268.8</ele>
        <time>2012-10-31T13:19:15.000Z</time>
      </trkpt>
      <trkpt lat="46.78371" lon="5.46046">
        <ele>268.9</ele>
        <time>2012-10-31T13:19:17.000Z</time>
      </trkpt>
      <trkpt lat="46.78373" lon="5.46047">
        <ele>269</ele>
        <time>2012-10-31T13:19:18.000Z</time>
      </trkpt>
      <trkpt lat="46.78375" lon="5.46048">
        <ele>269</ele>
        <time>2012-10-31T13:19:22.000Z</time>
      </trkpt>
      <trkpt lat="46.78378" lon="5.46048">
        <ele>268.9</ele>
        <time>2012-10-31T13:19:23.000Z</time>
      </trkpt>
      <trkpt lat="46.78381" lon="5.46047">
        <ele>269</ele>
        <time>2012-10-31T13:19:25.000Z</time>
      </trkpt>
      <trkpt lat="46.78382" lon="5.46046">
        <ele>269.1</ele>
        <time>2012-10-31T13:19:26.000Z</time>
      </trkpt>
      <trkpt lat="46.78385" lon="5.46044">
        <ele>268.2</ele>
        <time>2012-10-31T13:19:28.000Z</time>
      </trkpt>
      <trkpt lat="46.78387" lon="5.46044">
        <ele>268.4</ele>
        <time>2012-10-31T13:19:29.000Z</time>
      </trkpt>
      <trkpt lat="46.7839" lon="5.46044">
        <ele>268.4</ele>
        <time>2012-10-31T13:19:43.000Z</time>
      </trkpt>
      <trkpt lat="46.78397" lon="5.46041">
        <ele>265</ele>
        <time>2012-10-31T13:19:44.000Z</time>
      </trkpt>
      <trkpt lat="46.78401" lon="5.46039">
        <ele>265.3</ele>
        <time>2012-10-31T13:19:45.000Z</time>
      </trkpt>
      <trkpt lat="46.78404" lon="5.46038">
        <ele>265.6</ele>
        <time>2012-10-31T13:19:46.000Z</time>
      </trkpt>
      <trkpt lat="46.78408" lon="5.46036">
        <ele>265.8</ele>
        <time>2012-10-31T13:19:47.000Z</time>
      </trkpt>
      <trkpt lat="46.7841" lon="5.46035">
        <ele>265.8</ele>
        <time>2012-10-31T13:19:48.000Z</time>
      </trkpt>
      <trkpt lat="46.78414" lon="5.46033">
        <ele>265.8</ele>
        <time>2012-10-31T13:19:52.000Z</time>
      </trkpt>
      <trkpt lat="46.78414" lon="5.46033">
        <ele>265.8</ele>
        <time>2012-10-31T13:19:53.000Z</time>
      </trkpt>
      <trkpt lat="46.78416" lon="5.46033">
        <ele>265.8</ele>
        <time>2012-10-31T13:20:01.000Z</time>
      </trkpt>
      <trkpt lat="46.78422" lon="5.46032">
        <ele>268.4</ele>
        <time>2012-10-31T13:20:02.000Z</time>
      </trkpt>
      <trkpt lat="46.78426" lon="5.46032">
        <ele>268.5</ele>
        <time>2012-10-31T13:20:03.000Z</time>
      </trkpt>
      <trkpt lat="46.78429" lon="5.46032">
        <ele>268.9</ele>
        <time>2012-10-31T13:20:04.000Z</time>
      </trkpt>
      <trkpt lat="46.78433" lon="5.46031">
        <ele>269.1</ele>
        <time>2012-10-31T13:20:06.000Z</time>
      </trkpt>
      <trkpt lat="46.78434" lon="5.4603">
        <ele>269.2</ele>
        <time>2012-10-31T13:20:07.000Z</time>
      </trkpt>
      <trkpt lat="46.78437" lon="5.46028">
        <ele>269.9</ele>
        <time>2012-10-31T13:20:16.000Z</time>
      </trkpt>
      <trkpt lat="46.78467" lon="5.46019">
        <ele>286.7</ele>
        <time>2012-10-31T13:20:24.000Z</time>
      </trkpt>
      <trkpt lat="46.78467" lon="5.46019">
        <ele>286.7</ele>
        <time>2012-10-31T13:20:30.000Z</time>
      </trkpt>
      <trkpt lat="46.78481" lon="5.46016">
        <ele>274.4</ele>
        <time>2012-10-31T13:20:31.000Z</time>
      </trkpt>
      <trkpt lat="46.78485" lon="5.46018">
        <ele>272.2</ele>
        <time>2012-10-31T13:20:37.000Z</time>
      </trkpt>
      <trkpt lat="46.78485" lon="5.46018">
        <ele>272.2</ele>
        <time>2012-10-31T13:20:38.000Z</time>
      </trkpt>
      <trkpt lat="46.78489" lon="5.46018">
        <ele>269.8</ele>
        <time>2012-10-31T13:20:44.000Z</time>
      </trkpt>
      <trkpt lat="46.78491" lon="5.46018">
        <ele>269.3</ele>
        <time>2012-10-31T13:20:45.000Z</time>
      </trkpt>
      <trkpt lat="46.78495" lon="5.46018">
        <ele>268.6</ele>
        <time>2012-10-31T13:20:47.000Z</time>
      </trkpt>
      <trkpt lat="46.78496" lon="5.46018">
        <ele>268.6</ele>
        <time>2012-10-31T13:20:48.000Z</time>
      </trkpt>
      <trkpt lat="46.78498" lon="5.46018">
        <ele>268.6</ele>
        <time>2012-10-31T13:20:54.000Z</time>
      </trkpt>
      <trkpt lat="46.785" lon="5.46017">
        <ele>267.8</ele>
        <time>2012-10-31T13:20:55.000Z</time>
      </trkpt>
      <trkpt lat="46.78504" lon="5.46013">
        <ele>267.7</ele>
        <time>2012-10-31T13:20:58.000Z</time>
      </trkpt>
      <trkpt lat="46.78505" lon="5.46013">
        <ele>267.8</ele>
        <time>2012-10-31T13:20:59.000Z</time>
      </trkpt>
      <trkpt lat="46.78508" lon="5.4601">
        <ele>267.8</ele>
        <time>2012-10-31T13:21:26.000Z</time>
      </trkpt>
      <trkpt lat="46.78515" lon="5.46009">
        <ele>269.6</ele>
        <time>2012-10-31T13:21:27.000Z</time>
      </trkpt>
      <trkpt lat="46.78518" lon="5.46008">
        <ele>269.3</ele>
        <time>2012-10-31T13:21:28.000Z</time>
      </trkpt>
      <trkpt lat="46.78521" lon="5.46008">
        <ele>269.1</ele>
        <time>2012-10-31T13:21:29.000Z</time>
      </trkpt>
      <trkpt lat="46.78525" lon="5.46007">
        <ele>269.1</ele>
        <time>2012-10-31T13:21:31.000Z</time>
      </trkpt>
      <trkpt lat="46.78527" lon="5.46007">
        <ele>269</ele>
        <time>2012-10-31T13:21:32.000Z</time>
      </trkpt>
      <trkpt lat="46.78531" lon="5.46006">
        <ele>268.8</ele>
        <time>2012-10-31T13:21:35.000Z</time>
      </trkpt>
      <trkpt lat="46.78533" lon="5.46005">
        <ele>268.8</ele>
        <time>2012-10-31T13:21:36.000Z</time>
      </trkpt>
      <trkpt lat="46.78537" lon="5.46004">
        <ele>268.8</ele>
        <time>2012-10-31T13:21:40.000Z</time>
      </trkpt>
      <trkpt lat="46.78538" lon="5.46003">
        <ele>269.3</ele>
        <time>2012-10-31T13:21:41.000Z</time>
      </trkpt>
      <trkpt lat="46.78542" lon="5.46002">
        <ele>269.8</ele>
        <time>2012-10-31T13:21:44.000Z</time>
      </trkpt>
      <trkpt lat="46.78543" lon="5.46002">
        <ele>269.9</ele>
        <time>2012-10-31T13:21:45.000Z</time>
      </trkpt>
      <trkpt lat="46.78547" lon="5.46001">
        <ele>269.2</ele>
        <time>2012-10-31T13:21:50.000Z</time>
      </trkpt>
      <trkpt lat="46.78548" lon="5.46001">
        <ele>269</ele>
        <time>2012-10-31T13:21:51.000Z</time>
      </trkpt>
      <trkpt lat="46.78551" lon="5.46001">
        <ele>268.9</ele>
        <time>2012-10-31T13:21:56.000Z</time>
      </trkpt>
      <trkpt lat="46.78552" lon="5.46001">
        <ele>268.9</ele>
        <time>2012-10-31T13:21:57.000Z</time>
      </trkpt>
      <trkpt lat="46.78556" lon="5.46">
        <ele>268.5</ele>
        <time>2012-10-31T13:22:25.000Z</time>
      </trkpt>
      <trkpt lat="46.78561" lon="5.46">
        <ele>262.6</ele>
        <time>2012-10-31T13:23:20.000Z</time>
      </trkpt>
      <trkpt lat="46.78563" lon="5.45996">
        <ele>264.1</ele>
        <time>2012-10-31T13:23:32.000Z</time>
      </trkpt>
      <trkpt lat="46.78565" lon="5.45995">
        <ele>264</ele>
        <time>2012-10-31T13:23:33.000Z</time>
      </trkpt>
      <trkpt lat="46.78569" lon="5.45995">
        <ele>264.8</ele>
        <time>2012-10-31T13:23:37.000Z</time>
      </trkpt>
      <trkpt lat="46.7857" lon="5.45995">
        <ele>264.9</ele>
        <time>2012-10-31T13:23:38.000Z</time>
      </trkpt>
      <trkpt lat="46.78573" lon="5.45993">
        <ele>265.4</ele>
        <time>2012-10-31T13:23:41.000Z</time>
      </trkpt>
      <trkpt lat="46.78575" lon="5.45992">
        <ele>263.5</ele>
        <time>2012-10-31T13:23:42.000Z</time>
      </trkpt>
      <trkpt lat="46.78579" lon="5.45991">
        <ele>265.6</ele>
        <time>2012-10-31T13:23:46.000Z</time>
      </trkpt>
      <trkpt lat="46.7858" lon="5.4599">
        <ele>266.3</ele>
        <time>2012-10-31T13:23:47.000Z</time>
      </trkpt>
      <trkpt lat="46.78584" lon="5.45988">
        <ele>267.5</ele>
        <time>2012-10-31T13:23:50.000Z</time>
      </trkpt>
      <trkpt lat="46.78586" lon="5.45988">
        <ele>267.9</ele>
        <time>2012-10-31T13:23:51.000Z</time>
      </trkpt>
      <trkpt lat="46.78589" lon="5.45986">
        <ele>268</ele>
        <time>2012-10-31T13:23:54.000Z</time>
      </trkpt>
      <trkpt lat="46.78591" lon="5.45986">
        <ele>268</ele>
        <time>2012-10-31T13:23:55.000Z</time>
      </trkpt>
      <trkpt lat="46.78595" lon="5.45985">
        <ele>267.4</ele>
        <time>2012-10-31T13:24:01.000Z</time>
      </trkpt>
      <trkpt lat="46.78596" lon="5.45985">
        <ele>267.6</ele>
        <time>2012-10-31T13:24:02.000Z</time>
      </trkpt>
      <trkpt lat="46.78599" lon="5.45988">
        <ele>267.1</ele>
        <time>2012-10-31T13:24:06.000Z</time>
      </trkpt>
      <trkpt lat="46.78601" lon="5.45988">
        <ele>267.1</ele>
        <time>2012-10-31T13:24:07.000Z</time>
      </trkpt>
      <trkpt lat="46.78605" lon="5.45988">
        <ele>267.4</ele>
        <time>2012-10-31T13:24:11.000Z</time>
      </trkpt>
      <trkpt lat="46.78606" lon="5.45988">
        <ele>267.3</ele>
        <time>2012-10-31T13:24:12.000Z</time>
      </trkpt>
      <trkpt lat="46.78609" lon="5.45986">
        <ele>267.4</ele>
        <time>2012-10-31T13:24:14.000Z</time>
      </trkpt>
      <trkpt lat="46.78611" lon="5.45985">
        <ele>267.6</ele>
        <time>2012-10-31T13:24:15.000Z</time>
      </trkpt>
      <trkpt lat="46.78614" lon="5.45983">
        <ele>267.7</ele>
        <time>2012-10-31T13:24:17.000Z</time>
      </trkpt>
      <trkpt lat="46.78615" lon="5.45983">
        <ele>267.8</ele>
        <time>2012-10-31T13:24:18.000Z</time>
      </trkpt>
      <trkpt lat="46.78619" lon="5.45982">
        <ele>267</ele>
        <time>2012-10-31T13:24:21.000Z</time>
      </trkpt>
      <trkpt lat="46.7862" lon="5.45982">
        <ele>266.8</ele>
        <time>2012-10-31T13:24:22.000Z</time>
      </trkpt>
      <trkpt lat="46.78624" lon="5.45979">
        <ele>266.7</ele>
        <time>2012-10-31T13:24:27.000Z</time>
      </trkpt>
      <trkpt lat="46.78624" lon="5.45978">
        <ele>266.7</ele>
        <time>2012-10-31T13:24:28.000Z</time>
      </trkpt>
      <trkpt lat="46.78628" lon="5.45978">
        <ele>266.2</ele>
        <time>2012-10-31T13:24:32.000Z</time>
      </trkpt>
      <trkpt lat="46.78629" lon="5.45978">
        <ele>266</ele>
        <time>2012-10-31T13:24:33.000Z</time>
      </trkpt>
      <trkpt lat="46.78633" lon="5.45978">
        <ele>265.4</ele>
        <time>2012-10-31T13:24:37.000Z</time>
      </trkpt>
      <trkpt lat="46.78634" lon="5.45978">
        <ele>265.5</ele>
        <time>2012-10-31T13:24:38.000Z</time>
      </trkpt>
      <trkpt lat="46.78637" lon="5.45979">
        <ele>265.2</ele>
        <time>2012-10-31T13:24:43.000Z</time>
      </trkpt>
      <trkpt lat="46.78638" lon="5.45979">
        <ele>265.3</ele>
        <time>2012-10-31T13:24:44.000Z</time>
      </trkpt>
      <trkpt lat="46.78642" lon="5.45977">
        <ele>265.6</ele>
        <time>2012-10-31T13:24:47.000Z</time>
      </trkpt>
      <trkpt lat="46.78643" lon="5.45976">
        <ele>265.7</ele>
        <time>2012-10-31T13:24:48.000Z</time>
      </trkpt>
      <trkpt lat="46.78646" lon="5.45973">
        <ele>266.3</ele>
        <time>2012-10-31T13:24:53.000Z</time>
      </trkpt>
      <trkpt lat="46.78647" lon="5.45972">
        <ele>266.3</ele>
        <time>2012-10-31T13:24:54.000Z</time>
      </trkpt>
      <trkpt lat="46.78651" lon="5.4597">
        <ele>266.4</ele>
        <time>2012-10-31T13:24:57.000Z</time>
      </trkpt>
      <trkpt lat="46.78653" lon="5.45971">
        <ele>266.7</ele>
        <time>2012-10-31T13:24:58.000Z</time>
      </trkpt>
      <trkpt lat="46.78657" lon="5.45972">
        <ele>266.9</ele>
        <time>2012-10-31T13:25:01.000Z</time>
      </trkpt>
      <trkpt lat="46.78658" lon="5.45971">
        <ele>266.8</ele>
        <time>2012-10-31T13:25:02.000Z</time>
      </trkpt>
      <trkpt lat="46.78662" lon="5.4597">
        <ele>266.5</ele>
        <time>2012-10-31T13:25:05.000Z</time>
      </trkpt>
      <trkpt lat="46.78663" lon="5.4597">
        <ele>266.6</ele>
        <time>2012-10-31T13:25:06.000Z</time>
      </trkpt>
      <trkpt lat="46.78666" lon="5.4597">
        <ele>267</ele>
        <time>2012-10-31T13:25:09.000Z</time>
      </trkpt>
      <trkpt lat="46.78668" lon="5.4597">
        <ele>267</ele>
        <time>2012-10-31T13:25:10.000Z</time>
      </trkpt>
      <trkpt lat="46.78672" lon="5.45968">
        <ele>267</ele>
        <time>2012-10-31T13:25:16.000Z</time>
      </trkpt>
      <trkpt lat="46.78697" lon="5.45957">
        <ele>263</ele>
        <time>2012-10-31T13:25:23.000Z</time>
      </trkpt>
      <trkpt lat="46.78701" lon="5.45956">
        <ele>263.2</ele>
        <time>2012-10-31T13:25:26.000Z</time>
      </trkpt>
      <trkpt lat="46.78703" lon="5.45956">
        <ele>264.8</ele>
        <time>2012-10-31T13:25:27.000Z</time>
      </trkpt>
      <trkpt lat="46.78705" lon="5.45959">
        <ele>265.8</ele>
        <time>2012-10-31T13:25:48.000Z</time>
      </trkpt>
      <trkpt lat="46.7871" lon="5.45958">
        <ele>270.4</ele>
        <time>2012-10-31T13:25:49.000Z</time>
      </trkpt>
      <trkpt lat="46.78715" lon="5.45957">
        <ele>269.6</ele>
        <time>2012-10-31T13:25:53.000Z</time>
      </trkpt>
      <trkpt lat="46.78715" lon="5.45956">
        <ele>269.7</ele>
        <time>2012-10-31T13:25:54.000Z</time>
      </trkpt>
      <trkpt lat="46.78719" lon="5.45955">
        <ele>269.4</ele>
        <time>2012-10-31T13:26:09.000Z</time>
      </trkpt>
      <trkpt lat="46.78723" lon="5.45954">
        <ele>267.5</ele>
        <time>2012-10-31T13:26:10.000Z</time>
      </trkpt>
      <trkpt lat="46.78726" lon="5.45954">
        <ele>267.3</ele>
        <time>2012-10-31T13:26:12.000Z</time>
      </trkpt>
      <trkpt lat="46.78728" lon="5.45954">
        <ele>267.3</ele>
        <time>2012-10-31T13:26:13.000Z</time>
      </trkpt>
      <trkpt lat="46.78731" lon="5.45954">
        <ele>267.3</ele>
        <time>2012-10-31T13:26:27.000Z</time>
      </trkpt>
      <trkpt lat="46.78738" lon="5.45953">
        <ele>264.1</ele>
        <time>2012-10-31T13:26:28.000Z</time>
      </trkpt>
      <trkpt lat="46.78741" lon="5.45952">
        <ele>264.1</ele>
        <time>2012-10-31T13:26:29.000Z</time>
      </trkpt>
      <trkpt lat="46.78745" lon="5.4595">
        <ele>264.1</ele>
        <time>2012-10-31T13:26:30.000Z</time>
      </trkpt>
      <trkpt lat="46.78748" lon="5.4595">
        <ele>264.2</ele>
        <time>2012-10-31T13:26:31.000Z</time>
      </trkpt>
      <trkpt lat="46.7875" lon="5.45949">
        <ele>264.3</ele>
        <time>2012-10-31T13:26:32.000Z</time>
      </trkpt>
      <trkpt lat="46.78754" lon="5.45948">
        <ele>264.3</ele>
        <time>2012-10-31T13:26:43.000Z</time>
      </trkpt>
      <trkpt lat="46.78759" lon="5.45947">
        <ele>265.3</ele>
        <time>2012-10-31T13:26:44.000Z</time>
      </trkpt>
      <trkpt lat="46.78762" lon="5.45946">
        <ele>265.7</ele>
        <time>2012-10-31T13:26:45.000Z</time>
      </trkpt>
      <trkpt lat="46.78764" lon="5.45946">
        <ele>266.2</ele>
        <time>2012-10-31T13:26:46.000Z</time>
      </trkpt>
      <trkpt lat="46.78768" lon="5.45944">
        <ele>266.7</ele>
        <time>2012-10-31T13:26:48.000Z</time>
      </trkpt>
      <trkpt lat="46.7877" lon="5.45943">
        <ele>267</ele>
        <time>2012-10-31T13:26:49.000Z</time>
      </trkpt>
      <trkpt lat="46.78774" lon="5.45942">
        <ele>267.7</ele>
        <time>2012-10-31T13:26:53.000Z</time>
      </trkpt>
      <trkpt lat="46.78775" lon="5.45943">
        <ele>267.7</ele>
        <time>2012-10-31T13:26:54.000Z</time>
      </trkpt>
      <trkpt lat="46.78778" lon="5.45939">
        <ele>269</ele>
        <time>2012-10-31T13:27:05.000Z</time>
      </trkpt>
      <trkpt lat="46.78779" lon="5.45937">
        <ele>268.9</ele>
        <time>2012-10-31T13:27:06.000Z</time>
      </trkpt>
      <trkpt lat="46.78782" lon="5.45934">
        <ele>268.8</ele>
        <time>2012-10-31T13:27:17.000Z</time>
      </trkpt>
      <trkpt lat="46.78787" lon="5.45933">
        <ele>269.5</ele>
        <time>2012-10-31T13:27:18.000Z</time>
      </trkpt>
      <trkpt lat="46.78789" lon="5.45934">
        <ele>269.6</ele>
        <time>2012-10-31T13:27:19.000Z</time>
      </trkpt>
      <trkpt lat="46.78791" lon="5.45935">
        <ele>269.8</ele>
        <time>2012-10-31T13:27:20.000Z</time>
      </trkpt>
      <trkpt lat="46.78795" lon="5.45936">
        <ele>269.7</ele>
        <time>2012-10-31T13:27:22.000Z</time>
      </trkpt>
      <trkpt lat="46.78796" lon="5.45936">
        <ele>269.7</ele>
        <time>2012-10-31T13:27:23.000Z</time>
      </trkpt>
      <trkpt lat="46.78797" lon="5.45937">
        <ele>269.7</ele>
        <time>2012-10-31T13:27:26.000Z</time>
      </trkpt>
      <trkpt lat="46.788" lon="5.45936">
        <ele>269.6</ele>
        <time>2012-10-31T13:27:27.000Z</time>
      </trkpt>
      <trkpt lat="46.78803" lon="5.45936">
        <ele>269.7</ele>
        <time>2012-10-31T13:27:29.000Z</time>
      </trkpt>
      <trkpt lat="46.78805" lon="5.45936">
        <ele>269.7</ele>
        <time>2012-10-31T13:27:30.000Z</time>
      </trkpt>
      <trkpt lat="46.78809" lon="5.45935">
        <ele>269.7</ele>
        <time>2012-10-31T13:27:38.000Z</time>
      </trkpt>
      <trkpt lat="46.78814" lon="5.45933">
        <ele>269.4</ele>
        <time>2012-10-31T13:27:39.000Z</time>
      </trkpt>
      <trkpt lat="46.78818" lon="5.45932">
        <ele>269.2</ele>
        <time>2012-10-31T13:27:41.000Z</time>
      </trkpt>
      <trkpt lat="46.7882" lon="5.45931">
        <ele>269.4</ele>
        <time>2012-10-31T13:27:42.000Z</time>
      </trkpt>
      <trkpt lat="46.78823" lon="5.45929">
        <ele>269.4</ele>
        <time>2012-10-31T13:27:46.000Z</time>
      </trkpt>
      <trkpt lat="46.78826" lon="5.45928">
        <ele>269.8</ele>
        <time>2012-10-31T13:27:47.000Z</time>
      </trkpt>
      <trkpt lat="46.7883" lon="5.45926">
        <ele>269.7</ele>
        <time>2012-10-31T13:27:49.000Z</time>
      </trkpt>
      <trkpt lat="46.78832" lon="5.45925">
        <ele>269.7</ele>
        <time>2012-10-31T13:27:50.000Z</time>
      </trkpt>
      <trkpt lat="46.78836" lon="5.45923">
        <ele>269.7</ele>
        <time>2012-10-31T13:27:53.000Z</time>
      </trkpt>
      <trkpt lat="46.78836" lon="5.45923">
        <ele>269.7</ele>
        <time>2012-10-31T13:27:54.000Z</time>
      </trkpt>
      <trkpt lat="46.7884" lon="5.45921">
        <ele>268.8</ele>
        <time>2012-10-31T13:27:58.000Z</time>
      </trkpt>
      <trkpt lat="46.78841" lon="5.45921">
        <ele>268.7</ele>
        <time>2012-10-31T13:27:59.000Z</time>
      </trkpt>
      <trkpt lat="46.78845" lon="5.4592">
        <ele>268.8</ele>
        <time>2012-10-31T13:28:23.000Z</time>
      </trkpt>
      <trkpt lat="46.78851" lon="5.45918">
        <ele>271</ele>
        <time>2012-10-31T13:28:24.000Z</time>
      </trkpt>
      <trkpt lat="46.78856" lon="5.45916">
        <ele>271</ele>
        <time>2012-10-31T13:28:25.000Z</time>
      </trkpt>
      <trkpt lat="46.7886" lon="5.45914">
        <ele>271.1</ele>
        <time>2012-10-31T13:28:26.000Z</time>
      </trkpt>
      <trkpt lat="46.78863" lon="5.45913">
        <ele>271.1</ele>
        <time>2012-10-31T13:28:27.000Z</time>
      </trkpt>
      <trkpt lat="46.78866" lon="5.45911">
        <ele>271.2</ele>
        <time>2012-10-31T13:28:28.000Z</time>
      </trkpt>
      <trkpt lat="46.78868" lon="5.4591">
        <ele>271.2</ele>
        <time>2012-10-31T13:28:29.000Z</time>
      </trkpt>
      <trkpt lat="46.78871" lon="5.4591">
        <ele>271.3</ele>
        <time>2012-10-31T13:28:30.000Z</time>
      </trkpt>
      <trkpt lat="46.78873" lon="5.45909">
        <ele>271.2</ele>
        <time>2012-10-31T13:28:31.000Z</time>
      </trkpt>
      <trkpt lat="46.78877" lon="5.45908">
        <ele>271.2</ele>
        <time>2012-10-31T13:28:35.000Z</time>
      </trkpt>
      <trkpt lat="46.78877" lon="5.45908">
        <ele>271.2</ele>
        <time>2012-10-31T13:28:36.000Z</time>
      </trkpt>
      <trkpt lat="46.78878" lon="5.45908">
        <ele>271.2</ele>
        <time>2012-10-31T13:28:44.000Z</time>
      </trkpt>
      <trkpt lat="46.78883" lon="5.45907">
        <ele>271.4</ele>
        <time>2012-10-31T13:28:45.000Z</time>
      </trkpt>
      <trkpt lat="46.78886" lon="5.45906">
        <ele>271.4</ele>
        <time>2012-10-31T13:28:46.000Z</time>
      </trkpt>
      <trkpt lat="46.78888" lon="5.45906">
        <ele>271.6</ele>
        <time>2012-10-31T13:28:47.000Z</time>
      </trkpt>
      <trkpt lat="46.78892" lon="5.45906">
        <ele>271.7</ele>
        <time>2012-10-31T13:28:49.000Z</time>
      </trkpt>
      <trkpt lat="46.78894" lon="5.45906">
        <ele>271.8</ele>
        <time>2012-10-31T13:28:50.000Z</time>
      </trkpt>
      <trkpt lat="46.78898" lon="5.45905">
        <ele>272</ele>
        <time>2012-10-31T13:28:52.000Z</time>
      </trkpt>
      <trkpt lat="46.78899" lon="5.45904">
        <ele>271.8</ele>
        <time>2012-10-31T13:28:53.000Z</time>
      </trkpt>
      <trkpt lat="46.78902" lon="5.45903">
        <ele>271.7</ele>
        <time>2012-10-31T13:28:55.000Z</time>
      </trkpt>
      <trkpt lat="46.78904" lon="5.45902">
        <ele>271.8</ele>
        <time>2012-10-31T13:28:56.000Z</time>
      </trkpt>
      <trkpt lat="46.78908" lon="5.45902">
        <ele>271.1</ele>
        <time>2012-10-31T13:28:59.000Z</time>
      </trkpt>
      <trkpt lat="46.78909" lon="5.45901">
        <ele>270.9</ele>
        <time>2012-10-31T13:29:00.000Z</time>
      </trkpt>
      <trkpt lat="46.78912" lon="5.459">
        <ele>270.7</ele>
        <time>2012-10-31T13:29:02.000Z</time>
      </trkpt>
      <trkpt lat="46.78914" lon="5.45899">
        <ele>270.7</ele>
        <time>2012-10-31T13:29:03.000Z</time>
      </trkpt>
      <trkpt lat="46.78917" lon="5.45897">
        <ele>270.9</ele>
        <time>2012-10-31T13:29:06.000Z</time>
      </trkpt>
      <trkpt lat="46.78919" lon="5.45896">
        <ele>271</ele>
        <time>2012-10-31T13:29:07.000Z</time>
      </trkpt>
      <trkpt lat="46.78923" lon="5.45896">
        <ele>271.2</ele>
        <time>2012-10-31T13:29:10.000Z</time>
      </trkpt>
      <trkpt lat="46.78924" lon="5.45895">
        <ele>271.4</ele>
        <time>2012-10-31T13:29:11.000Z</time>
      </trkpt>
      <trkpt lat="46.78929" lon="5.45894">
        <ele>271.4</ele>
        <time>2012-10-31T13:29:14.000Z</time>
      </trkpt>
      <trkpt lat="46.7893" lon="5.45895">
        <ele>271.3</ele>
        <time>2012-10-31T13:29:15.000Z</time>
      </trkpt>
      <trkpt lat="46.78931" lon="5.45895">
        <ele>271.3</ele>
        <time>2012-10-31T13:29:16.000Z</time>
      </trkpt>
      <trkpt lat="46.78966" lon="5.45885">
        <ele>269.8</ele>
        <time>2012-10-31T13:29:23.000Z</time>
      </trkpt>
      <trkpt lat="46.7897" lon="5.45883">
        <ele>266.7</ele>
        <time>2012-10-31T13:29:30.000Z</time>
      </trkpt>
      <trkpt lat="46.78971" lon="5.45884">
        <ele>266.4</ele>
        <time>2012-10-31T13:29:31.000Z</time>
      </trkpt>
      <trkpt lat="46.78975" lon="5.45885">
        <ele>265.4</ele>
        <time>2012-10-31T13:29:35.000Z</time>
      </trkpt>
      <trkpt lat="46.78976" lon="5.45885">
        <ele>265.7</ele>
        <time>2012-10-31T13:29:36.000Z</time>
      </trkpt>
      <trkpt lat="46.7898" lon="5.45885">
        <ele>267.9</ele>
        <time>2012-10-31T13:29:39.000Z</time>
      </trkpt>
      <trkpt lat="46.78981" lon="5.45885">
        <ele>268.6</ele>
        <time>2012-10-31T13:29:40.000Z</time>
      </trkpt>
      <trkpt lat="46.78984" lon="5.45884">
        <ele>267</ele>
        <time>2012-10-31T13:29:44.000Z</time>
      </trkpt>
      <trkpt lat="46.78985" lon="5.45884">
        <ele>266.4</ele>
        <time>2012-10-31T13:29:45.000Z</time>
      </trkpt>
      <trkpt lat="46.78989" lon="5.45883">
        <ele>265.9</ele>
        <time>2012-10-31T13:29:51.000Z</time>
      </trkpt>
      <trkpt lat="46.7899" lon="5.45884">
        <ele>266</ele>
        <time>2012-10-31T13:29:52.000Z</time>
      </trkpt>
      <trkpt lat="46.78994" lon="5.45882">
        <ele>266</ele>
        <time>2012-10-31T13:29:58.000Z</time>
      </trkpt>
      <trkpt lat="46.78995" lon="5.45882">
        <ele>266</ele>
        <time>2012-10-31T13:29:59.000Z</time>
      </trkpt>
      <trkpt lat="46.78999" lon="5.45883">
        <ele>266.9</ele>
        <time>2012-10-31T13:30:07.000Z</time>
      </trkpt>
      <trkpt lat="46.79" lon="5.45883">
        <ele>267.2</ele>
        <time>2012-10-31T13:30:08.000Z</time>
      </trkpt>
      <trkpt lat="46.79003" lon="5.45882">
        <ele>267.1</ele>
        <time>2012-10-31T13:30:12.000Z</time>
      </trkpt>
      <trkpt lat="46.79004" lon="5.45882">
        <ele>266.8</ele>
        <time>2012-10-31T13:30:13.000Z</time>
      </trkpt>
      <trkpt lat="46.79006" lon="5.4588">
        <ele>266.7</ele>
        <time>2012-10-31T13:30:16.000Z</time>
      </trkpt>
      <trkpt lat="46.79023" lon="5.45867">
        <ele>266.3</ele>
        <time>2012-10-31T13:30:23.000Z</time>
      </trkpt>
      <trkpt lat="46.79026" lon="5.45869">
        <ele>265.6</ele>
        <time>2012-10-31T13:30:25.000Z</time>
      </trkpt>
      <trkpt lat="46.79027" lon="5.4587">
        <ele>265</ele>
        <time>2012-10-31T13:30:26.000Z</time>
      </trkpt>
      <trkpt lat="46.79031" lon="5.45873">
        <ele>259.8</ele>
        <time>2012-10-31T13:30:37.000Z</time>
      </trkpt>
      <trkpt lat="46.79031" lon="5.45873">
        <ele>259.8</ele>
        <time>2012-10-31T13:30:38.000Z</time>
      </trkpt>
      <trkpt lat="46.79031" lon="5.45874">
        <ele>259.8</ele>
        <time>2012-10-31T13:30:52.000Z</time>
      </trkpt>
      <trkpt lat="46.79037" lon="5.45874">
        <ele>258.6</ele>
        <time>2012-10-31T13:30:53.000Z</time>
      </trkpt>
      <trkpt lat="46.79039" lon="5.45873">
        <ele>258.9</ele>
        <time>2012-10-31T13:30:54.000Z</time>
      </trkpt>
      <trkpt lat="46.79042" lon="5.45873">
        <ele>258.8</ele>
        <time>2012-10-31T13:30:55.000Z</time>
      </trkpt>
      <trkpt lat="46.79046" lon="5.45874">
        <ele>259.2</ele>
        <time>2012-10-31T13:30:59.000Z</time>
      </trkpt>
      <trkpt lat="46.79047" lon="5.45874">
        <ele>259.2</ele>
        <time>2012-10-31T13:31:00.000Z</time>
      </trkpt>
      <trkpt lat="46.7905" lon="5.45873">
        <ele>261.3</ele>
        <time>2012-10-31T13:31:04.000Z</time>
      </trkpt>
      <trkpt lat="46.79051" lon="5.45872">
        <ele>261</ele>
        <time>2012-10-31T13:31:05.000Z</time>
      </trkpt>
      <trkpt lat="46.79054" lon="5.45871">
        <ele>260.8</ele>
        <time>2012-10-31T13:31:07.000Z</time>
      </trkpt>
      <trkpt lat="46.79056" lon="5.4587">
        <ele>260.7</ele>
        <time>2012-10-31T13:31:08.000Z</time>
      </trkpt>
      <trkpt lat="46.7906" lon="5.45869">
        <ele>259.4</ele>
        <time>2012-10-31T13:31:11.000Z</time>
      </trkpt>
      <trkpt lat="46.7906" lon="5.45868">
        <ele>259.4</ele>
        <time>2012-10-31T13:31:12.000Z</time>
      </trkpt>
      <trkpt lat="46.79062" lon="5.45868">
        <ele>259.4</ele>
        <time>2012-10-31T13:31:16.000Z</time>
      </trkpt>
      <trkpt lat="46.79083" lon="5.45859">
        <ele>251.4</ele>
        <time>2012-10-31T13:31:24.000Z</time>
      </trkpt>
      <trkpt lat="46.79084" lon="5.45859">
        <ele>251.4</ele>
        <time>2012-10-31T13:31:37.000Z</time>
      </trkpt>
      <trkpt lat="46.79091" lon="5.45857">
        <ele>261.8</ele>
        <time>2012-10-31T13:31:38.000Z</time>
      </trkpt>
      <trkpt lat="46.79094" lon="5.45856">
        <ele>261.2</ele>
        <time>2012-10-31T13:31:39.000Z</time>
      </trkpt>
      <trkpt lat="46.79096" lon="5.45855">
        <ele>260.7</ele>
        <time>2012-10-31T13:31:40.000Z</time>
      </trkpt>
      <trkpt lat="46.79101" lon="5.45854">
        <ele>260.7</ele>
        <time>2012-10-31T13:31:43.000Z</time>
      </trkpt>
      <trkpt lat="46.79101" lon="5.45854">
        <ele>260.7</ele>
        <time>2012-10-31T13:31:44.000Z</time>
      </trkpt>
      <trkpt lat="46.79106" lon="5.45854">
        <ele>258.1</ele>
        <time>2012-10-31T13:31:49.000Z</time>
      </trkpt>
      <trkpt lat="46.79107" lon="5.45854">
        <ele>258.3</ele>
        <time>2012-10-31T13:31:50.000Z</time>
      </trkpt>
      <trkpt lat="46.79111" lon="5.45854">
        <ele>258.5</ele>
        <time>2012-10-31T13:31:54.000Z</time>
      </trkpt>
      <trkpt lat="46.79112" lon="5.45854">
        <ele>258.4</ele>
        <time>2012-10-31T13:31:55.000Z</time>
      </trkpt>
      <trkpt lat="46.79116" lon="5.45853">
        <ele>258.3</ele>
        <time>2012-10-31T13:31:59.000Z</time>
      </trkpt>
      <trkpt lat="46.79117" lon="5.45852">
        <ele>258.4</ele>
        <time>2012-10-31T13:32:00.000Z</time>
      </trkpt>
      <trkpt lat="46.79121" lon="5.45853">
        <ele>257.5</ele>
        <time>2012-10-31T13:32:07.000Z</time>
      </trkpt>
      <trkpt lat="46.79122" lon="5.45852">
        <ele>257</ele>
        <time>2012-10-31T13:32:08.000Z</time>
      </trkpt>
      <trkpt lat="46.79126" lon="5.45851">
        <ele>257.2</ele>
        <time>2012-10-31T13:32:11.000Z</time>
      </trkpt>
      <trkpt lat="46.79127" lon="5.45851">
        <ele>257.3</ele>
        <time>2012-10-31T13:32:12.000Z</time>
      </trkpt>
      <trkpt lat="46.79129" lon="5.4585">
        <ele>257.3</ele>
        <time>2012-10-31T13:32:16.000Z</time>
      </trkpt>
      <trkpt lat="46.79149" lon="5.45841">
        <ele>253.2</ele>
        <time>2012-10-31T13:32:23.000Z</time>
      </trkpt>
      <trkpt lat="46.79149" lon="5.45841">
        <ele>253.2</ele>
        <time>2012-10-31T13:32:27.000Z</time>
      </trkpt>
      <trkpt lat="46.7916" lon="5.45839">
        <ele>258.1</ele>
        <time>2012-10-31T13:32:28.000Z</time>
      </trkpt>
      <trkpt lat="46.79164" lon="5.4584">
        <ele>258</ele>
        <time>2012-10-31T13:32:36.000Z</time>
      </trkpt>
      <trkpt lat="46.79164" lon="5.4584">
        <ele>258</ele>
        <time>2012-10-31T13:32:37.000Z</time>
      </trkpt>
      <trkpt lat="46.79168" lon="5.4584">
        <ele>257.1</ele>
        <time>2012-10-31T13:32:44.000Z</time>
      </trkpt>
      <trkpt lat="46.79169" lon="5.4584">
        <ele>257.2</ele>
        <time>2012-10-31T13:32:45.000Z</time>
      </trkpt>
      <trkpt lat="46.79173" lon="5.45838">
        <ele>257.1</ele>
        <time>2012-10-31T13:32:49.000Z</time>
      </trkpt>
      <trkpt lat="46.79174" lon="5.45838">
        <ele>257.1</ele>
        <time>2012-10-31T13:32:50.000Z</time>
      </trkpt>
      <trkpt lat="46.79177" lon="5.45834">
        <ele>256.9</ele>
        <time>2012-10-31T13:32:56.000Z</time>
      </trkpt>
      <trkpt lat="46.79177" lon="5.45834">
        <ele>256.9</ele>
        <time>2012-10-31T13:32:57.000Z</time>
      </trkpt>
      <trkpt lat="46.79182" lon="5.45835">
        <ele>256.7</ele>
        <time>2012-10-31T13:33:07.000Z</time>
      </trkpt>
      <trkpt lat="46.79182" lon="5.45836">
        <ele>256.7</ele>
        <time>2012-10-31T13:33:08.000Z</time>
      </trkpt>
      <trkpt lat="46.79183" lon="5.45836">
        <ele>256.7</ele>
        <time>2012-10-31T13:33:29.000Z</time>
      </trkpt>
      <trkpt lat="46.7919" lon="5.45833">
        <ele>256.3</ele>
        <time>2012-10-31T13:33:30.000Z</time>
      </trkpt>
      <trkpt lat="46.79193" lon="5.45831">
        <ele>256.1</ele>
        <time>2012-10-31T13:33:31.000Z</time>
      </trkpt>
      <trkpt lat="46.79195" lon="5.4583">
        <ele>256.3</ele>
        <time>2012-10-31T13:33:32.000Z</time>
      </trkpt>
      <trkpt lat="46.79199" lon="5.45827">
        <ele>256.6</ele>
        <time>2012-10-31T13:33:34.000Z</time>
      </trkpt>
      <trkpt lat="46.792" lon="5.45826">
        <ele>256.6</ele>
        <time>2012-10-31T13:33:35.000Z</time>
      </trkpt>
      <trkpt lat="46.79204" lon="5.45824">
        <ele>255.8</ele>
        <time>2012-10-31T13:33:39.000Z</time>
      </trkpt>
      <trkpt lat="46.79206" lon="5.45824">
        <ele>255.5</ele>
        <time>2012-10-31T13:33:40.000Z</time>
      </trkpt>
      <trkpt lat="46.79209" lon="5.45823">
        <ele>255</ele>
        <time>2012-10-31T13:33:42.000Z</time>
      </trkpt>
      <trkpt lat="46.7921" lon="5.45823">
        <ele>255</ele>
        <time>2012-10-31T13:33:43.000Z</time>
      </trkpt>
      <trkpt lat="46.79214" lon="5.45822">
        <ele>254.5</ele>
        <time>2012-10-31T13:33:46.000Z</time>
      </trkpt>
      <trkpt lat="46.79216" lon="5.45821">
        <ele>254.4</ele>
        <time>2012-10-31T13:33:47.000Z</time>
      </trkpt>
      <trkpt lat="46.79219" lon="5.45818">
        <ele>254.9</ele>
        <time>2012-10-31T13:33:51.000Z</time>
      </trkpt>
      <trkpt lat="46.7922" lon="5.45817">
        <ele>254.9</ele>
        <time>2012-10-31T13:33:52.000Z</time>
      </trkpt>
      <trkpt lat="46.79223" lon="5.45816">
        <ele>255.6</ele>
        <time>2012-10-31T13:33:57.000Z</time>
      </trkpt>
      <trkpt lat="46.79224" lon="5.45815">
        <ele>255.8</ele>
        <time>2012-10-31T13:33:58.000Z</time>
      </trkpt>
      <trkpt lat="46.79229" lon="5.45816">
        <ele>256.1</ele>
        <time>2012-10-31T13:34:02.000Z</time>
      </trkpt>
      <trkpt lat="46.79229" lon="5.45816">
        <ele>256.1</ele>
        <time>2012-10-31T13:34:03.000Z</time>
      </trkpt>
      <trkpt lat="46.79234" lon="5.45816">
        <ele>257.3</ele>
        <time>2012-10-31T13:34:10.000Z</time>
      </trkpt>
      <trkpt lat="46.79235" lon="5.45816">
        <ele>257.3</ele>
        <time>2012-10-31T13:34:11.000Z</time>
      </trkpt>
      <trkpt lat="46.79238" lon="5.45815">
        <ele>257.6</ele>
        <time>2012-10-31T13:34:13.000Z</time>
      </trkpt>
      <trkpt lat="46.79239" lon="5.45815">
        <ele>257.6</ele>
        <time>2012-10-31T13:34:14.000Z</time>
      </trkpt>
      <trkpt lat="46.79242" lon="5.45814">
        <ele>257.7</ele>
        <time>2012-10-31T13:34:16.000Z</time>
      </trkpt>
      <trkpt lat="46.79273" lon="5.45796">
        <ele>264</ele>
        <time>2012-10-31T13:34:23.000Z</time>
      </trkpt>
      <trkpt lat="46.79276" lon="5.45796">
        <ele>263.9</ele>
        <time>2012-10-31T13:34:25.000Z</time>
      </trkpt>
      <trkpt lat="46.79278" lon="5.45797">
        <ele>264.5</ele>
        <time>2012-10-31T13:34:26.000Z</time>
      </trkpt>
      <trkpt lat="46.79278" lon="5.45803">
        <ele>266</ele>
        <time>2012-10-31T13:34:33.000Z</time>
      </trkpt>
      <trkpt lat="46.79277" lon="5.45803">
        <ele>265.9</ele>
        <time>2012-10-31T13:34:34.000Z</time>
      </trkpt>
      <trkpt lat="46.79282" lon="5.45804">
        <ele>262.1</ele>
        <time>2012-10-31T13:35:00.000Z</time>
      </trkpt>
      <trkpt lat="46.79282" lon="5.45804">
        <ele>262.7</ele>
        <time>2012-10-31T13:35:01.000Z</time>
      </trkpt>
      <trkpt lat="46.79285" lon="5.45802">
        <ele>261.7</ele>
        <time>2012-10-31T13:35:30.000Z</time>
      </trkpt>
      <trkpt lat="46.79292" lon="5.45799">
        <ele>260</ele>
        <time>2012-10-31T13:35:31.000Z</time>
      </trkpt>
      <trkpt lat="46.79294" lon="5.45799">
        <ele>260.2</ele>
        <time>2012-10-31T13:35:32.000Z</time>
      </trkpt>
      <trkpt lat="46.79298" lon="5.45797">
        <ele>260.4</ele>
        <time>2012-10-31T13:35:33.000Z</time>
      </trkpt>
      <trkpt lat="46.79302" lon="5.45796">
        <ele>260.6</ele>
        <time>2012-10-31T13:35:36.000Z</time>
      </trkpt>
      <trkpt lat="46.79303" lon="5.45796">
        <ele>260.6</ele>
        <time>2012-10-31T13:35:37.000Z</time>
      </trkpt>
      <trkpt lat="46.79307" lon="5.45795">
        <ele>260.9</ele>
        <time>2012-10-31T13:35:47.000Z</time>
      </trkpt>
      <trkpt lat="46.79308" lon="5.45794">
        <ele>261</ele>
        <time>2012-10-31T13:35:48.000Z</time>
      </trkpt>
      <trkpt lat="46.79311" lon="5.45793">
        <ele>261</ele>
        <time>2012-10-31T13:35:53.000Z</time>
      </trkpt>
      <trkpt lat="46.79312" lon="5.45793">
        <ele>260.9</ele>
        <time>2012-10-31T13:35:54.000Z</time>
      </trkpt>
      <trkpt lat="46.79316" lon="5.45792">
        <ele>260.9</ele>
        <time>2012-10-31T13:36:08.000Z</time>
      </trkpt>
      <trkpt lat="46.79317" lon="5.45792">
        <ele>261.1</ele>
        <time>2012-10-31T13:36:09.000Z</time>
      </trkpt>
      <trkpt lat="46.79322" lon="5.45792">
        <ele>261.2</ele>
        <time>2012-10-31T13:36:12.000Z</time>
      </trkpt>
      <trkpt lat="46.79322" lon="5.45793">
        <ele>261.3</ele>
        <time>2012-10-31T13:36:13.000Z</time>
      </trkpt>
      <trkpt lat="46.79326" lon="5.4579">
        <ele>261.3</ele>
        <time>2012-10-31T13:36:17.000Z</time>
      </trkpt>
      <trkpt lat="46.79327" lon="5.4579">
        <ele>261.3</ele>
        <time>2012-10-31T13:36:18.000Z</time>
      </trkpt>
      <trkpt lat="46.79327" lon="5.45784">
        <ele>261.7</ele>
        <time>2012-10-31T13:36:24.000Z</time>
      </trkpt>
      <trkpt lat="46.79328" lon="5.45783">
        <ele>261.8</ele>
        <time>2012-10-31T13:36:25.000Z</time>
      </trkpt>
      <trkpt lat="46.79332" lon="5.45782">
        <ele>261.8</ele>
        <time>2012-10-31T13:36:28.000Z</time>
      </trkpt>
      <trkpt lat="46.79334" lon="5.45783">
        <ele>261.9</ele>
        <time>2012-10-31T13:36:29.000Z</time>
      </trkpt>
      <trkpt lat="46.79338" lon="5.45786">
        <ele>261.9</ele>
        <time>2012-10-31T13:36:32.000Z</time>
      </trkpt>
      <trkpt lat="46.79339" lon="5.45786">
        <ele>262</ele>
        <time>2012-10-31T13:36:33.000Z</time>
      </trkpt>
      <trkpt lat="46.79343" lon="5.45785">
        <ele>262.1</ele>
        <time>2012-10-31T13:36:36.000Z</time>
      </trkpt>
      <trkpt lat="46.79344" lon="5.45785">
        <ele>262.3</ele>
        <time>2012-10-31T13:36:37.000Z</time>
      </trkpt>
      <trkpt lat="46.79347" lon="5.45782">
        <ele>262.2</ele>
        <time>2012-10-31T13:36:40.000Z</time>
      </trkpt>
      <trkpt lat="46.79348" lon="5.45781">
        <ele>262.3</ele>
        <time>2012-10-31T13:36:41.000Z</time>
      </trkpt>
      <trkpt lat="46.7935" lon="5.45779">
        <ele>262.3</ele>
        <time>2012-10-31T13:36:49.000Z</time>
      </trkpt>
      <trkpt lat="46.79353" lon="5.45779">
        <ele>263.2</ele>
        <time>2012-10-31T13:36:50.000Z</time>
      </trkpt>
      <trkpt lat="46.79356" lon="5.45778">
        <ele>263.3</ele>
        <time>2012-10-31T13:36:52.000Z</time>
      </trkpt>
      <trkpt lat="46.79358" lon="5.45778">
        <ele>263.4</ele>
        <time>2012-10-31T13:36:53.000Z</time>
      </trkpt>
      <trkpt lat="46.79362" lon="5.45776">
        <ele>263.4</ele>
        <time>2012-10-31T13:36:56.000Z</time>
      </trkpt>
      <trkpt lat="46.79364" lon="5.45776">
        <ele>263.4</ele>
        <time>2012-10-31T13:36:57.000Z</time>
      </trkpt>
      <trkpt lat="46.79368" lon="5.45777">
        <ele>263.5</ele>
        <time>2012-10-31T13:37:01.000Z</time>
      </trkpt>
      <trkpt lat="46.79368" lon="5.45777">
        <ele>263.5</ele>
        <time>2012-10-31T13:37:02.000Z</time>
      </trkpt>
      <trkpt lat="46.7937" lon="5.45771">
        <ele>263.4</ele>
        <time>2012-10-31T13:37:16.000Z</time>
      </trkpt>
      <trkpt lat="46.79372" lon="5.4577">
        <ele>263.1</ele>
        <time>2012-10-31T13:37:17.000Z</time>
      </trkpt>
      <trkpt lat="46.79376" lon="5.4577">
        <ele>262.8</ele>
        <time>2012-10-31T13:37:20.000Z</time>
      </trkpt>
      <trkpt lat="46.79377" lon="5.4577">
        <ele>262.8</ele>
        <time>2012-10-31T13:37:21.000Z</time>
      </trkpt>
      <trkpt lat="46.79381" lon="5.4577">
        <ele>262.1</ele>
        <time>2012-10-31T13:37:25.000Z</time>
      </trkpt>
      <trkpt lat="46.79383" lon="5.4577">
        <ele>262</ele>
        <time>2012-10-31T13:37:26.000Z</time>
      </trkpt>
      <trkpt lat="46.79386" lon="5.45772">
        <ele>261.5</ele>
        <time>2012-10-31T13:37:33.000Z</time>
      </trkpt>
      <trkpt lat="46.79388" lon="5.45769">
        <ele>261.3</ele>
        <time>2012-10-31T13:37:34.000Z</time>
      </trkpt>
      <trkpt lat="46.79392" lon="5.45766">
        <ele>261.4</ele>
        <time>2012-10-31T13:37:39.000Z</time>
      </trkpt>
      <trkpt lat="46.79393" lon="5.45767">
        <ele>261.2</ele>
        <time>2012-10-31T13:37:40.000Z</time>
      </trkpt>
      <trkpt lat="46.79397" lon="5.45769">
        <ele>260.7</ele>
        <time>2012-10-31T13:37:43.000Z</time>
      </trkpt>
      <trkpt lat="46.79398" lon="5.45769">
        <ele>260.7</ele>
        <time>2012-10-31T13:37:44.000Z</time>
      </trkpt>
      <trkpt lat="46.794" lon="5.45771">
        <ele>260.7</ele>
        <time>2012-10-31T13:37:47.000Z</time>
      </trkpt>
      <trkpt lat="46.79403" lon="5.45769">
        <ele>260.7</ele>
        <time>2012-10-31T13:37:48.000Z</time>
      </trkpt>
      <trkpt lat="46.79407" lon="5.45768">
        <ele>260.7</ele>
        <time>2012-10-31T13:37:52.000Z</time>
      </trkpt>
      <trkpt lat="46.79409" lon="5.45768">
        <ele>260.3</ele>
        <time>2012-10-31T13:37:53.000Z</time>
      </trkpt>
      <trkpt lat="46.79413" lon="5.45767">
        <ele>260.2</ele>
        <time>2012-10-31T13:37:55.000Z</time>
      </trkpt>
      <trkpt lat="46.79414" lon="5.45767">
        <ele>260</ele>
        <time>2012-10-31T13:37:56.000Z</time>
      </trkpt>
      <trkpt lat="46.79419" lon="5.45767">
        <ele>259.7</ele>
        <time>2012-10-31T13:37:59.000Z</time>
      </trkpt>
      <trkpt lat="46.7942" lon="5.45767">
        <ele>259.6</ele>
        <time>2012-10-31T13:38:00.000Z</time>
      </trkpt>
      <trkpt lat="46.79423" lon="5.45766">
        <ele>259.6</ele>
        <time>2012-10-31T13:38:02.000Z</time>
      </trkpt>
      <trkpt lat="46.79424" lon="5.45766">
        <ele>259.6</ele>
        <time>2012-10-31T13:38:03.000Z</time>
      </trkpt>
      <trkpt lat="46.79429" lon="5.45766">
        <ele>260.1</ele>
        <time>2012-10-31T13:38:12.000Z</time>
      </trkpt>
      <trkpt lat="46.79429" lon="5.45765">
        <ele>260.1</ele>
        <time>2012-10-31T13:38:13.000Z</time>
      </trkpt>
      <trkpt lat="46.79434" lon="5.45765">
        <ele>259.5</ele>
        <time>2012-10-31T13:38:16.000Z</time>
      </trkpt>
      <trkpt lat="46.79435" lon="5.45766">
        <ele>259.4</ele>
        <time>2012-10-31T13:38:17.000Z</time>
      </trkpt>
      <trkpt lat="46.79439" lon="5.45766">
        <ele>259.3</ele>
        <time>2012-10-31T13:38:20.000Z</time>
      </trkpt>
      <trkpt lat="46.7944" lon="5.45766">
        <ele>259.1</ele>
        <time>2012-10-31T13:38:21.000Z</time>
      </trkpt>
      <trkpt lat="46.79443" lon="5.45762">
        <ele>259.1</ele>
        <time>2012-10-31T13:38:24.000Z</time>
      </trkpt>
      <trkpt lat="46.79444" lon="5.45762">
        <ele>259.1</ele>
        <time>2012-10-31T13:38:25.000Z</time>
      </trkpt>
      <trkpt lat="46.79445" lon="5.45761">
        <ele>259.1</ele>
        <time>2012-10-31T13:38:32.000Z</time>
      </trkpt>
      <trkpt lat="46.79448" lon="5.4576">
        <ele>258.5</ele>
        <time>2012-10-31T13:38:33.000Z</time>
      </trkpt>
      <trkpt lat="46.79452" lon="5.45761">
        <ele>258.4</ele>
        <time>2012-10-31T13:38:36.000Z</time>
      </trkpt>
      <trkpt lat="46.79454" lon="5.45761">
        <ele>258.3</ele>
        <time>2012-10-31T13:38:37.000Z</time>
      </trkpt>
      <trkpt lat="46.79458" lon="5.45761">
        <ele>258.2</ele>
        <time>2012-10-31T13:38:40.000Z</time>
      </trkpt>
      <trkpt lat="46.79459" lon="5.45761">
        <ele>258.2</ele>
        <time>2012-10-31T13:38:41.000Z</time>
      </trkpt>
      <trkpt lat="46.79462" lon="5.45761">
        <ele>258.2</ele>
        <time>2012-10-31T13:38:44.000Z</time>
      </trkpt>
      <trkpt lat="46.79463" lon="5.45758">
        <ele>258.2</ele>
        <time>2012-10-31T13:38:45.000Z</time>
      </trkpt>
      <trkpt lat="46.79467" lon="5.45756">
        <ele>258.3</ele>
        <time>2012-10-31T13:38:49.000Z</time>
      </trkpt>
      <trkpt lat="46.79469" lon="5.45754">
        <ele>258.3</ele>
        <time>2012-10-31T13:38:50.000Z</time>
      </trkpt>
      <trkpt lat="46.79473" lon="5.45754">
        <ele>258.6</ele>
        <time>2012-10-31T13:38:53.000Z</time>
      </trkpt>
      <trkpt lat="46.79475" lon="5.45754">
        <ele>258.5</ele>
        <time>2012-10-31T13:38:54.000Z</time>
      </trkpt>
      <trkpt lat="46.79478" lon="5.45754">
        <ele>258.6</ele>
        <time>2012-10-31T13:38:57.000Z</time>
      </trkpt>
      <trkpt lat="46.7948" lon="5.45754">
        <ele>258.6</ele>
        <time>2012-10-31T13:38:58.000Z</time>
      </trkpt>
      <trkpt lat="46.79484" lon="5.45753">
        <ele>258.5</ele>
        <time>2012-10-31T13:39:01.000Z</time>
      </trkpt>
      <trkpt lat="46.79485" lon="5.45753">
        <ele>258.4</ele>
        <time>2012-10-31T13:39:02.000Z</time>
      </trkpt>
      <trkpt lat="46.79489" lon="5.4575">
        <ele>258.4</ele>
        <time>2012-10-31T13:39:15.000Z</time>
      </trkpt>
      <trkpt lat="46.7949" lon="5.4575">
        <ele>258.6</ele>
        <time>2012-10-31T13:39:16.000Z</time>
      </trkpt>
      <trkpt lat="46.79494" lon="5.45752">
        <ele>259.2</ele>
        <time>2012-10-31T13:39:19.000Z</time>
      </trkpt>
      <trkpt lat="46.79496" lon="5.45752">
        <ele>259.3</ele>
        <time>2012-10-31T13:39:20.000Z</time>
      </trkpt>
      <trkpt lat="46.795" lon="5.45751">
        <ele>259.3</ele>
        <time>2012-10-31T13:39:22.000Z</time>
      </trkpt>
      <trkpt lat="46.79502" lon="5.45751">
        <ele>259.3</ele>
        <time>2012-10-31T13:39:23.000Z</time>
      </trkpt>
      <trkpt lat="46.79506" lon="5.45748">
        <ele>259.7</ele>
        <time>2012-10-31T13:39:25.000Z</time>
      </trkpt>
      <trkpt lat="46.79508" lon="5.45747">
        <ele>259.5</ele>
        <time>2012-10-31T13:39:26.000Z</time>
      </trkpt>
      <trkpt lat="46.79511" lon="5.45746">
        <ele>259.7</ele>
        <time>2012-10-31T13:39:28.000Z</time>
      </trkpt>
      <trkpt lat="46.79512" lon="5.45746">
        <ele>259.7</ele>
        <time>2012-10-31T13:39:29.000Z</time>
      </trkpt>
      <trkpt lat="46.79515" lon="5.45746">
        <ele>259.6</ele>
        <time>2012-10-31T13:39:32.000Z</time>
      </trkpt>
      <trkpt lat="46.79517" lon="5.45747">
        <ele>259.8</ele>
        <time>2012-10-31T13:39:33.000Z</time>
      </trkpt>
      <trkpt lat="46.7952" lon="5.45748">
        <ele>260.7</ele>
        <time>2012-10-31T13:39:36.000Z</time>
      </trkpt>
      <trkpt lat="46.79522" lon="5.45748">
        <ele>261</ele>
        <time>2012-10-31T13:39:37.000Z</time>
      </trkpt>
      <trkpt lat="46.79525" lon="5.45747">
        <ele>261.2</ele>
        <time>2012-10-31T13:39:39.000Z</time>
      </trkpt>
      <trkpt lat="46.79527" lon="5.45747">
        <ele>261.2</ele>
        <time>2012-10-31T13:39:40.000Z</time>
      </trkpt>
      <trkpt lat="46.79531" lon="5.45747">
        <ele>261</ele>
        <time>2012-10-31T13:39:43.000Z</time>
      </trkpt>
      <trkpt lat="46.79532" lon="5.45747">
        <ele>261</ele>
        <time>2012-10-31T13:39:44.000Z</time>
      </trkpt>
      <trkpt lat="46.79535" lon="5.45746">
        <ele>261.2</ele>
        <time>2012-10-31T13:39:46.000Z</time>
      </trkpt>
      <trkpt lat="46.79537" lon="5.45745">
        <ele>261.5</ele>
        <time>2012-10-31T13:39:47.000Z</time>
      </trkpt>
      <trkpt lat="46.79541" lon="5.45744">
        <ele>261.7</ele>
        <time>2012-10-31T13:39:49.000Z</time>
      </trkpt>
      <trkpt lat="46.79542" lon="5.45744">
        <ele>261.7</ele>
        <time>2012-10-31T13:39:50.000Z</time>
      </trkpt>
      <trkpt lat="46.79546" lon="5.45745">
        <ele>261</ele>
        <time>2012-10-31T13:39:53.000Z</time>
      </trkpt>
      <trkpt lat="46.79547" lon="5.45745">
        <ele>260.6</ele>
        <time>2012-10-31T13:39:54.000Z</time>
      </trkpt>
      <trkpt lat="46.7955" lon="5.45747">
        <ele>260.4</ele>
        <time>2012-10-31T13:39:57.000Z</time>
      </trkpt>
      <trkpt lat="46.79551" lon="5.45747">
        <ele>260.5</ele>
        <time>2012-10-31T13:39:58.000Z</time>
      </trkpt>
      <trkpt lat="46.79554" lon="5.45748">
        <ele>258.9</ele>
        <time>2012-10-31T13:40:00.000Z</time>
      </trkpt>
      <trkpt lat="46.79556" lon="5.45748">
        <ele>258.1</ele>
        <time>2012-10-31T13:40:01.000Z</time>
      </trkpt>
      <trkpt lat="46.7956" lon="5.45748">
        <ele>257.4</ele>
        <time>2012-10-31T13:40:03.000Z</time>
      </trkpt>
      <trkpt lat="46.79562" lon="5.45748">
        <ele>256.7</ele>
        <time>2012-10-31T13:40:04.000Z</time>
      </trkpt>
      <trkpt lat="46.79565" lon="5.45749">
        <ele>256.7</ele>
        <time>2012-10-31T13:40:06.000Z</time>
      </trkpt>
      <trkpt lat="46.79567" lon="5.45749">
        <ele>256.7</ele>
        <time>2012-10-31T13:40:07.000Z</time>
      </trkpt>
      <trkpt lat="46.79571" lon="5.45749">
        <ele>258.4</ele>
        <time>2012-10-31T13:40:13.000Z</time>
      </trkpt>
      <trkpt lat="46.79572" lon="5.45749">
        <ele>258</ele>
        <time>2012-10-31T13:40:14.000Z</time>
      </trkpt>
      <trkpt lat="46.79575" lon="5.45753">
        <ele>258.6</ele>
        <time>2012-10-31T13:40:28.000Z</time>
      </trkpt>
      <trkpt lat="46.79575" lon="5.45754">
        <ele>258.9</ele>
        <time>2012-10-31T13:40:29.000Z</time>
      </trkpt>
      <trkpt lat="46.79576" lon="5.4576">
        <ele>259.8</ele>
        <time>2012-10-31T13:40:41.000Z</time>
      </trkpt>
      <trkpt lat="46.79576" lon="5.4576">
        <ele>260.1</ele>
        <time>2012-10-31T13:40:42.000Z</time>
      </trkpt>
      <trkpt lat="46.79576" lon="5.45766">
        <ele>261.1</ele>
        <time>2012-10-31T13:40:50.000Z</time>
      </trkpt>
      <trkpt lat="46.79576" lon="5.45767">
        <ele>261.2</ele>
        <time>2012-10-31T13:40:51.000Z</time>
      </trkpt>
      <trkpt lat="46.79576" lon="5.45774">
        <ele>261.3</ele>
        <time>2012-10-31T13:40:59.000Z</time>
      </trkpt>
      <trkpt lat="46.79576" lon="5.45774">
        <ele>261.3</ele>
        <time>2012-10-31T13:41:00.000Z</time>
      </trkpt>
      <trkpt lat="46.79573" lon="5.45779">
        <ele>261.1</ele>
        <time>2012-10-31T13:41:07.000Z</time>
      </trkpt>
      <trkpt lat="46.79573" lon="5.45779">
        <ele>261.1</ele>
        <time>2012-10-31T13:41:08.000Z</time>
      </trkpt>
      <trkpt lat="46.7957" lon="5.45784">
        <ele>261.1</ele>
        <time>2012-10-31T13:41:14.000Z</time>
      </trkpt>
      <trkpt lat="46.79569" lon="5.45784">
        <ele>261.1</ele>
        <time>2012-10-31T13:41:15.000Z</time>
      </trkpt>
      <trkpt lat="46.79566" lon="5.45788">
        <ele>261.8</ele>
        <time>2012-10-31T13:41:21.000Z</time>
      </trkpt>
      <trkpt lat="46.79565" lon="5.45789">
        <ele>262.1</ele>
        <time>2012-10-31T13:41:22.000Z</time>
      </trkpt>
      <trkpt lat="46.79565" lon="5.45795">
        <ele>262.4</ele>
        <time>2012-10-31T13:41:27.000Z</time>
      </trkpt>
      <trkpt lat="46.79565" lon="5.45796">
        <ele>262.3</ele>
        <time>2012-10-31T13:41:28.000Z</time>
      </trkpt>
      <trkpt lat="46.79566" lon="5.45802">
        <ele>263.2</ele>
        <time>2012-10-31T13:41:34.000Z</time>
      </trkpt>
      <trkpt lat="46.79566" lon="5.45803">
        <ele>263.4</ele>
        <time>2012-10-31T13:41:35.000Z</time>
      </trkpt>
      <trkpt lat="46.79569" lon="5.45807">
        <ele>262.3</ele>
        <time>2012-10-31T13:41:40.000Z</time>
      </trkpt>
      <trkpt lat="46.7957" lon="5.45808">
        <ele>262</ele>
        <time>2012-10-31T13:41:41.000Z</time>
      </trkpt>
      <trkpt lat="46.79571" lon="5.45813">
        <ele>262</ele>
        <time>2012-10-31T13:41:49.000Z</time>
      </trkpt>
      <trkpt lat="46.79571" lon="5.45814">
        <ele>262.1</ele>
        <time>2012-10-31T13:41:50.000Z</time>
      </trkpt>
      <trkpt lat="46.79567" lon="5.45813">
        <ele>262.5</ele>
        <time>2012-10-31T13:41:55.000Z</time>
      </trkpt>
      <trkpt lat="46.79566" lon="5.45813">
        <ele>262.7</ele>
        <time>2012-10-31T13:41:56.000Z</time>
      </trkpt>
      <trkpt lat="46.79562" lon="5.45814">
        <ele>263.4</ele>
        <time>2012-10-31T13:42:00.000Z</time>
      </trkpt>
      <trkpt lat="46.79561" lon="5.45815">
        <ele>263.8</ele>
        <time>2012-10-31T13:42:01.000Z</time>
      </trkpt>
      <trkpt lat="46.7956" lon="5.45819">
        <ele>264.4</ele>
        <time>2012-10-31T13:42:04.000Z</time>
      </trkpt>
      <trkpt lat="46.79559" lon="5.4582">
        <ele>264.7</ele>
        <time>2012-10-31T13:42:05.000Z</time>
      </trkpt>
      <trkpt lat="46.79557" lon="5.45825">
        <ele>264.8</ele>
        <time>2012-10-31T13:42:09.000Z</time>
      </trkpt>
      <trkpt lat="46.79556" lon="5.45825">
        <ele>264.9</ele>
        <time>2012-10-31T13:42:10.000Z</time>
      </trkpt>
      <trkpt lat="46.79552" lon="5.45829">
        <ele>265</ele>
        <time>2012-10-31T13:42:16.000Z</time>
      </trkpt>
      <trkpt lat="46.79552" lon="5.45829">
        <ele>265</ele>
        <time>2012-10-31T13:42:17.000Z</time>
      </trkpt>
      <trkpt lat="46.7955" lon="5.45834">
        <ele>265.7</ele>
        <time>2012-10-31T13:42:23.000Z</time>
      </trkpt>
      <trkpt lat="46.79549" lon="5.45835">
        <ele>265.7</ele>
        <time>2012-10-31T13:42:24.000Z</time>
      </trkpt>
      <trkpt lat="46.79547" lon="5.4584">
        <ele>266.1</ele>
        <time>2012-10-31T13:42:30.000Z</time>
      </trkpt>
      <trkpt lat="46.79547" lon="5.45841">
        <ele>266.4</ele>
        <time>2012-10-31T13:42:31.000Z</time>
      </trkpt>
      <trkpt lat="46.79545" lon="5.45846">
        <ele>266.6</ele>
        <time>2012-10-31T13:42:34.000Z</time>
      </trkpt>
      <trkpt lat="46.79544" lon="5.45847">
        <ele>266.8</ele>
        <time>2012-10-31T13:42:35.000Z</time>
      </trkpt>
      <trkpt lat="46.79542" lon="5.45853">
        <ele>267</ele>
        <time>2012-10-31T13:42:39.000Z</time>
      </trkpt>
      <trkpt lat="46.79542" lon="5.45853">
        <ele>267</ele>
        <time>2012-10-31T13:42:40.000Z</time>
      </trkpt>
      <trkpt lat="46.79545" lon="5.45858">
        <ele>266.2</ele>
        <time>2012-10-31T13:42:47.000Z</time>
      </trkpt>
      <trkpt lat="46.79545" lon="5.45859">
        <ele>266.1</ele>
        <time>2012-10-31T13:42:48.000Z</time>
      </trkpt>
      <trkpt lat="46.79549" lon="5.4586">
        <ele>266.3</ele>
        <time>2012-10-31T13:42:53.000Z</time>
      </trkpt>
      <trkpt lat="46.7955" lon="5.45861">
        <ele>266.4</ele>
        <time>2012-10-31T13:42:54.000Z</time>
      </trkpt>
      <trkpt lat="46.79552" lon="5.45866">
        <ele>265.7</ele>
        <time>2012-10-31T13:42:58.000Z</time>
      </trkpt>
      <trkpt lat="46.79552" lon="5.45867">
        <ele>266</ele>
        <time>2012-10-31T13:42:59.000Z</time>
      </trkpt>
      <trkpt lat="46.79552" lon="5.45873">
        <ele>266.1</ele>
        <time>2012-10-31T13:43:03.000Z</time>
      </trkpt>
      <trkpt lat="46.79552" lon="5.45874">
        <ele>266.2</ele>
        <time>2012-10-31T13:43:04.000Z</time>
      </trkpt>
      <trkpt lat="46.79554" lon="5.4588">
        <ele>267</ele>
        <time>2012-10-31T13:43:09.000Z</time>
      </trkpt>
      <trkpt lat="46.79554" lon="5.45881">
        <ele>267.2</ele>
        <time>2012-10-31T13:43:10.000Z</time>
      </trkpt>
      <trkpt lat="46.79557" lon="5.45885">
        <ele>266.6</ele>
        <time>2012-10-31T13:43:14.000Z</time>
      </trkpt>
      <trkpt lat="46.79558" lon="5.45886">
        <ele>266.4</ele>
        <time>2012-10-31T13:43:15.000Z</time>
      </trkpt>
      <trkpt lat="46.79562" lon="5.45888">
        <ele>266.5</ele>
        <time>2012-10-31T13:43:19.000Z</time>
      </trkpt>
      <trkpt lat="46.79563" lon="5.45889">
        <ele>266.4</ele>
        <time>2012-10-31T13:43:20.000Z</time>
      </trkpt>
      <trkpt lat="46.79566" lon="5.45891">
        <ele>265.7</ele>
        <time>2012-10-31T13:43:25.000Z</time>
      </trkpt>
      <trkpt lat="46.79567" lon="5.45892">
        <ele>265.8</ele>
        <time>2012-10-31T13:43:26.000Z</time>
      </trkpt>
      <trkpt lat="46.79565" lon="5.45897">
        <ele>266.4</ele>
        <time>2012-10-31T13:43:32.000Z</time>
      </trkpt>
      <trkpt lat="46.79564" lon="5.45898">
        <ele>266.2</ele>
        <time>2012-10-31T13:43:33.000Z</time>
      </trkpt>
      <trkpt lat="46.7956" lon="5.45898">
        <ele>266.1</ele>
        <time>2012-10-31T13:43:36.000Z</time>
      </trkpt>
      <trkpt lat="46.79559" lon="5.45898">
        <ele>266.1</ele>
        <time>2012-10-31T13:43:37.000Z</time>
      </trkpt>
      <trkpt lat="46.79555" lon="5.45899">
        <ele>266.2</ele>
        <time>2012-10-31T13:43:41.000Z</time>
      </trkpt>
      <trkpt lat="46.79554" lon="5.45899">
        <ele>266.2</ele>
        <time>2012-10-31T13:43:42.000Z</time>
      </trkpt>
      <trkpt lat="46.79552" lon="5.45905">
        <ele>266.4</ele>
        <time>2012-10-31T13:43:47.000Z</time>
      </trkpt>
      <trkpt lat="46.79552" lon="5.45906">
        <ele>266.4</ele>
        <time>2012-10-31T13:43:48.000Z</time>
      </trkpt>
      <trkpt lat="46.79549" lon="5.4591">
        <ele>266.4</ele>
        <time>2012-10-31T13:43:51.000Z</time>
      </trkpt>
      <trkpt lat="46.79548" lon="5.4591">
        <ele>266.4</ele>
        <time>2012-10-31T13:43:52.000Z</time>
      </trkpt>
      <trkpt lat="46.79545" lon="5.45912">
        <ele>266.6</ele>
        <time>2012-10-31T13:43:55.000Z</time>
      </trkpt>
      <trkpt lat="46.79544" lon="5.45913">
        <ele>266.6</ele>
        <time>2012-10-31T13:43:56.000Z</time>
      </trkpt>
      <trkpt lat="46.79541" lon="5.45916">
        <ele>267</ele>
        <time>2012-10-31T13:43:59.000Z</time>
      </trkpt>
      <trkpt lat="46.7954" lon="5.45918">
        <ele>267.2</ele>
        <time>2012-10-31T13:44:00.000Z</time>
      </trkpt>
      <trkpt lat="46.79538" lon="5.45922">
        <ele>268.1</ele>
        <time>2012-10-31T13:44:02.000Z</time>
      </trkpt>
      <trkpt lat="46.79538" lon="5.45924">
        <ele>268.3</ele>
        <time>2012-10-31T13:44:03.000Z</time>
      </trkpt>
      <trkpt lat="46.79537" lon="5.45929">
        <ele>268.5</ele>
        <time>2012-10-31T13:44:06.000Z</time>
      </trkpt>
      <trkpt lat="46.79536" lon="5.45931">
        <ele>268.4</ele>
        <time>2012-10-31T13:44:07.000Z</time>
      </trkpt>
      <trkpt lat="46.79536" lon="5.45936">
        <ele>268</ele>
        <time>2012-10-31T13:44:10.000Z</time>
      </trkpt>
      <trkpt lat="46.79536" lon="5.45938">
        <ele>268</ele>
        <time>2012-10-31T13:44:11.000Z</time>
      </trkpt>
      <trkpt lat="46.79537" lon="5.45944">
        <ele>267.6</ele>
        <time>2012-10-31T13:44:15.000Z</time>
      </trkpt>
      <trkpt lat="46.79537" lon="5.45946">
        <ele>267.5</ele>
        <time>2012-10-31T13:44:16.000Z</time>
      </trkpt>
      <trkpt lat="46.79538" lon="5.45951">
        <ele>267.7</ele>
        <time>2012-10-31T13:44:20.000Z</time>
      </trkpt>
      <trkpt lat="46.79538" lon="5.45953">
        <ele>267.2</ele>
        <time>2012-10-31T13:44:21.000Z</time>
      </trkpt>
      <trkpt lat="46.79539" lon="5.45958">
        <ele>267</ele>
        <time>2012-10-31T13:44:26.000Z</time>
      </trkpt>
      <trkpt lat="46.79539" lon="5.45959">
        <ele>267</ele>
        <time>2012-10-31T13:44:27.000Z</time>
      </trkpt>
      <trkpt lat="46.7954" lon="5.45965">
        <ele>267.3</ele>
        <time>2012-10-31T13:44:31.000Z</time>
      </trkpt>
      <trkpt lat="46.7954" lon="5.45967">
        <ele>267.3</ele>
        <time>2012-10-31T13:44:32.000Z</time>
      </trkpt>
      <trkpt lat="46.79541" lon="5.45973">
        <ele>267.1</ele>
        <time>2012-10-31T13:44:36.000Z</time>
      </trkpt>
      <trkpt lat="46.79542" lon="5.45974">
        <ele>267.2</ele>
        <time>2012-10-31T13:44:37.000Z</time>
      </trkpt>
      <trkpt lat="46.79543" lon="5.45979">
        <ele>267.5</ele>
        <time>2012-10-31T13:44:40.000Z</time>
      </trkpt>
      <trkpt lat="46.79543" lon="5.45981">
        <ele>267.3</ele>
        <time>2012-10-31T13:44:41.000Z</time>
      </trkpt>
      <trkpt lat="46.79544" lon="5.45987">
        <ele>267.3</ele>
        <time>2012-10-31T13:44:45.000Z</time>
      </trkpt>
      <trkpt lat="46.79544" lon="5.45988">
        <ele>267.2</ele>
        <time>2012-10-31T13:44:46.000Z</time>
      </trkpt>
      <trkpt lat="46.79545" lon="5.45994">
        <ele>266.7</ele>
        <time>2012-10-31T13:44:50.000Z</time>
      </trkpt>
      <trkpt lat="46.79546" lon="5.45995">
        <ele>266.6</ele>
        <time>2012-10-31T13:44:51.000Z</time>
      </trkpt>
      <trkpt lat="46.79546" lon="5.46002">
        <ele>266.3</ele>
        <time>2012-10-31T13:44:55.000Z</time>
      </trkpt>
      <trkpt lat="46.79546" lon="5.46003">
        <ele>266.2</ele>
        <time>2012-10-31T13:44:56.000Z</time>
      </trkpt>
      <trkpt lat="46.79547" lon="5.46009">
        <ele>266.3</ele>
        <time>2012-10-31T13:45:00.000Z</time>
      </trkpt>
      <trkpt lat="46.79547" lon="5.46011">
        <ele>266.2</ele>
        <time>2012-10-31T13:45:01.000Z</time>
      </trkpt>
      <trkpt lat="46.79548" lon="5.46017">
        <ele>266</ele>
        <time>2012-10-31T13:45:06.000Z</time>
      </trkpt>
      <trkpt lat="46.79548" lon="5.46018">
        <ele>265.9</ele>
        <time>2012-10-31T13:45:07.000Z</time>
      </trkpt>
      <trkpt lat="46.79548" lon="5.46024">
        <ele>265.2</ele>
        <time>2012-10-31T13:45:11.000Z</time>
      </trkpt>
      <trkpt lat="46.79547" lon="5.46026">
        <ele>265</ele>
        <time>2012-10-31T13:45:12.000Z</time>
      </trkpt>
      <trkpt lat="46.79546" lon="5.46032">
        <ele>264.6</ele>
        <time>2012-10-31T13:45:16.000Z</time>
      </trkpt>
      <trkpt lat="46.79546" lon="5.46033">
        <ele>264.5</ele>
        <time>2012-10-31T13:45:17.000Z</time>
      </trkpt>
      <trkpt lat="46.79545" lon="5.46039">
        <ele>264.1</ele>
        <time>2012-10-31T13:45:21.000Z</time>
      </trkpt>
      <trkpt lat="46.79545" lon="5.4604">
        <ele>264.1</ele>
        <time>2012-10-31T13:45:22.000Z</time>
      </trkpt>
      <trkpt lat="46.79544" lon="5.46046">
        <ele>263.7</ele>
        <time>2012-10-31T13:45:27.000Z</time>
      </trkpt>
      <trkpt lat="46.79543" lon="5.46047">
        <ele>263.7</ele>
        <time>2012-10-31T13:45:28.000Z</time>
      </trkpt>
      <trkpt lat="46.79542" lon="5.46053">
        <ele>264.2</ele>
        <time>2012-10-31T13:45:33.000Z</time>
      </trkpt>
      <trkpt lat="46.79542" lon="5.46054">
        <ele>264.5</ele>
        <time>2012-10-31T13:45:34.000Z</time>
      </trkpt>
      <trkpt lat="46.7954" lon="5.46059">
        <ele>264.5</ele>
        <time>2012-10-31T13:45:37.000Z</time>
      </trkpt>
      <trkpt lat="46.7954" lon="5.4606">
        <ele>264.5</ele>
        <time>2012-10-31T13:45:38.000Z</time>
      </trkpt>
      <trkpt lat="46.79538" lon="5.46066">
        <ele>264.8</ele>
        <time>2012-10-31T13:45:42.000Z</time>
      </trkpt>
      <trkpt lat="46.79538" lon="5.46067">
        <ele>264.8</ele>
        <time>2012-10-31T13:45:43.000Z</time>
      </trkpt>
      <trkpt lat="46.79535" lon="5.46073">
        <ele>264.5</ele>
        <time>2012-10-31T13:45:47.000Z</time>
      </trkpt>
      <trkpt lat="46.79535" lon="5.46075">
        <ele>264.4</ele>
        <time>2012-10-31T13:45:48.000Z</time>
      </trkpt>
      <trkpt lat="46.79533" lon="5.4608">
        <ele>264.9</ele>
        <time>2012-10-31T13:45:51.000Z</time>
      </trkpt>
      <trkpt lat="46.79533" lon="5.46081">
        <ele>265.1</ele>
        <time>2012-10-31T13:45:52.000Z</time>
      </trkpt>
      <trkpt lat="46.79531" lon="5.46087">
        <ele>265.5</ele>
        <time>2012-10-31T13:45:55.000Z</time>
      </trkpt>
      <trkpt lat="46.79531" lon="5.46089">
        <ele>265.6</ele>
        <time>2012-10-31T13:45:56.000Z</time>
      </trkpt>
      <trkpt lat="46.79529" lon="5.46094">
        <ele>265.9</ele>
        <time>2012-10-31T13:45:59.000Z</time>
      </trkpt>
      <trkpt lat="46.79529" lon="5.46095">
        <ele>266</ele>
        <time>2012-10-31T13:46:00.000Z</time>
      </trkpt>
      <trkpt lat="46.79527" lon="5.46101">
        <ele>265.9</ele>
        <time>2012-10-31T13:46:04.000Z</time>
      </trkpt>
      <trkpt lat="46.79527" lon="5.46102">
        <ele>265.9</ele>
        <time>2012-10-31T13:46:05.000Z</time>
      </trkpt>
      <trkpt lat="46.79525" lon="5.46106">
        <ele>266.5</ele>
        <time>2012-10-31T13:46:08.000Z</time>
      </trkpt>
      <trkpt lat="46.79524" lon="5.46108">
        <ele>266.8</ele>
        <time>2012-10-31T13:46:09.000Z</time>
      </trkpt>
      <trkpt lat="46.79522" lon="5.46113">
        <ele>267.1</ele>
        <time>2012-10-31T13:46:12.000Z</time>
      </trkpt>
      <trkpt lat="46.79522" lon="5.46115">
        <ele>267</ele>
        <time>2012-10-31T13:46:13.000Z</time>
      </trkpt>
      <trkpt lat="46.7952" lon="5.4612">
        <ele>267.6</ele>
        <time>2012-10-31T13:46:16.000Z</time>
      </trkpt>
      <trkpt lat="46.7952" lon="5.46122">
        <ele>267.8</ele>
        <time>2012-10-31T13:46:17.000Z</time>
      </trkpt>
      <trkpt lat="46.79521" lon="5.46128">
        <ele>268.2</ele>
        <time>2012-10-31T13:46:21.000Z</time>
      </trkpt>
      <trkpt lat="46.79522" lon="5.46129">
        <ele>268.1</ele>
        <time>2012-10-31T13:46:22.000Z</time>
      </trkpt>
      <trkpt lat="46.79525" lon="5.46132">
        <ele>268.2</ele>
        <time>2012-10-31T13:46:26.000Z</time>
      </trkpt>
      <trkpt lat="46.79525" lon="5.46133">
        <ele>268.1</ele>
        <time>2012-10-31T13:46:27.000Z</time>
      </trkpt>
      <trkpt lat="46.79529" lon="5.46137">
        <ele>267.9</ele>
        <time>2012-10-31T13:46:33.000Z</time>
      </trkpt>
      <trkpt lat="46.79529" lon="5.46137">
        <ele>267.9</ele>
        <time>2012-10-31T13:46:34.000Z</time>
      </trkpt>
      <trkpt lat="46.79533" lon="5.46141">
        <ele>268.8</ele>
        <time>2012-10-31T13:46:40.000Z</time>
      </trkpt>
      <trkpt lat="46.79534" lon="5.46141">
        <ele>268.8</ele>
        <time>2012-10-31T13:46:41.000Z</time>
      </trkpt>
      <trkpt lat="46.79537" lon="5.46143">
        <ele>268.9</ele>
        <time>2012-10-31T13:46:45.000Z</time>
      </trkpt>
      <trkpt lat="46.79538" lon="5.46143">
        <ele>269.1</ele>
        <time>2012-10-31T13:46:46.000Z</time>
      </trkpt>
      <trkpt lat="46.79542" lon="5.46146">
        <ele>269.6</ele>
        <time>2012-10-31T13:46:51.000Z</time>
      </trkpt>
      <trkpt lat="46.79543" lon="5.46147">
        <ele>269.7</ele>
        <time>2012-10-31T13:46:52.000Z</time>
      </trkpt>
      <trkpt lat="46.79546" lon="5.46149">
        <ele>270.7</ele>
        <time>2012-10-31T13:46:56.000Z</time>
      </trkpt>
      <trkpt lat="46.79547" lon="5.46149">
        <ele>270.8</ele>
        <time>2012-10-31T13:46:57.000Z</time>
      </trkpt>
      <trkpt lat="46.79551" lon="5.46151">
        <ele>271.2</ele>
        <time>2012-10-31T13:47:01.000Z</time>
      </trkpt>
      <trkpt lat="46.79552" lon="5.46152">
        <ele>271.3</ele>
        <time>2012-10-31T13:47:02.000Z</time>
      </trkpt>
      <trkpt lat="46.79556" lon="5.46154">
        <ele>271.9</ele>
        <time>2012-10-31T13:47:06.000Z</time>
      </trkpt>
      <trkpt lat="46.79557" lon="5.46154">
        <ele>271.4</ele>
        <time>2012-10-31T13:47:07.000Z</time>
      </trkpt>
      <trkpt lat="46.79561" lon="5.46155">
        <ele>271.5</ele>
        <time>2012-10-31T13:47:10.000Z</time>
      </trkpt>
      <trkpt lat="46.79562" lon="5.46156">
        <ele>271.6</ele>
        <time>2012-10-31T13:47:11.000Z</time>
      </trkpt>
      <trkpt lat="46.79566" lon="5.46158">
        <ele>271.7</ele>
        <time>2012-10-31T13:47:15.000Z</time>
      </trkpt>
      <trkpt lat="46.7959" lon="5.46178">
        <ele>285.4</ele>
        <time>2012-10-31T13:47:25.000Z</time>
      </trkpt>
      <trkpt lat="46.79593" lon="5.46178">
        <ele>286.5</ele>
        <time>2012-10-31T13:47:27.000Z</time>
      </trkpt>
      <trkpt lat="46.79595" lon="5.46179">
        <ele>286.4</ele>
        <time>2012-10-31T13:47:28.000Z</time>
      </trkpt>
      <trkpt lat="46.79598" lon="5.46181">
        <ele>287.2</ele>
        <time>2012-10-31T13:47:32.000Z</time>
      </trkpt>
      <trkpt lat="46.79599" lon="5.46181">
        <ele>287.4</ele>
        <time>2012-10-31T13:47:33.000Z</time>
      </trkpt>
      <trkpt lat="46.79603" lon="5.46183">
        <ele>286.9</ele>
        <time>2012-10-31T13:47:39.000Z</time>
      </trkpt>
      <trkpt lat="46.79603" lon="5.46183">
        <ele>286.7</ele>
        <time>2012-10-31T13:47:40.000Z</time>
      </trkpt>
      <trkpt lat="46.79607" lon="5.46184">
        <ele>281.2</ele>
        <time>2012-10-31T13:47:47.000Z</time>
      </trkpt>
      <trkpt lat="46.79608" lon="5.46185">
        <ele>280.8</ele>
        <time>2012-10-31T13:47:48.000Z</time>
      </trkpt>
      <trkpt lat="46.79612" lon="5.46185">
        <ele>281.8</ele>
        <time>2012-10-31T13:47:53.000Z</time>
      </trkpt>
      <trkpt lat="46.79613" lon="5.46185">
        <ele>281.6</ele>
        <time>2012-10-31T13:47:54.000Z</time>
      </trkpt>
      <trkpt lat="46.79617" lon="5.46187">
        <ele>279.5</ele>
        <time>2012-10-31T13:48:01.000Z</time>
      </trkpt>
      <trkpt lat="46.79618" lon="5.46187">
        <ele>279.2</ele>
        <time>2012-10-31T13:48:02.000Z</time>
      </trkpt>
      <trkpt lat="46.79621" lon="5.46188">
        <ele>278.6</ele>
        <time>2012-10-31T13:48:07.000Z</time>
      </trkpt>
      <trkpt lat="46.79623" lon="5.46189">
        <ele>278.7</ele>
        <time>2012-10-31T13:48:08.000Z</time>
      </trkpt>
      <trkpt lat="46.79627" lon="5.4619">
        <ele>277.3</ele>
        <time>2012-10-31T13:48:11.000Z</time>
      </trkpt>
      <trkpt lat="46.79628" lon="5.46191">
        <ele>276.7</ele>
        <time>2012-10-31T13:48:12.000Z</time>
      </trkpt>
      <trkpt lat="46.79629" lon="5.46197">
        <ele>273</ele>
        <time>2012-10-31T13:48:17.000Z</time>
      </trkpt>
      <trkpt lat="46.79628" lon="5.46198">
        <ele>272.8</ele>
        <time>2012-10-31T13:48:18.000Z</time>
      </trkpt>
      <trkpt lat="46.79628" lon="5.46204">
        <ele>270.2</ele>
        <time>2012-10-31T13:48:26.000Z</time>
      </trkpt>
      <trkpt lat="46.79629" lon="5.46205">
        <ele>270.3</ele>
        <time>2012-10-31T13:48:27.000Z</time>
      </trkpt>
      <trkpt lat="46.79632" lon="5.46206">
        <ele>270.2</ele>
        <time>2012-10-31T13:48:41.000Z</time>
      </trkpt>
      <trkpt lat="46.79633" lon="5.46206">
        <ele>270.5</ele>
        <time>2012-10-31T13:48:42.000Z</time>
      </trkpt>
      <trkpt lat="46.79637" lon="5.46205">
        <ele>271.4</ele>
        <time>2012-10-31T13:48:45.000Z</time>
      </trkpt>
      <trkpt lat="46.79638" lon="5.46204">
        <ele>271.4</ele>
        <time>2012-10-31T13:48:46.000Z</time>
      </trkpt>
      <trkpt lat="46.79643" lon="5.46202">
        <ele>271.3</ele>
        <time>2012-10-31T13:48:50.000Z</time>
      </trkpt>
      <trkpt lat="46.79643" lon="5.46203">
        <ele>271.4</ele>
        <time>2012-10-31T13:48:51.000Z</time>
      </trkpt>
      <trkpt lat="46.79646" lon="5.46207">
        <ele>271.2</ele>
        <time>2012-10-31T13:48:57.000Z</time>
      </trkpt>
      <trkpt lat="46.79647" lon="5.46208">
        <ele>271</ele>
        <time>2012-10-31T13:48:58.000Z</time>
      </trkpt>
      <trkpt lat="46.79651" lon="5.4621">
        <ele>270.7</ele>
        <time>2012-10-31T13:49:03.000Z</time>
      </trkpt>
      <trkpt lat="46.79652" lon="5.4621">
        <ele>270.6</ele>
        <time>2012-10-31T13:49:04.000Z</time>
      </trkpt>
      <trkpt lat="46.79655" lon="5.46211">
        <ele>270</ele>
        <time>2012-10-31T13:49:08.000Z</time>
      </trkpt>
      <trkpt lat="46.79656" lon="5.46211">
        <ele>269.9</ele>
        <time>2012-10-31T13:49:09.000Z</time>
      </trkpt>
      <trkpt lat="46.7966" lon="5.46211">
        <ele>269.5</ele>
        <time>2012-10-31T13:49:15.000Z</time>
      </trkpt>
      <trkpt lat="46.79661" lon="5.46211">
        <ele>269.1</ele>
        <time>2012-10-31T13:49:16.000Z</time>
      </trkpt>
      <trkpt lat="46.79665" lon="5.46213">
        <ele>268.9</ele>
        <time>2012-10-31T13:49:19.000Z</time>
      </trkpt>
      <trkpt lat="46.79666" lon="5.46214">
        <ele>268.9</ele>
        <time>2012-10-31T13:49:20.000Z</time>
      </trkpt>
      <trkpt lat="46.79668" lon="5.46218">
        <ele>268.7</ele>
        <time>2012-10-31T13:49:26.000Z</time>
      </trkpt>
      <trkpt lat="46.79669" lon="5.46219">
        <ele>268.7</ele>
        <time>2012-10-31T13:49:27.000Z</time>
      </trkpt>
      <trkpt lat="46.79672" lon="5.46222">
        <ele>267</ele>
        <time>2012-10-31T13:49:33.000Z</time>
      </trkpt>
      <trkpt lat="46.79673" lon="5.46223">
        <ele>267</ele>
        <time>2012-10-31T13:49:34.000Z</time>
      </trkpt>
      <trkpt lat="46.79675" lon="5.46227">
        <ele>267.1</ele>
        <time>2012-10-31T13:49:38.000Z</time>
      </trkpt>
      <trkpt lat="46.79676" lon="5.46228">
        <ele>267.2</ele>
        <time>2012-10-31T13:49:39.000Z</time>
      </trkpt>
      <trkpt lat="46.79678" lon="5.4623">
        <ele>267</ele>
        <time>2012-10-31T13:49:42.000Z</time>
      </trkpt>
      <trkpt lat="46.7968" lon="5.46231">
        <ele>267.2</ele>
        <time>2012-10-31T13:49:43.000Z</time>
      </trkpt>
      <trkpt lat="46.79683" lon="5.46234">
        <ele>267.3</ele>
        <time>2012-10-31T13:49:47.000Z</time>
      </trkpt>
      <trkpt lat="46.79684" lon="5.46235">
        <ele>267.5</ele>
        <time>2012-10-31T13:49:48.000Z</time>
      </trkpt>
      <trkpt lat="46.79688" lon="5.46237">
        <ele>267</ele>
        <time>2012-10-31T13:49:52.000Z</time>
      </trkpt>
      <trkpt lat="46.79689" lon="5.46238">
        <ele>267</ele>
        <time>2012-10-31T13:49:53.000Z</time>
      </trkpt>
      <trkpt lat="46.79692" lon="5.4624">
        <ele>266.9</ele>
        <time>2012-10-31T13:49:56.000Z</time>
      </trkpt>
      <trkpt lat="46.79694" lon="5.46241">
        <ele>266.9</ele>
        <time>2012-10-31T13:49:57.000Z</time>
      </trkpt>
      <trkpt lat="46.79697" lon="5.46242">
        <ele>266.9</ele>
        <time>2012-10-31T13:50:00.000Z</time>
      </trkpt>
      <trkpt lat="46.79698" lon="5.46243">
        <ele>267.2</ele>
        <time>2012-10-31T13:50:01.000Z</time>
      </trkpt>
      <trkpt lat="46.79702" lon="5.46246">
        <ele>267.3</ele>
        <time>2012-10-31T13:50:06.000Z</time>
      </trkpt>
      <trkpt lat="46.79703" lon="5.46247">
        <ele>267.3</ele>
        <time>2012-10-31T13:50:07.000Z</time>
      </trkpt>
      <trkpt lat="46.79707" lon="5.46248">
        <ele>267.6</ele>
        <time>2012-10-31T13:50:11.000Z</time>
      </trkpt>
      <trkpt lat="46.79708" lon="5.46249">
        <ele>267.5</ele>
        <time>2012-10-31T13:50:12.000Z</time>
      </trkpt>
      <trkpt lat="46.79712" lon="5.46249">
        <ele>267.8</ele>
        <time>2012-10-31T13:50:17.000Z</time>
      </trkpt>
      <trkpt lat="46.79713" lon="5.4625">
        <ele>267.9</ele>
        <time>2012-10-31T13:50:18.000Z</time>
      </trkpt>
      <trkpt lat="46.79717" lon="5.46252">
        <ele>268.3</ele>
        <time>2012-10-31T13:50:22.000Z</time>
      </trkpt>
      <trkpt lat="46.79718" lon="5.46253">
        <ele>268.6</ele>
        <time>2012-10-31T13:50:23.000Z</time>
      </trkpt>
      <trkpt lat="46.79721" lon="5.46257">
        <ele>269.3</ele>
        <time>2012-10-31T13:50:28.000Z</time>
      </trkpt>
      <trkpt lat="46.79721" lon="5.46257">
        <ele>269.4</ele>
        <time>2012-10-31T13:50:29.000Z</time>
      </trkpt>
      <trkpt lat="46.79724" lon="5.46261">
        <ele>269.8</ele>
        <time>2012-10-31T13:50:34.000Z</time>
      </trkpt>
      <trkpt lat="46.79725" lon="5.46261">
        <ele>269.8</ele>
        <time>2012-10-31T13:50:35.000Z</time>
      </trkpt>
      <trkpt lat="46.79728" lon="5.46263">
        <ele>270.1</ele>
        <time>2012-10-31T13:50:38.000Z</time>
      </trkpt>
      <trkpt lat="46.79729" lon="5.46263">
        <ele>270.2</ele>
        <time>2012-10-31T13:50:39.000Z</time>
      </trkpt>
      <trkpt lat="46.79733" lon="5.46267">
        <ele>270.5</ele>
        <time>2012-10-31T13:50:44.000Z</time>
      </trkpt>
      <trkpt lat="46.79734" lon="5.46267">
        <ele>270.8</ele>
        <time>2012-10-31T13:50:45.000Z</time>
      </trkpt>
      <trkpt lat="46.79737" lon="5.46269">
        <ele>270.9</ele>
        <time>2012-10-31T13:50:48.000Z</time>
      </trkpt>
      <trkpt lat="46.79738" lon="5.46269">
        <ele>270.9</ele>
        <time>2012-10-31T13:50:49.000Z</time>
      </trkpt>
      <trkpt lat="46.79742" lon="5.46272">
        <ele>270.1</ele>
        <time>2012-10-31T13:50:53.000Z</time>
      </trkpt>
      <trkpt lat="46.79743" lon="5.46273">
        <ele>270</ele>
        <time>2012-10-31T13:50:54.000Z</time>
      </trkpt>
      <trkpt lat="46.79746" lon="5.46276">
        <ele>269.8</ele>
        <time>2012-10-31T13:50:57.000Z</time>
      </trkpt>
      <trkpt lat="46.79747" lon="5.46276">
        <ele>269.5</ele>
        <time>2012-10-31T13:50:58.000Z</time>
      </trkpt>
      <trkpt lat="46.7975" lon="5.46279">
        <ele>269.1</ele>
        <time>2012-10-31T13:51:01.000Z</time>
      </trkpt>
      <trkpt lat="46.79751" lon="5.4628">
        <ele>269.2</ele>
        <time>2012-10-31T13:51:02.000Z</time>
      </trkpt>
      <trkpt lat="46.79754" lon="5.46282">
        <ele>269</ele>
        <time>2012-10-31T13:51:05.000Z</time>
      </trkpt>
      <trkpt lat="46.79755" lon="5.46283">
        <ele>268.9</ele>
        <time>2012-10-31T13:51:06.000Z</time>
      </trkpt>
      <trkpt lat="46.79758" lon="5.46284">
        <ele>268.8</ele>
        <time>2012-10-31T13:51:09.000Z</time>
      </trkpt>
      <trkpt lat="46.7976" lon="5.46285">
        <ele>268.6</ele>
        <time>2012-10-31T13:51:10.000Z</time>
      </trkpt>
      <trkpt lat="46.79764" lon="5.46287">
        <ele>267.9</ele>
        <time>2012-10-31T13:51:14.000Z</time>
      </trkpt>
      <trkpt lat="46.79765" lon="5.46287">
        <ele>267.9</ele>
        <time>2012-10-31T13:51:15.000Z</time>
      </trkpt>
      <trkpt lat="46.79769" lon="5.46289">
        <ele>267.4</ele>
        <time>2012-10-31T13:51:18.000Z</time>
      </trkpt>
      <trkpt lat="46.7977" lon="5.4629">
        <ele>267.1</ele>
        <time>2012-10-31T13:51:19.000Z</time>
      </trkpt>
      <trkpt lat="46.79774" lon="5.46293">
        <ele>265</ele>
        <time>2012-10-31T13:51:23.000Z</time>
      </trkpt>
      <trkpt lat="46.79775" lon="5.46293">
        <ele>264.5</ele>
        <time>2012-10-31T13:51:24.000Z</time>
      </trkpt>
      <trkpt lat="46.79778" lon="5.46293">
        <ele>263.9</ele>
        <time>2012-10-31T13:51:26.000Z</time>
      </trkpt>
      <trkpt lat="46.7978" lon="5.46293">
        <ele>263.6</ele>
        <time>2012-10-31T13:51:27.000Z</time>
      </trkpt>
      <trkpt lat="46.79783" lon="5.46294">
        <ele>263.3</ele>
        <time>2012-10-31T13:51:29.000Z</time>
      </trkpt>
      <trkpt lat="46.79784" lon="5.46295">
        <ele>263.3</ele>
        <time>2012-10-31T13:51:30.000Z</time>
      </trkpt>
      <trkpt lat="46.79787" lon="5.46296">
        <ele>262.9</ele>
        <time>2012-10-31T13:51:32.000Z</time>
      </trkpt>
      <trkpt lat="46.79789" lon="5.46296">
        <ele>262.7</ele>
        <time>2012-10-31T13:51:33.000Z</time>
      </trkpt>
      <trkpt lat="46.79793" lon="5.46298">
        <ele>261.8</ele>
        <time>2012-10-31T13:51:36.000Z</time>
      </trkpt>
      <trkpt lat="46.79794" lon="5.46299">
        <ele>261.6</ele>
        <time>2012-10-31T13:51:37.000Z</time>
      </trkpt>
      <trkpt lat="46.79797" lon="5.46301">
        <ele>261.5</ele>
        <time>2012-10-31T13:51:40.000Z</time>
      </trkpt>
      <trkpt lat="46.79798" lon="5.46301">
        <ele>261.5</ele>
        <time>2012-10-31T13:51:41.000Z</time>
      </trkpt>
      <trkpt lat="46.79802" lon="5.46303">
        <ele>261.2</ele>
        <time>2012-10-31T13:51:44.000Z</time>
      </trkpt>
      <trkpt lat="46.79803" lon="5.46303">
        <ele>261</ele>
        <time>2012-10-31T13:51:45.000Z</time>
      </trkpt>
      <trkpt lat="46.79806" lon="5.46305">
        <ele>260.9</ele>
        <time>2012-10-31T13:51:48.000Z</time>
      </trkpt>
      <trkpt lat="46.79807" lon="5.46306">
        <ele>260.9</ele>
        <time>2012-10-31T13:51:49.000Z</time>
      </trkpt>
      <trkpt lat="46.79811" lon="5.46308">
        <ele>261.1</ele>
        <time>2012-10-31T13:51:52.000Z</time>
      </trkpt>
      <trkpt lat="46.79812" lon="5.46308">
        <ele>261.2</ele>
        <time>2012-10-31T13:51:53.000Z</time>
      </trkpt>
      <trkpt lat="46.79815" lon="5.4631">
        <ele>261.1</ele>
        <time>2012-10-31T13:51:56.000Z</time>
      </trkpt>
      <trkpt lat="46.79816" lon="5.4631">
        <ele>261.1</ele>
        <time>2012-10-31T13:51:57.000Z</time>
      </trkpt>
      <trkpt lat="46.7982" lon="5.46312">
        <ele>261.1</ele>
        <time>2012-10-31T13:52:00.000Z</time>
      </trkpt>
      <trkpt lat="46.79821" lon="5.46313">
        <ele>261.1</ele>
        <time>2012-10-31T13:52:01.000Z</time>
      </trkpt>
      <trkpt lat="46.79824" lon="5.46315">
        <ele>261.3</ele>
        <time>2012-10-31T13:52:05.000Z</time>
      </trkpt>
      <trkpt lat="46.79825" lon="5.46315">
        <ele>261.3</ele>
        <time>2012-10-31T13:52:06.000Z</time>
      </trkpt>
      <trkpt lat="46.79828" lon="5.46318">
        <ele>261</ele>
        <time>2012-10-31T13:52:10.000Z</time>
      </trkpt>
      <trkpt lat="46.79829" lon="5.46319">
        <ele>261.1</ele>
        <time>2012-10-31T13:52:11.000Z</time>
      </trkpt>
      <trkpt lat="46.79832" lon="5.46321">
        <ele>260.9</ele>
        <time>2012-10-31T13:52:14.000Z</time>
      </trkpt>
      <trkpt lat="46.79833" lon="5.46322">
        <ele>261.1</ele>
        <time>2012-10-31T13:52:15.000Z</time>
      </trkpt>
      <trkpt lat="46.79837" lon="5.46323">
        <ele>261.5</ele>
        <time>2012-10-31T13:52:18.000Z</time>
      </trkpt>
      <trkpt lat="46.79838" lon="5.46324">
        <ele>261.5</ele>
        <time>2012-10-31T13:52:19.000Z</time>
      </trkpt>
      <trkpt lat="46.79841" lon="5.46326">
        <ele>261.5</ele>
        <time>2012-10-31T13:52:23.000Z</time>
      </trkpt>
      <trkpt lat="46.79842" lon="5.46327">
        <ele>261.7</ele>
        <time>2012-10-31T13:52:24.000Z</time>
      </trkpt>
      <trkpt lat="46.79846" lon="5.46329">
        <ele>261.9</ele>
        <time>2012-10-31T13:52:28.000Z</time>
      </trkpt>
      <trkpt lat="46.79847" lon="5.4633">
        <ele>261.9</ele>
        <time>2012-10-31T13:52:29.000Z</time>
      </trkpt>
      <trkpt lat="46.79851" lon="5.46332">
        <ele>262.1</ele>
        <time>2012-10-31T13:52:32.000Z</time>
      </trkpt>
      <trkpt lat="46.79852" lon="5.46333">
        <ele>262.2</ele>
        <time>2012-10-31T13:52:33.000Z</time>
      </trkpt>
      <trkpt lat="46.79855" lon="5.46336">
        <ele>262.1</ele>
        <time>2012-10-31T13:52:36.000Z</time>
      </trkpt>
      <trkpt lat="46.79856" lon="5.46336">
        <ele>262.1</ele>
        <time>2012-10-31T13:52:37.000Z</time>
      </trkpt>
      <trkpt lat="46.79858" lon="5.46341">
        <ele>261.9</ele>
        <time>2012-10-31T13:52:41.000Z</time>
      </trkpt>
      <trkpt lat="46.79859" lon="5.46342">
        <ele>262</ele>
        <time>2012-10-31T13:52:42.000Z</time>
      </trkpt>
      <trkpt lat="46.79862" lon="5.46346">
        <ele>262.3</ele>
        <time>2012-10-31T13:52:46.000Z</time>
      </trkpt>
      <trkpt lat="46.79863" lon="5.46347">
        <ele>262.4</ele>
        <time>2012-10-31T13:52:47.000Z</time>
      </trkpt>
      <trkpt lat="46.79866" lon="5.46349">
        <ele>262.3</ele>
        <time>2012-10-31T13:52:50.000Z</time>
      </trkpt>
      <trkpt lat="46.79867" lon="5.4635">
        <ele>262.3</ele>
        <time>2012-10-31T13:52:51.000Z</time>
      </trkpt>
      <trkpt lat="46.7987" lon="5.46354">
        <ele>262.3</ele>
        <time>2012-10-31T13:52:55.000Z</time>
      </trkpt>
      <trkpt lat="46.79871" lon="5.46355">
        <ele>262.3</ele>
        <time>2012-10-31T13:52:56.000Z</time>
      </trkpt>
      <trkpt lat="46.79873" lon="5.4636">
        <ele>262.3</ele>
        <time>2012-10-31T13:53:00.000Z</time>
      </trkpt>
      <trkpt lat="46.79873" lon="5.46362">
        <ele>262.3</ele>
        <time>2012-10-31T13:53:01.000Z</time>
      </trkpt>
      <trkpt lat="46.79875" lon="5.46367">
        <ele>262.8</ele>
        <time>2012-10-31T13:53:05.000Z</time>
      </trkpt>
      <trkpt lat="46.79875" lon="5.46368">
        <ele>262.8</ele>
        <time>2012-10-31T13:53:06.000Z</time>
      </trkpt>
      <trkpt lat="46.79878" lon="5.46372">
        <ele>262.5</ele>
        <time>2012-10-31T13:53:10.000Z</time>
      </trkpt>
      <trkpt lat="46.79879" lon="5.46373">
        <ele>262.5</ele>
        <time>2012-10-31T13:53:11.000Z</time>
      </trkpt>
      <trkpt lat="46.79882" lon="5.46376">
        <ele>262.2</ele>
        <time>2012-10-31T13:53:14.000Z</time>
      </trkpt>
      <trkpt lat="46.79883" lon="5.46377">
        <ele>262.2</ele>
        <time>2012-10-31T13:53:15.000Z</time>
      </trkpt>
      <trkpt lat="46.79886" lon="5.46381">
        <ele>261.8</ele>
        <time>2012-10-31T13:53:18.000Z</time>
      </trkpt>
      <trkpt lat="46.79887" lon="5.46381">
        <ele>261.8</ele>
        <time>2012-10-31T13:53:19.000Z</time>
      </trkpt>
      <trkpt lat="46.79889" lon="5.46386">
        <ele>261.5</ele>
        <time>2012-10-31T13:53:23.000Z</time>
      </trkpt>
      <trkpt lat="46.7989" lon="5.46387">
        <ele>261.5</ele>
        <time>2012-10-31T13:53:24.000Z</time>
      </trkpt>
      <trkpt lat="46.79893" lon="5.46391">
        <ele>261</ele>
        <time>2012-10-31T13:53:27.000Z</time>
      </trkpt>
      <trkpt lat="46.79894" lon="5.46392">
        <ele>260.5</ele>
        <time>2012-10-31T13:53:28.000Z</time>
      </trkpt>
      <trkpt lat="46.79897" lon="5.46396">
        <ele>259.4</ele>
        <time>2012-10-31T13:53:31.000Z</time>
      </trkpt>
      <trkpt lat="46.79898" lon="5.46397">
        <ele>259.1</ele>
        <time>2012-10-31T13:53:32.000Z</time>
      </trkpt>
      <trkpt lat="46.79901" lon="5.464">
        <ele>258.1</ele>
        <time>2012-10-31T13:53:35.000Z</time>
      </trkpt>
      <trkpt lat="46.79902" lon="5.46401">
        <ele>257.9</ele>
        <time>2012-10-31T13:53:36.000Z</time>
      </trkpt>
      <trkpt lat="46.79906" lon="5.46404">
        <ele>257.1</ele>
        <time>2012-10-31T13:53:39.000Z</time>
      </trkpt>
      <trkpt lat="46.79907" lon="5.46405">
        <ele>257</ele>
        <time>2012-10-31T13:53:40.000Z</time>
      </trkpt>
      <trkpt lat="46.7991" lon="5.46406">
        <ele>257</ele>
        <time>2012-10-31T13:53:42.000Z</time>
      </trkpt>
      <trkpt lat="46.79911" lon="5.46407">
        <ele>257</ele>
        <time>2012-10-31T13:53:43.000Z</time>
      </trkpt>
      <trkpt lat="46.79914" lon="5.46407">
        <ele>257</ele>
        <time>2012-10-31T13:53:45.000Z</time>
      </trkpt>
      <trkpt lat="46.79915" lon="5.46408">
        <ele>256.8</ele>
        <time>2012-10-31T13:53:46.000Z</time>
      </trkpt>
      <trkpt lat="46.79919" lon="5.4641">
        <ele>258.2</ele>
        <time>2012-10-31T13:53:49.000Z</time>
      </trkpt>
      <trkpt lat="46.7992" lon="5.46412">
        <ele>258.6</ele>
        <time>2012-10-31T13:53:50.000Z</time>
      </trkpt>
      <trkpt lat="46.79923" lon="5.46415">
        <ele>259.8</ele>
        <time>2012-10-31T13:53:53.000Z</time>
      </trkpt>
      <trkpt lat="46.79924" lon="5.46416">
        <ele>260.2</ele>
        <time>2012-10-31T13:53:54.000Z</time>
      </trkpt>
      <trkpt lat="46.79927" lon="5.4642">
        <ele>261.9</ele>
        <time>2012-10-31T13:53:57.000Z</time>
      </trkpt>
      <trkpt lat="46.79928" lon="5.46421">
        <ele>262.1</ele>
        <time>2012-10-31T13:53:58.000Z</time>
      </trkpt>
      <trkpt lat="46.79932" lon="5.46425">
        <ele>261</ele>
        <time>2012-10-31T13:54:02.000Z</time>
      </trkpt>
      <trkpt lat="46.79933" lon="5.46426">
        <ele>260.7</ele>
        <time>2012-10-31T13:54:03.000Z</time>
      </trkpt>
      <trkpt lat="46.79935" lon="5.46431">
        <ele>259.6</ele>
        <time>2012-10-31T13:54:07.000Z</time>
      </trkpt>
      <trkpt lat="46.79935" lon="5.46433">
        <ele>259.5</ele>
        <time>2012-10-31T13:54:08.000Z</time>
      </trkpt>
      <trkpt lat="46.79938" lon="5.46437">
        <ele>259.7</ele>
        <time>2012-10-31T13:54:12.000Z</time>
      </trkpt>
      <trkpt lat="46.79939" lon="5.46438">
        <ele>259.7</ele>
        <time>2012-10-31T13:54:13.000Z</time>
      </trkpt>
      <trkpt lat="46.79941" lon="5.46441">
        <ele>259.8</ele>
        <time>2012-10-31T13:54:16.000Z</time>
      </trkpt>
      <trkpt lat="46.79958" lon="5.46455">
        <ele>265.7</ele>
        <time>2012-10-31T13:54:24.000Z</time>
      </trkpt>
      <trkpt lat="46.79962" lon="5.46456">
        <ele>262</ele>
        <time>2012-10-31T13:54:27.000Z</time>
      </trkpt>
      <trkpt lat="46.79963" lon="5.46458">
        <ele>261.5</ele>
        <time>2012-10-31T13:54:28.000Z</time>
      </trkpt>
      <trkpt lat="46.79965" lon="5.46462">
        <ele>261.5</ele>
        <time>2012-10-31T13:54:31.000Z</time>
      </trkpt>
      <trkpt lat="46.79966" lon="5.46463">
        <ele>261.5</ele>
        <time>2012-10-31T13:54:32.000Z</time>
      </trkpt>
      <trkpt lat="46.79969" lon="5.46467">
        <ele>258.6</ele>
        <time>2012-10-31T13:54:37.000Z</time>
      </trkpt>
      <trkpt lat="46.7997" lon="5.46468">
        <ele>257.3</ele>
        <time>2012-10-31T13:54:38.000Z</time>
      </trkpt>
      <trkpt lat="46.79972" lon="5.46471">
        <ele>256.9</ele>
        <time>2012-10-31T13:54:42.000Z</time>
      </trkpt>
      <trkpt lat="46.79973" lon="5.46472">
        <ele>256.3</ele>
        <time>2012-10-31T13:54:43.000Z</time>
      </trkpt>
      <trkpt lat="46.79976" lon="5.46477">
        <ele>253.9</ele>
        <time>2012-10-31T13:54:48.000Z</time>
      </trkpt>
      <trkpt lat="46.79976" lon="5.46478">
        <ele>254.4</ele>
        <time>2012-10-31T13:54:49.000Z</time>
      </trkpt>
      <trkpt lat="46.79979" lon="5.46483">
        <ele>254.7</ele>
        <time>2012-10-31T13:54:54.000Z</time>
      </trkpt>
      <trkpt lat="46.7998" lon="5.46483">
        <ele>254.5</ele>
        <time>2012-10-31T13:54:55.000Z</time>
      </trkpt>
      <trkpt lat="46.79984" lon="5.46488">
        <ele>256.2</ele>
        <time>2012-10-31T13:55:00.000Z</time>
      </trkpt>
      <trkpt lat="46.79984" lon="5.46489">
        <ele>255</ele>
        <time>2012-10-31T13:55:01.000Z</time>
      </trkpt>
      <trkpt lat="46.79988" lon="5.46493">
        <ele>255.3</ele>
        <time>2012-10-31T13:55:05.000Z</time>
      </trkpt>
      <trkpt lat="46.79989" lon="5.46494">
        <ele>255.7</ele>
        <time>2012-10-31T13:55:06.000Z</time>
      </trkpt>
      <trkpt lat="46.79992" lon="5.46496">
        <ele>254.8</ele>
        <time>2012-10-31T13:55:09.000Z</time>
      </trkpt>
      <trkpt lat="46.79993" lon="5.46496">
        <ele>254.8</ele>
        <time>2012-10-31T13:55:10.000Z</time>
      </trkpt>
      <trkpt lat="46.79997" lon="5.46498">
        <ele>255.3</ele>
        <time>2012-10-31T13:55:13.000Z</time>
      </trkpt>
      <trkpt lat="46.79998" lon="5.46499">
        <ele>255.6</ele>
        <time>2012-10-31T13:55:14.000Z</time>
      </trkpt>
      <trkpt lat="46.80001" lon="5.46503">
        <ele>257.1</ele>
        <time>2012-10-31T13:55:18.000Z</time>
      </trkpt>
      <trkpt lat="46.80002" lon="5.46504">
        <ele>257.3</ele>
        <time>2012-10-31T13:55:19.000Z</time>
      </trkpt>
      <trkpt lat="46.80004" lon="5.46507">
        <ele>257.5</ele>
        <time>2012-10-31T13:55:22.000Z</time>
      </trkpt>
      <trkpt lat="46.80005" lon="5.46508">
        <ele>257.7</ele>
        <time>2012-10-31T13:55:23.000Z</time>
      </trkpt>
      <trkpt lat="46.80008" lon="5.46511">
        <ele>257.9</ele>
        <time>2012-10-31T13:55:26.000Z</time>
      </trkpt>
      <trkpt lat="46.80009" lon="5.46513">
        <ele>258.1</ele>
        <time>2012-10-31T13:55:27.000Z</time>
      </trkpt>
      <trkpt lat="46.80013" lon="5.46516">
        <ele>258.4</ele>
        <time>2012-10-31T13:55:31.000Z</time>
      </trkpt>
      <trkpt lat="46.80013" lon="5.46517">
        <ele>258.2</ele>
        <time>2012-10-31T13:55:32.000Z</time>
      </trkpt>
      <trkpt lat="46.80016" lon="5.46522">
        <ele>257.6</ele>
        <time>2012-10-31T13:55:36.000Z</time>
      </trkpt>
      <trkpt lat="46.80017" lon="5.46523">
        <ele>257.6</ele>
        <time>2012-10-31T13:55:37.000Z</time>
      </trkpt>
      <trkpt lat="46.8002" lon="5.46527">
        <ele>258.1</ele>
        <time>2012-10-31T13:55:42.000Z</time>
      </trkpt>
      <trkpt lat="46.80021" lon="5.46529">
        <ele>258.2</ele>
        <time>2012-10-31T13:55:43.000Z</time>
      </trkpt>
      <trkpt lat="46.80023" lon="5.46533">
        <ele>258</ele>
        <time>2012-10-31T13:55:46.000Z</time>
      </trkpt>
      <trkpt lat="46.80024" lon="5.46534">
        <ele>258.2</ele>
        <time>2012-10-31T13:55:47.000Z</time>
      </trkpt>
      <trkpt lat="46.80026" lon="5.46538">
        <ele>259</ele>
        <time>2012-10-31T13:55:50.000Z</time>
      </trkpt>
      <trkpt lat="46.80027" lon="5.46539">
        <ele>259</ele>
        <time>2012-10-31T13:55:51.000Z</time>
      </trkpt>
      <trkpt lat="46.80031" lon="5.46543">
        <ele>259.7</ele>
        <time>2012-10-31T13:55:54.000Z</time>
      </trkpt>
      <trkpt lat="46.80032" lon="5.46544">
        <ele>260</ele>
        <time>2012-10-31T13:55:55.000Z</time>
      </trkpt>
      <trkpt lat="46.80034" lon="5.46547">
        <ele>260.5</ele>
        <time>2012-10-31T13:55:58.000Z</time>
      </trkpt>
      <trkpt lat="46.80035" lon="5.46548">
        <ele>260.6</ele>
        <time>2012-10-31T13:55:59.000Z</time>
      </trkpt>
      <trkpt lat="46.80039" lon="5.46551">
        <ele>260.7</ele>
        <time>2012-10-31T13:56:03.000Z</time>
      </trkpt>
      <trkpt lat="46.8004" lon="5.46552">
        <ele>260.6</ele>
        <time>2012-10-31T13:56:04.000Z</time>
      </trkpt>
      <trkpt lat="46.80042" lon="5.46557">
        <ele>260.1</ele>
        <time>2012-10-31T13:56:08.000Z</time>
      </trkpt>
      <trkpt lat="46.80043" lon="5.46559">
        <ele>260.1</ele>
        <time>2012-10-31T13:56:09.000Z</time>
      </trkpt>
      <trkpt lat="46.80045" lon="5.46563">
        <ele>260.2</ele>
        <time>2012-10-31T13:56:13.000Z</time>
      </trkpt>
      <trkpt lat="46.80046" lon="5.46564">
        <ele>260</ele>
        <time>2012-10-31T13:56:14.000Z</time>
      </trkpt>
      <trkpt lat="46.80048" lon="5.46568">
        <ele>259.4</ele>
        <time>2012-10-31T13:56:18.000Z</time>
      </trkpt>
      <trkpt lat="46.80049" lon="5.46569">
        <ele>259.4</ele>
        <time>2012-10-31T13:56:19.000Z</time>
      </trkpt>
      <trkpt lat="46.8005" lon="5.46574">
        <ele>259.3</ele>
        <time>2012-10-31T13:56:23.000Z</time>
      </trkpt>
      <trkpt lat="46.8005" lon="5.46576">
        <ele>258.9</ele>
        <time>2012-10-31T13:56:24.000Z</time>
      </trkpt>
      <trkpt lat="46.80048" lon="5.46582">
        <ele>258.4</ele>
        <time>2012-10-31T13:56:29.000Z</time>
      </trkpt>
      <trkpt lat="46.80048" lon="5.46583">
        <ele>258.2</ele>
        <time>2012-10-31T13:56:30.000Z</time>
      </trkpt>
      <trkpt lat="46.80046" lon="5.46589">
        <ele>257.7</ele>
        <time>2012-10-31T13:56:35.000Z</time>
      </trkpt>
      <trkpt lat="46.80046" lon="5.4659">
        <ele>257.6</ele>
        <time>2012-10-31T13:56:36.000Z</time>
      </trkpt>
      <trkpt lat="46.80044" lon="5.46596">
        <ele>257.5</ele>
        <time>2012-10-31T13:56:42.000Z</time>
      </trkpt>
      <trkpt lat="46.80044" lon="5.46597">
        <ele>257.3</ele>
        <time>2012-10-31T13:56:43.000Z</time>
      </trkpt>
      <trkpt lat="46.80042" lon="5.46601">
        <ele>256.6</ele>
        <time>2012-10-31T13:56:47.000Z</time>
      </trkpt>
      <trkpt lat="46.80041" lon="5.46602">
        <ele>256.4</ele>
        <time>2012-10-31T13:56:48.000Z</time>
      </trkpt>
      <trkpt lat="46.80039" lon="5.46607">
        <ele>255.2</ele>
        <time>2012-10-31T13:56:52.000Z</time>
      </trkpt>
      <trkpt lat="46.80038" lon="5.46608">
        <ele>255.2</ele>
        <time>2012-10-31T13:56:53.000Z</time>
      </trkpt>
      <trkpt lat="46.80036" lon="5.46613">
        <ele>254.8</ele>
        <time>2012-10-31T13:56:57.000Z</time>
      </trkpt>
      <trkpt lat="46.80036" lon="5.46615">
        <ele>254.7</ele>
        <time>2012-10-31T13:56:58.000Z</time>
      </trkpt>
      <trkpt lat="46.80034" lon="5.4662">
        <ele>254.7</ele>
        <time>2012-10-31T13:57:02.000Z</time>
      </trkpt>
      <trkpt lat="46.80033" lon="5.46621">
        <ele>254.9</ele>
        <time>2012-10-31T13:57:03.000Z</time>
      </trkpt>
      <trkpt lat="46.80032" lon="5.46627">
        <ele>255.7</ele>
        <time>2012-10-31T13:57:07.000Z</time>
      </trkpt>
      <trkpt lat="46.80032" lon="5.46629">
        <ele>255.5</ele>
        <time>2012-10-31T13:57:08.000Z</time>
      </trkpt>
      <trkpt lat="46.80031" lon="5.46634">
        <ele>255.3</ele>
        <time>2012-10-31T13:57:11.000Z</time>
      </trkpt>
      <trkpt lat="46.8003" lon="5.46636">
        <ele>255.1</ele>
        <time>2012-10-31T13:57:12.000Z</time>
      </trkpt>
      <trkpt lat="46.80029" lon="5.46641">
        <ele>255.7</ele>
        <time>2012-10-31T13:57:15.000Z</time>
      </trkpt>
      <trkpt lat="46.80028" lon="5.46643">
        <ele>256</ele>
        <time>2012-10-31T13:57:16.000Z</time>
      </trkpt>
      <trkpt lat="46.80027" lon="5.46649">
        <ele>256.7</ele>
        <time>2012-10-31T13:57:20.000Z</time>
      </trkpt>
      <trkpt lat="46.80027" lon="5.4665">
        <ele>256.6</ele>
        <time>2012-10-31T13:57:21.000Z</time>
      </trkpt>
      <trkpt lat="46.80025" lon="5.46655">
        <ele>258.4</ele>
        <time>2012-10-31T13:57:25.000Z</time>
      </trkpt>
      <trkpt lat="46.80025" lon="5.46656">
        <ele>258.3</ele>
        <time>2012-10-31T13:57:26.000Z</time>
      </trkpt>
      <trkpt lat="46.80024" lon="5.46662">
        <ele>258.6</ele>
        <time>2012-10-31T13:57:31.000Z</time>
      </trkpt>
      <trkpt lat="46.80023" lon="5.46663">
        <ele>258.8</ele>
        <time>2012-10-31T13:57:32.000Z</time>
      </trkpt>
      <trkpt lat="46.80022" lon="5.46668">
        <ele>258.9</ele>
        <time>2012-10-31T13:57:36.000Z</time>
      </trkpt>
      <trkpt lat="46.80021" lon="5.46669">
        <ele>258.9</ele>
        <time>2012-10-31T13:57:37.000Z</time>
      </trkpt>
      <trkpt lat="46.8002" lon="5.46676">
        <ele>259.7</ele>
        <time>2012-10-31T13:57:42.000Z</time>
      </trkpt>
      <trkpt lat="46.8002" lon="5.46676">
        <ele>259.7</ele>
        <time>2012-10-31T13:57:43.000Z</time>
      </trkpt>
      <trkpt lat="46.8002" lon="5.46681">
        <ele>258.8</ele>
        <time>2012-10-31T13:57:46.000Z</time>
      </trkpt>
      <trkpt lat="46.8002" lon="5.46683">
        <ele>258.5</ele>
        <time>2012-10-31T13:57:47.000Z</time>
      </trkpt>
      <trkpt lat="46.80019" lon="5.46688">
        <ele>258.6</ele>
        <time>2012-10-31T13:57:50.000Z</time>
      </trkpt>
      <trkpt lat="46.80018" lon="5.4669">
        <ele>258.6</ele>
        <time>2012-10-31T13:57:51.000Z</time>
      </trkpt>
      <trkpt lat="46.80017" lon="5.46696">
        <ele>258.8</ele>
        <time>2012-10-31T13:57:55.000Z</time>
      </trkpt>
      <trkpt lat="46.80016" lon="5.46697">
        <ele>258.7</ele>
        <time>2012-10-31T13:57:56.000Z</time>
      </trkpt>
      <trkpt lat="46.80015" lon="5.46703">
        <ele>259</ele>
        <time>2012-10-31T13:58:01.000Z</time>
      </trkpt>
      <trkpt lat="46.80015" lon="5.46704">
        <ele>259.1</ele>
        <time>2012-10-31T13:58:02.000Z</time>
      </trkpt>
      <trkpt lat="46.80011" lon="5.46707">
        <ele>259</ele>
        <time>2012-10-31T13:58:06.000Z</time>
      </trkpt>
      <trkpt lat="46.80011" lon="5.46708">
        <ele>258.7</ele>
        <time>2012-10-31T13:58:07.000Z</time>
      </trkpt>
      <trkpt lat="46.80008" lon="5.46712">
        <ele>258.9</ele>
        <time>2012-10-31T13:58:10.000Z</time>
      </trkpt>
      <trkpt lat="46.80008" lon="5.46714">
        <ele>259.2</ele>
        <time>2012-10-31T13:58:11.000Z</time>
      </trkpt>
      <trkpt lat="46.80009" lon="5.4672">
        <ele>259.9</ele>
        <time>2012-10-31T13:58:14.000Z</time>
      </trkpt>
      <trkpt lat="46.80009" lon="5.46721">
        <ele>260.4</ele>
        <time>2012-10-31T13:58:15.000Z</time>
      </trkpt>
      <trkpt lat="46.80007" lon="5.46727">
        <ele>261.4</ele>
        <time>2012-10-31T13:58:19.000Z</time>
      </trkpt>
      <trkpt lat="46.80007" lon="5.46728">
        <ele>261.7</ele>
        <time>2012-10-31T13:58:20.000Z</time>
      </trkpt>
      <trkpt lat="46.80005" lon="5.46734">
        <ele>262.3</ele>
        <time>2012-10-31T13:58:24.000Z</time>
      </trkpt>
      <trkpt lat="46.80005" lon="5.46735">
        <ele>262.6</ele>
        <time>2012-10-31T13:58:25.000Z</time>
      </trkpt>
      <trkpt lat="46.80003" lon="5.4674">
        <ele>263.6</ele>
        <time>2012-10-31T13:58:28.000Z</time>
      </trkpt>
      <trkpt lat="46.80003" lon="5.46742">
        <ele>263.9</ele>
        <time>2012-10-31T13:58:29.000Z</time>
      </trkpt>
      <trkpt lat="46.8" lon="5.46747">
        <ele>264.3</ele>
        <time>2012-10-31T13:58:33.000Z</time>
      </trkpt>
      <trkpt lat="46.8" lon="5.46748">
        <ele>264.4</ele>
        <time>2012-10-31T13:58:34.000Z</time>
      </trkpt>
      <trkpt lat="46.79998" lon="5.46753">
        <ele>263.9</ele>
        <time>2012-10-31T13:58:39.000Z</time>
      </trkpt>
      <trkpt lat="46.79998" lon="5.46755">
        <ele>263.9</ele>
        <time>2012-10-31T13:58:40.000Z</time>
      </trkpt>
      <trkpt lat="46.79996" lon="5.4676">
        <ele>265.2</ele>
        <time>2012-10-31T13:58:43.000Z</time>
      </trkpt>
      <trkpt lat="46.79996" lon="5.46761">
        <ele>265.4</ele>
        <time>2012-10-31T13:58:44.000Z</time>
      </trkpt>
      <trkpt lat="46.79994" lon="5.46767">
        <ele>266.4</ele>
        <time>2012-10-31T13:58:47.000Z</time>
      </trkpt>
      <trkpt lat="46.79994" lon="5.46768">
        <ele>266.6</ele>
        <time>2012-10-31T13:58:48.000Z</time>
      </trkpt>
      <trkpt lat="46.79992" lon="5.46774">
        <ele>267.2</ele>
        <time>2012-10-31T13:58:51.000Z</time>
      </trkpt>
      <trkpt lat="46.79992" lon="5.46776">
        <ele>267.5</ele>
        <time>2012-10-31T13:58:52.000Z</time>
      </trkpt>
      <trkpt lat="46.7999" lon="5.4678">
        <ele>267.5</ele>
        <time>2012-10-31T13:58:55.000Z</time>
      </trkpt>
      <trkpt lat="46.79989" lon="5.46782">
        <ele>267.5</ele>
        <time>2012-10-31T13:58:56.000Z</time>
      </trkpt>
      <trkpt lat="46.79988" lon="5.46787">
        <ele>267.7</ele>
        <time>2012-10-31T13:59:01.000Z</time>
      </trkpt>
      <trkpt lat="46.79987" lon="5.46788">
        <ele>267.8</ele>
        <time>2012-10-31T13:59:02.000Z</time>
      </trkpt>
      <trkpt lat="46.79985" lon="5.46793">
        <ele>268.1</ele>
        <time>2012-10-31T13:59:06.000Z</time>
      </trkpt>
      <trkpt lat="46.79985" lon="5.46794">
        <ele>268</ele>
        <time>2012-10-31T13:59:07.000Z</time>
      </trkpt>
      <trkpt lat="46.79984" lon="5.46798">
        <ele>268.2</ele>
        <time>2012-10-31T13:59:10.000Z</time>
      </trkpt>
      <trkpt lat="46.79983" lon="5.468">
        <ele>268.1</ele>
        <time>2012-10-31T13:59:11.000Z</time>
      </trkpt>
      <trkpt lat="46.79982" lon="5.46805">
        <ele>267.6</ele>
        <time>2012-10-31T13:59:14.000Z</time>
      </trkpt>
      <trkpt lat="46.79981" lon="5.46806">
        <ele>267.5</ele>
        <time>2012-10-31T13:59:15.000Z</time>
      </trkpt>
      <trkpt lat="46.79979" lon="5.46811">
        <ele>266.7</ele>
        <time>2012-10-31T13:59:19.000Z</time>
      </trkpt>
      <trkpt lat="46.79979" lon="5.46812">
        <ele>267.2</ele>
        <time>2012-10-31T13:59:20.000Z</time>
      </trkpt>
      <trkpt lat="46.79977" lon="5.46817">
        <ele>267.5</ele>
        <time>2012-10-31T13:59:23.000Z</time>
      </trkpt>
      <trkpt lat="46.79977" lon="5.46819">
        <ele>267.4</ele>
        <time>2012-10-31T13:59:24.000Z</time>
      </trkpt>
      <trkpt lat="46.79976" lon="5.46823">
        <ele>266.9</ele>
        <time>2012-10-31T13:59:27.000Z</time>
      </trkpt>
      <trkpt lat="46.79975" lon="5.46825">
        <ele>266.8</ele>
        <time>2012-10-31T13:59:28.000Z</time>
      </trkpt>
      <trkpt lat="46.79974" lon="5.4683">
        <ele>266.3</ele>
        <time>2012-10-31T13:59:32.000Z</time>
      </trkpt>
      <trkpt lat="46.79973" lon="5.46832">
        <ele>266.3</ele>
        <time>2012-10-31T13:59:33.000Z</time>
      </trkpt>
      <trkpt lat="46.79972" lon="5.46837">
        <ele>265.9</ele>
        <time>2012-10-31T13:59:36.000Z</time>
      </trkpt>
      <trkpt lat="46.79972" lon="5.46839">
        <ele>265.8</ele>
        <time>2012-10-31T13:59:37.000Z</time>
      </trkpt>
      <trkpt lat="46.79971" lon="5.46844">
        <ele>266.4</ele>
        <time>2012-10-31T13:59:40.000Z</time>
      </trkpt>
      <trkpt lat="46.7997" lon="5.46845">
        <ele>266.6</ele>
        <time>2012-10-31T13:59:41.000Z</time>
      </trkpt>
      <trkpt lat="46.79966" lon="5.46847">
        <ele>267.7</ele>
        <time>2012-10-31T13:59:45.000Z</time>
      </trkpt>
      <trkpt lat="46.79965" lon="5.46847">
        <ele>267.8</ele>
        <time>2012-10-31T13:59:46.000Z</time>
      </trkpt>
      <trkpt lat="46.79962" lon="5.46844">
        <ele>268.4</ele>
        <time>2012-10-31T13:59:50.000Z</time>
      </trkpt>
      <trkpt lat="46.79961" lon="5.46843">
        <ele>268.5</ele>
        <time>2012-10-31T13:59:51.000Z</time>
      </trkpt>
      <trkpt lat="46.79958" lon="5.46841">
        <ele>268.9</ele>
        <time>2012-10-31T13:59:55.000Z</time>
      </trkpt>
      <trkpt lat="46.79957" lon="5.4684">
        <ele>269.1</ele>
        <time>2012-10-31T13:59:56.000Z</time>
      </trkpt>
      <trkpt lat="46.79953" lon="5.46838">
        <ele>269.6</ele>
        <time>2012-10-31T14:00:00.000Z</time>
      </trkpt>
      <trkpt lat="46.79952" lon="5.46838">
        <ele>269.7</ele>
        <time>2012-10-31T14:00:01.000Z</time>
      </trkpt>
      <trkpt lat="46.79948" lon="5.46838">
        <ele>270.4</ele>
        <time>2012-10-31T14:00:05.000Z</time>
      </trkpt>
      <trkpt lat="46.79947" lon="5.46839">
        <ele>270.8</ele>
        <time>2012-10-31T14:00:06.000Z</time>
      </trkpt>
      <trkpt lat="46.79943" lon="5.46839">
        <ele>271.4</ele>
        <time>2012-10-31T14:00:11.000Z</time>
      </trkpt>
      <trkpt lat="46.79942" lon="5.46839">
        <ele>271.6</ele>
        <time>2012-10-31T14:00:12.000Z</time>
      </trkpt>
      <trkpt lat="46.79938" lon="5.46838">
        <ele>272.1</ele>
        <time>2012-10-31T14:00:16.000Z</time>
      </trkpt>
      <trkpt lat="46.79937" lon="5.46838">
        <ele>272.4</ele>
        <time>2012-10-31T14:00:17.000Z</time>
      </trkpt>
      <trkpt lat="46.79933" lon="5.46838">
        <ele>273.1</ele>
        <time>2012-10-31T14:00:21.000Z</time>
      </trkpt>
      <trkpt lat="46.79932" lon="5.46838">
        <ele>273</ele>
        <time>2012-10-31T14:00:22.000Z</time>
      </trkpt>
      <trkpt lat="46.79928" lon="5.46835">
        <ele>272.5</ele>
        <time>2012-10-31T14:00:27.000Z</time>
      </trkpt>
      <trkpt lat="46.79927" lon="5.46834">
        <ele>272.6</ele>
        <time>2012-10-31T14:00:28.000Z</time>
      </trkpt>
      <trkpt lat="46.79925" lon="5.46829">
        <ele>272.4</ele>
        <time>2012-10-31T14:00:32.000Z</time>
      </trkpt>
      <trkpt lat="46.79925" lon="5.46828">
        <ele>272.4</ele>
        <time>2012-10-31T14:00:33.000Z</time>
      </trkpt>
      <trkpt lat="46.79923" lon="5.46823">
        <ele>272.6</ele>
        <time>2012-10-31T14:00:37.000Z</time>
      </trkpt>
      <trkpt lat="46.79922" lon="5.46822">
        <ele>272.7</ele>
        <time>2012-10-31T14:00:38.000Z</time>
      </trkpt>
      <trkpt lat="46.79919" lon="5.46818">
        <ele>273.1</ele>
        <time>2012-10-31T14:00:42.000Z</time>
      </trkpt>
      <trkpt lat="46.79918" lon="5.46817">
        <ele>273.2</ele>
        <time>2012-10-31T14:00:43.000Z</time>
      </trkpt>
      <trkpt lat="46.79915" lon="5.46813">
        <ele>273.8</ele>
        <time>2012-10-31T14:00:48.000Z</time>
      </trkpt>
      <trkpt lat="46.79915" lon="5.46812">
        <ele>273.6</ele>
        <time>2012-10-31T14:00:49.000Z</time>
      </trkpt>
      <trkpt lat="46.79912" lon="5.46807">
        <ele>273.6</ele>
        <time>2012-10-31T14:00:55.000Z</time>
      </trkpt>
      <trkpt lat="46.79911" lon="5.46807">
        <ele>273.4</ele>
        <time>2012-10-31T14:00:56.000Z</time>
      </trkpt>
      <trkpt lat="46.79907" lon="5.46805">
        <ele>272.9</ele>
        <time>2012-10-31T14:01:00.000Z</time>
      </trkpt>
      <trkpt lat="46.79906" lon="5.46805">
        <ele>273.2</ele>
        <time>2012-10-31T14:01:01.000Z</time>
      </trkpt>
      <trkpt lat="46.79902" lon="5.46804">
        <ele>273.4</ele>
        <time>2012-10-31T14:01:05.000Z</time>
      </trkpt>
      <trkpt lat="46.79901" lon="5.46805">
        <ele>273.6</ele>
        <time>2012-10-31T14:01:06.000Z</time>
      </trkpt>
      <trkpt lat="46.79897" lon="5.46808">
        <ele>273.8</ele>
        <time>2012-10-31T14:01:09.000Z</time>
      </trkpt>
      <trkpt lat="46.79896" lon="5.46809">
        <ele>273.8</ele>
        <time>2012-10-31T14:01:10.000Z</time>
      </trkpt>
      <trkpt lat="46.79891" lon="5.46811">
        <ele>274.2</ele>
        <time>2012-10-31T14:01:15.000Z</time>
      </trkpt>
      <trkpt lat="46.7989" lon="5.4681">
        <ele>274.5</ele>
        <time>2012-10-31T14:01:16.000Z</time>
      </trkpt>
      <trkpt lat="46.79886" lon="5.4681">
        <ele>274.4</ele>
        <time>2012-10-31T14:01:21.000Z</time>
      </trkpt>
      <trkpt lat="46.79886" lon="5.46809">
        <ele>274.2</ele>
        <time>2012-10-31T14:01:22.000Z</time>
      </trkpt>
      <trkpt lat="46.79882" lon="5.46805">
        <ele>274.3</ele>
        <time>2012-10-31T14:01:27.000Z</time>
      </trkpt>
      <trkpt lat="46.79882" lon="5.46805">
        <ele>274.4</ele>
        <time>2012-10-31T14:01:28.000Z</time>
      </trkpt>
      <trkpt lat="46.79878" lon="5.46803">
        <ele>275.1</ele>
        <time>2012-10-31T14:01:32.000Z</time>
      </trkpt>
      <trkpt lat="46.79877" lon="5.46803">
        <ele>275.3</ele>
        <time>2012-10-31T14:01:33.000Z</time>
      </trkpt>
      <trkpt lat="46.79873" lon="5.46801">
        <ele>276.1</ele>
        <time>2012-10-31T14:01:36.000Z</time>
      </trkpt>
      <trkpt lat="46.79872" lon="5.46801">
        <ele>276</ele>
        <time>2012-10-31T14:01:37.000Z</time>
      </trkpt>
      <trkpt lat="46.79868" lon="5.468">
        <ele>276.2</ele>
        <time>2012-10-31T14:01:41.000Z</time>
      </trkpt>
      <trkpt lat="46.79867" lon="5.468">
        <ele>276.6</ele>
        <time>2012-10-31T14:01:42.000Z</time>
      </trkpt>
      <trkpt lat="46.79863" lon="5.46798">
        <ele>277.5</ele>
        <time>2012-10-31T14:01:46.000Z</time>
      </trkpt>
      <trkpt lat="46.79862" lon="5.46797">
        <ele>277.5</ele>
        <time>2012-10-31T14:01:47.000Z</time>
      </trkpt>
      <trkpt lat="46.79858" lon="5.46795">
        <ele>278.6</ele>
        <time>2012-10-31T14:01:51.000Z</time>
      </trkpt>
      <trkpt lat="46.79857" lon="5.46794">
        <ele>278.7</ele>
        <time>2012-10-31T14:01:52.000Z</time>
      </trkpt>
      <trkpt lat="46.79854" lon="5.46792">
        <ele>278.6</ele>
        <time>2012-10-31T14:01:56.000Z</time>
      </trkpt>
      <trkpt lat="46.79853" lon="5.46791">
        <ele>278.8</ele>
        <time>2012-10-31T14:01:57.000Z</time>
      </trkpt>
      <trkpt lat="46.79849" lon="5.4679">
        <ele>278.3</ele>
        <time>2012-10-31T14:02:02.000Z</time>
      </trkpt>
      <trkpt lat="46.79848" lon="5.4679">
        <ele>277.9</ele>
        <time>2012-10-31T14:02:03.000Z</time>
      </trkpt>
      <trkpt lat="46.79844" lon="5.46789">
        <ele>278.6</ele>
        <time>2012-10-31T14:02:07.000Z</time>
      </trkpt>
      <trkpt lat="46.79843" lon="5.46788">
        <ele>278.6</ele>
        <time>2012-10-31T14:02:08.000Z</time>
      </trkpt>
      <trkpt lat="46.7984" lon="5.46783">
        <ele>278.4</ele>
        <time>2012-10-31T14:02:12.000Z</time>
      </trkpt>
      <trkpt lat="46.79839" lon="5.46782">
        <ele>278.7</ele>
        <time>2012-10-31T14:02:13.000Z</time>
      </trkpt>
      <trkpt lat="46.79836" lon="5.46779">
        <ele>279.2</ele>
        <time>2012-10-31T14:02:16.000Z</time>
      </trkpt>
      <trkpt lat="46.79835" lon="5.46778">
        <ele>279.2</ele>
        <time>2012-10-31T14:02:17.000Z</time>
      </trkpt>
      <trkpt lat="46.79831" lon="5.46779">
        <ele>280</ele>
        <time>2012-10-31T14:02:21.000Z</time>
      </trkpt>
      <trkpt lat="46.7983" lon="5.46779">
        <ele>280</ele>
        <time>2012-10-31T14:02:22.000Z</time>
      </trkpt>
      <trkpt lat="46.79826" lon="5.46779">
        <ele>280.7</ele>
        <time>2012-10-31T14:02:26.000Z</time>
      </trkpt>
      <trkpt lat="46.79825" lon="5.46778">
        <ele>280.9</ele>
        <time>2012-10-31T14:02:27.000Z</time>
      </trkpt>
      <trkpt lat="46.79822" lon="5.46775">
        <ele>280.8</ele>
        <time>2012-10-31T14:02:31.000Z</time>
      </trkpt>
      <trkpt lat="46.79821" lon="5.46773">
        <ele>280.1</ele>
        <time>2012-10-31T14:02:32.000Z</time>
      </trkpt>
      <trkpt lat="46.79818" lon="5.46769">
        <ele>279.2</ele>
        <time>2012-10-31T14:02:35.000Z</time>
      </trkpt>
      <trkpt lat="46.79816" lon="5.46767">
        <ele>279</ele>
        <time>2012-10-31T14:02:36.000Z</time>
      </trkpt>
      <trkpt lat="46.79814" lon="5.46764">
        <ele>278.6</ele>
        <time>2012-10-31T14:02:38.000Z</time>
      </trkpt>
      <trkpt lat="46.79812" lon="5.46763">
        <ele>278.5</ele>
        <time>2012-10-31T14:02:39.000Z</time>
      </trkpt>
      <trkpt lat="46.79809" lon="5.46759">
        <ele>279.1</ele>
        <time>2012-10-31T14:02:42.000Z</time>
      </trkpt>
      <trkpt lat="46.79808" lon="5.46759">
        <ele>278.7</ele>
        <time>2012-10-31T14:02:43.000Z</time>
      </trkpt>
      <trkpt lat="46.79805" lon="5.46757">
        <ele>280</ele>
        <time>2012-10-31T14:02:46.000Z</time>
      </trkpt>
      <trkpt lat="46.79804" lon="5.46756">
        <ele>280.2</ele>
        <time>2012-10-31T14:02:47.000Z</time>
      </trkpt>
      <trkpt lat="46.798" lon="5.46754">
        <ele>280.6</ele>
        <time>2012-10-31T14:02:51.000Z</time>
      </trkpt>
      <trkpt lat="46.79799" lon="5.46754">
        <ele>280.4</ele>
        <time>2012-10-31T14:02:52.000Z</time>
      </trkpt>
      <trkpt lat="46.79795" lon="5.46751">
        <ele>279.2</ele>
        <time>2012-10-31T14:02:58.000Z</time>
      </trkpt>
      <trkpt lat="46.79794" lon="5.46751">
        <ele>279.1</ele>
        <time>2012-10-31T14:02:59.000Z</time>
      </trkpt>
      <trkpt lat="46.7979" lon="5.46749">
        <ele>275.9</ele>
        <time>2012-10-31T14:03:06.000Z</time>
      </trkpt>
      <trkpt lat="46.79789" lon="5.46749">
        <ele>275.5</ele>
        <time>2012-10-31T14:03:07.000Z</time>
      </trkpt>
      <trkpt lat="46.79785" lon="5.4675">
        <ele>273.9</ele>
        <time>2012-10-31T14:03:24.000Z</time>
      </trkpt>
      <trkpt lat="46.79784" lon="5.46749">
        <ele>274</ele>
        <time>2012-10-31T14:03:25.000Z</time>
      </trkpt>
      <trkpt lat="46.79781" lon="5.46747">
        <ele>274.1</ele>
        <time>2012-10-31T14:03:28.000Z</time>
      </trkpt>
      <trkpt lat="46.7978" lon="5.46747">
        <ele>274.3</ele>
        <time>2012-10-31T14:03:29.000Z</time>
      </trkpt>
      <trkpt lat="46.79776" lon="5.46747">
        <ele>275.1</ele>
        <time>2012-10-31T14:03:36.000Z</time>
      </trkpt>
      <trkpt lat="46.79775" lon="5.46748">
        <ele>275.1</ele>
        <time>2012-10-31T14:03:37.000Z</time>
      </trkpt>
      <trkpt lat="46.79771" lon="5.46745">
        <ele>275.3</ele>
        <time>2012-10-31T14:03:44.000Z</time>
      </trkpt>
      <trkpt lat="46.79771" lon="5.46745">
        <ele>276.2</ele>
        <time>2012-10-31T14:03:45.000Z</time>
      </trkpt>
      <trkpt lat="46.79768" lon="5.4674">
        <ele>276.3</ele>
        <time>2012-10-31T14:04:03.000Z</time>
      </trkpt>
      <trkpt lat="46.79767" lon="5.46739">
        <ele>276.1</ele>
        <time>2012-10-31T14:04:04.000Z</time>
      </trkpt>
      <trkpt lat="46.79764" lon="5.46735">
        <ele>275.7</ele>
        <time>2012-10-31T14:04:08.000Z</time>
      </trkpt>
      <trkpt lat="46.79763" lon="5.46735">
        <ele>275.8</ele>
        <time>2012-10-31T14:04:09.000Z</time>
      </trkpt>
      <trkpt lat="46.79759" lon="5.46734">
        <ele>273.8</ele>
        <time>2012-10-31T14:04:20.000Z</time>
      </trkpt>
      <trkpt lat="46.79758" lon="5.46733">
        <ele>273.6</ele>
        <time>2012-10-31T14:04:21.000Z</time>
      </trkpt>
      <trkpt lat="46.79755" lon="5.4673">
        <ele>273.1</ele>
        <time>2012-10-31T14:04:24.000Z</time>
      </trkpt>
      <trkpt lat="46.79754" lon="5.46729">
        <ele>272.8</ele>
        <time>2012-10-31T14:04:25.000Z</time>
      </trkpt>
      <trkpt lat="46.79751" lon="5.46727">
        <ele>273.1</ele>
        <time>2012-10-31T14:04:29.000Z</time>
      </trkpt>
      <trkpt lat="46.7975" lon="5.46727">
        <ele>273.2</ele>
        <time>2012-10-31T14:04:30.000Z</time>
      </trkpt>
      <trkpt lat="46.79746" lon="5.46725">
        <ele>273.7</ele>
        <time>2012-10-31T14:04:34.000Z</time>
      </trkpt>
      <trkpt lat="46.79745" lon="5.46725">
        <ele>273.9</ele>
        <time>2012-10-31T14:04:35.000Z</time>
      </trkpt>
      <trkpt lat="46.79741" lon="5.46723">
        <ele>274.7</ele>
        <time>2012-10-31T14:04:40.000Z</time>
      </trkpt>
      <trkpt lat="46.7974" lon="5.46723">
        <ele>274.9</ele>
        <time>2012-10-31T14:04:41.000Z</time>
      </trkpt>
      <trkpt lat="46.79736" lon="5.46722">
        <ele>275.2</ele>
        <time>2012-10-31T14:04:46.000Z</time>
      </trkpt>
      <trkpt lat="46.79735" lon="5.46721">
        <ele>275.3</ele>
        <time>2012-10-31T14:04:47.000Z</time>
      </trkpt>
      <trkpt lat="46.79731" lon="5.46719">
        <ele>275.3</ele>
        <time>2012-10-31T14:04:52.000Z</time>
      </trkpt>
      <trkpt lat="46.7973" lon="5.46719">
        <ele>275.2</ele>
        <time>2012-10-31T14:04:53.000Z</time>
      </trkpt>
      <trkpt lat="46.79726" lon="5.46717">
        <ele>275.4</ele>
        <time>2012-10-31T14:04:56.000Z</time>
      </trkpt>
      <trkpt lat="46.79725" lon="5.46716">
        <ele>275.3</ele>
        <time>2012-10-31T14:04:57.000Z</time>
      </trkpt>
      <trkpt lat="46.79721" lon="5.46714">
        <ele>275.6</ele>
        <time>2012-10-31T14:05:00.000Z</time>
      </trkpt>
      <trkpt lat="46.7972" lon="5.46713">
        <ele>275.7</ele>
        <time>2012-10-31T14:05:01.000Z</time>
      </trkpt>
      <trkpt lat="46.79717" lon="5.4671">
        <ele>276</ele>
        <time>2012-10-31T14:05:04.000Z</time>
      </trkpt>
      <trkpt lat="46.79716" lon="5.46709">
        <ele>275.6</ele>
        <time>2012-10-31T14:05:05.000Z</time>
      </trkpt>
      <trkpt lat="46.79713" lon="5.46705">
        <ele>275.4</ele>
        <time>2012-10-31T14:05:08.000Z</time>
      </trkpt>
      <trkpt lat="46.79711" lon="5.46704">
        <ele>275.3</ele>
        <time>2012-10-31T14:05:09.000Z</time>
      </trkpt>
      <trkpt lat="46.79708" lon="5.46701">
        <ele>276.2</ele>
        <time>2012-10-31T14:05:13.000Z</time>
      </trkpt>
      <trkpt lat="46.79707" lon="5.46701">
        <ele>276.3</ele>
        <time>2012-10-31T14:05:14.000Z</time>
      </trkpt>
      <trkpt lat="46.79703" lon="5.46699">
        <ele>277.5</ele>
        <time>2012-10-31T14:05:18.000Z</time>
      </trkpt>
      <trkpt lat="46.79702" lon="5.46698">
        <ele>277.7</ele>
        <time>2012-10-31T14:05:19.000Z</time>
      </trkpt>
      <trkpt lat="46.79698" lon="5.46697">
        <ele>278.2</ele>
        <time>2012-10-31T14:05:23.000Z</time>
      </trkpt>
      <trkpt lat="46.79697" lon="5.46697">
        <ele>278.3</ele>
        <time>2012-10-31T14:05:24.000Z</time>
      </trkpt>
      <trkpt lat="46.79693" lon="5.46695">
        <ele>278.3</ele>
        <time>2012-10-31T14:05:29.000Z</time>
      </trkpt>
      <trkpt lat="46.79692" lon="5.46695">
        <ele>278.3</ele>
        <time>2012-10-31T14:05:30.000Z</time>
      </trkpt>
      <trkpt lat="46.79689" lon="5.46693">
        <ele>277.4</ele>
        <time>2012-10-31T14:05:34.000Z</time>
      </trkpt>
      <trkpt lat="46.79688" lon="5.46693">
        <ele>277.1</ele>
        <time>2012-10-31T14:05:35.000Z</time>
      </trkpt>
      <trkpt lat="46.79684" lon="5.46691">
        <ele>277</ele>
        <time>2012-10-31T14:05:38.000Z</time>
      </trkpt>
      <trkpt lat="46.79683" lon="5.4669">
        <ele>276.9</ele>
        <time>2012-10-31T14:05:39.000Z</time>
      </trkpt>
      <trkpt lat="46.7968" lon="5.46689">
        <ele>276.3</ele>
        <time>2012-10-31T14:05:44.000Z</time>
      </trkpt>
      <trkpt lat="46.79679" lon="5.46689">
        <ele>276.6</ele>
        <time>2012-10-31T14:05:45.000Z</time>
      </trkpt>
      <trkpt lat="46.79675" lon="5.46687">
        <ele>277.2</ele>
        <time>2012-10-31T14:05:49.000Z</time>
      </trkpt>
      <trkpt lat="46.79674" lon="5.46686">
        <ele>277.3</ele>
        <time>2012-10-31T14:05:50.000Z</time>
      </trkpt>
      <trkpt lat="46.7967" lon="5.46683">
        <ele>278.2</ele>
        <time>2012-10-31T14:05:55.000Z</time>
      </trkpt>
      <trkpt lat="46.79669" lon="5.46682">
        <ele>278</ele>
        <time>2012-10-31T14:05:56.000Z</time>
      </trkpt>
      <trkpt lat="46.79665" lon="5.46678">
        <ele>278</ele>
        <time>2012-10-31T14:06:00.000Z</time>
      </trkpt>
      <trkpt lat="46.79664" lon="5.46677">
        <ele>278</ele>
        <time>2012-10-31T14:06:01.000Z</time>
      </trkpt>
      <trkpt lat="46.79662" lon="5.46673">
        <ele>277.5</ele>
        <time>2012-10-31T14:06:05.000Z</time>
      </trkpt>
      <trkpt lat="46.79661" lon="5.46672">
        <ele>277.3</ele>
        <time>2012-10-31T14:06:06.000Z</time>
      </trkpt>
      <trkpt lat="46.79659" lon="5.46666">
        <ele>277.1</ele>
        <time>2012-10-31T14:06:10.000Z</time>
      </trkpt>
      <trkpt lat="46.79659" lon="5.46664">
        <ele>277</ele>
        <time>2012-10-31T14:06:11.000Z</time>
      </trkpt>
      <trkpt lat="46.79659" lon="5.46659">
        <ele>277</ele>
        <time>2012-10-31T14:06:14.000Z</time>
      </trkpt>
      <trkpt lat="46.79658" lon="5.46658">
        <ele>277.3</ele>
        <time>2012-10-31T14:06:15.000Z</time>
      </trkpt>
      <trkpt lat="46.79659" lon="5.46652">
        <ele>277.5</ele>
        <time>2012-10-31T14:06:18.000Z</time>
      </trkpt>
      <trkpt lat="46.79659" lon="5.4665">
        <ele>277.5</ele>
        <time>2012-10-31T14:06:19.000Z</time>
      </trkpt>
      <trkpt lat="46.7966" lon="5.46647">
        <ele>275.4</ele>
        <time>2012-10-31T14:07:18.000Z</time>
      </trkpt>
      <trkpt lat="46.79657" lon="5.46661">
        <ele>278.2</ele>
        <time>2012-10-31T14:07:26.000Z</time>
      </trkpt>
      <trkpt lat="46.79661" lon="5.46658">
        <ele>281.6</ele>
        <time>2012-10-31T14:07:40.000Z</time>
      </trkpt>
      <trkpt lat="46.79662" lon="5.46658">
        <ele>283.1</ele>
        <time>2012-10-31T14:07:41.000Z</time>
      </trkpt>
      <trkpt lat="46.79662" lon="5.46657">
        <ele>283.1</ele>
        <time>2012-10-31T14:09:30.000Z</time>
      </trkpt>
      <trkpt lat="46.79664" lon="5.46651">
        <ele>278.6</ele>
        <time>2012-10-31T14:09:31.000Z</time>
      </trkpt>
      <trkpt lat="46.79667" lon="5.46655">
        <ele>268.7</ele>
        <time>2012-10-31T14:11:04.000Z</time>
      </trkpt>
      <trkpt lat="46.79667" lon="5.46657">
        <ele>268.5</ele>
        <time>2012-10-31T14:11:05.000Z</time>
      </trkpt>
      <trkpt lat="46.79666" lon="5.46663">
        <ele>268.3</ele>
        <time>2012-10-31T14:11:07.000Z</time>
      </trkpt>
      <trkpt lat="46.79666" lon="5.46665">
        <ele>268.6</ele>
        <time>2012-10-31T14:11:08.000Z</time>
      </trkpt>
      <trkpt lat="46.79665" lon="5.46671">
        <ele>269</ele>
        <time>2012-10-31T14:11:11.000Z</time>
      </trkpt>
      <trkpt lat="46.79665" lon="5.46672">
        <ele>269.1</ele>
        <time>2012-10-31T14:11:12.000Z</time>
      </trkpt>
      <trkpt lat="46.79664" lon="5.46678">
        <ele>270.1</ele>
        <time>2012-10-31T14:11:17.000Z</time>
      </trkpt>
      <trkpt lat="46.79663" lon="5.4668">
        <ele>270.3</ele>
        <time>2012-10-31T14:11:18.000Z</time>
      </trkpt>
      <trkpt lat="46.79662" lon="5.46685">
        <ele>271.4</ele>
        <time>2012-10-31T14:11:22.000Z</time>
      </trkpt>
      <trkpt lat="46.79662" lon="5.46686">
        <ele>271.6</ele>
        <time>2012-10-31T14:11:23.000Z</time>
      </trkpt>
      <trkpt lat="46.79662" lon="5.46692">
        <ele>271.9</ele>
        <time>2012-10-31T14:11:28.000Z</time>
      </trkpt>
      <trkpt lat="46.79661" lon="5.46693">
        <ele>271.9</ele>
        <time>2012-10-31T14:11:29.000Z</time>
      </trkpt>
      <trkpt lat="46.7966" lon="5.46699">
        <ele>272.5</ele>
        <time>2012-10-31T14:11:34.000Z</time>
      </trkpt>
      <trkpt lat="46.7966" lon="5.467">
        <ele>272.5</ele>
        <time>2012-10-31T14:11:35.000Z</time>
      </trkpt>
      <trkpt lat="46.79659" lon="5.46705">
        <ele>272.5</ele>
        <time>2012-10-31T14:11:39.000Z</time>
      </trkpt>
      <trkpt lat="46.79659" lon="5.46706">
        <ele>272.4</ele>
        <time>2012-10-31T14:11:40.000Z</time>
      </trkpt>
      <trkpt lat="46.79657" lon="5.46712">
        <ele>272.3</ele>
        <time>2012-10-31T14:11:44.000Z</time>
      </trkpt>
      <trkpt lat="46.79657" lon="5.46714">
        <ele>272.3</ele>
        <time>2012-10-31T14:11:45.000Z</time>
      </trkpt>
      <trkpt lat="46.79656" lon="5.46719">
        <ele>272.6</ele>
        <time>2012-10-31T14:11:49.000Z</time>
      </trkpt>
      <trkpt lat="46.79655" lon="5.46721">
        <ele>272.4</ele>
        <time>2012-10-31T14:11:50.000Z</time>
      </trkpt>
      <trkpt lat="46.79655" lon="5.46726">
        <ele>272.4</ele>
        <time>2012-10-31T14:11:53.000Z</time>
      </trkpt>
      <trkpt lat="46.79654" lon="5.46727">
        <ele>272.5</ele>
        <time>2012-10-31T14:11:54.000Z</time>
      </trkpt>
      <trkpt lat="46.79653" lon="5.46732">
        <ele>273</ele>
        <time>2012-10-31T14:12:17.000Z</time>
      </trkpt>
      <trkpt lat="46.79647" lon="5.46732">
        <ele>282.2</ele>
        <time>2012-10-31T14:12:23.000Z</time>
      </trkpt>
      <trkpt lat="46.79647" lon="5.46732">
        <ele>282.2</ele>
        <time>2012-10-31T14:12:39.000Z</time>
      </trkpt>
      <trkpt lat="46.79648" lon="5.46721">
        <ele>270.6</ele>
        <time>2012-10-31T14:12:40.000Z</time>
      </trkpt>
      <trkpt lat="46.79647" lon="5.46726">
        <ele>268.8</ele>
        <time>2012-10-31T14:12:43.000Z</time>
      </trkpt>
      <trkpt lat="46.79647" lon="5.46728">
        <ele>267</ele>
        <time>2012-10-31T14:12:44.000Z</time>
      </trkpt>
      <trkpt lat="46.79646" lon="5.46733">
        <ele>264.8</ele>
        <time>2012-10-31T14:12:47.000Z</time>
      </trkpt>
      <trkpt lat="46.79646" lon="5.46735">
        <ele>264.4</ele>
        <time>2012-10-31T14:12:48.000Z</time>
      </trkpt>
      <trkpt lat="46.79645" lon="5.4674">
        <ele>262.5</ele>
        <time>2012-10-31T14:12:52.000Z</time>
      </trkpt>
      <trkpt lat="46.79645" lon="5.46741">
        <ele>262.6</ele>
        <time>2012-10-31T14:12:53.000Z</time>
      </trkpt>
      <trkpt lat="46.79644" lon="5.46747">
        <ele>264</ele>
        <time>2012-10-31T14:12:57.000Z</time>
      </trkpt>
      <trkpt lat="46.79643" lon="5.46748">
        <ele>264.2</ele>
        <time>2012-10-31T14:12:58.000Z</time>
      </trkpt>
      <trkpt lat="46.79642" lon="5.46754">
        <ele>265.2</ele>
        <time>2012-10-31T14:13:02.000Z</time>
      </trkpt>
      <trkpt lat="46.79642" lon="5.46756">
        <ele>265.2</ele>
        <time>2012-10-31T14:13:03.000Z</time>
      </trkpt>
      <trkpt lat="46.79642" lon="5.46761">
        <ele>265.9</ele>
        <time>2012-10-31T14:13:06.000Z</time>
      </trkpt>
      <trkpt lat="46.79641" lon="5.46763">
        <ele>266.2</ele>
        <time>2012-10-31T14:13:07.000Z</time>
      </trkpt>
      <trkpt lat="46.79641" lon="5.46769">
        <ele>267.6</ele>
        <time>2012-10-31T14:13:10.000Z</time>
      </trkpt>
      <trkpt lat="46.7964" lon="5.4677">
        <ele>268.2</ele>
        <time>2012-10-31T14:13:11.000Z</time>
      </trkpt>
      <trkpt lat="46.7964" lon="5.46777">
        <ele>269.2</ele>
        <time>2012-10-31T14:13:15.000Z</time>
      </trkpt>
      <trkpt lat="46.7964" lon="5.46778">
        <ele>269.2</ele>
        <time>2012-10-31T14:13:16.000Z</time>
      </trkpt>
      <trkpt lat="46.79639" lon="5.46783">
        <ele>269.8</ele>
        <time>2012-10-31T14:13:20.000Z</time>
      </trkpt>
      <trkpt lat="46.79639" lon="5.46784">
        <ele>270</ele>
        <time>2012-10-31T14:13:21.000Z</time>
      </trkpt>
      <trkpt lat="46.79639" lon="5.4679">
        <ele>270.6</ele>
        <time>2012-10-31T14:13:25.000Z</time>
      </trkpt>
      <trkpt lat="46.79639" lon="5.46792">
        <ele>270.7</ele>
        <time>2012-10-31T14:13:26.000Z</time>
      </trkpt>
      <trkpt lat="46.79638" lon="5.46797">
        <ele>271.2</ele>
        <time>2012-10-31T14:13:29.000Z</time>
      </trkpt>
      <trkpt lat="46.79638" lon="5.46799">
        <ele>271.4</ele>
        <time>2012-10-31T14:13:30.000Z</time>
      </trkpt>
      <trkpt lat="46.79637" lon="5.46803">
        <ele>272.2</ele>
        <time>2012-10-31T14:13:33.000Z</time>
      </trkpt>
      <trkpt lat="46.79637" lon="5.46805">
        <ele>272.5</ele>
        <time>2012-10-31T14:13:34.000Z</time>
      </trkpt>
      <trkpt lat="46.79636" lon="5.46811">
        <ele>273.8</ele>
        <time>2012-10-31T14:13:38.000Z</time>
      </trkpt>
      <trkpt lat="46.79636" lon="5.46813">
        <ele>274.2</ele>
        <time>2012-10-31T14:13:39.000Z</time>
      </trkpt>
      <trkpt lat="46.79635" lon="5.46819">
        <ele>275.5</ele>
        <time>2012-10-31T14:13:43.000Z</time>
      </trkpt>
      <trkpt lat="46.79634" lon="5.4682">
        <ele>275.8</ele>
        <time>2012-10-31T14:13:44.000Z</time>
      </trkpt>
      <trkpt lat="46.79633" lon="5.46825">
        <ele>276.8</ele>
        <time>2012-10-31T14:13:48.000Z</time>
      </trkpt>
      <trkpt lat="46.79633" lon="5.46827">
        <ele>277.2</ele>
        <time>2012-10-31T14:13:49.000Z</time>
      </trkpt>
      <trkpt lat="46.79632" lon="5.46833">
        <ele>279</ele>
        <time>2012-10-31T14:13:54.000Z</time>
      </trkpt>
      <trkpt lat="46.79632" lon="5.46834">
        <ele>279.3</ele>
        <time>2012-10-31T14:13:55.000Z</time>
      </trkpt>
      <trkpt lat="46.79632" lon="5.4684">
        <ele>279.6</ele>
        <time>2012-10-31T14:14:00.000Z</time>
      </trkpt>
      <trkpt lat="46.79632" lon="5.46842">
        <ele>279.5</ele>
        <time>2012-10-31T14:14:01.000Z</time>
      </trkpt>
      <trkpt lat="46.7963" lon="5.46847">
        <ele>279.7</ele>
        <time>2012-10-31T14:14:05.000Z</time>
      </trkpt>
      <trkpt lat="46.7963" lon="5.46848">
        <ele>279.7</ele>
        <time>2012-10-31T14:14:06.000Z</time>
      </trkpt>
      <trkpt lat="46.79629" lon="5.46854">
        <ele>279.3</ele>
        <time>2012-10-31T14:14:11.000Z</time>
      </trkpt>
      <trkpt lat="46.79628" lon="5.46855">
        <ele>279.2</ele>
        <time>2012-10-31T14:14:12.000Z</time>
      </trkpt>
      <trkpt lat="46.79627" lon="5.46861">
        <ele>278.7</ele>
        <time>2012-10-31T14:14:16.000Z</time>
      </trkpt>
      <trkpt lat="46.79627" lon="5.46862">
        <ele>278.7</ele>
        <time>2012-10-31T14:14:17.000Z</time>
      </trkpt>
      <trkpt lat="46.79626" lon="5.46868">
        <ele>278.1</ele>
        <time>2012-10-31T14:14:20.000Z</time>
      </trkpt>
      <trkpt lat="46.79626" lon="5.46869">
        <ele>277.8</ele>
        <time>2012-10-31T14:14:21.000Z</time>
      </trkpt>
      <trkpt lat="46.79625" lon="5.46874">
        <ele>277.8</ele>
        <time>2012-10-31T14:14:24.000Z</time>
      </trkpt>
      <trkpt lat="46.79624" lon="5.46875">
        <ele>277.9</ele>
        <time>2012-10-31T14:14:25.000Z</time>
      </trkpt>
      <trkpt lat="46.79624" lon="5.4688">
        <ele>278</ele>
        <time>2012-10-31T14:14:28.000Z</time>
      </trkpt>
      <trkpt lat="46.79623" lon="5.46882">
        <ele>277.9</ele>
        <time>2012-10-31T14:14:29.000Z</time>
      </trkpt>
      <trkpt lat="46.79622" lon="5.46888">
        <ele>278.7</ele>
        <time>2012-10-31T14:14:32.000Z</time>
      </trkpt>
      <trkpt lat="46.79622" lon="5.4689">
        <ele>279</ele>
        <time>2012-10-31T14:14:33.000Z</time>
      </trkpt>
      <trkpt lat="46.79621" lon="5.46896">
        <ele>279.9</ele>
        <time>2012-10-31T14:14:36.000Z</time>
      </trkpt>
      <trkpt lat="46.79621" lon="5.46897">
        <ele>279.9</ele>
        <time>2012-10-31T14:14:37.000Z</time>
      </trkpt>
      <trkpt lat="46.79619" lon="5.46902">
        <ele>279.8</ele>
        <time>2012-10-31T14:14:40.000Z</time>
      </trkpt>
      <trkpt lat="46.79619" lon="5.46903">
        <ele>279.8</ele>
        <time>2012-10-31T14:14:41.000Z</time>
      </trkpt>
      <trkpt lat="46.79618" lon="5.46909">
        <ele>279.4</ele>
        <time>2012-10-31T14:14:45.000Z</time>
      </trkpt>
      <trkpt lat="46.79617" lon="5.46911">
        <ele>279.4</ele>
        <time>2012-10-31T14:14:46.000Z</time>
      </trkpt>
      <trkpt lat="46.79616" lon="5.46916">
        <ele>279</ele>
        <time>2012-10-31T14:14:50.000Z</time>
      </trkpt>
      <trkpt lat="46.79616" lon="5.46917">
        <ele>279</ele>
        <time>2012-10-31T14:14:51.000Z</time>
      </trkpt>
      <trkpt lat="46.79614" lon="5.46923">
        <ele>279.1</ele>
        <time>2012-10-31T14:14:55.000Z</time>
      </trkpt>
      <trkpt lat="46.79614" lon="5.46925">
        <ele>279.2</ele>
        <time>2012-10-31T14:14:56.000Z</time>
      </trkpt>
      <trkpt lat="46.79612" lon="5.46931">
        <ele>279.2</ele>
        <time>2012-10-31T14:15:00.000Z</time>
      </trkpt>
      <trkpt lat="46.79612" lon="5.46932">
        <ele>279.3</ele>
        <time>2012-10-31T14:15:01.000Z</time>
      </trkpt>
      <trkpt lat="46.79612" lon="5.46939">
        <ele>279.7</ele>
        <time>2012-10-31T14:15:05.000Z</time>
      </trkpt>
      <trkpt lat="46.79612" lon="5.4694">
        <ele>279.9</ele>
        <time>2012-10-31T14:15:06.000Z</time>
      </trkpt>
      <trkpt lat="46.7961" lon="5.46946">
        <ele>279.7</ele>
        <time>2012-10-31T14:15:10.000Z</time>
      </trkpt>
      <trkpt lat="46.7961" lon="5.46947">
        <ele>279.6</ele>
        <time>2012-10-31T14:15:11.000Z</time>
      </trkpt>
      <trkpt lat="46.79608" lon="5.46953">
        <ele>280.1</ele>
        <time>2012-10-31T14:15:15.000Z</time>
      </trkpt>
      <trkpt lat="46.79608" lon="5.46954">
        <ele>280</ele>
        <time>2012-10-31T14:15:16.000Z</time>
      </trkpt>
      <trkpt lat="46.79607" lon="5.4696">
        <ele>280.5</ele>
        <time>2012-10-31T14:15:20.000Z</time>
      </trkpt>
      <trkpt lat="46.79607" lon="5.46961">
        <ele>280.7</ele>
        <time>2012-10-31T14:15:21.000Z</time>
      </trkpt>
      <trkpt lat="46.79606" lon="5.46966">
        <ele>281</ele>
        <time>2012-10-31T14:15:24.000Z</time>
      </trkpt>
      <trkpt lat="46.79605" lon="5.46967">
        <ele>281</ele>
        <time>2012-10-31T14:15:25.000Z</time>
      </trkpt>
      <trkpt lat="46.79603" lon="5.46973">
        <ele>279.7</ele>
        <time>2012-10-31T14:15:31.000Z</time>
      </trkpt>
      <trkpt lat="46.79603" lon="5.46974">
        <ele>279.6</ele>
        <time>2012-10-31T14:15:32.000Z</time>
      </trkpt>
      <trkpt lat="46.79603" lon="5.46979">
        <ele>279.2</ele>
        <time>2012-10-31T14:15:36.000Z</time>
      </trkpt>
      <trkpt lat="46.79602" lon="5.46981">
        <ele>279.3</ele>
        <time>2012-10-31T14:15:37.000Z</time>
      </trkpt>
      <trkpt lat="46.79601" lon="5.46986">
        <ele>279.5</ele>
        <time>2012-10-31T14:15:40.000Z</time>
      </trkpt>
      <trkpt lat="46.79601" lon="5.46988">
        <ele>279.4</ele>
        <time>2012-10-31T14:15:41.000Z</time>
      </trkpt>
      <trkpt lat="46.796" lon="5.46993">
        <ele>279.3</ele>
        <time>2012-10-31T14:15:44.000Z</time>
      </trkpt>
      <trkpt lat="46.79599" lon="5.46994">
        <ele>279.1</ele>
        <time>2012-10-31T14:15:45.000Z</time>
      </trkpt>
      <trkpt lat="46.79598" lon="5.47">
        <ele>280.1</ele>
        <time>2012-10-31T14:15:51.000Z</time>
      </trkpt>
      <trkpt lat="46.79598" lon="5.47001">
        <ele>280.3</ele>
        <time>2012-10-31T14:15:52.000Z</time>
      </trkpt>
      <trkpt lat="46.79598" lon="5.47006">
        <ele>281.2</ele>
        <time>2012-10-31T14:15:56.000Z</time>
      </trkpt>
      <trkpt lat="46.79597" lon="5.47008">
        <ele>280.9</ele>
        <time>2012-10-31T14:15:57.000Z</time>
      </trkpt>
      <trkpt lat="46.79596" lon="5.47013">
        <ele>280.2</ele>
        <time>2012-10-31T14:16:00.000Z</time>
      </trkpt>
      <trkpt lat="46.79595" lon="5.47014">
        <ele>280</ele>
        <time>2012-10-31T14:16:01.000Z</time>
      </trkpt>
      <trkpt lat="46.79594" lon="5.4702">
        <ele>280.4</ele>
        <time>2012-10-31T14:16:05.000Z</time>
      </trkpt>
      <trkpt lat="46.79593" lon="5.47021">
        <ele>280.5</ele>
        <time>2012-10-31T14:16:06.000Z</time>
      </trkpt>
      <trkpt lat="46.79593" lon="5.47026">
        <ele>280</ele>
        <time>2012-10-31T14:16:09.000Z</time>
      </trkpt>
      <trkpt lat="46.79592" lon="5.47028">
        <ele>280</ele>
        <time>2012-10-31T14:16:10.000Z</time>
      </trkpt>
      <trkpt lat="46.79591" lon="5.47033">
        <ele>279.7</ele>
        <time>2012-10-31T14:16:13.000Z</time>
      </trkpt>
      <trkpt lat="46.79591" lon="5.47035">
        <ele>279.9</ele>
        <time>2012-10-31T14:16:14.000Z</time>
      </trkpt>
      <trkpt lat="46.7959" lon="5.4704">
        <ele>279.7</ele>
        <time>2012-10-31T14:16:17.000Z</time>
      </trkpt>
      <trkpt lat="46.7959" lon="5.47042">
        <ele>279.5</ele>
        <time>2012-10-31T14:16:18.000Z</time>
      </trkpt>
      <trkpt lat="46.79589" lon="5.47072">
        <ele>288.1</ele>
        <time>2012-10-31T14:16:23.000Z</time>
      </trkpt>
      <trkpt lat="46.79585" lon="5.47075">
        <ele>277.6</ele>
        <time>2012-10-31T14:16:34.000Z</time>
      </trkpt>
      <trkpt lat="46.79585" lon="5.47076">
        <ele>277</ele>
        <time>2012-10-31T14:16:35.000Z</time>
      </trkpt>
      <trkpt lat="46.79584" lon="5.47082">
        <ele>275</ele>
        <time>2012-10-31T14:16:39.000Z</time>
      </trkpt>
      <trkpt lat="46.79583" lon="5.47083">
        <ele>274.6</ele>
        <time>2012-10-31T14:16:40.000Z</time>
      </trkpt>
      <trkpt lat="46.79582" lon="5.47089">
        <ele>273</ele>
        <time>2012-10-31T14:16:45.000Z</time>
      </trkpt>
      <trkpt lat="46.79582" lon="5.4709">
        <ele>273.4</ele>
        <time>2012-10-31T14:16:46.000Z</time>
      </trkpt>
      <trkpt lat="46.79581" lon="5.47097">
        <ele>274.6</ele>
        <time>2012-10-31T14:16:50.000Z</time>
      </trkpt>
      <trkpt lat="46.79581" lon="5.47098">
        <ele>274.9</ele>
        <time>2012-10-31T14:16:51.000Z</time>
      </trkpt>
      <trkpt lat="46.7958" lon="5.47103">
        <ele>274.6</ele>
        <time>2012-10-31T14:16:54.000Z</time>
      </trkpt>
      <trkpt lat="46.7958" lon="5.47105">
        <ele>274.6</ele>
        <time>2012-10-31T14:16:55.000Z</time>
      </trkpt>
      <trkpt lat="46.79578" lon="5.4711">
        <ele>275.2</ele>
        <time>2012-10-31T14:16:58.000Z</time>
      </trkpt>
      <trkpt lat="46.79577" lon="5.47112">
        <ele>275.8</ele>
        <time>2012-10-31T14:16:59.000Z</time>
      </trkpt>
      <trkpt lat="46.79576" lon="5.47118">
        <ele>275.3</ele>
        <time>2012-10-31T14:17:03.000Z</time>
      </trkpt>
      <trkpt lat="46.79575" lon="5.47119">
        <ele>275.5</ele>
        <time>2012-10-31T14:17:04.000Z</time>
      </trkpt>
      <trkpt lat="46.79574" lon="5.47125">
        <ele>275.2</ele>
        <time>2012-10-31T14:17:08.000Z</time>
      </trkpt>
      <trkpt lat="46.79574" lon="5.47127">
        <ele>275.7</ele>
        <time>2012-10-31T14:17:09.000Z</time>
      </trkpt>
      <trkpt lat="46.79573" lon="5.47131">
        <ele>276.4</ele>
        <time>2012-10-31T14:17:12.000Z</time>
      </trkpt>
      <trkpt lat="46.79573" lon="5.47133">
        <ele>276.3</ele>
        <time>2012-10-31T14:17:13.000Z</time>
      </trkpt>
      <trkpt lat="46.79571" lon="5.47138">
        <ele>276.1</ele>
        <time>2012-10-31T14:17:16.000Z</time>
      </trkpt>
      <trkpt lat="46.79571" lon="5.47139">
        <ele>276</ele>
        <time>2012-10-31T14:17:17.000Z</time>
      </trkpt>
      <trkpt lat="46.7957" lon="5.47141">
        <ele>275.9</ele>
        <time>2012-10-31T14:17:18.000Z</time>
      </trkpt>
      <trkpt lat="46.79567" lon="5.47165">
        <ele>269.4</ele>
        <time>2012-10-31T14:17:26.000Z</time>
      </trkpt>
      <trkpt lat="46.79565" lon="5.47169">
        <ele>268.8</ele>
        <time>2012-10-31T14:17:31.000Z</time>
      </trkpt>
      <trkpt lat="46.79564" lon="5.4717">
        <ele>269.2</ele>
        <time>2012-10-31T14:17:32.000Z</time>
      </trkpt>
      <trkpt lat="46.79563" lon="5.47176">
        <ele>269.2</ele>
        <time>2012-10-31T14:17:36.000Z</time>
      </trkpt>
      <trkpt lat="46.79563" lon="5.47177">
        <ele>269.3</ele>
        <time>2012-10-31T14:17:37.000Z</time>
      </trkpt>
      <trkpt lat="46.79562" lon="5.47183">
        <ele>269.7</ele>
        <time>2012-10-31T14:17:41.000Z</time>
      </trkpt>
      <trkpt lat="46.79561" lon="5.47184">
        <ele>269.9</ele>
        <time>2012-10-31T14:17:42.000Z</time>
      </trkpt>
      <trkpt lat="46.7956" lon="5.4719">
        <ele>269.6</ele>
        <time>2012-10-31T14:17:47.000Z</time>
      </trkpt>
      <trkpt lat="46.7956" lon="5.47192">
        <ele>269.5</ele>
        <time>2012-10-31T14:17:48.000Z</time>
      </trkpt>
      <trkpt lat="46.79558" lon="5.47197">
        <ele>269.3</ele>
        <time>2012-10-31T14:17:53.000Z</time>
      </trkpt>
      <trkpt lat="46.79557" lon="5.47198">
        <ele>269.1</ele>
        <time>2012-10-31T14:17:54.000Z</time>
      </trkpt>
      <trkpt lat="46.79556" lon="5.47204">
        <ele>268.2</ele>
        <time>2012-10-31T14:17:58.000Z</time>
      </trkpt>
      <trkpt lat="46.79555" lon="5.47205">
        <ele>267.6</ele>
        <time>2012-10-31T14:17:59.000Z</time>
      </trkpt>
      <trkpt lat="46.79555" lon="5.47211">
        <ele>267.8</ele>
        <time>2012-10-31T14:18:04.000Z</time>
      </trkpt>
      <trkpt lat="46.79555" lon="5.47212">
        <ele>267.9</ele>
        <time>2012-10-31T14:18:05.000Z</time>
      </trkpt>
      <trkpt lat="46.79554" lon="5.47217">
        <ele>267.4</ele>
        <time>2012-10-31T14:18:08.000Z</time>
      </trkpt>
      <trkpt lat="46.79554" lon="5.47219">
        <ele>267.3</ele>
        <time>2012-10-31T14:18:09.000Z</time>
      </trkpt>
      <trkpt lat="46.79553" lon="5.47224">
        <ele>267.5</ele>
        <time>2012-10-31T14:18:12.000Z</time>
      </trkpt>
      <trkpt lat="46.79553" lon="5.47226">
        <ele>267.6</ele>
        <time>2012-10-31T14:18:13.000Z</time>
      </trkpt>
      <trkpt lat="46.79552" lon="5.47231">
        <ele>267.6</ele>
        <time>2012-10-31T14:18:16.000Z</time>
      </trkpt>
      <trkpt lat="46.79552" lon="5.47233">
        <ele>268.1</ele>
        <time>2012-10-31T14:18:17.000Z</time>
      </trkpt>
      <trkpt lat="46.79552" lon="5.47239">
        <ele>269.4</ele>
        <time>2012-10-31T14:18:20.000Z</time>
      </trkpt>
      <trkpt lat="46.79551" lon="5.47241">
        <ele>269.7</ele>
        <time>2012-10-31T14:18:21.000Z</time>
      </trkpt>
      <trkpt lat="46.7955" lon="5.47245">
        <ele>270.7</ele>
        <time>2012-10-31T14:18:24.000Z</time>
      </trkpt>
      <trkpt lat="46.7955" lon="5.47247">
        <ele>271.1</ele>
        <time>2012-10-31T14:18:25.000Z</time>
      </trkpt>
      <trkpt lat="46.79548" lon="5.47252">
        <ele>271.5</ele>
        <time>2012-10-31T14:18:28.000Z</time>
      </trkpt>
      <trkpt lat="46.79548" lon="5.47254">
        <ele>271.6</ele>
        <time>2012-10-31T14:18:29.000Z</time>
      </trkpt>
      <trkpt lat="46.79546" lon="5.4726">
        <ele>272.6</ele>
        <time>2012-10-31T14:18:33.000Z</time>
      </trkpt>
      <trkpt lat="46.79546" lon="5.47261">
        <ele>272</ele>
        <time>2012-10-31T14:18:34.000Z</time>
      </trkpt>
      <trkpt lat="46.79545" lon="5.47267">
        <ele>271.9</ele>
        <time>2012-10-31T14:18:38.000Z</time>
      </trkpt>
      <trkpt lat="46.79545" lon="5.47269">
        <ele>271.8</ele>
        <time>2012-10-31T14:18:39.000Z</time>
      </trkpt>
      <trkpt lat="46.79544" lon="5.47275">
        <ele>271.2</ele>
        <time>2012-10-31T14:18:43.000Z</time>
      </trkpt>
      <trkpt lat="46.79544" lon="5.47277">
        <ele>271.3</ele>
        <time>2012-10-31T14:18:44.000Z</time>
      </trkpt>
      <trkpt lat="46.79543" lon="5.47282">
        <ele>271.3</ele>
        <time>2012-10-31T14:18:48.000Z</time>
      </trkpt>
      <trkpt lat="46.79542" lon="5.47284">
        <ele>271.2</ele>
        <time>2012-10-31T14:18:49.000Z</time>
      </trkpt>
      <trkpt lat="46.79541" lon="5.47289">
        <ele>272.1</ele>
        <time>2012-10-31T14:18:52.000Z</time>
      </trkpt>
      <trkpt lat="46.79541" lon="5.47291">
        <ele>272.4</ele>
        <time>2012-10-31T14:18:53.000Z</time>
      </trkpt>
      <trkpt lat="46.7954" lon="5.47297">
        <ele>272.6</ele>
        <time>2012-10-31T14:18:56.000Z</time>
      </trkpt>
      <trkpt lat="46.7954" lon="5.47299">
        <ele>272.5</ele>
        <time>2012-10-31T14:18:57.000Z</time>
      </trkpt>
      <trkpt lat="46.7954" lon="5.47304">
        <ele>271.5</ele>
        <time>2012-10-31T14:19:00.000Z</time>
      </trkpt>
      <trkpt lat="46.7954" lon="5.47306">
        <ele>271.6</ele>
        <time>2012-10-31T14:19:01.000Z</time>
      </trkpt>
      <trkpt lat="46.79538" lon="5.47311">
        <ele>271.1</ele>
        <time>2012-10-31T14:19:04.000Z</time>
      </trkpt>
      <trkpt lat="46.79538" lon="5.47312">
        <ele>270.8</ele>
        <time>2012-10-31T14:19:05.000Z</time>
      </trkpt>
      <trkpt lat="46.79536" lon="5.47317">
        <ele>270.2</ele>
        <time>2012-10-31T14:19:08.000Z</time>
      </trkpt>
      <trkpt lat="46.79535" lon="5.47318">
        <ele>270</ele>
        <time>2012-10-31T14:19:09.000Z</time>
      </trkpt>
      <trkpt lat="46.79535" lon="5.47324">
        <ele>269.2</ele>
        <time>2012-10-31T14:19:13.000Z</time>
      </trkpt>
      <trkpt lat="46.79534" lon="5.47326">
        <ele>269.3</ele>
        <time>2012-10-31T14:19:14.000Z</time>
      </trkpt>
      <trkpt lat="46.79534" lon="5.47331">
        <ele>270.2</ele>
        <time>2012-10-31T14:19:17.000Z</time>
      </trkpt>
      <trkpt lat="46.79533" lon="5.47332">
        <ele>270.4</ele>
        <time>2012-10-31T14:19:18.000Z</time>
      </trkpt>
      <trkpt lat="46.79533" lon="5.47337">
        <ele>270</ele>
        <time>2012-10-31T14:19:21.000Z</time>
      </trkpt>
      <trkpt lat="46.79532" lon="5.47339">
        <ele>270</ele>
        <time>2012-10-31T14:19:22.000Z</time>
      </trkpt>
      <trkpt lat="46.79531" lon="5.47345">
        <ele>271.2</ele>
        <time>2012-10-31T14:19:26.000Z</time>
      </trkpt>
      <trkpt lat="46.79531" lon="5.47347">
        <ele>271.3</ele>
        <time>2012-10-31T14:19:27.000Z</time>
      </trkpt>
      <trkpt lat="46.7953" lon="5.47353">
        <ele>271.5</ele>
        <time>2012-10-31T14:19:30.000Z</time>
      </trkpt>
      <trkpt lat="46.7953" lon="5.47354">
        <ele>271.6</ele>
        <time>2012-10-31T14:19:31.000Z</time>
      </trkpt>
      <trkpt lat="46.79528" lon="5.47359">
        <ele>271.8</ele>
        <time>2012-10-31T14:19:34.000Z</time>
      </trkpt>
      <trkpt lat="46.79528" lon="5.47361">
        <ele>271.9</ele>
        <time>2012-10-31T14:19:35.000Z</time>
      </trkpt>
      <trkpt lat="46.79526" lon="5.47366">
        <ele>271.9</ele>
        <time>2012-10-31T14:19:38.000Z</time>
      </trkpt>
      <trkpt lat="46.79525" lon="5.47368">
        <ele>271.8</ele>
        <time>2012-10-31T14:19:39.000Z</time>
      </trkpt>
      <trkpt lat="46.79524" lon="5.47372">
        <ele>271.6</ele>
        <time>2012-10-31T14:19:42.000Z</time>
      </trkpt>
      <trkpt lat="46.79523" lon="5.47374">
        <ele>271.6</ele>
        <time>2012-10-31T14:19:43.000Z</time>
      </trkpt>
      <trkpt lat="46.79521" lon="5.4738">
        <ele>271.7</ele>
        <time>2012-10-31T14:19:47.000Z</time>
      </trkpt>
      <trkpt lat="46.79521" lon="5.47381">
        <ele>271.6</ele>
        <time>2012-10-31T14:19:48.000Z</time>
      </trkpt>
      <trkpt lat="46.79519" lon="5.47386">
        <ele>271.1</ele>
        <time>2012-10-31T14:19:53.000Z</time>
      </trkpt>
      <trkpt lat="46.79519" lon="5.47388">
        <ele>270.9</ele>
        <time>2012-10-31T14:19:54.000Z</time>
      </trkpt>
      <trkpt lat="46.79518" lon="5.47393">
        <ele>269.7</ele>
        <time>2012-10-31T14:19:57.000Z</time>
      </trkpt>
      <trkpt lat="46.79518" lon="5.47395">
        <ele>269.3</ele>
        <time>2012-10-31T14:19:58.000Z</time>
      </trkpt>
      <trkpt lat="46.79518" lon="5.474">
        <ele>268.1</ele>
        <time>2012-10-31T14:20:01.000Z</time>
      </trkpt>
      <trkpt lat="46.79518" lon="5.47402">
        <ele>267.8</ele>
        <time>2012-10-31T14:20:02.000Z</time>
      </trkpt>
      <trkpt lat="46.79518" lon="5.47407">
        <ele>267.1</ele>
        <time>2012-10-31T14:20:05.000Z</time>
      </trkpt>
      <trkpt lat="46.79517" lon="5.47409">
        <ele>266.5</ele>
        <time>2012-10-31T14:20:06.000Z</time>
      </trkpt>
      <trkpt lat="46.79517" lon="5.47415">
        <ele>266.5</ele>
        <time>2012-10-31T14:20:09.000Z</time>
      </trkpt>
      <trkpt lat="46.79516" lon="5.47417">
        <ele>266.1</ele>
        <time>2012-10-31T14:20:10.000Z</time>
      </trkpt>
      <trkpt lat="46.79515" lon="5.47422">
        <ele>266.2</ele>
        <time>2012-10-31T14:20:13.000Z</time>
      </trkpt>
      <trkpt lat="46.79514" lon="5.47423">
        <ele>266</ele>
        <time>2012-10-31T14:20:14.000Z</time>
      </trkpt>
      <trkpt lat="46.79512" lon="5.47428">
        <ele>265.5</ele>
        <time>2012-10-31T14:20:17.000Z</time>
      </trkpt>
      <trkpt lat="46.79511" lon="5.47429">
        <ele>265.5</ele>
        <time>2012-10-31T14:20:18.000Z</time>
      </trkpt>
      <trkpt lat="46.7951" lon="5.47431">
        <ele>265.6</ele>
        <time>2012-10-31T14:20:19.000Z</time>
      </trkpt>
      <trkpt lat="46.79503" lon="5.47443">
        <ele>268.1</ele>
        <time>2012-10-31T14:20:26.000Z</time>
      </trkpt>
      <trkpt lat="46.795" lon="5.47448">
        <ele>262.4</ele>
        <time>2012-10-31T14:20:32.000Z</time>
      </trkpt>
      <trkpt lat="46.79499" lon="5.4745">
        <ele>262.7</ele>
        <time>2012-10-31T14:20:33.000Z</time>
      </trkpt>
      <trkpt lat="46.79495" lon="5.47454">
        <ele>260.8</ele>
        <time>2012-10-31T14:20:37.000Z</time>
      </trkpt>
      <trkpt lat="46.79495" lon="5.47455">
        <ele>260.7</ele>
        <time>2012-10-31T14:20:38.000Z</time>
      </trkpt>
      <trkpt lat="46.79491" lon="5.47458">
        <ele>259.5</ele>
        <time>2012-10-31T14:20:42.000Z</time>
      </trkpt>
      <trkpt lat="46.79491" lon="5.47459">
        <ele>259.5</ele>
        <time>2012-10-31T14:20:43.000Z</time>
      </trkpt>
      <trkpt lat="46.79488" lon="5.47463">
        <ele>259.8</ele>
        <time>2012-10-31T14:20:47.000Z</time>
      </trkpt>
      <trkpt lat="46.79487" lon="5.47464">
        <ele>260.1</ele>
        <time>2012-10-31T14:20:48.000Z</time>
      </trkpt>
      <trkpt lat="46.79484" lon="5.47467">
        <ele>261.4</ele>
        <time>2012-10-31T14:20:51.000Z</time>
      </trkpt>
      <trkpt lat="46.79483" lon="5.47468">
        <ele>261.6</ele>
        <time>2012-10-31T14:20:52.000Z</time>
      </trkpt>
      <trkpt lat="46.79481" lon="5.47472">
        <ele>262.4</ele>
        <time>2012-10-31T14:20:55.000Z</time>
      </trkpt>
      <trkpt lat="46.7948" lon="5.47474">
        <ele>262.4</ele>
        <time>2012-10-31T14:20:56.000Z</time>
      </trkpt>
      <trkpt lat="46.79477" lon="5.47478">
        <ele>262.3</ele>
        <time>2012-10-31T14:21:00.000Z</time>
      </trkpt>
      <trkpt lat="46.79477" lon="5.47479">
        <ele>262</ele>
        <time>2012-10-31T14:21:01.000Z</time>
      </trkpt>
      <trkpt lat="46.79473" lon="5.47483">
        <ele>260.8</ele>
        <time>2012-10-31T14:21:06.000Z</time>
      </trkpt>
      <trkpt lat="46.79473" lon="5.47484">
        <ele>261.1</ele>
        <time>2012-10-31T14:21:07.000Z</time>
      </trkpt>
      <trkpt lat="46.79469" lon="5.47488">
        <ele>258.7</ele>
        <time>2012-10-31T14:21:20.000Z</time>
      </trkpt>
      <trkpt lat="46.79469" lon="5.47489">
        <ele>258.5</ele>
        <time>2012-10-31T14:21:21.000Z</time>
      </trkpt>
      <trkpt lat="46.79466" lon="5.47494">
        <ele>257.6</ele>
        <time>2012-10-31T14:21:28.000Z</time>
      </trkpt>
      <trkpt lat="46.79466" lon="5.47494">
        <ele>257.2</ele>
        <time>2012-10-31T14:21:29.000Z</time>
      </trkpt>
      <trkpt lat="46.79462" lon="5.47498">
        <ele>255.7</ele>
        <time>2012-10-31T14:21:35.000Z</time>
      </trkpt>
      <trkpt lat="46.79462" lon="5.47497">
        <ele>255.6</ele>
        <time>2012-10-31T14:21:36.000Z</time>
      </trkpt>
      <trkpt lat="46.79465" lon="5.47494">
        <ele>255.7</ele>
        <time>2012-10-31T14:22:10.000Z</time>
      </trkpt>
      <trkpt lat="46.79466" lon="5.47493">
        <ele>255.7</ele>
        <time>2012-10-31T14:22:11.000Z</time>
      </trkpt>
      <trkpt lat="46.79466" lon="5.47493">
        <ele>256</ele>
        <time>2012-10-31T14:22:23.000Z</time>
      </trkpt>
      <trkpt lat="46.79459" lon="5.47509">
        <ele>251.5</ele>
        <time>2012-10-31T14:26:32.000Z</time>
      </trkpt>
      <trkpt lat="46.79457" lon="5.47514">
        <ele>252.4</ele>
        <time>2012-10-31T14:26:44.000Z</time>
      </trkpt>
      <trkpt lat="46.79458" lon="5.47517">
        <ele>253.6</ele>
        <time>2012-10-31T14:26:45.000Z</time>
      </trkpt>
      <trkpt lat="46.79455" lon="5.47518">
        <ele>254</ele>
        <time>2012-10-31T14:26:55.000Z</time>
      </trkpt>
      <trkpt lat="46.79449" lon="5.47519">
        <ele>255.8</ele>
        <time>2012-10-31T14:26:56.000Z</time>
      </trkpt>
      <trkpt lat="46.79444" lon="5.47519">
        <ele>257.6</ele>
        <time>2012-10-31T14:27:01.000Z</time>
      </trkpt>
      <trkpt lat="46.79444" lon="5.4752">
        <ele>257.8</ele>
        <time>2012-10-31T14:27:02.000Z</time>
      </trkpt>
      <trkpt lat="46.79443" lon="5.47525">
        <ele>258.2</ele>
        <time>2012-10-31T14:27:09.000Z</time>
      </trkpt>
      <trkpt lat="46.79442" lon="5.47526">
        <ele>258.5</ele>
        <time>2012-10-31T14:27:10.000Z</time>
      </trkpt>
      <trkpt lat="46.79438" lon="5.47527">
        <ele>257.8</ele>
        <time>2012-10-31T14:27:16.000Z</time>
      </trkpt>
      <trkpt lat="46.79437" lon="5.47527">
        <ele>258.2</ele>
        <time>2012-10-31T14:27:17.000Z</time>
      </trkpt>
      <trkpt lat="46.79434" lon="5.4753">
        <ele>258.8</ele>
        <time>2012-10-31T14:27:22.000Z</time>
      </trkpt>
      <trkpt lat="46.79433" lon="5.47531">
        <ele>258.9</ele>
        <time>2012-10-31T14:27:23.000Z</time>
      </trkpt>
      <trkpt lat="46.79431" lon="5.47535">
        <ele>259.3</ele>
        <time>2012-10-31T14:27:27.000Z</time>
      </trkpt>
      <trkpt lat="46.7943" lon="5.47536">
        <ele>259.6</ele>
        <time>2012-10-31T14:27:28.000Z</time>
      </trkpt>
      <trkpt lat="46.79427" lon="5.47539">
        <ele>259.9</ele>
        <time>2012-10-31T14:27:32.000Z</time>
      </trkpt>
      <trkpt lat="46.79426" lon="5.4754">
        <ele>260.1</ele>
        <time>2012-10-31T14:27:33.000Z</time>
      </trkpt>
      <trkpt lat="46.79423" lon="5.47544">
        <ele>261.3</ele>
        <time>2012-10-31T14:27:37.000Z</time>
      </trkpt>
      <trkpt lat="46.79422" lon="5.47545">
        <ele>261.4</ele>
        <time>2012-10-31T14:27:38.000Z</time>
      </trkpt>
      <trkpt lat="46.79419" lon="5.47548">
        <ele>261.9</ele>
        <time>2012-10-31T14:27:41.000Z</time>
      </trkpt>
      <trkpt lat="46.79418" lon="5.47549">
        <ele>262.3</ele>
        <time>2012-10-31T14:27:42.000Z</time>
      </trkpt>
      <trkpt lat="46.79415" lon="5.47552">
        <ele>262.9</ele>
        <time>2012-10-31T14:27:45.000Z</time>
      </trkpt>
      <trkpt lat="46.79414" lon="5.47553">
        <ele>263</ele>
        <time>2012-10-31T14:27:46.000Z</time>
      </trkpt>
      <trkpt lat="46.79411" lon="5.47557">
        <ele>264.5</ele>
        <time>2012-10-31T14:27:50.000Z</time>
      </trkpt>
      <trkpt lat="46.7941" lon="5.47558">
        <ele>264.6</ele>
        <time>2012-10-31T14:27:51.000Z</time>
      </trkpt>
      <trkpt lat="46.79406" lon="5.47561">
        <ele>264.3</ele>
        <time>2012-10-31T14:27:55.000Z</time>
      </trkpt>
      <trkpt lat="46.79405" lon="5.47562">
        <ele>264.4</ele>
        <time>2012-10-31T14:27:56.000Z</time>
      </trkpt>
      <trkpt lat="46.79403" lon="5.47568">
        <ele>264.7</ele>
        <time>2012-10-31T14:28:00.000Z</time>
      </trkpt>
      <trkpt lat="46.79403" lon="5.47569">
        <ele>264.9</ele>
        <time>2012-10-31T14:28:01.000Z</time>
      </trkpt>
      <trkpt lat="46.79401" lon="5.47574">
        <ele>265</ele>
        <time>2012-10-31T14:28:05.000Z</time>
      </trkpt>
      <trkpt lat="46.794" lon="5.47575">
        <ele>265</ele>
        <time>2012-10-31T14:28:06.000Z</time>
      </trkpt>
      <trkpt lat="46.794" lon="5.47581">
        <ele>264.3</ele>
        <time>2012-10-31T14:28:12.000Z</time>
      </trkpt>
      <trkpt lat="46.794" lon="5.47582">
        <ele>264.4</ele>
        <time>2012-10-31T14:28:13.000Z</time>
      </trkpt>
      <trkpt lat="46.794" lon="5.47588">
        <ele>264.7</ele>
        <time>2012-10-31T14:28:17.000Z</time>
      </trkpt>
      <trkpt lat="46.794" lon="5.47589">
        <ele>264.8</ele>
        <time>2012-10-31T14:28:18.000Z</time>
      </trkpt>
      <trkpt lat="46.794" lon="5.47595">
        <ele>264.8</ele>
        <time>2012-10-31T14:28:22.000Z</time>
      </trkpt>
      <trkpt lat="46.794" lon="5.47596">
        <ele>264.9</ele>
        <time>2012-10-31T14:28:23.000Z</time>
      </trkpt>
      <trkpt lat="46.79399" lon="5.47602">
        <ele>265.3</ele>
        <time>2012-10-31T14:28:28.000Z</time>
      </trkpt>
      <trkpt lat="46.79399" lon="5.47604">
        <ele>265.3</ele>
        <time>2012-10-31T14:28:29.000Z</time>
      </trkpt>
      <trkpt lat="46.79399" lon="5.47609">
        <ele>265.3</ele>
        <time>2012-10-31T14:28:33.000Z</time>
      </trkpt>
      <trkpt lat="46.79399" lon="5.4761">
        <ele>265.1</ele>
        <time>2012-10-31T14:28:34.000Z</time>
      </trkpt>
      <trkpt lat="46.79398" lon="5.47616">
        <ele>265.4</ele>
        <time>2012-10-31T14:28:38.000Z</time>
      </trkpt>
      <trkpt lat="46.79398" lon="5.47617">
        <ele>265.4</ele>
        <time>2012-10-31T14:28:39.000Z</time>
      </trkpt>
      <trkpt lat="46.79398" lon="5.47623">
        <ele>265.4</ele>
        <time>2012-10-31T14:28:43.000Z</time>
      </trkpt>
      <trkpt lat="46.79398" lon="5.47624">
        <ele>265.6</ele>
        <time>2012-10-31T14:28:44.000Z</time>
      </trkpt>
      <trkpt lat="46.79398" lon="5.4763">
        <ele>266.6</ele>
        <time>2012-10-31T14:28:48.000Z</time>
      </trkpt>
      <trkpt lat="46.79398" lon="5.47632">
        <ele>266.7</ele>
        <time>2012-10-31T14:28:49.000Z</time>
      </trkpt>
      <trkpt lat="46.79397" lon="5.47638">
        <ele>266.4</ele>
        <time>2012-10-31T14:28:53.000Z</time>
      </trkpt>
      <trkpt lat="46.79397" lon="5.47639">
        <ele>266.4</ele>
        <time>2012-10-31T14:28:54.000Z</time>
      </trkpt>
      <trkpt lat="46.79397" lon="5.47645">
        <ele>266.7</ele>
        <time>2012-10-31T14:28:58.000Z</time>
      </trkpt>
      <trkpt lat="46.79397" lon="5.47646">
        <ele>266.7</ele>
        <time>2012-10-31T14:28:59.000Z</time>
      </trkpt>
      <trkpt lat="46.79396" lon="5.47651">
        <ele>266.9</ele>
        <time>2012-10-31T14:29:03.000Z</time>
      </trkpt>
      <trkpt lat="46.79396" lon="5.47653">
        <ele>267</ele>
        <time>2012-10-31T14:29:04.000Z</time>
      </trkpt>
      <trkpt lat="46.79395" lon="5.47658">
        <ele>267</ele>
        <time>2012-10-31T14:29:08.000Z</time>
      </trkpt>
      <trkpt lat="46.79395" lon="5.4766">
        <ele>267.1</ele>
        <time>2012-10-31T14:29:09.000Z</time>
      </trkpt>
      <trkpt lat="46.79395" lon="5.47666">
        <ele>267.7</ele>
        <time>2012-10-31T14:29:13.000Z</time>
      </trkpt>
      <trkpt lat="46.79395" lon="5.47667">
        <ele>267.8</ele>
        <time>2012-10-31T14:29:14.000Z</time>
      </trkpt>
      <trkpt lat="46.79395" lon="5.47672">
        <ele>268.6</ele>
        <time>2012-10-31T14:29:17.000Z</time>
      </trkpt>
      <trkpt lat="46.79394" lon="5.47674">
        <ele>268.7</ele>
        <time>2012-10-31T14:29:18.000Z</time>
      </trkpt>
      <trkpt lat="46.79394" lon="5.47679">
        <ele>269.1</ele>
        <time>2012-10-31T14:29:21.000Z</time>
      </trkpt>
      <trkpt lat="46.79394" lon="5.4768">
        <ele>269.4</ele>
        <time>2012-10-31T14:29:22.000Z</time>
      </trkpt>
      <trkpt lat="46.79393" lon="5.47685">
        <ele>269.8</ele>
        <time>2012-10-31T14:29:25.000Z</time>
      </trkpt>
      <trkpt lat="46.79393" lon="5.47687">
        <ele>269.9</ele>
        <time>2012-10-31T14:29:26.000Z</time>
      </trkpt>
      <trkpt lat="46.79392" lon="5.47692">
        <ele>270.5</ele>
        <time>2012-10-31T14:29:29.000Z</time>
      </trkpt>
      <trkpt lat="46.79392" lon="5.47694">
        <ele>270.7</ele>
        <time>2012-10-31T14:29:30.000Z</time>
      </trkpt>
      <trkpt lat="46.79391" lon="5.477">
        <ele>271</ele>
        <time>2012-10-31T14:29:33.000Z</time>
      </trkpt>
      <trkpt lat="46.79391" lon="5.47702">
        <ele>271.1</ele>
        <time>2012-10-31T14:29:34.000Z</time>
      </trkpt>
      <trkpt lat="46.79391" lon="5.47707">
        <ele>270.6</ele>
        <time>2012-10-31T14:29:37.000Z</time>
      </trkpt>
      <trkpt lat="46.79391" lon="5.47709">
        <ele>270.6</ele>
        <time>2012-10-31T14:29:38.000Z</time>
      </trkpt>
      <trkpt lat="46.7939" lon="5.47714">
        <ele>270.5</ele>
        <time>2012-10-31T14:29:41.000Z</time>
      </trkpt>
      <trkpt lat="46.7939" lon="5.47716">
        <ele>270.5</ele>
        <time>2012-10-31T14:29:42.000Z</time>
      </trkpt>
      <trkpt lat="46.79389" lon="5.47721">
        <ele>270.3</ele>
        <time>2012-10-31T14:29:45.000Z</time>
      </trkpt>
      <trkpt lat="46.79389" lon="5.47722">
        <ele>270.3</ele>
        <time>2012-10-31T14:29:46.000Z</time>
      </trkpt>
      <trkpt lat="46.79388" lon="5.47729">
        <ele>270.4</ele>
        <time>2012-10-31T14:29:50.000Z</time>
      </trkpt>
      <trkpt lat="46.79388" lon="5.4773">
        <ele>270.6</ele>
        <time>2012-10-31T14:29:51.000Z</time>
      </trkpt>
      <trkpt lat="46.79388" lon="5.47736">
        <ele>271.1</ele>
        <time>2012-10-31T14:29:54.000Z</time>
      </trkpt>
      <trkpt lat="46.79388" lon="5.47737">
        <ele>271.3</ele>
        <time>2012-10-31T14:29:55.000Z</time>
      </trkpt>
      <trkpt lat="46.79388" lon="5.47742">
        <ele>272</ele>
        <time>2012-10-31T14:29:58.000Z</time>
      </trkpt>
      <trkpt lat="46.79388" lon="5.47744">
        <ele>272.2</ele>
        <time>2012-10-31T14:29:59.000Z</time>
      </trkpt>
      <trkpt lat="46.79388" lon="5.47749">
        <ele>272.4</ele>
        <time>2012-10-31T14:30:02.000Z</time>
      </trkpt>
      <trkpt lat="46.79388" lon="5.47754">
        <ele>272.4</ele>
        <time>2012-10-31T14:30:03.000Z</time>
      </trkpt>
      <trkpt lat="46.79387" lon="5.47759">
        <ele>272.3</ele>
        <time>2012-10-31T14:30:09.000Z</time>
      </trkpt>
      <trkpt lat="46.79387" lon="5.47761">
        <ele>272.2</ele>
        <time>2012-10-31T14:30:10.000Z</time>
      </trkpt>
      <trkpt lat="46.79387" lon="5.47766">
        <ele>272</ele>
        <time>2012-10-31T14:30:13.000Z</time>
      </trkpt>
      <trkpt lat="46.79387" lon="5.47768">
        <ele>272</ele>
        <time>2012-10-31T14:30:14.000Z</time>
      </trkpt>
      <trkpt lat="46.79386" lon="5.47773">
        <ele>272.2</ele>
        <time>2012-10-31T14:30:17.000Z</time>
      </trkpt>
      <trkpt lat="46.79386" lon="5.47775">
        <ele>272.1</ele>
        <time>2012-10-31T14:30:18.000Z</time>
      </trkpt>
      <trkpt lat="46.79385" lon="5.4778">
        <ele>272.4</ele>
        <time>2012-10-31T14:30:21.000Z</time>
      </trkpt>
      <trkpt lat="46.79385" lon="5.47782">
        <ele>272.6</ele>
        <time>2012-10-31T14:30:22.000Z</time>
      </trkpt>
      <trkpt lat="46.79385" lon="5.47787">
        <ele>273.3</ele>
        <time>2012-10-31T14:30:25.000Z</time>
      </trkpt>
      <trkpt lat="46.79385" lon="5.47789">
        <ele>273.3</ele>
        <time>2012-10-31T14:30:26.000Z</time>
      </trkpt>
      <trkpt lat="46.79385" lon="5.47794">
        <ele>273.5</ele>
        <time>2012-10-31T14:30:29.000Z</time>
      </trkpt>
      <trkpt lat="46.79385" lon="5.47796">
        <ele>273.6</ele>
        <time>2012-10-31T14:30:30.000Z</time>
      </trkpt>
      <trkpt lat="46.79385" lon="5.47801">
        <ele>273.8</ele>
        <time>2012-10-31T14:30:33.000Z</time>
      </trkpt>
      <trkpt lat="46.79385" lon="5.47802">
        <ele>273.8</ele>
        <time>2012-10-31T14:30:34.000Z</time>
      </trkpt>
      <trkpt lat="46.79384" lon="5.47808">
        <ele>274.2</ele>
        <time>2012-10-31T14:30:37.000Z</time>
      </trkpt>
      <trkpt lat="46.79384" lon="5.47809">
        <ele>274.2</ele>
        <time>2012-10-31T14:30:38.000Z</time>
      </trkpt>
      <trkpt lat="46.79384" lon="5.47814">
        <ele>274.5</ele>
        <time>2012-10-31T14:30:41.000Z</time>
      </trkpt>
      <trkpt lat="46.79384" lon="5.47816">
        <ele>274.7</ele>
        <time>2012-10-31T14:30:42.000Z</time>
      </trkpt>
      <trkpt lat="46.79383" lon="5.47822">
        <ele>274.5</ele>
        <time>2012-10-31T14:30:45.000Z</time>
      </trkpt>
      <trkpt lat="46.79383" lon="5.47823">
        <ele>274.6</ele>
        <time>2012-10-31T14:30:46.000Z</time>
      </trkpt>
      <trkpt lat="46.79383" lon="5.47829">
        <ele>275</ele>
        <time>2012-10-31T14:30:49.000Z</time>
      </trkpt>
      <trkpt lat="46.79382" lon="5.4783">
        <ele>275.1</ele>
        <time>2012-10-31T14:30:50.000Z</time>
      </trkpt>
      <trkpt lat="46.79382" lon="5.47836">
        <ele>275.7</ele>
        <time>2012-10-31T14:30:53.000Z</time>
      </trkpt>
      <trkpt lat="46.79382" lon="5.47837">
        <ele>275.7</ele>
        <time>2012-10-31T14:30:54.000Z</time>
      </trkpt>
      <trkpt lat="46.79381" lon="5.47842">
        <ele>276</ele>
        <time>2012-10-31T14:30:57.000Z</time>
      </trkpt>
      <trkpt lat="46.79381" lon="5.47844">
        <ele>275.8</ele>
        <time>2012-10-31T14:30:58.000Z</time>
      </trkpt>
      <trkpt lat="46.7938" lon="5.47849">
        <ele>275.6</ele>
        <time>2012-10-31T14:31:01.000Z</time>
      </trkpt>
      <trkpt lat="46.7938" lon="5.47851">
        <ele>275.5</ele>
        <time>2012-10-31T14:31:02.000Z</time>
      </trkpt>
      <trkpt lat="46.79378" lon="5.47856">
        <ele>275</ele>
        <time>2012-10-31T14:31:05.000Z</time>
      </trkpt>
      <trkpt lat="46.79378" lon="5.47857">
        <ele>275.2</ele>
        <time>2012-10-31T14:31:06.000Z</time>
      </trkpt>
      <trkpt lat="46.79377" lon="5.47862">
        <ele>275.6</ele>
        <time>2012-10-31T14:31:09.000Z</time>
      </trkpt>
      <trkpt lat="46.79376" lon="5.47864">
        <ele>275.6</ele>
        <time>2012-10-31T14:31:10.000Z</time>
      </trkpt>
      <trkpt lat="46.79374" lon="5.47869">
        <ele>274.9</ele>
        <time>2012-10-31T14:31:13.000Z</time>
      </trkpt>
      <trkpt lat="46.79374" lon="5.47871">
        <ele>274.7</ele>
        <time>2012-10-31T14:31:14.000Z</time>
      </trkpt>
      <trkpt lat="46.79372" lon="5.47875">
        <ele>274.3</ele>
        <time>2012-10-31T14:31:17.000Z</time>
      </trkpt>
      <trkpt lat="46.79371" lon="5.47877">
        <ele>274.1</ele>
        <time>2012-10-31T14:31:18.000Z</time>
      </trkpt>
      <trkpt lat="46.79369" lon="5.47882">
        <ele>273.6</ele>
        <time>2012-10-31T14:31:22.000Z</time>
      </trkpt>
      <trkpt lat="46.79369" lon="5.47883">
        <ele>273.6</ele>
        <time>2012-10-31T14:31:23.000Z</time>
      </trkpt>
      <trkpt lat="46.79365" lon="5.47884">
        <ele>272.5</ele>
        <time>2012-10-31T14:31:30.000Z</time>
      </trkpt>
      <trkpt lat="46.79364" lon="5.47884">
        <ele>272.2</ele>
        <time>2012-10-31T14:31:31.000Z</time>
      </trkpt>
      <trkpt lat="46.7936" lon="5.47882">
        <ele>271.2</ele>
        <time>2012-10-31T14:31:36.000Z</time>
      </trkpt>
      <trkpt lat="46.79359" lon="5.47882">
        <ele>270.8</ele>
        <time>2012-10-31T14:31:37.000Z</time>
      </trkpt>
      <trkpt lat="46.79355" lon="5.47881">
        <ele>270.1</ele>
        <time>2012-10-31T14:31:41.000Z</time>
      </trkpt>
      <trkpt lat="46.79354" lon="5.47881">
        <ele>269.9</ele>
        <time>2012-10-31T14:31:42.000Z</time>
      </trkpt>
      <trkpt lat="46.7935" lon="5.47879">
        <ele>269.2</ele>
        <time>2012-10-31T14:31:46.000Z</time>
      </trkpt>
      <trkpt lat="46.79349" lon="5.47879">
        <ele>269</ele>
        <time>2012-10-31T14:31:47.000Z</time>
      </trkpt>
      <trkpt lat="46.79345" lon="5.47878">
        <ele>268</ele>
        <time>2012-10-31T14:31:51.000Z</time>
      </trkpt>
      <trkpt lat="46.79344" lon="5.47878">
        <ele>268</ele>
        <time>2012-10-31T14:31:52.000Z</time>
      </trkpt>
      <trkpt lat="46.7934" lon="5.47876">
        <ele>267.8</ele>
        <time>2012-10-31T14:31:56.000Z</time>
      </trkpt>
      <trkpt lat="46.79339" lon="5.47876">
        <ele>267.9</ele>
        <time>2012-10-31T14:31:57.000Z</time>
      </trkpt>
      <trkpt lat="46.79334" lon="5.47874">
        <ele>268.1</ele>
        <time>2012-10-31T14:32:01.000Z</time>
      </trkpt>
      <trkpt lat="46.79333" lon="5.47874">
        <ele>268.2</ele>
        <time>2012-10-31T14:32:02.000Z</time>
      </trkpt>
      <trkpt lat="46.79329" lon="5.47873">
        <ele>268.4</ele>
        <time>2012-10-31T14:32:06.000Z</time>
      </trkpt>
      <trkpt lat="46.79328" lon="5.47873">
        <ele>268.7</ele>
        <time>2012-10-31T14:32:07.000Z</time>
      </trkpt>
      <trkpt lat="46.79323" lon="5.47872">
        <ele>269.4</ele>
        <time>2012-10-31T14:32:11.000Z</time>
      </trkpt>
      <trkpt lat="46.79322" lon="5.47872">
        <ele>269.6</ele>
        <time>2012-10-31T14:32:12.000Z</time>
      </trkpt>
      <trkpt lat="46.79318" lon="5.47871">
        <ele>269.9</ele>
        <time>2012-10-31T14:32:16.000Z</time>
      </trkpt>
      <trkpt lat="46.79317" lon="5.47871">
        <ele>269.9</ele>
        <time>2012-10-31T14:32:17.000Z</time>
      </trkpt>
      <trkpt lat="46.79313" lon="5.4787">
        <ele>270.1</ele>
        <time>2012-10-31T14:32:20.000Z</time>
      </trkpt>
      <trkpt lat="46.79312" lon="5.4787">
        <ele>270.2</ele>
        <time>2012-10-31T14:32:21.000Z</time>
      </trkpt>
      <trkpt lat="46.79307" lon="5.47869">
        <ele>270.4</ele>
        <time>2012-10-31T14:32:25.000Z</time>
      </trkpt>
      <trkpt lat="46.79306" lon="5.47869">
        <ele>270.3</ele>
        <time>2012-10-31T14:32:26.000Z</time>
      </trkpt>
      <trkpt lat="46.79302" lon="5.47868">
        <ele>270.3</ele>
        <time>2012-10-31T14:32:30.000Z</time>
      </trkpt>
      <trkpt lat="46.79301" lon="5.47868">
        <ele>270.4</ele>
        <time>2012-10-31T14:32:31.000Z</time>
      </trkpt>
      <trkpt lat="46.79296" lon="5.47868">
        <ele>270.9</ele>
        <time>2012-10-31T14:32:35.000Z</time>
      </trkpt>
      <trkpt lat="46.79295" lon="5.47868">
        <ele>271</ele>
        <time>2012-10-31T14:32:36.000Z</time>
      </trkpt>
      <trkpt lat="46.79291" lon="5.47866">
        <ele>271.1</ele>
        <time>2012-10-31T14:32:40.000Z</time>
      </trkpt>
      <trkpt lat="46.7929" lon="5.47866">
        <ele>271.3</ele>
        <time>2012-10-31T14:32:41.000Z</time>
      </trkpt>
      <trkpt lat="46.79285" lon="5.47865">
        <ele>271.8</ele>
        <time>2012-10-31T14:32:45.000Z</time>
      </trkpt>
      <trkpt lat="46.79284" lon="5.47865">
        <ele>271.9</ele>
        <time>2012-10-31T14:32:46.000Z</time>
      </trkpt>
      <trkpt lat="46.7928" lon="5.47864">
        <ele>272.3</ele>
        <time>2012-10-31T14:32:50.000Z</time>
      </trkpt>
      <trkpt lat="46.79279" lon="5.47864">
        <ele>272.5</ele>
        <time>2012-10-31T14:32:51.000Z</time>
      </trkpt>
      <trkpt lat="46.79275" lon="5.47863">
        <ele>272.4</ele>
        <time>2012-10-31T14:32:55.000Z</time>
      </trkpt>
      <trkpt lat="46.79273" lon="5.47863">
        <ele>272.5</ele>
        <time>2012-10-31T14:32:56.000Z</time>
      </trkpt>
      <trkpt lat="46.79269" lon="5.47863">
        <ele>272.5</ele>
        <time>2012-10-31T14:33:00.000Z</time>
      </trkpt>
      <trkpt lat="46.79268" lon="5.47863">
        <ele>272.7</ele>
        <time>2012-10-31T14:33:01.000Z</time>
      </trkpt>
      <trkpt lat="46.79264" lon="5.47863">
        <ele>273</ele>
        <time>2012-10-31T14:33:05.000Z</time>
      </trkpt>
      <trkpt lat="46.79263" lon="5.47863">
        <ele>273.1</ele>
        <time>2012-10-31T14:33:06.000Z</time>
      </trkpt>
      <trkpt lat="46.79259" lon="5.47862">
        <ele>273.4</ele>
        <time>2012-10-31T14:33:10.000Z</time>
      </trkpt>
      <trkpt lat="46.79258" lon="5.47862">
        <ele>273.4</ele>
        <time>2012-10-31T14:33:11.000Z</time>
      </trkpt>
      <trkpt lat="46.79253" lon="5.47861">
        <ele>273</ele>
        <time>2012-10-31T14:33:15.000Z</time>
      </trkpt>
      <trkpt lat="46.79252" lon="5.47861">
        <ele>272.8</ele>
        <time>2012-10-31T14:33:16.000Z</time>
      </trkpt>
      <trkpt lat="46.79248" lon="5.4786">
        <ele>272.6</ele>
        <time>2012-10-31T14:33:20.000Z</time>
      </trkpt>
      <trkpt lat="46.79247" lon="5.4786">
        <ele>272.5</ele>
        <time>2012-10-31T14:33:21.000Z</time>
      </trkpt>
      <trkpt lat="46.79243" lon="5.47859">
        <ele>272.9</ele>
        <time>2012-10-31T14:33:25.000Z</time>
      </trkpt>
      <trkpt lat="46.79242" lon="5.47859">
        <ele>272.7</ele>
        <time>2012-10-31T14:33:26.000Z</time>
      </trkpt>
      <trkpt lat="46.79238" lon="5.47859">
        <ele>272.5</ele>
        <time>2012-10-31T14:33:29.000Z</time>
      </trkpt>
      <trkpt lat="46.79237" lon="5.47858">
        <ele>272.3</ele>
        <time>2012-10-31T14:33:30.000Z</time>
      </trkpt>
      <trkpt lat="46.79233" lon="5.47858">
        <ele>272.3</ele>
        <time>2012-10-31T14:33:34.000Z</time>
      </trkpt>
      <trkpt lat="46.79232" lon="5.47857">
        <ele>272.3</ele>
        <time>2012-10-31T14:33:35.000Z</time>
      </trkpt>
      <trkpt lat="46.79228" lon="5.47856">
        <ele>272.3</ele>
        <time>2012-10-31T14:33:38.000Z</time>
      </trkpt>
      <trkpt lat="46.79227" lon="5.47855">
        <ele>272.3</ele>
        <time>2012-10-31T14:33:39.000Z</time>
      </trkpt>
      <trkpt lat="46.79223" lon="5.47854">
        <ele>272.4</ele>
        <time>2012-10-31T14:33:43.000Z</time>
      </trkpt>
      <trkpt lat="46.79222" lon="5.47853">
        <ele>272.5</ele>
        <time>2012-10-31T14:33:44.000Z</time>
      </trkpt>
      <trkpt lat="46.79218" lon="5.4785">
        <ele>272.4</ele>
        <time>2012-10-31T14:33:48.000Z</time>
      </trkpt>
      <trkpt lat="46.79217" lon="5.47849">
        <ele>272.4</ele>
        <time>2012-10-31T14:33:49.000Z</time>
      </trkpt>
      <trkpt lat="46.79214" lon="5.47846">
        <ele>272.2</ele>
        <time>2012-10-31T14:33:54.000Z</time>
      </trkpt>
      <trkpt lat="46.79213" lon="5.47845">
        <ele>272.2</ele>
        <time>2012-10-31T14:33:55.000Z</time>
      </trkpt>
      <trkpt lat="46.79209" lon="5.47844">
        <ele>272.1</ele>
        <time>2012-10-31T14:33:59.000Z</time>
      </trkpt>
      <trkpt lat="46.79207" lon="5.47844">
        <ele>272.1</ele>
        <time>2012-10-31T14:34:00.000Z</time>
      </trkpt>
      <trkpt lat="46.79207" lon="5.47844">
        <ele>272.1</ele>
        <time>2012-10-31T14:34:01.500Z</time>
      </trkpt>
      <trkpt lat="46.79178" lon="5.47826">
        <ele>274</ele>
        <time>2012-10-31T14:34:09.000Z</time>
      </trkpt>
      <trkpt lat="46.79179" lon="5.47831">
        <ele>270.7</ele>
        <time>2012-10-31T14:34:12.000Z</time>
      </trkpt>
      <trkpt lat="46.79179" lon="5.47833">
        <ele>269.5</ele>
        <time>2012-10-31T14:34:13.000Z</time>
      </trkpt>
      <trkpt lat="46.79174" lon="5.47835">
        <ele>269.7</ele>
        <time>2012-10-31T14:34:20.000Z</time>
      </trkpt>
      <trkpt lat="46.79173" lon="5.47835">
        <ele>269.8</ele>
        <time>2012-10-31T14:34:21.000Z</time>
      </trkpt>
      <trkpt lat="46.7917" lon="5.47835">
        <ele>270.7</ele>
        <time>2012-10-31T14:34:24.000Z</time>
      </trkpt>
      <trkpt lat="46.79169" lon="5.47835">
        <ele>271.8</ele>
        <time>2012-10-31T14:34:25.000Z</time>
      </trkpt>
      <trkpt lat="46.79164" lon="5.47833">
        <ele>274.1</ele>
        <time>2012-10-31T14:34:29.000Z</time>
      </trkpt>
      <trkpt lat="46.79163" lon="5.47833">
        <ele>274.1</ele>
        <time>2012-10-31T14:34:30.000Z</time>
      </trkpt>
      <trkpt lat="46.79159" lon="5.47832">
        <ele>273.7</ele>
        <time>2012-10-31T14:34:34.000Z</time>
      </trkpt>
      <trkpt lat="46.79158" lon="5.47832">
        <ele>274.1</ele>
        <time>2012-10-31T14:34:35.000Z</time>
      </trkpt>
      <trkpt lat="46.79154" lon="5.47831">
        <ele>275</ele>
        <time>2012-10-31T14:34:39.000Z</time>
      </trkpt>
      <trkpt lat="46.79153" lon="5.4783">
        <ele>275.2</ele>
        <time>2012-10-31T14:34:40.000Z</time>
      </trkpt>
      <trkpt lat="46.79149" lon="5.4783">
        <ele>276</ele>
        <time>2012-10-31T14:34:44.000Z</time>
      </trkpt>
      <trkpt lat="46.79148" lon="5.4783">
        <ele>276.2</ele>
        <time>2012-10-31T14:34:45.000Z</time>
      </trkpt>
      <trkpt lat="46.79144" lon="5.4783">
        <ele>276.2</ele>
        <time>2012-10-31T14:34:49.000Z</time>
      </trkpt>
      <trkpt lat="46.79143" lon="5.4783">
        <ele>276.2</ele>
        <time>2012-10-31T14:34:50.000Z</time>
      </trkpt>
      <trkpt lat="46.79139" lon="5.4783">
        <ele>276.7</ele>
        <time>2012-10-31T14:34:53.000Z</time>
      </trkpt>
      <trkpt lat="46.79138" lon="5.4783">
        <ele>276.9</ele>
        <time>2012-10-31T14:34:54.000Z</time>
      </trkpt>
      <trkpt lat="46.79134" lon="5.47829">
        <ele>276.8</ele>
        <time>2012-10-31T14:34:57.000Z</time>
      </trkpt>
      <trkpt lat="46.79133" lon="5.47829">
        <ele>276.9</ele>
        <time>2012-10-31T14:34:58.000Z</time>
      </trkpt>
      <trkpt lat="46.79129" lon="5.4783">
        <ele>276.9</ele>
        <time>2012-10-31T14:35:02.000Z</time>
      </trkpt>
      <trkpt lat="46.79128" lon="5.4783">
        <ele>276.5</ele>
        <time>2012-10-31T14:35:03.000Z</time>
      </trkpt>
      <trkpt lat="46.79124" lon="5.47829">
        <ele>276.2</ele>
        <time>2012-10-31T14:35:06.000Z</time>
      </trkpt>
      <trkpt lat="46.79123" lon="5.47829">
        <ele>276.2</ele>
        <time>2012-10-31T14:35:07.000Z</time>
      </trkpt>
      <trkpt lat="46.79118" lon="5.47829">
        <ele>276.9</ele>
        <time>2012-10-31T14:35:11.000Z</time>
      </trkpt>
      <trkpt lat="46.79117" lon="5.47829">
        <ele>276.8</ele>
        <time>2012-10-31T14:35:12.000Z</time>
      </trkpt>
      <trkpt lat="46.79113" lon="5.4783">
        <ele>276.9</ele>
        <time>2012-10-31T14:35:16.000Z</time>
      </trkpt>
      <trkpt lat="46.79112" lon="5.4783">
        <ele>276.9</ele>
        <time>2012-10-31T14:35:17.000Z</time>
      </trkpt>
      <trkpt lat="46.79108" lon="5.47828">
        <ele>276.7</ele>
        <time>2012-10-31T14:35:21.000Z</time>
      </trkpt>
      <trkpt lat="46.79108" lon="5.47828">
        <ele>276.6</ele>
        <time>2012-10-31T14:35:22.000Z</time>
      </trkpt>
      <trkpt lat="46.79103" lon="5.47828">
        <ele>276.4</ele>
        <time>2012-10-31T14:35:26.000Z</time>
      </trkpt>
      <trkpt lat="46.79102" lon="5.47828">
        <ele>276.6</ele>
        <time>2012-10-31T14:35:27.000Z</time>
      </trkpt>
      <trkpt lat="46.79098" lon="5.47828">
        <ele>276.3</ele>
        <time>2012-10-31T14:35:31.000Z</time>
      </trkpt>
      <trkpt lat="46.79097" lon="5.47828">
        <ele>276.1</ele>
        <time>2012-10-31T14:35:32.000Z</time>
      </trkpt>
      <trkpt lat="46.79093" lon="5.47827">
        <ele>274.8</ele>
        <time>2012-10-31T14:35:35.000Z</time>
      </trkpt>
      <trkpt lat="46.79092" lon="5.47827">
        <ele>274.2</ele>
        <time>2012-10-31T14:35:36.000Z</time>
      </trkpt>
      <trkpt lat="46.79089" lon="5.47826">
        <ele>274.1</ele>
        <time>2012-10-31T14:35:39.000Z</time>
      </trkpt>
      <trkpt lat="46.79087" lon="5.47826">
        <ele>274.3</ele>
        <time>2012-10-31T14:35:40.000Z</time>
      </trkpt>
      <trkpt lat="46.79083" lon="5.47824">
        <ele>275.4</ele>
        <time>2012-10-31T14:35:44.000Z</time>
      </trkpt>
      <trkpt lat="46.79082" lon="5.47824">
        <ele>275.3</ele>
        <time>2012-10-31T14:35:45.000Z</time>
      </trkpt>
      <trkpt lat="46.79078" lon="5.47823">
        <ele>274.5</ele>
        <time>2012-10-31T14:35:49.000Z</time>
      </trkpt>
      <trkpt lat="46.79077" lon="5.47823">
        <ele>274.6</ele>
        <time>2012-10-31T14:35:50.000Z</time>
      </trkpt>
      <trkpt lat="46.79073" lon="5.47823">
        <ele>274.7</ele>
        <time>2012-10-31T14:35:54.000Z</time>
      </trkpt>
      <trkpt lat="46.79072" lon="5.47823">
        <ele>274.7</ele>
        <time>2012-10-31T14:35:55.000Z</time>
      </trkpt>
      <trkpt lat="46.79068" lon="5.47822">
        <ele>273.7</ele>
        <time>2012-10-31T14:35:59.000Z</time>
      </trkpt>
      <trkpt lat="46.79067" lon="5.47822">
        <ele>273.6</ele>
        <time>2012-10-31T14:36:00.000Z</time>
      </trkpt>
      <trkpt lat="46.79063" lon="5.47822">
        <ele>272.4</ele>
        <time>2012-10-31T14:36:03.000Z</time>
      </trkpt>
      <trkpt lat="46.79062" lon="5.47822">
        <ele>271.8</ele>
        <time>2012-10-31T14:36:04.000Z</time>
      </trkpt>
      <trkpt lat="46.79058" lon="5.47822">
        <ele>271.8</ele>
        <time>2012-10-31T14:36:07.000Z</time>
      </trkpt>
      <trkpt lat="46.79057" lon="5.47822">
        <ele>271.8</ele>
        <time>2012-10-31T14:36:08.000Z</time>
      </trkpt>
      <trkpt lat="46.79054" lon="5.47823">
        <ele>272.5</ele>
        <time>2012-10-31T14:36:11.000Z</time>
      </trkpt>
      <trkpt lat="46.79053" lon="5.47823">
        <ele>272.6</ele>
        <time>2012-10-31T14:36:12.000Z</time>
      </trkpt>
      <trkpt lat="46.79049" lon="5.47822">
        <ele>272.8</ele>
        <time>2012-10-31T14:36:16.000Z</time>
      </trkpt>
      <trkpt lat="46.79048" lon="5.47822">
        <ele>272.8</ele>
        <time>2012-10-31T14:36:17.000Z</time>
      </trkpt>
      <trkpt lat="46.79044" lon="5.4782">
        <ele>273.2</ele>
        <time>2012-10-31T14:36:21.000Z</time>
      </trkpt>
      <trkpt lat="46.79044" lon="5.47819">
        <ele>273.3</ele>
        <time>2012-10-31T14:36:22.000Z</time>
      </trkpt>
      <trkpt lat="46.7904" lon="5.47817">
        <ele>273.2</ele>
        <time>2012-10-31T14:36:26.000Z</time>
      </trkpt>
      <trkpt lat="46.79039" lon="5.47817">
        <ele>273.4</ele>
        <time>2012-10-31T14:36:27.000Z</time>
      </trkpt>
      <trkpt lat="46.79034" lon="5.47815">
        <ele>273.1</ele>
        <time>2012-10-31T14:36:31.000Z</time>
      </trkpt>
      <trkpt lat="46.79033" lon="5.47815">
        <ele>273.2</ele>
        <time>2012-10-31T14:36:32.000Z</time>
      </trkpt>
      <trkpt lat="46.79029" lon="5.47813">
        <ele>273.2</ele>
        <time>2012-10-31T14:36:36.000Z</time>
      </trkpt>
      <trkpt lat="46.79028" lon="5.47813">
        <ele>273.1</ele>
        <time>2012-10-31T14:36:37.000Z</time>
      </trkpt>
      <trkpt lat="46.79024" lon="5.47812">
        <ele>272.8</ele>
        <time>2012-10-31T14:36:41.000Z</time>
      </trkpt>
      <trkpt lat="46.79023" lon="5.47813">
        <ele>272.3</ele>
        <time>2012-10-31T14:36:42.000Z</time>
      </trkpt>
      <trkpt lat="46.7902" lon="5.47812">
        <ele>272.3</ele>
        <time>2012-10-31T14:36:45.000Z</time>
      </trkpt>
      <trkpt lat="46.79019" lon="5.47812">
        <ele>272.3</ele>
        <time>2012-10-31T14:36:46.000Z</time>
      </trkpt>
      <trkpt lat="46.79015" lon="5.47809">
        <ele>272.4</ele>
        <time>2012-10-31T14:36:49.000Z</time>
      </trkpt>
      <trkpt lat="46.79014" lon="5.47808">
        <ele>272.4</ele>
        <time>2012-10-31T14:36:50.000Z</time>
      </trkpt>
      <trkpt lat="46.79011" lon="5.47805">
        <ele>272.5</ele>
        <time>2012-10-31T14:36:53.000Z</time>
      </trkpt>
      <trkpt lat="46.7901" lon="5.47805">
        <ele>272.7</ele>
        <time>2012-10-31T14:36:54.000Z</time>
      </trkpt>
      <trkpt lat="46.79006" lon="5.47805">
        <ele>272.9</ele>
        <time>2012-10-31T14:36:57.000Z</time>
      </trkpt>
      <trkpt lat="46.79004" lon="5.47805">
        <ele>272.9</ele>
        <time>2012-10-31T14:36:58.000Z</time>
      </trkpt>
      <trkpt lat="46.79" lon="5.47804">
        <ele>272.5</ele>
        <time>2012-10-31T14:37:01.000Z</time>
      </trkpt>
      <trkpt lat="46.78999" lon="5.47804">
        <ele>272.5</ele>
        <time>2012-10-31T14:37:02.000Z</time>
      </trkpt>
      <trkpt lat="46.78995" lon="5.47804">
        <ele>273.2</ele>
        <time>2012-10-31T14:37:05.000Z</time>
      </trkpt>
      <trkpt lat="46.78993" lon="5.47803">
        <ele>273.3</ele>
        <time>2012-10-31T14:37:06.000Z</time>
      </trkpt>
      <trkpt lat="46.7899" lon="5.47803">
        <ele>273.6</ele>
        <time>2012-10-31T14:37:09.000Z</time>
      </trkpt>
      <trkpt lat="46.78988" lon="5.47802">
        <ele>273.8</ele>
        <time>2012-10-31T14:37:10.000Z</time>
      </trkpt>
      <trkpt lat="46.78985" lon="5.47802">
        <ele>274.1</ele>
        <time>2012-10-31T14:37:13.000Z</time>
      </trkpt>
      <trkpt lat="46.78984" lon="5.47802">
        <ele>274.5</ele>
        <time>2012-10-31T14:37:14.000Z</time>
      </trkpt>
      <trkpt lat="46.7898" lon="5.47802">
        <ele>274.3</ele>
        <time>2012-10-31T14:37:17.000Z</time>
      </trkpt>
      <trkpt lat="46.78979" lon="5.47802">
        <ele>274.3</ele>
        <time>2012-10-31T14:37:18.000Z</time>
      </trkpt>
      <trkpt lat="46.78975" lon="5.47801">
        <ele>274.2</ele>
        <time>2012-10-31T14:37:21.000Z</time>
      </trkpt>
      <trkpt lat="46.78974" lon="5.478">
        <ele>274.5</ele>
        <time>2012-10-31T14:37:22.000Z</time>
      </trkpt>
      <trkpt lat="46.7897" lon="5.478">
        <ele>274.9</ele>
        <time>2012-10-31T14:37:25.000Z</time>
      </trkpt>
      <trkpt lat="46.78969" lon="5.478">
        <ele>275.1</ele>
        <time>2012-10-31T14:37:26.000Z</time>
      </trkpt>
      <trkpt lat="46.78965" lon="5.47802">
        <ele>274.8</ele>
        <time>2012-10-31T14:37:30.000Z</time>
      </trkpt>
      <trkpt lat="46.78964" lon="5.47802">
        <ele>274.8</ele>
        <time>2012-10-31T14:37:31.000Z</time>
      </trkpt>
      <trkpt lat="46.7896" lon="5.47804">
        <ele>274.2</ele>
        <time>2012-10-31T14:37:35.000Z</time>
      </trkpt>
      <trkpt lat="46.7896" lon="5.47803">
        <ele>274.2</ele>
        <time>2012-10-31T14:37:36.000Z</time>
      </trkpt>
      <trkpt lat="46.78955" lon="5.47801">
        <ele>274.6</ele>
        <time>2012-10-31T14:37:41.000Z</time>
      </trkpt>
      <trkpt lat="46.78955" lon="5.47801">
        <ele>274.8</ele>
        <time>2012-10-31T14:37:42.000Z</time>
      </trkpt>
      <trkpt lat="46.78951" lon="5.478">
        <ele>274.8</ele>
        <time>2012-10-31T14:37:46.000Z</time>
      </trkpt>
      <trkpt lat="46.7895" lon="5.478">
        <ele>274.9</ele>
        <time>2012-10-31T14:37:47.000Z</time>
      </trkpt>
      <trkpt lat="46.78946" lon="5.478">
        <ele>275.3</ele>
        <time>2012-10-31T14:37:50.000Z</time>
      </trkpt>
      <trkpt lat="46.78945" lon="5.478">
        <ele>275.5</ele>
        <time>2012-10-31T14:37:51.000Z</time>
      </trkpt>
      <trkpt lat="46.78941" lon="5.47801">
        <ele>275.4</ele>
        <time>2012-10-31T14:37:54.000Z</time>
      </trkpt>
      <trkpt lat="46.7894" lon="5.47801">
        <ele>275.4</ele>
        <time>2012-10-31T14:37:55.000Z</time>
      </trkpt>
      <trkpt lat="46.78936" lon="5.47801">
        <ele>275.6</ele>
        <time>2012-10-31T14:37:59.000Z</time>
      </trkpt>
      <trkpt lat="46.78935" lon="5.47801">
        <ele>275.7</ele>
        <time>2012-10-31T14:38:00.000Z</time>
      </trkpt>
      <trkpt lat="46.7893" lon="5.478">
        <ele>274.6</ele>
        <time>2012-10-31T14:38:04.000Z</time>
      </trkpt>
      <trkpt lat="46.78929" lon="5.478">
        <ele>274.8</ele>
        <time>2012-10-31T14:38:05.000Z</time>
      </trkpt>
      <trkpt lat="46.78926" lon="5.47798">
        <ele>274.7</ele>
        <time>2012-10-31T14:38:08.000Z</time>
      </trkpt>
      <trkpt lat="46.78925" lon="5.47798">
        <ele>274.7</ele>
        <time>2012-10-31T14:38:09.000Z</time>
      </trkpt>
      <trkpt lat="46.78921" lon="5.47796">
        <ele>275</ele>
        <time>2012-10-31T14:38:13.000Z</time>
      </trkpt>
      <trkpt lat="46.78919" lon="5.47796">
        <ele>275</ele>
        <time>2012-10-31T14:38:14.000Z</time>
      </trkpt>
      <trkpt lat="46.78916" lon="5.47796">
        <ele>275.1</ele>
        <time>2012-10-31T14:38:17.000Z</time>
      </trkpt>
      <trkpt lat="46.78915" lon="5.47796">
        <ele>275.3</ele>
        <time>2012-10-31T14:38:18.000Z</time>
      </trkpt>
      <trkpt lat="46.78911" lon="5.47795">
        <ele>275.4</ele>
        <time>2012-10-31T14:38:21.000Z</time>
      </trkpt>
      <trkpt lat="46.7891" lon="5.47794">
        <ele>275</ele>
        <time>2012-10-31T14:38:22.000Z</time>
      </trkpt>
      <trkpt lat="46.78906" lon="5.47795">
        <ele>275.3</ele>
        <time>2012-10-31T14:38:25.000Z</time>
      </trkpt>
      <trkpt lat="46.78905" lon="5.47795">
        <ele>275.4</ele>
        <time>2012-10-31T14:38:26.000Z</time>
      </trkpt>
      <trkpt lat="46.78901" lon="5.47794">
        <ele>275.7</ele>
        <time>2012-10-31T14:38:29.000Z</time>
      </trkpt>
      <trkpt lat="46.789" lon="5.47794">
        <ele>275.5</ele>
        <time>2012-10-31T14:38:30.000Z</time>
      </trkpt>
      <trkpt lat="46.78896" lon="5.47793">
        <ele>275.9</ele>
        <time>2012-10-31T14:38:33.000Z</time>
      </trkpt>
      <trkpt lat="46.78895" lon="5.47793">
        <ele>275.7</ele>
        <time>2012-10-31T14:38:34.000Z</time>
      </trkpt>
      <trkpt lat="46.78891" lon="5.47793">
        <ele>275.1</ele>
        <time>2012-10-31T14:38:37.000Z</time>
      </trkpt>
      <trkpt lat="46.7889" lon="5.47793">
        <ele>275.1</ele>
        <time>2012-10-31T14:38:38.000Z</time>
      </trkpt>
      <trkpt lat="46.78885" lon="5.47793">
        <ele>275.4</ele>
        <time>2012-10-31T14:38:42.000Z</time>
      </trkpt>
      <trkpt lat="46.78884" lon="5.47792">
        <ele>275.5</ele>
        <time>2012-10-31T14:38:43.000Z</time>
      </trkpt>
      <trkpt lat="46.78881" lon="5.47791">
        <ele>275.6</ele>
        <time>2012-10-31T14:38:46.000Z</time>
      </trkpt>
      <trkpt lat="46.7888" lon="5.47791">
        <ele>275.7</ele>
        <time>2012-10-31T14:38:47.000Z</time>
      </trkpt>
      <trkpt lat="46.78875" lon="5.4779">
        <ele>276.1</ele>
        <time>2012-10-31T14:38:51.000Z</time>
      </trkpt>
      <trkpt lat="46.78874" lon="5.4779">
        <ele>276.2</ele>
        <time>2012-10-31T14:38:52.000Z</time>
      </trkpt>
      <trkpt lat="46.7887" lon="5.4779">
        <ele>276.4</ele>
        <time>2012-10-31T14:38:56.000Z</time>
      </trkpt>
      <trkpt lat="46.78869" lon="5.4779">
        <ele>276.4</ele>
        <time>2012-10-31T14:38:57.000Z</time>
      </trkpt>
      <trkpt lat="46.78865" lon="5.47789">
        <ele>276.8</ele>
        <time>2012-10-31T14:39:01.000Z</time>
      </trkpt>
      <trkpt lat="46.78864" lon="5.47789">
        <ele>277</ele>
        <time>2012-10-31T14:39:02.000Z</time>
      </trkpt>
      <trkpt lat="46.7886" lon="5.47788">
        <ele>276.4</ele>
        <time>2012-10-31T14:39:06.000Z</time>
      </trkpt>
      <trkpt lat="46.78858" lon="5.47788">
        <ele>276.2</ele>
        <time>2012-10-31T14:39:07.000Z</time>
      </trkpt>
      <trkpt lat="46.78855" lon="5.47786">
        <ele>276</ele>
        <time>2012-10-31T14:39:10.000Z</time>
      </trkpt>
      <trkpt lat="46.78854" lon="5.47786">
        <ele>276.1</ele>
        <time>2012-10-31T14:39:11.000Z</time>
      </trkpt>
      <trkpt lat="46.7885" lon="5.47785">
        <ele>276.5</ele>
        <time>2012-10-31T14:39:15.000Z</time>
      </trkpt>
      <trkpt lat="46.78849" lon="5.47785">
        <ele>276.7</ele>
        <time>2012-10-31T14:39:16.000Z</time>
      </trkpt>
      <trkpt lat="46.78845" lon="5.47784">
        <ele>276.7</ele>
        <time>2012-10-31T14:39:20.000Z</time>
      </trkpt>
      <trkpt lat="46.78844" lon="5.47784">
        <ele>276.5</ele>
        <time>2012-10-31T14:39:21.000Z</time>
      </trkpt>
      <trkpt lat="46.7884" lon="5.47783">
        <ele>275.2</ele>
        <time>2012-10-31T14:39:25.000Z</time>
      </trkpt>
      <trkpt lat="46.78839" lon="5.47782">
        <ele>275.1</ele>
        <time>2012-10-31T14:39:26.000Z</time>
      </trkpt>
      <trkpt lat="46.78835" lon="5.47782">
        <ele>274.8</ele>
        <time>2012-10-31T14:39:31.000Z</time>
      </trkpt>
      <trkpt lat="46.78833" lon="5.47782">
        <ele>274.5</ele>
        <time>2012-10-31T14:39:32.000Z</time>
      </trkpt>
      <trkpt lat="46.78829" lon="5.47781">
        <ele>273.1</ele>
        <time>2012-10-31T14:39:36.000Z</time>
      </trkpt>
      <trkpt lat="46.78828" lon="5.47781">
        <ele>272.7</ele>
        <time>2012-10-31T14:39:37.000Z</time>
      </trkpt>
      <trkpt lat="46.78824" lon="5.47779">
        <ele>272.4</ele>
        <time>2012-10-31T14:39:41.000Z</time>
      </trkpt>
      <trkpt lat="46.78823" lon="5.47779">
        <ele>272.5</ele>
        <time>2012-10-31T14:39:42.000Z</time>
      </trkpt>
      <trkpt lat="46.7882" lon="5.47779">
        <ele>272.3</ele>
        <time>2012-10-31T14:39:45.000Z</time>
      </trkpt>
      <trkpt lat="46.78819" lon="5.47778">
        <ele>272.3</ele>
        <time>2012-10-31T14:39:46.000Z</time>
      </trkpt>
      <trkpt lat="46.78815" lon="5.47776">
        <ele>273.1</ele>
        <time>2012-10-31T14:39:50.000Z</time>
      </trkpt>
      <trkpt lat="46.78813" lon="5.47776">
        <ele>273.1</ele>
        <time>2012-10-31T14:39:51.000Z</time>
      </trkpt>
      <trkpt lat="46.7881" lon="5.47773">
        <ele>273.2</ele>
        <time>2012-10-31T14:39:55.000Z</time>
      </trkpt>
      <trkpt lat="46.78809" lon="5.47773">
        <ele>273.2</ele>
        <time>2012-10-31T14:39:56.000Z</time>
      </trkpt>
      <trkpt lat="46.78806" lon="5.47771">
        <ele>273.4</ele>
        <time>2012-10-31T14:40:00.000Z</time>
      </trkpt>
      <trkpt lat="46.78799" lon="5.47773">
        <ele>264.8</ele>
        <time>2012-10-31T14:40:07.000Z</time>
      </trkpt>
      <trkpt lat="46.78795" lon="5.47771">
        <ele>267</ele>
        <time>2012-10-31T14:40:10.000Z</time>
      </trkpt>
      <trkpt lat="46.78794" lon="5.47769">
        <ele>266.3</ele>
        <time>2012-10-31T14:40:11.000Z</time>
      </trkpt>
      <trkpt lat="46.7879" lon="5.47771">
        <ele>268.3</ele>
        <time>2012-10-31T14:40:14.000Z</time>
      </trkpt>
      <trkpt lat="46.78788" lon="5.47771">
        <ele>265.5</ele>
        <time>2012-10-31T14:40:15.000Z</time>
      </trkpt>
      <trkpt lat="46.78785" lon="5.4777">
        <ele>264.8</ele>
        <time>2012-10-31T14:40:18.000Z</time>
      </trkpt>
      <trkpt lat="46.78783" lon="5.4777">
        <ele>267.4</ele>
        <time>2012-10-31T14:40:19.000Z</time>
      </trkpt>
      <trkpt lat="46.7878" lon="5.47771">
        <ele>267.4</ele>
        <time>2012-10-31T14:40:21.000Z</time>
      </trkpt>
      <trkpt lat="46.78778" lon="5.4777">
        <ele>268.2</ele>
        <time>2012-10-31T14:40:22.000Z</time>
      </trkpt>
      <trkpt lat="46.78775" lon="5.47769">
        <ele>267.5</ele>
        <time>2012-10-31T14:40:24.000Z</time>
      </trkpt>
      <trkpt lat="46.78773" lon="5.47769">
        <ele>266.6</ele>
        <time>2012-10-31T14:40:25.000Z</time>
      </trkpt>
      <trkpt lat="46.78769" lon="5.47768">
        <ele>264.2</ele>
        <time>2012-10-31T14:40:28.000Z</time>
      </trkpt>
      <trkpt lat="46.78768" lon="5.47767">
        <ele>262.6</ele>
        <time>2012-10-31T14:40:29.000Z</time>
      </trkpt>
      <trkpt lat="46.78764" lon="5.47767">
        <ele>264.1</ele>
        <time>2012-10-31T14:40:34.000Z</time>
      </trkpt>
      <trkpt lat="46.78763" lon="5.47767">
        <ele>264.6</ele>
        <time>2012-10-31T14:40:35.000Z</time>
      </trkpt>
      <trkpt lat="46.78759" lon="5.47764">
        <ele>265.3</ele>
        <time>2012-10-31T14:40:39.000Z</time>
      </trkpt>
      <trkpt lat="46.78759" lon="5.47763">
        <ele>264.8</ele>
        <time>2012-10-31T14:40:40.000Z</time>
      </trkpt>
      <trkpt lat="46.78756" lon="5.47759">
        <ele>261.4</ele>
        <time>2012-10-31T14:40:44.000Z</time>
      </trkpt>
      <trkpt lat="46.78755" lon="5.47758">
        <ele>261.9</ele>
        <time>2012-10-31T14:40:45.000Z</time>
      </trkpt>
      <trkpt lat="46.78752" lon="5.47758">
        <ele>261.9</ele>
        <time>2012-10-31T14:40:48.000Z</time>
      </trkpt>
      <trkpt lat="46.78751" lon="5.47758">
        <ele>261.8</ele>
        <time>2012-10-31T14:40:49.000Z</time>
      </trkpt>
      <trkpt lat="46.78747" lon="5.47758">
        <ele>262.5</ele>
        <time>2012-10-31T14:40:52.000Z</time>
      </trkpt>
      <trkpt lat="46.78746" lon="5.47758">
        <ele>262.2</ele>
        <time>2012-10-31T14:40:53.000Z</time>
      </trkpt>
      <trkpt lat="46.78742" lon="5.47757">
        <ele>262.9</ele>
        <time>2012-10-31T14:40:56.000Z</time>
      </trkpt>
      <trkpt lat="46.7874" lon="5.47757">
        <ele>263</ele>
        <time>2012-10-31T14:40:57.000Z</time>
      </trkpt>
      <trkpt lat="46.78737" lon="5.47755">
        <ele>263.1</ele>
        <time>2012-10-31T14:41:00.000Z</time>
      </trkpt>
      <trkpt lat="46.78723" lon="5.47752">
        <ele>271.2</ele>
        <time>2012-10-31T14:41:09.000Z</time>
      </trkpt>
      <trkpt lat="46.78719" lon="5.47752">
        <ele>272.4</ele>
        <time>2012-10-31T14:41:11.000Z</time>
      </trkpt>
      <trkpt lat="46.78718" lon="5.47752">
        <ele>272.5</ele>
        <time>2012-10-31T14:41:12.000Z</time>
      </trkpt>
      <trkpt lat="46.78714" lon="5.47751">
        <ele>273.5</ele>
        <time>2012-10-31T14:41:15.000Z</time>
      </trkpt>
      <trkpt lat="46.78712" lon="5.47751">
        <ele>274.2</ele>
        <time>2012-10-31T14:41:16.000Z</time>
      </trkpt>
      <trkpt lat="46.78708" lon="5.4775">
        <ele>273.6</ele>
        <time>2012-10-31T14:41:20.000Z</time>
      </trkpt>
      <trkpt lat="46.78707" lon="5.4775">
        <ele>273.6</ele>
        <time>2012-10-31T14:41:21.000Z</time>
      </trkpt>
      <trkpt lat="46.78703" lon="5.4775">
        <ele>273.2</ele>
        <time>2012-10-31T14:41:25.000Z</time>
      </trkpt>
      <trkpt lat="46.78702" lon="5.4775">
        <ele>272.9</ele>
        <time>2012-10-31T14:41:26.000Z</time>
      </trkpt>
      <trkpt lat="46.78698" lon="5.47751">
        <ele>272.9</ele>
        <time>2012-10-31T14:41:31.000Z</time>
      </trkpt>
      <trkpt lat="46.78697" lon="5.47751">
        <ele>272.6</ele>
        <time>2012-10-31T14:41:32.000Z</time>
      </trkpt>
      <trkpt lat="46.78693" lon="5.47752">
        <ele>271</ele>
        <time>2012-10-31T14:41:37.000Z</time>
      </trkpt>
      <trkpt lat="46.78692" lon="5.47752">
        <ele>271.7</ele>
        <time>2012-10-31T14:41:38.000Z</time>
      </trkpt>
      <trkpt lat="46.78687" lon="5.47753">
        <ele>271.3</ele>
        <time>2012-10-31T14:41:43.000Z</time>
      </trkpt>
      <trkpt lat="46.78686" lon="5.47752">
        <ele>271.2</ele>
        <time>2012-10-31T14:41:44.000Z</time>
      </trkpt>
      <trkpt lat="46.78682" lon="5.47751">
        <ele>271.7</ele>
        <time>2012-10-31T14:41:48.000Z</time>
      </trkpt>
      <trkpt lat="46.78681" lon="5.47751">
        <ele>271.8</ele>
        <time>2012-10-31T14:41:49.000Z</time>
      </trkpt>
      <trkpt lat="46.78678" lon="5.4775">
        <ele>272.5</ele>
        <time>2012-10-31T14:41:52.000Z</time>
      </trkpt>
      <trkpt lat="46.78676" lon="5.47749">
        <ele>272.4</ele>
        <time>2012-10-31T14:41:53.000Z</time>
      </trkpt>
      <trkpt lat="46.78672" lon="5.47749">
        <ele>272.2</ele>
        <time>2012-10-31T14:41:56.000Z</time>
      </trkpt>
      <trkpt lat="46.78671" lon="5.47749">
        <ele>272.1</ele>
        <time>2012-10-31T14:41:57.000Z</time>
      </trkpt>
      <trkpt lat="46.78667" lon="5.47748">
        <ele>271.7</ele>
        <time>2012-10-31T14:42:00.000Z</time>
      </trkpt>
      <trkpt lat="46.78666" lon="5.47748">
        <ele>271.3</ele>
        <time>2012-10-31T14:42:01.000Z</time>
      </trkpt>
      <trkpt lat="46.78662" lon="5.47748">
        <ele>271.3</ele>
        <time>2012-10-31T14:42:04.000Z</time>
      </trkpt>
      <trkpt lat="46.7866" lon="5.47748">
        <ele>271.4</ele>
        <time>2012-10-31T14:42:05.000Z</time>
      </trkpt>
      <trkpt lat="46.78657" lon="5.47749">
        <ele>271.4</ele>
        <time>2012-10-31T14:42:08.000Z</time>
      </trkpt>
      <trkpt lat="46.78656" lon="5.47749">
        <ele>271.3</ele>
        <time>2012-10-31T14:42:09.000Z</time>
      </trkpt>
      <trkpt lat="46.78651" lon="5.4775">
        <ele>271.4</ele>
        <time>2012-10-31T14:42:13.000Z</time>
      </trkpt>
      <trkpt lat="46.7865" lon="5.47751">
        <ele>271.4</ele>
        <time>2012-10-31T14:42:14.000Z</time>
      </trkpt>
      <trkpt lat="46.78646" lon="5.47751">
        <ele>271.4</ele>
        <time>2012-10-31T14:42:18.000Z</time>
      </trkpt>
      <trkpt lat="46.78645" lon="5.47751">
        <ele>271.2</ele>
        <time>2012-10-31T14:42:19.000Z</time>
      </trkpt>
      <trkpt lat="46.78641" lon="5.4775">
        <ele>271.2</ele>
        <time>2012-10-31T14:42:23.000Z</time>
      </trkpt>
      <trkpt lat="46.7864" lon="5.47749">
        <ele>271.3</ele>
        <time>2012-10-31T14:42:24.000Z</time>
      </trkpt>
      <trkpt lat="46.78636" lon="5.47748">
        <ele>271.7</ele>
        <time>2012-10-31T14:42:27.000Z</time>
      </trkpt>
      <trkpt lat="46.78635" lon="5.47748">
        <ele>271.6</ele>
        <time>2012-10-31T14:42:28.000Z</time>
      </trkpt>
      <trkpt lat="46.78631" lon="5.47747">
        <ele>271.2</ele>
        <time>2012-10-31T14:42:31.000Z</time>
      </trkpt>
      <trkpt lat="46.7863" lon="5.47747">
        <ele>270.9</ele>
        <time>2012-10-31T14:42:32.000Z</time>
      </trkpt>
      <trkpt lat="46.78626" lon="5.47747">
        <ele>269.6</ele>
        <time>2012-10-31T14:42:36.000Z</time>
      </trkpt>
      <trkpt lat="46.78625" lon="5.47747">
        <ele>269.4</ele>
        <time>2012-10-31T14:42:37.000Z</time>
      </trkpt>
      <trkpt lat="46.7862" lon="5.47746">
        <ele>269.5</ele>
        <time>2012-10-31T14:42:41.000Z</time>
      </trkpt>
      <trkpt lat="46.78619" lon="5.47746">
        <ele>269.5</ele>
        <time>2012-10-31T14:42:42.000Z</time>
      </trkpt>
      <trkpt lat="46.78615" lon="5.47746">
        <ele>269.8</ele>
        <time>2012-10-31T14:42:46.000Z</time>
      </trkpt>
      <trkpt lat="46.78614" lon="5.47746">
        <ele>270</ele>
        <time>2012-10-31T14:42:47.000Z</time>
      </trkpt>
      <trkpt lat="46.7861" lon="5.47747">
        <ele>270.3</ele>
        <time>2012-10-31T14:42:52.000Z</time>
      </trkpt>
      <trkpt lat="46.78609" lon="5.47747">
        <ele>269.9</ele>
        <time>2012-10-31T14:42:53.000Z</time>
      </trkpt>
      <trkpt lat="46.78605" lon="5.47749">
        <ele>269.5</ele>
        <time>2012-10-31T14:43:00.000Z</time>
      </trkpt>
      <trkpt lat="46.78604" lon="5.47749">
        <ele>269.6</ele>
        <time>2012-10-31T14:43:01.000Z</time>
      </trkpt>
      <trkpt lat="46.78601" lon="5.47748">
        <ele>270.2</ele>
        <time>2012-10-31T14:43:04.000Z</time>
      </trkpt>
      <trkpt lat="46.78599" lon="5.47748">
        <ele>270.5</ele>
        <time>2012-10-31T14:43:05.000Z</time>
      </trkpt>
      <trkpt lat="46.78596" lon="5.47746">
        <ele>271</ele>
        <time>2012-10-31T14:43:08.000Z</time>
      </trkpt>
      <trkpt lat="46.78595" lon="5.47747">
        <ele>270.8</ele>
        <time>2012-10-31T14:43:09.000Z</time>
      </trkpt>
      <trkpt lat="46.78591" lon="5.47748">
        <ele>270.9</ele>
        <time>2012-10-31T14:43:13.000Z</time>
      </trkpt>
      <trkpt lat="46.7859" lon="5.47748">
        <ele>270.4</ele>
        <time>2012-10-31T14:43:14.000Z</time>
      </trkpt>
      <trkpt lat="46.78586" lon="5.47748">
        <ele>269.5</ele>
        <time>2012-10-31T14:43:17.000Z</time>
      </trkpt>
      <trkpt lat="46.78585" lon="5.47747">
        <ele>269.3</ele>
        <time>2012-10-31T14:43:18.000Z</time>
      </trkpt>
      <trkpt lat="46.78582" lon="5.47744">
        <ele>269.1</ele>
        <time>2012-10-31T14:43:20.000Z</time>
      </trkpt>
      <trkpt lat="46.7858" lon="5.47743">
        <ele>269.2</ele>
        <time>2012-10-31T14:43:21.000Z</time>
      </trkpt>
      <trkpt lat="46.78577" lon="5.47741">
        <ele>269</ele>
        <time>2012-10-31T14:43:23.000Z</time>
      </trkpt>
      <trkpt lat="46.78576" lon="5.4774">
        <ele>269</ele>
        <time>2012-10-31T14:43:24.000Z</time>
      </trkpt>
      <trkpt lat="46.78572" lon="5.47739">
        <ele>269.6</ele>
        <time>2012-10-31T14:43:26.000Z</time>
      </trkpt>
      <trkpt lat="46.78571" lon="5.47739">
        <ele>269.3</ele>
        <time>2012-10-31T14:43:27.000Z</time>
      </trkpt>
      <trkpt lat="46.78568" lon="5.47737">
        <ele>267.8</ele>
        <time>2012-10-31T14:43:29.000Z</time>
      </trkpt>
      <trkpt lat="46.78567" lon="5.47737">
        <ele>267.8</ele>
        <time>2012-10-31T14:43:30.000Z</time>
      </trkpt>
      <trkpt lat="46.78564" lon="5.47734">
        <ele>268.3</ele>
        <time>2012-10-31T14:43:32.000Z</time>
      </trkpt>
      <trkpt lat="46.78562" lon="5.47733">
        <ele>268.6</ele>
        <time>2012-10-31T14:43:33.000Z</time>
      </trkpt>
      <trkpt lat="46.78559" lon="5.47731">
        <ele>268.7</ele>
        <time>2012-10-31T14:43:35.000Z</time>
      </trkpt>
      <trkpt lat="46.78558" lon="5.4773">
        <ele>268.7</ele>
        <time>2012-10-31T14:43:36.000Z</time>
      </trkpt>
      <trkpt lat="46.78554" lon="5.47728">
        <ele>268.5</ele>
        <time>2012-10-31T14:43:39.000Z</time>
      </trkpt>
      <trkpt lat="46.78552" lon="5.47727">
        <ele>268.7</ele>
        <time>2012-10-31T14:43:40.000Z</time>
      </trkpt>
      <trkpt lat="46.78548" lon="5.47726">
        <ele>268.9</ele>
        <time>2012-10-31T14:43:43.000Z</time>
      </trkpt>
      <trkpt lat="46.78547" lon="5.47726">
        <ele>269</ele>
        <time>2012-10-31T14:43:44.000Z</time>
      </trkpt>
      <trkpt lat="46.78543" lon="5.47726">
        <ele>268.9</ele>
        <time>2012-10-31T14:43:47.000Z</time>
      </trkpt>
      <trkpt lat="46.78541" lon="5.47725">
        <ele>268.8</ele>
        <time>2012-10-31T14:43:48.000Z</time>
      </trkpt>
      <trkpt lat="46.78537" lon="5.47725">
        <ele>269</ele>
        <time>2012-10-31T14:43:51.000Z</time>
      </trkpt>
      <trkpt lat="46.78536" lon="5.47725">
        <ele>269.1</ele>
        <time>2012-10-31T14:43:52.000Z</time>
      </trkpt>
      <trkpt lat="46.78532" lon="5.47725">
        <ele>268.2</ele>
        <time>2012-10-31T14:43:55.000Z</time>
      </trkpt>
      <trkpt lat="46.7853" lon="5.47726">
        <ele>268.1</ele>
        <time>2012-10-31T14:43:56.000Z</time>
      </trkpt>
      <trkpt lat="46.78526" lon="5.47727">
        <ele>267.6</ele>
        <time>2012-10-31T14:43:59.000Z</time>
      </trkpt>
      <trkpt lat="46.78525" lon="5.47727">
        <ele>267.6</ele>
        <time>2012-10-31T14:44:00.000Z</time>
      </trkpt>
      <trkpt lat="46.78521" lon="5.47729">
        <ele>267.5</ele>
        <time>2012-10-31T14:44:03.000Z</time>
      </trkpt>
      <trkpt lat="46.7852" lon="5.4773">
        <ele>267.7</ele>
        <time>2012-10-31T14:44:04.000Z</time>
      </trkpt>
      <trkpt lat="46.78518" lon="5.47734">
        <ele>268</ele>
        <time>2012-10-31T14:44:07.000Z</time>
      </trkpt>
      <trkpt lat="46.78517" lon="5.47735">
        <ele>268.1</ele>
        <time>2012-10-31T14:44:08.000Z</time>
      </trkpt>
      <trkpt lat="46.78514" lon="5.47739">
        <ele>268.4</ele>
        <time>2012-10-31T14:44:11.000Z</time>
      </trkpt>
      <trkpt lat="46.78513" lon="5.4774">
        <ele>268.5</ele>
        <time>2012-10-31T14:44:12.000Z</time>
      </trkpt>
      <trkpt lat="46.78511" lon="5.47744">
        <ele>268.9</ele>
        <time>2012-10-31T14:44:15.000Z</time>
      </trkpt>
      <trkpt lat="46.7851" lon="5.47746">
        <ele>269.1</ele>
        <time>2012-10-31T14:44:16.000Z</time>
      </trkpt>
      <trkpt lat="46.7851" lon="5.47751">
        <ele>269.8</ele>
        <time>2012-10-31T14:44:19.000Z</time>
      </trkpt>
      <trkpt lat="46.7851" lon="5.47753">
        <ele>270</ele>
        <time>2012-10-31T14:44:20.000Z</time>
      </trkpt>
      <trkpt lat="46.78509" lon="5.47758">
        <ele>270.5</ele>
        <time>2012-10-31T14:44:23.000Z</time>
      </trkpt>
      <trkpt lat="46.78508" lon="5.47759">
        <ele>270.8</ele>
        <time>2012-10-31T14:44:24.000Z</time>
      </trkpt>
      <trkpt lat="46.78507" lon="5.47765">
        <ele>271.6</ele>
        <time>2012-10-31T14:44:28.000Z</time>
      </trkpt>
      <trkpt lat="46.78507" lon="5.47766">
        <ele>271.8</ele>
        <time>2012-10-31T14:44:29.000Z</time>
      </trkpt>
      <trkpt lat="46.78505" lon="5.4777">
        <ele>272.4</ele>
        <time>2012-10-31T14:44:32.000Z</time>
      </trkpt>
      <trkpt lat="46.78504" lon="5.47771">
        <ele>272.5</ele>
        <time>2012-10-31T14:44:33.000Z</time>
      </trkpt>
      <trkpt lat="46.78502" lon="5.47777">
        <ele>273.4</ele>
        <time>2012-10-31T14:44:37.000Z</time>
      </trkpt>
      <trkpt lat="46.78501" lon="5.47778">
        <ele>273.8</ele>
        <time>2012-10-31T14:44:38.000Z</time>
      </trkpt>
      <trkpt lat="46.78499" lon="5.47784">
        <ele>273.9</ele>
        <time>2012-10-31T14:44:42.000Z</time>
      </trkpt>
      <trkpt lat="46.78499" lon="5.47786">
        <ele>273.7</ele>
        <time>2012-10-31T14:44:43.000Z</time>
      </trkpt>
      <trkpt lat="46.78496" lon="5.47791">
        <ele>273.7</ele>
        <time>2012-10-31T14:44:47.000Z</time>
      </trkpt>
      <trkpt lat="46.78496" lon="5.47792">
        <ele>274</ele>
        <time>2012-10-31T14:44:48.000Z</time>
      </trkpt>
      <trkpt lat="46.78494" lon="5.47797">
        <ele>273.7</ele>
        <time>2012-10-31T14:44:52.000Z</time>
      </trkpt>
      <trkpt lat="46.78494" lon="5.47798">
        <ele>273.7</ele>
        <time>2012-10-31T14:44:53.000Z</time>
      </trkpt>
      <trkpt lat="46.78494" lon="5.47804">
        <ele>273.3</ele>
        <time>2012-10-31T14:44:57.000Z</time>
      </trkpt>
      <trkpt lat="46.78494" lon="5.47806">
        <ele>273.4</ele>
        <time>2012-10-31T14:44:58.000Z</time>
      </trkpt>
      <trkpt lat="46.78492" lon="5.47812">
        <ele>272.7</ele>
        <time>2012-10-31T14:45:02.000Z</time>
      </trkpt>
      <trkpt lat="46.78492" lon="5.47813">
        <ele>272.2</ele>
        <time>2012-10-31T14:45:03.000Z</time>
      </trkpt>
      <trkpt lat="46.78489" lon="5.47816">
        <ele>271.7</ele>
        <time>2012-10-31T14:45:06.000Z</time>
      </trkpt>
      <trkpt lat="46.78488" lon="5.47817">
        <ele>271.5</ele>
        <time>2012-10-31T14:45:07.000Z</time>
      </trkpt>
      <trkpt lat="46.78486" lon="5.47822">
        <ele>271.7</ele>
        <time>2012-10-31T14:45:11.000Z</time>
      </trkpt>
      <trkpt lat="46.78485" lon="5.47824">
        <ele>271.2</ele>
        <time>2012-10-31T14:45:12.000Z</time>
      </trkpt>
      <trkpt lat="46.78483" lon="5.47829">
        <ele>270.6</ele>
        <time>2012-10-31T14:45:16.000Z</time>
      </trkpt>
      <trkpt lat="46.78483" lon="5.4783">
        <ele>270.6</ele>
        <time>2012-10-31T14:45:17.000Z</time>
      </trkpt>
      <trkpt lat="46.78481" lon="5.47836">
        <ele>270.8</ele>
        <time>2012-10-31T14:45:21.000Z</time>
      </trkpt>
      <trkpt lat="46.78481" lon="5.47838">
        <ele>270.4</ele>
        <time>2012-10-31T14:45:22.000Z</time>
      </trkpt>
      <trkpt lat="46.78479" lon="5.47843">
        <ele>270.8</ele>
        <time>2012-10-31T14:45:26.000Z</time>
      </trkpt>
      <trkpt lat="46.78479" lon="5.47845">
        <ele>270.9</ele>
        <time>2012-10-31T14:45:27.000Z</time>
      </trkpt>
      <trkpt lat="46.7848" lon="5.4785">
        <ele>270.8</ele>
        <time>2012-10-31T14:45:32.000Z</time>
      </trkpt>
      <trkpt lat="46.7848" lon="5.47852">
        <ele>270.9</ele>
        <time>2012-10-31T14:45:33.000Z</time>
      </trkpt>
      <trkpt lat="46.78478" lon="5.47858">
        <ele>271</ele>
        <time>2012-10-31T14:45:37.000Z</time>
      </trkpt>
      <trkpt lat="46.78478" lon="5.47859">
        <ele>271.1</ele>
        <time>2012-10-31T14:45:38.000Z</time>
      </trkpt>
      <trkpt lat="46.78476" lon="5.47864">
        <ele>270.5</ele>
        <time>2012-10-31T14:45:41.000Z</time>
      </trkpt>
      <trkpt lat="46.78474" lon="5.47865">
        <ele>270.7</ele>
        <time>2012-10-31T14:45:42.000Z</time>
      </trkpt>
      <trkpt lat="46.78471" lon="5.47868">
        <ele>271</ele>
        <time>2012-10-31T14:45:45.000Z</time>
      </trkpt>
      <trkpt lat="46.7847" lon="5.47868">
        <ele>271.3</ele>
        <time>2012-10-31T14:45:46.000Z</time>
      </trkpt>
      <trkpt lat="46.78466" lon="5.47871">
        <ele>271.6</ele>
        <time>2012-10-31T14:45:49.000Z</time>
      </trkpt>
      <trkpt lat="46.78466" lon="5.47872">
        <ele>271.6</ele>
        <time>2012-10-31T14:45:50.000Z</time>
      </trkpt>
      <trkpt lat="46.78464" lon="5.47877">
        <ele>271.7</ele>
        <time>2012-10-31T14:45:53.000Z</time>
      </trkpt>
      <trkpt lat="46.78463" lon="5.47879">
        <ele>271.7</ele>
        <time>2012-10-31T14:45:54.000Z</time>
      </trkpt>
      <trkpt lat="46.78463" lon="5.47884">
        <ele>272.2</ele>
        <time>2012-10-31T14:45:57.000Z</time>
      </trkpt>
      <trkpt lat="46.78463" lon="5.47885">
        <ele>272.3</ele>
        <time>2012-10-31T14:45:58.000Z</time>
      </trkpt>
      <trkpt lat="46.78461" lon="5.4789">
        <ele>272.3</ele>
        <time>2012-10-31T14:46:01.000Z</time>
      </trkpt>
      <trkpt lat="46.78461" lon="5.47892">
        <ele>272.5</ele>
        <time>2012-10-31T14:46:02.000Z</time>
      </trkpt>
      <trkpt lat="46.7846" lon="5.47897">
        <ele>272.7</ele>
        <time>2012-10-31T14:46:05.000Z</time>
      </trkpt>
      <trkpt lat="46.78459" lon="5.47899">
        <ele>272.8</ele>
        <time>2012-10-31T14:46:06.000Z</time>
      </trkpt>
      <trkpt lat="46.78459" lon="5.47904">
        <ele>272.7</ele>
        <time>2012-10-31T14:46:10.000Z</time>
      </trkpt>
      <trkpt lat="46.78459" lon="5.47906">
        <ele>272.7</ele>
        <time>2012-10-31T14:46:11.000Z</time>
      </trkpt>
      <trkpt lat="46.78457" lon="5.4791">
        <ele>272.8</ele>
        <time>2012-10-31T14:46:14.000Z</time>
      </trkpt>
      <trkpt lat="46.78456" lon="5.47911">
        <ele>272.8</ele>
        <time>2012-10-31T14:46:15.000Z</time>
      </trkpt>
      <trkpt lat="46.78454" lon="5.47915">
        <ele>272.9</ele>
        <time>2012-10-31T14:46:18.000Z</time>
      </trkpt>
      <trkpt lat="46.78454" lon="5.47917">
        <ele>272.9</ele>
        <time>2012-10-31T14:46:19.000Z</time>
      </trkpt>
      <trkpt lat="46.78452" lon="5.47922">
        <ele>272.1</ele>
        <time>2012-10-31T14:46:22.000Z</time>
      </trkpt>
      <trkpt lat="46.78451" lon="5.47923">
        <ele>272.2</ele>
        <time>2012-10-31T14:46:23.000Z</time>
      </trkpt>
      <trkpt lat="46.78448" lon="5.47927">
        <ele>273</ele>
        <time>2012-10-31T14:46:27.000Z</time>
      </trkpt>
      <trkpt lat="46.78448" lon="5.47929">
        <ele>273</ele>
        <time>2012-10-31T14:46:28.000Z</time>
      </trkpt>
      <trkpt lat="46.78446" lon="5.47934">
        <ele>273.6</ele>
        <time>2012-10-31T14:46:32.000Z</time>
      </trkpt>
      <trkpt lat="46.78446" lon="5.47936">
        <ele>273.7</ele>
        <time>2012-10-31T14:46:33.000Z</time>
      </trkpt>
      <trkpt lat="46.78445" lon="5.47942">
        <ele>273.9</ele>
        <time>2012-10-31T14:46:37.000Z</time>
      </trkpt>
      <trkpt lat="46.78445" lon="5.47943">
        <ele>273.9</ele>
        <time>2012-10-31T14:46:38.000Z</time>
      </trkpt>
      <trkpt lat="46.78445" lon="5.47948">
        <ele>273.4</ele>
        <time>2012-10-31T14:46:41.000Z</time>
      </trkpt>
      <trkpt lat="46.78445" lon="5.4795">
        <ele>273.7</ele>
        <time>2012-10-31T14:46:42.000Z</time>
      </trkpt>
      <trkpt lat="46.78446" lon="5.47956">
        <ele>274.2</ele>
        <time>2012-10-31T14:46:46.000Z</time>
      </trkpt>
      <trkpt lat="46.78445" lon="5.47957">
        <ele>274.5</ele>
        <time>2012-10-31T14:46:47.000Z</time>
      </trkpt>
      <trkpt lat="46.78443" lon="5.47962">
        <ele>275.2</ele>
        <time>2012-10-31T14:46:51.000Z</time>
      </trkpt>
      <trkpt lat="46.78442" lon="5.47964">
        <ele>275.3</ele>
        <time>2012-10-31T14:46:52.000Z</time>
      </trkpt>
      <trkpt lat="46.78441" lon="5.4797">
        <ele>275.4</ele>
        <time>2012-10-31T14:46:56.000Z</time>
      </trkpt>
      <trkpt lat="46.78441" lon="5.47972">
        <ele>275.3</ele>
        <time>2012-10-31T14:46:57.000Z</time>
      </trkpt>
      <trkpt lat="46.78439" lon="5.47977">
        <ele>275.1</ele>
        <time>2012-10-31T14:47:00.000Z</time>
      </trkpt>
      <trkpt lat="46.78438" lon="5.47978">
        <ele>274.9</ele>
        <time>2012-10-31T14:47:01.000Z</time>
      </trkpt>
      <trkpt lat="46.78436" lon="5.47983">
        <ele>275</ele>
        <time>2012-10-31T14:47:04.000Z</time>
      </trkpt>
      <trkpt lat="46.78435" lon="5.47984">
        <ele>275</ele>
        <time>2012-10-31T14:47:05.000Z</time>
      </trkpt>
      <trkpt lat="46.78434" lon="5.47989">
        <ele>274.8</ele>
        <time>2012-10-31T14:47:08.000Z</time>
      </trkpt>
      <trkpt lat="46.78433" lon="5.47991">
        <ele>274.6</ele>
        <time>2012-10-31T14:47:09.000Z</time>
      </trkpt>
      <trkpt lat="46.78431" lon="5.47995">
        <ele>274.5</ele>
        <time>2012-10-31T14:47:12.000Z</time>
      </trkpt>
      <trkpt lat="46.7843" lon="5.47997">
        <ele>274.4</ele>
        <time>2012-10-31T14:47:13.000Z</time>
      </trkpt>
      <trkpt lat="46.78429" lon="5.48003">
        <ele>274.1</ele>
        <time>2012-10-31T14:47:17.000Z</time>
      </trkpt>
      <trkpt lat="46.78428" lon="5.48004">
        <ele>274</ele>
        <time>2012-10-31T14:47:18.000Z</time>
      </trkpt>
      <trkpt lat="46.78426" lon="5.4801">
        <ele>273.6</ele>
        <time>2012-10-31T14:47:22.000Z</time>
      </trkpt>
      <trkpt lat="46.78426" lon="5.48011">
        <ele>273.7</ele>
        <time>2012-10-31T14:47:23.000Z</time>
      </trkpt>
      <trkpt lat="46.78424" lon="5.48017">
        <ele>273.8</ele>
        <time>2012-10-31T14:47:27.000Z</time>
      </trkpt>
      <trkpt lat="46.78424" lon="5.48018">
        <ele>273.9</ele>
        <time>2012-10-31T14:47:28.000Z</time>
      </trkpt>
      <trkpt lat="46.78423" lon="5.48024">
        <ele>273.5</ele>
        <time>2012-10-31T14:47:32.000Z</time>
      </trkpt>
      <trkpt lat="46.78423" lon="5.48026">
        <ele>273.6</ele>
        <time>2012-10-31T14:47:33.000Z</time>
      </trkpt>
      <trkpt lat="46.78421" lon="5.48032">
        <ele>273.6</ele>
        <time>2012-10-31T14:47:37.000Z</time>
      </trkpt>
      <trkpt lat="46.78421" lon="5.48033">
        <ele>273.6</ele>
        <time>2012-10-31T14:47:38.000Z</time>
      </trkpt>
      <trkpt lat="46.78419" lon="5.48038">
        <ele>273.6</ele>
        <time>2012-10-31T14:47:42.000Z</time>
      </trkpt>
      <trkpt lat="46.78419" lon="5.4804">
        <ele>273.7</ele>
        <time>2012-10-31T14:47:43.000Z</time>
      </trkpt>
      <trkpt lat="46.78417" lon="5.48045">
        <ele>273.8</ele>
        <time>2012-10-31T14:47:46.000Z</time>
      </trkpt>
      <trkpt lat="46.78417" lon="5.48046">
        <ele>273.9</ele>
        <time>2012-10-31T14:47:47.000Z</time>
      </trkpt>
      <trkpt lat="46.78415" lon="5.48051">
        <ele>274.4</ele>
        <time>2012-10-31T14:47:50.000Z</time>
      </trkpt>
      <trkpt lat="46.78414" lon="5.48052">
        <ele>274.5</ele>
        <time>2012-10-31T14:47:51.000Z</time>
      </trkpt>
      <trkpt lat="46.78413" lon="5.48057">
        <ele>274.9</ele>
        <time>2012-10-31T14:47:54.000Z</time>
      </trkpt>
      <trkpt lat="46.78412" lon="5.48058">
        <ele>274.8</ele>
        <time>2012-10-31T14:47:55.000Z</time>
      </trkpt>
      <trkpt lat="46.78411" lon="5.48064">
        <ele>275.1</ele>
        <time>2012-10-31T14:47:59.000Z</time>
      </trkpt>
      <trkpt lat="46.7841" lon="5.48066">
        <ele>275.2</ele>
        <time>2012-10-31T14:48:00.000Z</time>
      </trkpt>
      <trkpt lat="46.78409" lon="5.48072">
        <ele>275.8</ele>
        <time>2012-10-31T14:48:04.000Z</time>
      </trkpt>
      <trkpt lat="46.78409" lon="5.48073">
        <ele>275.7</ele>
        <time>2012-10-31T14:48:05.000Z</time>
      </trkpt>
      <trkpt lat="46.78407" lon="5.48079">
        <ele>275.2</ele>
        <time>2012-10-31T14:48:10.000Z</time>
      </trkpt>
      <trkpt lat="46.78407" lon="5.4808">
        <ele>275.1</ele>
        <time>2012-10-31T14:48:11.000Z</time>
      </trkpt>
      <trkpt lat="46.78403" lon="5.48082">
        <ele>274</ele>
        <time>2012-10-31T14:48:19.000Z</time>
      </trkpt>
      <trkpt lat="46.78403" lon="5.48083">
        <ele>273.9</ele>
        <time>2012-10-31T14:48:20.000Z</time>
      </trkpt>
      <trkpt lat="46.78401" lon="5.48088">
        <ele>274</ele>
        <time>2012-10-31T14:48:26.000Z</time>
      </trkpt>
      <trkpt lat="46.784" lon="5.48089">
        <ele>274</ele>
        <time>2012-10-31T14:48:27.000Z</time>
      </trkpt>
      <trkpt lat="46.78399" lon="5.48095">
        <ele>274.1</ele>
        <time>2012-10-31T14:48:43.000Z</time>
      </trkpt>
      <trkpt lat="46.78398" lon="5.48096">
        <ele>273.6</ele>
        <time>2012-10-31T14:48:44.000Z</time>
      </trkpt>
      <trkpt lat="46.78396" lon="5.48101">
        <ele>273.5</ele>
        <time>2012-10-31T14:48:50.000Z</time>
      </trkpt>
      <trkpt lat="46.78396" lon="5.48102">
        <ele>273.5</ele>
        <time>2012-10-31T14:48:51.000Z</time>
      </trkpt>
      <trkpt lat="46.78396" lon="5.48108">
        <ele>273.6</ele>
        <time>2012-10-31T14:48:57.000Z</time>
      </trkpt>
      <trkpt lat="46.78396" lon="5.48109">
        <ele>273.6</ele>
        <time>2012-10-31T14:48:58.000Z</time>
      </trkpt>
      <trkpt lat="46.78397" lon="5.48115">
        <ele>273.7</ele>
        <time>2012-10-31T14:49:03.000Z</time>
      </trkpt>
      <trkpt lat="46.78397" lon="5.48116">
        <ele>273.8</ele>
        <time>2012-10-31T14:49:04.000Z</time>
      </trkpt>
      <trkpt lat="46.78396" lon="5.48122">
        <ele>273.6</ele>
        <time>2012-10-31T14:49:08.000Z</time>
      </trkpt>
      <trkpt lat="46.78396" lon="5.48123">
        <ele>273.5</ele>
        <time>2012-10-31T14:49:09.000Z</time>
      </trkpt>
      <trkpt lat="46.78396" lon="5.48129">
        <ele>273.9</ele>
        <time>2012-10-31T14:49:21.000Z</time>
      </trkpt>
      <trkpt lat="46.78396" lon="5.4813">
        <ele>274</ele>
        <time>2012-10-31T14:49:22.000Z</time>
      </trkpt>
      <trkpt lat="46.78393" lon="5.48135">
        <ele>274.1</ele>
        <time>2012-10-31T14:49:26.000Z</time>
      </trkpt>
      <trkpt lat="46.78392" lon="5.48137">
        <ele>274.3</ele>
        <time>2012-10-31T14:49:27.000Z</time>
      </trkpt>
      <trkpt lat="46.7839" lon="5.48141">
        <ele>274.5</ele>
        <time>2012-10-31T14:49:30.000Z</time>
      </trkpt>
      <trkpt lat="46.78389" lon="5.48143">
        <ele>274.5</ele>
        <time>2012-10-31T14:49:31.000Z</time>
      </trkpt>
      <trkpt lat="46.78387" lon="5.48149">
        <ele>274.2</ele>
        <time>2012-10-31T14:49:35.000Z</time>
      </trkpt>
      <trkpt lat="46.78387" lon="5.4815">
        <ele>274.2</ele>
        <time>2012-10-31T14:49:36.000Z</time>
      </trkpt>
      <trkpt lat="46.78385" lon="5.48155">
        <ele>274.3</ele>
        <time>2012-10-31T14:49:40.000Z</time>
      </trkpt>
      <trkpt lat="46.78384" lon="5.48157">
        <ele>274.3</ele>
        <time>2012-10-31T14:49:41.000Z</time>
      </trkpt>
      <trkpt lat="46.7838" lon="5.48155">
        <ele>274</ele>
        <time>2012-10-31T14:49:45.000Z</time>
      </trkpt>
      <trkpt lat="46.78379" lon="5.48154">
        <ele>273.8</ele>
        <time>2012-10-31T14:49:46.000Z</time>
      </trkpt>
      <trkpt lat="46.78376" lon="5.4815">
        <ele>273.9</ele>
        <time>2012-10-31T14:49:50.000Z</time>
      </trkpt>
      <trkpt lat="46.78375" lon="5.48149">
        <ele>273.9</ele>
        <time>2012-10-31T14:49:51.000Z</time>
      </trkpt>
      <trkpt lat="46.78373" lon="5.48144">
        <ele>274.4</ele>
        <time>2012-10-31T14:50:11.000Z</time>
      </trkpt>
      <trkpt lat="46.78372" lon="5.48144">
        <ele>274.6</ele>
        <time>2012-10-31T14:50:12.000Z</time>
      </trkpt>
      <trkpt lat="46.78369" lon="5.4814">
        <ele>274.6</ele>
        <time>2012-10-31T14:50:17.000Z</time>
      </trkpt>
      <trkpt lat="46.78368" lon="5.48139">
        <ele>274.7</ele>
        <time>2012-10-31T14:50:18.000Z</time>
      </trkpt>
      <trkpt lat="46.78365" lon="5.48136">
        <ele>274.8</ele>
        <time>2012-10-31T14:50:22.000Z</time>
      </trkpt>
      <trkpt lat="46.78364" lon="5.48135">
        <ele>274.8</ele>
        <time>2012-10-31T14:50:23.000Z</time>
      </trkpt>
      <trkpt lat="46.78361" lon="5.48132">
        <ele>274.6</ele>
        <time>2012-10-31T14:50:27.000Z</time>
      </trkpt>
      <trkpt lat="46.7836" lon="5.48131">
        <ele>274.5</ele>
        <time>2012-10-31T14:50:28.000Z</time>
      </trkpt>
      <trkpt lat="46.78357" lon="5.48128">
        <ele>274.7</ele>
        <time>2012-10-31T14:50:32.000Z</time>
      </trkpt>
      <trkpt lat="46.78357" lon="5.48127">
        <ele>274.7</ele>
        <time>2012-10-31T14:50:33.000Z</time>
      </trkpt>
      <trkpt lat="46.78353" lon="5.48124">
        <ele>274.5</ele>
        <time>2012-10-31T14:50:37.000Z</time>
      </trkpt>
      <trkpt lat="46.78352" lon="5.48124">
        <ele>274.5</ele>
        <time>2012-10-31T14:50:38.000Z</time>
      </trkpt>
      <trkpt lat="46.78349" lon="5.48122">
        <ele>274.4</ele>
        <time>2012-10-31T14:50:42.000Z</time>
      </trkpt>
      <trkpt lat="46.78348" lon="5.48121">
        <ele>274.4</ele>
        <time>2012-10-31T14:50:43.000Z</time>
      </trkpt>
      <trkpt lat="46.78344" lon="5.4812">
        <ele>274.1</ele>
        <time>2012-10-31T14:50:51.000Z</time>
      </trkpt>
      <trkpt lat="46.78343" lon="5.48119">
        <ele>274.1</ele>
        <time>2012-10-31T14:50:52.000Z</time>
      </trkpt>
      <trkpt lat="46.78339" lon="5.48117">
        <ele>274.1</ele>
        <time>2012-10-31T14:50:56.000Z</time>
      </trkpt>
      <trkpt lat="46.78338" lon="5.48116">
        <ele>274.1</ele>
        <time>2012-10-31T14:50:57.000Z</time>
      </trkpt>
      <trkpt lat="46.78334" lon="5.48114">
        <ele>274.1</ele>
        <time>2012-10-31T14:51:01.000Z</time>
      </trkpt>
      <trkpt lat="46.78333" lon="5.48114">
        <ele>274.1</ele>
        <time>2012-10-31T14:51:02.000Z</time>
      </trkpt>
      <trkpt lat="46.78329" lon="5.48113">
        <ele>274.1</ele>
        <time>2012-10-31T14:51:05.000Z</time>
      </trkpt>
      <trkpt lat="46.78328" lon="5.48113">
        <ele>274.1</ele>
        <time>2012-10-31T14:51:06.000Z</time>
      </trkpt>
      <trkpt lat="46.78325" lon="5.48111">
        <ele>274.2</ele>
        <time>2012-10-31T14:51:09.000Z</time>
      </trkpt>
      <trkpt lat="46.78324" lon="5.48111">
        <ele>274.2</ele>
        <time>2012-10-31T14:51:10.000Z</time>
      </trkpt>
      <trkpt lat="46.78319" lon="5.4811">
        <ele>274.6</ele>
        <time>2012-10-31T14:51:14.000Z</time>
      </trkpt>
      <trkpt lat="46.78318" lon="5.4811">
        <ele>274.6</ele>
        <time>2012-10-31T14:51:15.000Z</time>
      </trkpt>
      <trkpt lat="46.78314" lon="5.48109">
        <ele>275</ele>
        <time>2012-10-31T14:51:19.000Z</time>
      </trkpt>
      <trkpt lat="46.78313" lon="5.48108">
        <ele>275.1</ele>
        <time>2012-10-31T14:51:20.000Z</time>
      </trkpt>
      <trkpt lat="46.78309" lon="5.48107">
        <ele>275</ele>
        <time>2012-10-31T14:51:25.000Z</time>
      </trkpt>
      <trkpt lat="46.78308" lon="5.48107">
        <ele>275</ele>
        <time>2012-10-31T14:51:26.000Z</time>
      </trkpt>
      <trkpt lat="46.78305" lon="5.48106">
        <ele>275</ele>
        <time>2012-10-31T14:51:29.000Z</time>
      </trkpt>
      <trkpt lat="46.78303" lon="5.48106">
        <ele>275.1</ele>
        <time>2012-10-31T14:51:30.000Z</time>
      </trkpt>
      <trkpt lat="46.78299" lon="5.48104">
        <ele>275.2</ele>
        <time>2012-10-31T14:51:34.000Z</time>
      </trkpt>
      <trkpt lat="46.78298" lon="5.48103">
        <ele>275.2</ele>
        <time>2012-10-31T14:51:35.000Z</time>
      </trkpt>
      <trkpt lat="46.78294" lon="5.48102">
        <ele>275.2</ele>
        <time>2012-10-31T14:51:39.000Z</time>
      </trkpt>
      <trkpt lat="46.78292" lon="5.48102">
        <ele>275.1</ele>
        <time>2012-10-31T14:51:40.000Z</time>
      </trkpt>
      <trkpt lat="46.78289" lon="5.48101">
        <ele>275.1</ele>
        <time>2012-10-31T14:51:43.000Z</time>
      </trkpt>
      <trkpt lat="46.78288" lon="5.48101">
        <ele>275.1</ele>
        <time>2012-10-31T14:51:44.000Z</time>
      </trkpt>
      <trkpt lat="46.78284" lon="5.481">
        <ele>275.1</ele>
        <time>2012-10-31T14:51:48.000Z</time>
      </trkpt>
      <trkpt lat="46.78283" lon="5.48099">
        <ele>275</ele>
        <time>2012-10-31T14:51:49.000Z</time>
      </trkpt>
      <trkpt lat="46.78278" lon="5.48098">
        <ele>274.8</ele>
        <time>2012-10-31T14:51:53.000Z</time>
      </trkpt>
      <trkpt lat="46.78278" lon="5.48097">
        <ele>274.9</ele>
        <time>2012-10-31T14:51:54.000Z</time>
      </trkpt>
      <trkpt lat="46.78274" lon="5.48096">
        <ele>275.5</ele>
        <time>2012-10-31T14:51:58.000Z</time>
      </trkpt>
      <trkpt lat="46.78273" lon="5.48096">
        <ele>275.8</ele>
        <time>2012-10-31T14:51:59.000Z</time>
      </trkpt>
      <trkpt lat="46.78272" lon="5.48096">
        <ele>275.9</ele>
        <time>2012-10-31T14:52:00.000Z</time>
      </trkpt>
      <trkpt lat="46.78258" lon="5.48093">
        <ele>271.3</ele>
        <time>2012-10-31T14:52:10.000Z</time>
      </trkpt>
      <trkpt lat="46.78253" lon="5.48092">
        <ele>269.6</ele>
        <time>2012-10-31T14:52:15.000Z</time>
      </trkpt>
      <trkpt lat="46.78252" lon="5.48092">
        <ele>270.1</ele>
        <time>2012-10-31T14:52:16.000Z</time>
      </trkpt>
      <trkpt lat="46.78249" lon="5.48092">
        <ele>271.2</ele>
        <time>2012-10-31T14:52:19.000Z</time>
      </trkpt>
      <trkpt lat="46.78248" lon="5.48092">
        <ele>271.5</ele>
        <time>2012-10-31T14:52:20.000Z</time>
      </trkpt>
      <trkpt lat="46.78244" lon="5.48091">
        <ele>272.4</ele>
        <time>2012-10-31T14:52:24.000Z</time>
      </trkpt>
      <trkpt lat="46.78242" lon="5.48091">
        <ele>272.7</ele>
        <time>2012-10-31T14:52:25.000Z</time>
      </trkpt>
      <trkpt lat="46.78238" lon="5.48091">
        <ele>273.5</ele>
        <time>2012-10-31T14:52:29.000Z</time>
      </trkpt>
      <trkpt lat="46.78237" lon="5.48091">
        <ele>273.8</ele>
        <time>2012-10-31T14:52:30.000Z</time>
      </trkpt>
      <trkpt lat="46.78233" lon="5.48091">
        <ele>274.5</ele>
        <time>2012-10-31T14:52:34.000Z</time>
      </trkpt>
      <trkpt lat="46.78231" lon="5.48091">
        <ele>274.9</ele>
        <time>2012-10-31T14:52:35.000Z</time>
      </trkpt>
      <trkpt lat="46.78228" lon="5.4809">
        <ele>275.7</ele>
        <time>2012-10-31T14:52:38.000Z</time>
      </trkpt>
      <trkpt lat="46.78227" lon="5.4809">
        <ele>275.9</ele>
        <time>2012-10-31T14:52:39.000Z</time>
      </trkpt>
      <trkpt lat="46.78223" lon="5.4809">
        <ele>276</ele>
        <time>2012-10-31T14:52:43.000Z</time>
      </trkpt>
      <trkpt lat="46.78222" lon="5.4809">
        <ele>276</ele>
        <time>2012-10-31T14:52:44.000Z</time>
      </trkpt>
      <trkpt lat="46.78218" lon="5.4809">
        <ele>275.8</ele>
        <time>2012-10-31T14:52:48.000Z</time>
      </trkpt>
      <trkpt lat="46.78216" lon="5.4809">
        <ele>276.1</ele>
        <time>2012-10-31T14:52:49.000Z</time>
      </trkpt>
      <trkpt lat="46.78212" lon="5.48089">
        <ele>276.5</ele>
        <time>2012-10-31T14:52:54.000Z</time>
      </trkpt>
      <trkpt lat="46.78211" lon="5.48089">
        <ele>276.4</ele>
        <time>2012-10-31T14:52:55.000Z</time>
      </trkpt>
      <trkpt lat="46.78207" lon="5.4809">
        <ele>276.4</ele>
        <time>2012-10-31T14:52:59.000Z</time>
      </trkpt>
      <trkpt lat="46.78206" lon="5.4809">
        <ele>276.5</ele>
        <time>2012-10-31T14:53:00.000Z</time>
      </trkpt>
      <trkpt lat="46.78202" lon="5.48091">
        <ele>276.7</ele>
        <time>2012-10-31T14:53:04.000Z</time>
      </trkpt>
      <trkpt lat="46.78201" lon="5.48092">
        <ele>276.8</ele>
        <time>2012-10-31T14:53:05.000Z</time>
      </trkpt>
      <trkpt lat="46.78197" lon="5.48092">
        <ele>276.9</ele>
        <time>2012-10-31T14:53:09.000Z</time>
      </trkpt>
      <trkpt lat="46.78196" lon="5.48092">
        <ele>276.9</ele>
        <time>2012-10-31T14:53:10.000Z</time>
      </trkpt>
      <trkpt lat="46.78191" lon="5.48093">
        <ele>277.1</ele>
        <time>2012-10-31T14:53:14.000Z</time>
      </trkpt>
      <trkpt lat="46.7819" lon="5.48093">
        <ele>277.1</ele>
        <time>2012-10-31T14:53:15.000Z</time>
      </trkpt>
      <trkpt lat="46.78186" lon="5.48094">
        <ele>276.9</ele>
        <time>2012-10-31T14:53:19.000Z</time>
      </trkpt>
      <trkpt lat="46.78185" lon="5.48094">
        <ele>277</ele>
        <time>2012-10-31T14:53:20.000Z</time>
      </trkpt>
      <trkpt lat="46.78181" lon="5.48095">
        <ele>277.1</ele>
        <time>2012-10-31T14:53:25.000Z</time>
      </trkpt>
      <trkpt lat="46.7818" lon="5.48095">
        <ele>277.1</ele>
        <time>2012-10-31T14:53:26.000Z</time>
      </trkpt>
      <trkpt lat="46.78176" lon="5.48095">
        <ele>277</ele>
        <time>2012-10-31T14:53:30.000Z</time>
      </trkpt>
      <trkpt lat="46.78175" lon="5.48095">
        <ele>276.7</ele>
        <time>2012-10-31T14:53:31.000Z</time>
      </trkpt>
      <trkpt lat="46.78172" lon="5.48095">
        <ele>276.4</ele>
        <time>2012-10-31T14:53:35.000Z</time>
      </trkpt>
      <trkpt lat="46.78171" lon="5.48095">
        <ele>276.4</ele>
        <time>2012-10-31T14:53:36.000Z</time>
      </trkpt>
      <trkpt lat="46.7817" lon="5.48093">
        <ele>276.4</ele>
        <time>2012-10-31T14:54:01.000Z</time>
      </trkpt>
      <trkpt lat="46.78166" lon="5.48096">
        <ele>277.3</ele>
        <time>2012-10-31T14:54:10.000Z</time>
      </trkpt>
      <trkpt lat="46.78162" lon="5.48098">
        <ele>275.3</ele>
        <time>2012-10-31T14:54:15.000Z</time>
      </trkpt>
      <trkpt lat="46.78161" lon="5.48098">
        <ele>274.8</ele>
        <time>2012-10-31T14:54:16.000Z</time>
      </trkpt>
      <trkpt lat="46.78157" lon="5.48098">
        <ele>274.5</ele>
        <time>2012-10-31T14:54:21.000Z</time>
      </trkpt>
      <trkpt lat="46.78156" lon="5.48098">
        <ele>274.6</ele>
        <time>2012-10-31T14:54:22.000Z</time>
      </trkpt>
      <trkpt lat="46.78152" lon="5.48097">
        <ele>274.5</ele>
        <time>2012-10-31T14:54:26.000Z</time>
      </trkpt>
      <trkpt lat="46.78151" lon="5.48098">
        <ele>274.4</ele>
        <time>2012-10-31T14:54:27.000Z</time>
      </trkpt>
      <trkpt lat="46.78147" lon="5.48099">
        <ele>274.5</ele>
        <time>2012-10-31T14:54:31.000Z</time>
      </trkpt>
      <trkpt lat="46.78146" lon="5.48099">
        <ele>274.5</ele>
        <time>2012-10-31T14:54:32.000Z</time>
      </trkpt>
      <trkpt lat="46.78143" lon="5.48101">
        <ele>274.5</ele>
        <time>2012-10-31T14:54:36.000Z</time>
      </trkpt>
      <trkpt lat="46.78142" lon="5.48101">
        <ele>274.5</ele>
        <time>2012-10-31T14:54:37.000Z</time>
      </trkpt>
      <trkpt lat="46.78138" lon="5.48103">
        <ele>274.6</ele>
        <time>2012-10-31T14:54:41.000Z</time>
      </trkpt>
      <trkpt lat="46.78137" lon="5.48103">
        <ele>274.6</ele>
        <time>2012-10-31T14:54:42.000Z</time>
      </trkpt>
      <trkpt lat="46.78133" lon="5.48104">
        <ele>274.7</ele>
        <time>2012-10-31T14:54:46.000Z</time>
      </trkpt>
      <trkpt lat="46.78132" lon="5.48104">
        <ele>274.8</ele>
        <time>2012-10-31T14:54:47.000Z</time>
      </trkpt>
      <trkpt lat="46.78128" lon="5.48105">
        <ele>275</ele>
        <time>2012-10-31T14:54:51.000Z</time>
      </trkpt>
      <trkpt lat="46.78127" lon="5.48105">
        <ele>275</ele>
        <time>2012-10-31T14:54:52.000Z</time>
      </trkpt>
      <trkpt lat="46.78123" lon="5.48106">
        <ele>275.1</ele>
        <time>2012-10-31T14:54:56.000Z</time>
      </trkpt>
      <trkpt lat="46.78122" lon="5.48106">
        <ele>275.1</ele>
        <time>2012-10-31T14:54:57.000Z</time>
      </trkpt>
      <trkpt lat="46.78118" lon="5.48106">
        <ele>274.8</ele>
        <time>2012-10-31T14:55:01.000Z</time>
      </trkpt>
      <trkpt lat="46.78117" lon="5.48107">
        <ele>274.7</ele>
        <time>2012-10-31T14:55:02.000Z</time>
      </trkpt>
      <trkpt lat="46.78113" lon="5.48107">
        <ele>274.7</ele>
        <time>2012-10-31T14:55:06.000Z</time>
      </trkpt>
      <trkpt lat="46.78112" lon="5.48107">
        <ele>274.7</ele>
        <time>2012-10-31T14:55:07.000Z</time>
      </trkpt>
      <trkpt lat="46.78108" lon="5.48109">
        <ele>274.6</ele>
        <time>2012-10-31T14:55:12.000Z</time>
      </trkpt>
      <trkpt lat="46.78107" lon="5.48109">
        <ele>274.6</ele>
        <time>2012-10-31T14:55:13.000Z</time>
      </trkpt>
      <trkpt lat="46.78103" lon="5.48109">
        <ele>274.9</ele>
        <time>2012-10-31T14:55:20.000Z</time>
      </trkpt>
      <trkpt lat="46.78102" lon="5.48109">
        <ele>274.9</ele>
        <time>2012-10-31T14:55:21.000Z</time>
      </trkpt>
      <trkpt lat="46.78098" lon="5.4811">
        <ele>274.9</ele>
        <time>2012-10-31T14:55:25.000Z</time>
      </trkpt>
      <trkpt lat="46.78097" lon="5.4811">
        <ele>274.8</ele>
        <time>2012-10-31T14:55:26.000Z</time>
      </trkpt>
      <trkpt lat="46.78093" lon="5.48111">
        <ele>275.2</ele>
        <time>2012-10-31T14:55:38.000Z</time>
      </trkpt>
      <trkpt lat="46.78092" lon="5.48111">
        <ele>275.3</ele>
        <time>2012-10-31T14:55:39.000Z</time>
      </trkpt>
      <trkpt lat="46.78089" lon="5.48111">
        <ele>275.4</ele>
        <time>2012-10-31T14:55:42.000Z</time>
      </trkpt>
      <trkpt lat="46.78088" lon="5.48111">
        <ele>275.5</ele>
        <time>2012-10-31T14:55:43.000Z</time>
      </trkpt>
      <trkpt lat="46.78083" lon="5.48111">
        <ele>275.2</ele>
        <time>2012-10-31T14:55:47.000Z</time>
      </trkpt>
      <trkpt lat="46.78082" lon="5.48112">
        <ele>275.1</ele>
        <time>2012-10-31T14:55:48.000Z</time>
      </trkpt>
      <trkpt lat="46.78079" lon="5.48113">
        <ele>275</ele>
        <time>2012-10-31T14:55:51.000Z</time>
      </trkpt>
      <trkpt lat="46.78078" lon="5.48113">
        <ele>275.1</ele>
        <time>2012-10-31T14:55:52.000Z</time>
      </trkpt>
      <trkpt lat="46.78074" lon="5.48114">
        <ele>275.2</ele>
        <time>2012-10-31T14:55:55.000Z</time>
      </trkpt>
      <trkpt lat="46.78073" lon="5.48113">
        <ele>275.2</ele>
        <time>2012-10-31T14:55:56.000Z</time>
      </trkpt>
      <trkpt lat="46.78069" lon="5.48113">
        <ele>275.1</ele>
        <time>2012-10-31T14:55:59.000Z</time>
      </trkpt>
      <trkpt lat="46.78068" lon="5.48113">
        <ele>275.2</ele>
        <time>2012-10-31T14:56:00.000Z</time>
      </trkpt>
      <trkpt lat="46.78065" lon="5.48113">
        <ele>275.3</ele>
        <time>2012-10-31T14:56:03.000Z</time>
      </trkpt>
      <trkpt lat="46.78063" lon="5.48113">
        <ele>275.3</ele>
        <time>2012-10-31T14:56:04.000Z</time>
      </trkpt>
      <trkpt lat="46.78059" lon="5.48115">
        <ele>275.5</ele>
        <time>2012-10-31T14:56:08.000Z</time>
      </trkpt>
      <trkpt lat="46.78058" lon="5.48115">
        <ele>275.5</ele>
        <time>2012-10-31T14:56:09.000Z</time>
      </trkpt>
      <trkpt lat="46.78054" lon="5.48115">
        <ele>275.8</ele>
        <time>2012-10-31T14:56:13.000Z</time>
      </trkpt>
      <trkpt lat="46.78052" lon="5.48116">
        <ele>275.9</ele>
        <time>2012-10-31T14:56:14.000Z</time>
      </trkpt>
      <trkpt lat="46.78048" lon="5.48117">
        <ele>276.1</ele>
        <time>2012-10-31T14:56:18.000Z</time>
      </trkpt>
      <trkpt lat="46.78047" lon="5.48117">
        <ele>276.2</ele>
        <time>2012-10-31T14:56:19.000Z</time>
      </trkpt>
      <trkpt lat="46.78044" lon="5.48119">
        <ele>276.3</ele>
        <time>2012-10-31T14:56:23.000Z</time>
      </trkpt>
      <trkpt lat="46.78043" lon="5.48119">
        <ele>276.3</ele>
        <time>2012-10-31T14:56:24.000Z</time>
      </trkpt>
      <trkpt lat="46.78039" lon="5.4812">
        <ele>276.4</ele>
        <time>2012-10-31T14:56:27.000Z</time>
      </trkpt>
      <trkpt lat="46.78038" lon="5.48121">
        <ele>276.4</ele>
        <time>2012-10-31T14:56:28.000Z</time>
      </trkpt>
      <trkpt lat="46.78034" lon="5.48122">
        <ele>276.2</ele>
        <time>2012-10-31T14:56:32.000Z</time>
      </trkpt>
      <trkpt lat="46.78033" lon="5.48122">
        <ele>276.3</ele>
        <time>2012-10-31T14:56:33.000Z</time>
      </trkpt>
      <trkpt lat="46.78029" lon="5.48123">
        <ele>276.6</ele>
        <time>2012-10-31T14:56:37.000Z</time>
      </trkpt>
      <trkpt lat="46.78028" lon="5.48123">
        <ele>276.5</ele>
        <time>2012-10-31T14:56:38.000Z</time>
      </trkpt>
      <trkpt lat="46.78024" lon="5.48123">
        <ele>276.3</ele>
        <time>2012-10-31T14:56:42.000Z</time>
      </trkpt>
      <trkpt lat="46.78023" lon="5.48123">
        <ele>276.1</ele>
        <time>2012-10-31T14:56:43.000Z</time>
      </trkpt>
      <trkpt lat="46.78018" lon="5.48124">
        <ele>276.1</ele>
        <time>2012-10-31T14:56:47.000Z</time>
      </trkpt>
      <trkpt lat="46.78017" lon="5.48124">
        <ele>276.3</ele>
        <time>2012-10-31T14:56:48.000Z</time>
      </trkpt>
      <trkpt lat="46.78013" lon="5.48125">
        <ele>276.4</ele>
        <time>2012-10-31T14:56:52.000Z</time>
      </trkpt>
      <trkpt lat="46.78012" lon="5.48125">
        <ele>276.3</ele>
        <time>2012-10-31T14:56:53.000Z</time>
      </trkpt>
      <trkpt lat="46.78008" lon="5.48126">
        <ele>276.3</ele>
        <time>2012-10-31T14:56:57.000Z</time>
      </trkpt>
      <trkpt lat="46.78007" lon="5.48126">
        <ele>276.3</ele>
        <time>2012-10-31T14:56:58.000Z</time>
      </trkpt>
      <trkpt lat="46.78003" lon="5.48127">
        <ele>276.2</ele>
        <time>2012-10-31T14:57:02.000Z</time>
      </trkpt>
      <trkpt lat="46.78002" lon="5.48127">
        <ele>276.3</ele>
        <time>2012-10-31T14:57:03.000Z</time>
      </trkpt>
      <trkpt lat="46.77997" lon="5.48127">
        <ele>276.5</ele>
        <time>2012-10-31T14:57:07.000Z</time>
      </trkpt>
      <trkpt lat="46.77996" lon="5.48127">
        <ele>276.5</ele>
        <time>2012-10-31T14:57:08.000Z</time>
      </trkpt>
      <trkpt lat="46.77992" lon="5.48127">
        <ele>276.1</ele>
        <time>2012-10-31T14:57:12.000Z</time>
      </trkpt>
      <trkpt lat="46.77991" lon="5.48127">
        <ele>276.1</ele>
        <time>2012-10-31T14:57:13.000Z</time>
      </trkpt>
      <trkpt lat="46.77987" lon="5.48127">
        <ele>276</ele>
        <time>2012-10-31T14:57:17.000Z</time>
      </trkpt>
      <trkpt lat="46.77986" lon="5.48127">
        <ele>276.1</ele>
        <time>2012-10-31T14:57:18.000Z</time>
      </trkpt>
      <trkpt lat="46.77982" lon="5.48128">
        <ele>275.7</ele>
        <time>2012-10-31T14:57:22.000Z</time>
      </trkpt>
      <trkpt lat="46.77981" lon="5.48128">
        <ele>275.7</ele>
        <time>2012-10-31T14:57:23.000Z</time>
      </trkpt>
      <trkpt lat="46.77977" lon="5.48129">
        <ele>275.7</ele>
        <time>2012-10-31T14:57:26.000Z</time>
      </trkpt>
      <trkpt lat="46.77976" lon="5.48129">
        <ele>275.7</ele>
        <time>2012-10-31T14:57:27.000Z</time>
      </trkpt>
      <trkpt lat="46.77972" lon="5.48129">
        <ele>276</ele>
        <time>2012-10-31T14:57:31.000Z</time>
      </trkpt>
      <trkpt lat="46.7797" lon="5.48128">
        <ele>276.2</ele>
        <time>2012-10-31T14:57:32.000Z</time>
      </trkpt>
      <trkpt lat="46.77966" lon="5.48127">
        <ele>276.5</ele>
        <time>2012-10-31T14:57:36.000Z</time>
      </trkpt>
      <trkpt lat="46.77966" lon="5.48126">
        <ele>276.4</ele>
        <time>2012-10-31T14:57:37.000Z</time>
      </trkpt>
      <trkpt lat="46.77962" lon="5.48125">
        <ele>276.5</ele>
        <time>2012-10-31T14:57:41.000Z</time>
      </trkpt>
      <trkpt lat="46.77961" lon="5.48124">
        <ele>276.4</ele>
        <time>2012-10-31T14:57:42.000Z</time>
      </trkpt>
      <trkpt lat="46.77957" lon="5.48122">
        <ele>276.1</ele>
        <time>2012-10-31T14:57:46.000Z</time>
      </trkpt>
      <trkpt lat="46.77956" lon="5.48121">
        <ele>276.2</ele>
        <time>2012-10-31T14:57:47.000Z</time>
      </trkpt>
      <trkpt lat="46.77952" lon="5.48119">
        <ele>276.4</ele>
        <time>2012-10-31T14:57:51.000Z</time>
      </trkpt>
      <trkpt lat="46.77951" lon="5.48118">
        <ele>276.4</ele>
        <time>2012-10-31T14:57:52.000Z</time>
      </trkpt>
      <trkpt lat="46.77948" lon="5.48116">
        <ele>276.2</ele>
        <time>2012-10-31T14:57:56.000Z</time>
      </trkpt>
      <trkpt lat="46.77947" lon="5.48116">
        <ele>276.3</ele>
        <time>2012-10-31T14:57:57.000Z</time>
      </trkpt>
      <trkpt lat="46.77943" lon="5.48114">
        <ele>276.6</ele>
        <time>2012-10-31T14:58:01.000Z</time>
      </trkpt>
      <trkpt lat="46.77942" lon="5.48114">
        <ele>276.8</ele>
        <time>2012-10-31T14:58:02.000Z</time>
      </trkpt>
      <trkpt lat="46.77939" lon="5.48114">
        <ele>276.8</ele>
        <time>2012-10-31T14:58:05.000Z</time>
      </trkpt>
      <trkpt lat="46.77938" lon="5.48113">
        <ele>276.9</ele>
        <time>2012-10-31T14:58:06.000Z</time>
      </trkpt>
      <trkpt lat="46.77933" lon="5.48113">
        <ele>276.3</ele>
        <time>2012-10-31T14:58:11.000Z</time>
      </trkpt>
      <trkpt lat="46.77933" lon="5.48114">
        <ele>276.2</ele>
        <time>2012-10-31T14:58:12.000Z</time>
      </trkpt>
      <trkpt lat="46.77928" lon="5.48115">
        <ele>276.4</ele>
        <time>2012-10-31T14:58:18.000Z</time>
      </trkpt>
      <trkpt lat="46.77927" lon="5.48115">
        <ele>276.5</ele>
        <time>2012-10-31T14:58:19.000Z</time>
      </trkpt>
      <trkpt lat="46.77924" lon="5.48115">
        <ele>276.6</ele>
        <time>2012-10-31T14:58:23.000Z</time>
      </trkpt>
      <trkpt lat="46.77923" lon="5.48115">
        <ele>276.6</ele>
        <time>2012-10-31T14:58:24.000Z</time>
      </trkpt>
      <trkpt lat="46.77919" lon="5.48116">
        <ele>276.2</ele>
        <time>2012-10-31T14:58:27.000Z</time>
      </trkpt>
      <trkpt lat="46.77918" lon="5.48116">
        <ele>276.1</ele>
        <time>2012-10-31T14:58:28.000Z</time>
      </trkpt>
      <trkpt lat="46.77914" lon="5.48117">
        <ele>275.9</ele>
        <time>2012-10-31T14:58:31.000Z</time>
      </trkpt>
      <trkpt lat="46.77913" lon="5.48117">
        <ele>275.1</ele>
        <time>2012-10-31T14:58:32.000Z</time>
      </trkpt>
      <trkpt lat="46.77909" lon="5.48119">
        <ele>274.1</ele>
        <time>2012-10-31T14:58:35.000Z</time>
      </trkpt>
      <trkpt lat="46.77908" lon="5.4812">
        <ele>274</ele>
        <time>2012-10-31T14:58:36.000Z</time>
      </trkpt>
      <trkpt lat="46.77904" lon="5.48124">
        <ele>273.8</ele>
        <time>2012-10-31T14:58:39.000Z</time>
      </trkpt>
      <trkpt lat="46.77903" lon="5.48125">
        <ele>273.7</ele>
        <time>2012-10-31T14:58:40.000Z</time>
      </trkpt>
      <trkpt lat="46.77899" lon="5.48129">
        <ele>274.6</ele>
        <time>2012-10-31T14:58:43.000Z</time>
      </trkpt>
      <trkpt lat="46.77898" lon="5.4813">
        <ele>275</ele>
        <time>2012-10-31T14:58:44.000Z</time>
      </trkpt>
      <trkpt lat="46.77895" lon="5.48134">
        <ele>275.7</ele>
        <time>2012-10-31T14:58:47.000Z</time>
      </trkpt>
      <trkpt lat="46.77894" lon="5.48135">
        <ele>275.9</ele>
        <time>2012-10-31T14:58:48.000Z</time>
      </trkpt>
      <trkpt lat="46.77891" lon="5.48138">
        <ele>276.8</ele>
        <time>2012-10-31T14:58:51.000Z</time>
      </trkpt>
      <trkpt lat="46.7789" lon="5.48139">
        <ele>277.1</ele>
        <time>2012-10-31T14:58:52.000Z</time>
      </trkpt>
      <trkpt lat="46.77887" lon="5.48142">
        <ele>277.8</ele>
        <time>2012-10-31T14:58:55.000Z</time>
      </trkpt>
      <trkpt lat="46.77886" lon="5.48143">
        <ele>278</ele>
        <time>2012-10-31T14:58:56.000Z</time>
      </trkpt>
      <trkpt lat="46.77882" lon="5.48145">
        <ele>278.5</ele>
        <time>2012-10-31T14:59:00.000Z</time>
      </trkpt>
      <trkpt lat="46.77881" lon="5.48146">
        <ele>278.3</ele>
        <time>2012-10-31T14:59:01.000Z</time>
      </trkpt>
      <trkpt lat="46.77877" lon="5.48147">
        <ele>277.6</ele>
        <time>2012-10-31T14:59:06.000Z</time>
      </trkpt>
      <trkpt lat="46.77876" lon="5.48147">
        <ele>277.4</ele>
        <time>2012-10-31T14:59:07.000Z</time>
      </trkpt>
      <trkpt lat="46.77872" lon="5.48145">
        <ele>277.3</ele>
        <time>2012-10-31T14:59:10.000Z</time>
      </trkpt>
      <trkpt lat="46.77871" lon="5.48144">
        <ele>277.1</ele>
        <time>2012-10-31T14:59:11.000Z</time>
      </trkpt>
      <trkpt lat="46.77868" lon="5.48143">
        <ele>277</ele>
        <time>2012-10-31T14:59:14.000Z</time>
      </trkpt>
      <trkpt lat="46.77867" lon="5.48142">
        <ele>277</ele>
        <time>2012-10-31T14:59:15.000Z</time>
      </trkpt>
      <trkpt lat="46.77863" lon="5.4814">
        <ele>276.9</ele>
        <time>2012-10-31T14:59:20.000Z</time>
      </trkpt>
      <trkpt lat="46.77862" lon="5.4814">
        <ele>277</ele>
        <time>2012-10-31T14:59:21.000Z</time>
      </trkpt>
      <trkpt lat="46.77857" lon="5.4814">
        <ele>277.2</ele>
        <time>2012-10-31T14:59:26.000Z</time>
      </trkpt>
      <trkpt lat="46.77856" lon="5.48139">
        <ele>277</ele>
        <time>2012-10-31T14:59:27.000Z</time>
      </trkpt>
      <trkpt lat="46.77853" lon="5.48138">
        <ele>276.3</ele>
        <time>2012-10-31T14:59:31.000Z</time>
      </trkpt>
      <trkpt lat="46.77852" lon="5.48138">
        <ele>276.2</ele>
        <time>2012-10-31T14:59:32.000Z</time>
      </trkpt>
      <trkpt lat="46.77848" lon="5.48137">
        <ele>276.2</ele>
        <time>2012-10-31T14:59:36.000Z</time>
      </trkpt>
      <trkpt lat="46.77847" lon="5.48137">
        <ele>276.2</ele>
        <time>2012-10-31T14:59:37.000Z</time>
      </trkpt>
      <trkpt lat="46.77843" lon="5.48135">
        <ele>276.1</ele>
        <time>2012-10-31T14:59:41.000Z</time>
      </trkpt>
      <trkpt lat="46.77842" lon="5.48134">
        <ele>276.1</ele>
        <time>2012-10-31T14:59:42.000Z</time>
      </trkpt>
      <trkpt lat="46.77838" lon="5.48132">
        <ele>276.3</ele>
        <time>2012-10-31T14:59:46.000Z</time>
      </trkpt>
      <trkpt lat="46.77837" lon="5.48132">
        <ele>276.3</ele>
        <time>2012-10-31T14:59:47.000Z</time>
      </trkpt>
      <trkpt lat="46.77833" lon="5.48132">
        <ele>276.1</ele>
        <time>2012-10-31T14:59:50.000Z</time>
      </trkpt>
      <trkpt lat="46.77832" lon="5.48132">
        <ele>276.1</ele>
        <time>2012-10-31T14:59:51.000Z</time>
      </trkpt>
      <trkpt lat="46.77827" lon="5.48131">
        <ele>276</ele>
        <time>2012-10-31T14:59:55.000Z</time>
      </trkpt>
      <trkpt lat="46.77826" lon="5.4813">
        <ele>276.1</ele>
        <time>2012-10-31T14:59:56.000Z</time>
      </trkpt>
      <trkpt lat="46.77823" lon="5.48128">
        <ele>276.6</ele>
        <time>2012-10-31T15:00:00.000Z</time>
      </trkpt>
      <trkpt lat="46.77822" lon="5.48128">
        <ele>276.8</ele>
        <time>2012-10-31T15:00:01.000Z</time>
      </trkpt>
      <trkpt lat="46.77818" lon="5.48127">
        <ele>277.4</ele>
        <time>2012-10-31T15:00:06.000Z</time>
      </trkpt>
      <trkpt lat="46.77817" lon="5.48127">
        <ele>277.3</ele>
        <time>2012-10-31T15:00:07.000Z</time>
      </trkpt>
      <trkpt lat="46.77814" lon="5.48123">
        <ele>276.7</ele>
        <time>2012-10-31T15:00:11.000Z</time>
      </trkpt>
      <trkpt lat="46.77813" lon="5.48122">
        <ele>276.6</ele>
        <time>2012-10-31T15:00:12.000Z</time>
      </trkpt>
      <trkpt lat="46.77811" lon="5.48117">
        <ele>276.5</ele>
        <time>2012-10-31T15:00:24.000Z</time>
      </trkpt>
      <trkpt lat="46.77807" lon="5.48116">
        <ele>277.3</ele>
        <time>2012-10-31T15:00:25.000Z</time>
      </trkpt>
      <trkpt lat="46.77805" lon="5.48115">
        <ele>277.5</ele>
        <time>2012-10-31T15:00:26.000Z</time>
      </trkpt>
      <trkpt lat="46.77803" lon="5.48115">
        <ele>277.5</ele>
        <time>2012-10-31T15:00:27.000Z</time>
      </trkpt>
      <trkpt lat="46.77798" lon="5.48113">
        <ele>277.5</ele>
        <time>2012-10-31T15:00:31.000Z</time>
      </trkpt>
      <trkpt lat="46.77798" lon="5.48113">
        <ele>277.5</ele>
        <time>2012-10-31T15:00:32.000Z</time>
      </trkpt>
      <trkpt lat="46.77794" lon="5.48112">
        <ele>278</ele>
        <time>2012-10-31T15:00:36.000Z</time>
      </trkpt>
      <trkpt lat="46.77793" lon="5.48111">
        <ele>278.1</ele>
        <time>2012-10-31T15:00:37.000Z</time>
      </trkpt>
      <trkpt lat="46.77789" lon="5.48109">
        <ele>277.7</ele>
        <time>2012-10-31T15:00:39.000Z</time>
      </trkpt>
      <trkpt lat="46.77788" lon="5.48107">
        <ele>277.8</ele>
        <time>2012-10-31T15:00:40.000Z</time>
      </trkpt>
      <trkpt lat="46.77784" lon="5.48104">
        <ele>277.7</ele>
        <time>2012-10-31T15:00:43.000Z</time>
      </trkpt>
      <trkpt lat="46.77783" lon="5.48103">
        <ele>278</ele>
        <time>2012-10-31T15:00:44.000Z</time>
      </trkpt>
      <trkpt lat="46.77779" lon="5.481">
        <ele>279</ele>
        <time>2012-10-31T15:00:48.000Z</time>
      </trkpt>
      <trkpt lat="46.77778" lon="5.481">
        <ele>278.9</ele>
        <time>2012-10-31T15:00:49.000Z</time>
      </trkpt>
      <trkpt lat="46.77775" lon="5.48098">
        <ele>278.5</ele>
        <time>2012-10-31T15:00:53.000Z</time>
      </trkpt>
      <trkpt lat="46.77774" lon="5.48097">
        <ele>278.3</ele>
        <time>2012-10-31T15:00:54.000Z</time>
      </trkpt>
      <trkpt lat="46.7777" lon="5.48095">
        <ele>277.8</ele>
        <time>2012-10-31T15:00:57.000Z</time>
      </trkpt>
      <trkpt lat="46.77769" lon="5.48093">
        <ele>277.8</ele>
        <time>2012-10-31T15:00:58.000Z</time>
      </trkpt>
      <trkpt lat="46.77766" lon="5.48091">
        <ele>277.7</ele>
        <time>2012-10-31T15:01:01.000Z</time>
      </trkpt>
      <trkpt lat="46.77765" lon="5.48089">
        <ele>277.8</ele>
        <time>2012-10-31T15:01:02.000Z</time>
      </trkpt>
      <trkpt lat="46.77762" lon="5.48087">
        <ele>277.7</ele>
        <time>2012-10-31T15:01:05.000Z</time>
      </trkpt>
      <trkpt lat="46.77761" lon="5.48086">
        <ele>277.6</ele>
        <time>2012-10-31T15:01:06.000Z</time>
      </trkpt>
      <trkpt lat="46.77756" lon="5.48087">
        <ele>278.9</ele>
        <time>2012-10-31T15:01:10.000Z</time>
      </trkpt>
      <trkpt lat="46.77755" lon="5.48088">
        <ele>278.7</ele>
        <time>2012-10-31T15:01:11.000Z</time>
      </trkpt>
      <trkpt lat="46.77752" lon="5.4809">
        <ele>278.1</ele>
        <time>2012-10-31T15:01:15.000Z</time>
      </trkpt>
      <trkpt lat="46.77751" lon="5.48091">
        <ele>278</ele>
        <time>2012-10-31T15:01:16.000Z</time>
      </trkpt>
      <trkpt lat="46.77748" lon="5.48095">
        <ele>277.1</ele>
        <time>2012-10-31T15:01:20.000Z</time>
      </trkpt>
      <trkpt lat="46.77747" lon="5.48096">
        <ele>277</ele>
        <time>2012-10-31T15:01:21.000Z</time>
      </trkpt>
      <trkpt lat="46.77743" lon="5.48097">
        <ele>277</ele>
        <time>2012-10-31T15:01:25.000Z</time>
      </trkpt>
      <trkpt lat="46.77742" lon="5.48097">
        <ele>277.2</ele>
        <time>2012-10-31T15:01:26.000Z</time>
      </trkpt>
      <trkpt lat="46.77739" lon="5.48093">
        <ele>277.2</ele>
        <time>2012-10-31T15:01:29.000Z</time>
      </trkpt>
      <trkpt lat="46.77738" lon="5.48091">
        <ele>277.2</ele>
        <time>2012-10-31T15:01:30.000Z</time>
      </trkpt>
      <trkpt lat="46.77736" lon="5.48087">
        <ele>277.3</ele>
        <time>2012-10-31T15:01:34.000Z</time>
      </trkpt>
      <trkpt lat="46.77735" lon="5.48086">
        <ele>277.3</ele>
        <time>2012-10-31T15:01:35.000Z</time>
      </trkpt>
      <trkpt lat="46.77732" lon="5.48083">
        <ele>277.2</ele>
        <time>2012-10-31T15:01:39.000Z</time>
      </trkpt>
      <trkpt lat="46.77731" lon="5.48082">
        <ele>276.9</ele>
        <time>2012-10-31T15:01:40.000Z</time>
      </trkpt>
      <trkpt lat="46.77728" lon="5.48078">
        <ele>276.6</ele>
        <time>2012-10-31T15:01:44.000Z</time>
      </trkpt>
      <trkpt lat="46.77727" lon="5.48077">
        <ele>276.6</ele>
        <time>2012-10-31T15:01:45.000Z</time>
      </trkpt>
      <trkpt lat="46.77723" lon="5.48073">
        <ele>276.4</ele>
        <time>2012-10-31T15:01:50.000Z</time>
      </trkpt>
      <trkpt lat="46.77722" lon="5.48073">
        <ele>276.2</ele>
        <time>2012-10-31T15:01:51.000Z</time>
      </trkpt>
      <trkpt lat="46.77719" lon="5.4807">
        <ele>276.4</ele>
        <time>2012-10-31T15:01:55.000Z</time>
      </trkpt>
      <trkpt lat="46.77718" lon="5.48069">
        <ele>276.4</ele>
        <time>2012-10-31T15:01:56.000Z</time>
      </trkpt>
      <trkpt lat="46.77714" lon="5.48066">
        <ele>276.2</ele>
        <time>2012-10-31T15:02:00.000Z</time>
      </trkpt>
      <trkpt lat="46.77713" lon="5.48065">
        <ele>276.2</ele>
        <time>2012-10-31T15:02:01.000Z</time>
      </trkpt>
      <trkpt lat="46.7771" lon="5.48062">
        <ele>276.4</ele>
        <time>2012-10-31T15:02:05.000Z</time>
      </trkpt>
      <trkpt lat="46.77709" lon="5.48061">
        <ele>276.5</ele>
        <time>2012-10-31T15:02:06.000Z</time>
      </trkpt>
      <trkpt lat="46.77704" lon="5.48061">
        <ele>277.6</ele>
        <time>2012-10-31T15:02:10.000Z</time>
      </trkpt>
      <trkpt lat="46.77703" lon="5.48061">
        <ele>277.6</ele>
        <time>2012-10-31T15:02:11.000Z</time>
      </trkpt>
      <trkpt lat="46.77699" lon="5.48061">
        <ele>277.5</ele>
        <time>2012-10-31T15:02:15.000Z</time>
      </trkpt>
      <trkpt lat="46.77698" lon="5.48061">
        <ele>277.6</ele>
        <time>2012-10-31T15:02:16.000Z</time>
      </trkpt>
      <trkpt lat="46.77694" lon="5.48062">
        <ele>277.7</ele>
        <time>2012-10-31T15:02:20.000Z</time>
      </trkpt>
      <trkpt lat="46.77693" lon="5.48063">
        <ele>277.8</ele>
        <time>2012-10-31T15:02:21.000Z</time>
      </trkpt>
      <trkpt lat="46.77688" lon="5.48064">
        <ele>278.1</ele>
        <time>2012-10-31T15:02:25.000Z</time>
      </trkpt>
      <trkpt lat="46.77687" lon="5.48064">
        <ele>278.2</ele>
        <time>2012-10-31T15:02:26.000Z</time>
      </trkpt>
      <trkpt lat="46.77684" lon="5.48068">
        <ele>278</ele>
        <time>2012-10-31T15:02:30.000Z</time>
      </trkpt>
      <trkpt lat="46.77683" lon="5.48069">
        <ele>277.9</ele>
        <time>2012-10-31T15:02:31.000Z</time>
      </trkpt>
      <trkpt lat="46.77682" lon="5.48074">
        <ele>278.3</ele>
        <time>2012-10-31T15:02:36.000Z</time>
      </trkpt>
      <trkpt lat="46.77681" lon="5.48075">
        <ele>278.4</ele>
        <time>2012-10-31T15:02:37.000Z</time>
      </trkpt>
      <trkpt lat="46.7768" lon="5.48081">
        <ele>279.2</ele>
        <time>2012-10-31T15:02:42.000Z</time>
      </trkpt>
      <trkpt lat="46.77679" lon="5.48082">
        <ele>279.3</ele>
        <time>2012-10-31T15:02:43.000Z</time>
      </trkpt>
      <trkpt lat="46.77676" lon="5.48086">
        <ele>278.9</ele>
        <time>2012-10-31T15:02:47.000Z</time>
      </trkpt>
      <trkpt lat="46.77675" lon="5.48088">
        <ele>278.7</ele>
        <time>2012-10-31T15:02:48.000Z</time>
      </trkpt>
      <trkpt lat="46.77673" lon="5.48092">
        <ele>278.5</ele>
        <time>2012-10-31T15:02:51.000Z</time>
      </trkpt>
      <trkpt lat="46.77673" lon="5.48093">
        <ele>278.2</ele>
        <time>2012-10-31T15:02:52.000Z</time>
      </trkpt>
      <trkpt lat="46.77673" lon="5.48099">
        <ele>278.1</ele>
        <time>2012-10-31T15:02:56.000Z</time>
      </trkpt>
      <trkpt lat="46.77673" lon="5.481">
        <ele>278.1</ele>
        <time>2012-10-31T15:02:57.000Z</time>
      </trkpt>
      <trkpt lat="46.77671" lon="5.48105">
        <ele>277.8</ele>
        <time>2012-10-31T15:03:02.000Z</time>
      </trkpt>
      <trkpt lat="46.7767" lon="5.48107">
        <ele>277.8</ele>
        <time>2012-10-31T15:03:03.000Z</time>
      </trkpt>
      <trkpt lat="46.77667" lon="5.48112">
        <ele>277.8</ele>
        <time>2012-10-31T15:03:07.000Z</time>
      </trkpt>
      <trkpt lat="46.77667" lon="5.48113">
        <ele>276.9</ele>
        <time>2012-10-31T15:03:08.000Z</time>
      </trkpt>
      <trkpt lat="46.77663" lon="5.48116">
        <ele>275.4</ele>
        <time>2012-10-31T15:03:11.000Z</time>
      </trkpt>
      <trkpt lat="46.77662" lon="5.48117">
        <ele>275.3</ele>
        <time>2012-10-31T15:03:12.000Z</time>
      </trkpt>
      <trkpt lat="46.77658" lon="5.4812">
        <ele>274.8</ele>
        <time>2012-10-31T15:03:15.000Z</time>
      </trkpt>
      <trkpt lat="46.77657" lon="5.48121">
        <ele>274.6</ele>
        <time>2012-10-31T15:03:16.000Z</time>
      </trkpt>
      <trkpt lat="46.77652" lon="5.4812">
        <ele>276.3</ele>
        <time>2012-10-31T15:03:21.000Z</time>
      </trkpt>
      <trkpt lat="46.77652" lon="5.4812">
        <ele>276.4</ele>
        <time>2012-10-31T15:03:22.000Z</time>
      </trkpt>
      <trkpt lat="46.77648" lon="5.48117">
        <ele>276.9</ele>
        <time>2012-10-31T15:03:27.000Z</time>
      </trkpt>
      <trkpt lat="46.77647" lon="5.48116">
        <ele>276.9</ele>
        <time>2012-10-31T15:03:28.000Z</time>
      </trkpt>
      <trkpt lat="46.77644" lon="5.48113">
        <ele>276.7</ele>
        <time>2012-10-31T15:03:33.000Z</time>
      </trkpt>
      <trkpt lat="46.77643" lon="5.48112">
        <ele>276.7</ele>
        <time>2012-10-31T15:03:34.000Z</time>
      </trkpt>
      <trkpt lat="46.77641" lon="5.4811">
        <ele>274.9</ele>
        <time>2012-10-31T15:03:36.000Z</time>
      </trkpt>
      <trkpt lat="46.77639" lon="5.48109">
        <ele>274.7</ele>
        <time>2012-10-31T15:03:37.000Z</time>
      </trkpt>
      <trkpt lat="46.77637" lon="5.48106">
        <ele>274.7</ele>
        <time>2012-10-31T15:03:39.000Z</time>
      </trkpt>
      <trkpt lat="46.77635" lon="5.48104">
        <ele>274.8</ele>
        <time>2012-10-31T15:03:40.000Z</time>
      </trkpt>
      <trkpt lat="46.77632" lon="5.48101">
        <ele>275.3</ele>
        <time>2012-10-31T15:03:43.000Z</time>
      </trkpt>
      <trkpt lat="46.7763" lon="5.481">
        <ele>275.1</ele>
        <time>2012-10-31T15:03:44.000Z</time>
      </trkpt>
      <trkpt lat="46.77627" lon="5.48098">
        <ele>275.2</ele>
        <time>2012-10-31T15:03:47.000Z</time>
      </trkpt>
      <trkpt lat="46.77626" lon="5.48098">
        <ele>275</ele>
        <time>2012-10-31T15:03:48.000Z</time>
      </trkpt>
      <trkpt lat="46.77622" lon="5.48095">
        <ele>274.6</ele>
        <time>2012-10-31T15:03:53.000Z</time>
      </trkpt>
      <trkpt lat="46.77621" lon="5.48095">
        <ele>274.3</ele>
        <time>2012-10-31T15:03:54.000Z</time>
      </trkpt>
      <trkpt lat="46.77617" lon="5.48095">
        <ele>274.6</ele>
        <time>2012-10-31T15:03:58.000Z</time>
      </trkpt>
      <trkpt lat="46.77616" lon="5.48094">
        <ele>274.7</ele>
        <time>2012-10-31T15:03:59.000Z</time>
      </trkpt>
      <trkpt lat="46.77612" lon="5.48092">
        <ele>275</ele>
        <time>2012-10-31T15:04:03.000Z</time>
      </trkpt>
      <trkpt lat="46.77611" lon="5.48092">
        <ele>275.1</ele>
        <time>2012-10-31T15:04:04.000Z</time>
      </trkpt>
      <trkpt lat="46.77607" lon="5.48089">
        <ele>275.4</ele>
        <time>2012-10-31T15:04:07.000Z</time>
      </trkpt>
      <trkpt lat="46.77606" lon="5.48089">
        <ele>275.5</ele>
        <time>2012-10-31T15:04:08.000Z</time>
      </trkpt>
      <trkpt lat="46.77603" lon="5.48086">
        <ele>276.9</ele>
        <time>2012-10-31T15:04:11.000Z</time>
      </trkpt>
      <trkpt lat="46.77601" lon="5.48085">
        <ele>277.1</ele>
        <time>2012-10-31T15:04:12.000Z</time>
      </trkpt>
      <trkpt lat="46.77598" lon="5.48083">
        <ele>277.2</ele>
        <time>2012-10-31T15:04:15.000Z</time>
      </trkpt>
      <trkpt lat="46.77597" lon="5.48082">
        <ele>277.1</ele>
        <time>2012-10-31T15:04:16.000Z</time>
      </trkpt>
      <trkpt lat="46.77594" lon="5.4808">
        <ele>277.1</ele>
        <time>2012-10-31T15:04:19.000Z</time>
      </trkpt>
      <trkpt lat="46.77593" lon="5.48079">
        <ele>277.1</ele>
        <time>2012-10-31T15:04:20.000Z</time>
      </trkpt>
      <trkpt lat="46.77589" lon="5.48076">
        <ele>277.3</ele>
        <time>2012-10-31T15:04:23.000Z</time>
      </trkpt>
      <trkpt lat="46.77588" lon="5.48075">
        <ele>277.3</ele>
        <time>2012-10-31T15:04:24.000Z</time>
      </trkpt>
      <trkpt lat="46.77585" lon="5.48071">
        <ele>277.2</ele>
        <time>2012-10-31T15:04:27.000Z</time>
      </trkpt>
      <trkpt lat="46.77584" lon="5.4807">
        <ele>277.3</ele>
        <time>2012-10-31T15:04:28.000Z</time>
      </trkpt>
      <trkpt lat="46.77581" lon="5.48067">
        <ele>277.4</ele>
        <time>2012-10-31T15:04:32.000Z</time>
      </trkpt>
      <trkpt lat="46.7758" lon="5.48067">
        <ele>277.3</ele>
        <time>2012-10-31T15:04:33.000Z</time>
      </trkpt>
      <trkpt lat="46.77576" lon="5.48064">
        <ele>277.3</ele>
        <time>2012-10-31T15:04:37.000Z</time>
      </trkpt>
      <trkpt lat="46.77576" lon="5.48063">
        <ele>277.3</ele>
        <time>2012-10-31T15:04:38.000Z</time>
      </trkpt>
      <trkpt lat="46.77572" lon="5.48059">
        <ele>277.3</ele>
        <time>2012-10-31T15:04:43.000Z</time>
      </trkpt>
      <trkpt lat="46.77571" lon="5.48059">
        <ele>277.3</ele>
        <time>2012-10-31T15:04:44.000Z</time>
      </trkpt>
      <trkpt lat="46.77567" lon="5.48055">
        <ele>277.8</ele>
        <time>2012-10-31T15:04:49.000Z</time>
      </trkpt>
      <trkpt lat="46.77567" lon="5.48054">
        <ele>277.9</ele>
        <time>2012-10-31T15:04:50.000Z</time>
      </trkpt>
      <trkpt lat="46.77563" lon="5.48051">
        <ele>278.3</ele>
        <time>2012-10-31T15:04:54.000Z</time>
      </trkpt>
      <trkpt lat="46.77562" lon="5.48051">
        <ele>278.5</ele>
        <time>2012-10-31T15:04:55.000Z</time>
      </trkpt>
      <trkpt lat="46.77559" lon="5.48048">
        <ele>278.6</ele>
        <time>2012-10-31T15:05:01.000Z</time>
      </trkpt>
      <trkpt lat="46.77558" lon="5.48047">
        <ele>278.6</ele>
        <time>2012-10-31T15:05:02.000Z</time>
      </trkpt>
      <trkpt lat="46.77555" lon="5.48042">
        <ele>279</ele>
        <time>2012-10-31T15:05:06.000Z</time>
      </trkpt>
      <trkpt lat="46.77554" lon="5.48041">
        <ele>279.4</ele>
        <time>2012-10-31T15:05:07.000Z</time>
      </trkpt>
      <trkpt lat="46.7755" lon="5.48038">
        <ele>280.9</ele>
        <time>2012-10-31T15:05:11.000Z</time>
      </trkpt>
      <trkpt lat="46.7755" lon="5.48037">
        <ele>280.9</ele>
        <time>2012-10-31T15:05:12.000Z</time>
      </trkpt>
      <trkpt lat="46.77547" lon="5.48037">
        <ele>281.8</ele>
        <time>2012-10-31T15:05:18.000Z</time>
      </trkpt>
      <trkpt lat="46.77545" lon="5.48036">
        <ele>283.1</ele>
        <time>2012-10-31T15:05:19.000Z</time>
      </trkpt>
      <trkpt lat="46.77542" lon="5.48033">
        <ele>283</ele>
        <time>2012-10-31T15:05:22.000Z</time>
      </trkpt>
      <trkpt lat="46.77541" lon="5.48031">
        <ele>282.6</ele>
        <time>2012-10-31T15:05:23.000Z</time>
      </trkpt>
      <trkpt lat="46.77538" lon="5.48026">
        <ele>281.9</ele>
        <time>2012-10-31T15:05:26.000Z</time>
      </trkpt>
      <trkpt lat="46.77537" lon="5.48025">
        <ele>281.7</ele>
        <time>2012-10-31T15:05:27.000Z</time>
      </trkpt>
      <trkpt lat="46.77534" lon="5.48021">
        <ele>281.5</ele>
        <time>2012-10-31T15:05:30.000Z</time>
      </trkpt>
      <trkpt lat="46.77533" lon="5.4802">
        <ele>281.5</ele>
        <time>2012-10-31T15:05:31.000Z</time>
      </trkpt>
      <trkpt lat="46.77529" lon="5.48016">
        <ele>281.7</ele>
        <time>2012-10-31T15:05:34.000Z</time>
      </trkpt>
      <trkpt lat="46.77528" lon="5.48015">
        <ele>281.6</ele>
        <time>2012-10-31T15:05:35.000Z</time>
      </trkpt>
      <trkpt lat="46.77525" lon="5.48011">
        <ele>281.5</ele>
        <time>2012-10-31T15:05:39.000Z</time>
      </trkpt>
      <trkpt lat="46.77524" lon="5.48011">
        <ele>281.4</ele>
        <time>2012-10-31T15:05:40.000Z</time>
      </trkpt>
      <trkpt lat="46.77521" lon="5.48008">
        <ele>282.6</ele>
        <time>2012-10-31T15:05:43.000Z</time>
      </trkpt>
      <trkpt lat="46.7752" lon="5.48006">
        <ele>283.1</ele>
        <time>2012-10-31T15:05:44.000Z</time>
      </trkpt>
      <trkpt lat="46.77517" lon="5.48003">
        <ele>284</ele>
        <time>2012-10-31T15:05:47.000Z</time>
      </trkpt>
      <trkpt lat="46.77516" lon="5.48002">
        <ele>284.2</ele>
        <time>2012-10-31T15:05:48.000Z</time>
      </trkpt>
      <trkpt lat="46.77513" lon="5.47998">
        <ele>284.2</ele>
        <time>2012-10-31T15:05:51.000Z</time>
      </trkpt>
      <trkpt lat="46.77512" lon="5.47996">
        <ele>284</ele>
        <time>2012-10-31T15:05:52.000Z</time>
      </trkpt>
      <trkpt lat="46.77509" lon="5.47992">
        <ele>283.5</ele>
        <time>2012-10-31T15:05:55.000Z</time>
      </trkpt>
      <trkpt lat="46.77508" lon="5.4799">
        <ele>283.6</ele>
        <time>2012-10-31T15:05:56.000Z</time>
      </trkpt>
      <trkpt lat="46.77505" lon="5.47987">
        <ele>283.8</ele>
        <time>2012-10-31T15:05:59.000Z</time>
      </trkpt>
      <trkpt lat="46.77504" lon="5.47986">
        <ele>283.9</ele>
        <time>2012-10-31T15:06:00.000Z</time>
      </trkpt>
      <trkpt lat="46.77501" lon="5.47982">
        <ele>283.9</ele>
        <time>2012-10-31T15:06:03.000Z</time>
      </trkpt>
      <trkpt lat="46.775" lon="5.47981">
        <ele>283.8</ele>
        <time>2012-10-31T15:06:04.000Z</time>
      </trkpt>
      <trkpt lat="46.77497" lon="5.47975">
        <ele>284.3</ele>
        <time>2012-10-31T15:06:10.000Z</time>
      </trkpt>
      <trkpt lat="46.77497" lon="5.47975">
        <ele>284.5</ele>
        <time>2012-10-31T15:06:11.000Z</time>
      </trkpt>
      <trkpt lat="46.77493" lon="5.47973">
        <ele>284.8</ele>
        <time>2012-10-31T15:06:14.000Z</time>
      </trkpt>
      <trkpt lat="46.77492" lon="5.47972">
        <ele>285</ele>
        <time>2012-10-31T15:06:15.000Z</time>
      </trkpt>
      <trkpt lat="46.77489" lon="5.47968">
        <ele>285.1</ele>
        <time>2012-10-31T15:06:18.000Z</time>
      </trkpt>
      <trkpt lat="46.77487" lon="5.47967">
        <ele>285.4</ele>
        <time>2012-10-31T15:06:19.000Z</time>
      </trkpt>
      <trkpt lat="46.77484" lon="5.47964">
        <ele>286.1</ele>
        <time>2012-10-31T15:06:22.000Z</time>
      </trkpt>
      <trkpt lat="46.77483" lon="5.47963">
        <ele>286.2</ele>
        <time>2012-10-31T15:06:23.000Z</time>
      </trkpt>
      <trkpt lat="46.77481" lon="5.4796">
        <ele>285.7</ele>
        <time>2012-10-31T15:06:27.000Z</time>
      </trkpt>
      <trkpt lat="46.7748" lon="5.47959">
        <ele>285.8</ele>
        <time>2012-10-31T15:06:28.000Z</time>
      </trkpt>
      <trkpt lat="46.77477" lon="5.47954">
        <ele>285.3</ele>
        <time>2012-10-31T15:06:32.000Z</time>
      </trkpt>
      <trkpt lat="46.77476" lon="5.47953">
        <ele>285.5</ele>
        <time>2012-10-31T15:06:33.000Z</time>
      </trkpt>
      <trkpt lat="46.77473" lon="5.47948">
        <ele>285.9</ele>
        <time>2012-10-31T15:06:37.000Z</time>
      </trkpt>
      <trkpt lat="46.77472" lon="5.47947">
        <ele>286</ele>
        <time>2012-10-31T15:06:38.000Z</time>
      </trkpt>
      <trkpt lat="46.7747" lon="5.47944">
        <ele>285.8</ele>
        <time>2012-10-31T15:06:41.000Z</time>
      </trkpt>
      <trkpt lat="46.77469" lon="5.47942">
        <ele>285.6</ele>
        <time>2012-10-31T15:06:42.000Z</time>
      </trkpt>
      <trkpt lat="46.77466" lon="5.47938">
        <ele>286.1</ele>
        <time>2012-10-31T15:06:46.000Z</time>
      </trkpt>
      <trkpt lat="46.77465" lon="5.47937">
        <ele>286.2</ele>
        <time>2012-10-31T15:06:47.000Z</time>
      </trkpt>
      <trkpt lat="46.77462" lon="5.47933">
        <ele>286.6</ele>
        <time>2012-10-31T15:06:51.000Z</time>
      </trkpt>
      <trkpt lat="46.77461" lon="5.47932">
        <ele>286.7</ele>
        <time>2012-10-31T15:06:52.000Z</time>
      </trkpt>
      <trkpt lat="46.77458" lon="5.47928">
        <ele>286.6</ele>
        <time>2012-10-31T15:06:55.000Z</time>
      </trkpt>
      <trkpt lat="46.77456" lon="5.47927">
        <ele>286.7</ele>
        <time>2012-10-31T15:06:56.000Z</time>
      </trkpt>
      <trkpt lat="46.77453" lon="5.47924">
        <ele>286.3</ele>
        <time>2012-10-31T15:06:59.000Z</time>
      </trkpt>
      <trkpt lat="46.77452" lon="5.47923">
        <ele>286.3</ele>
        <time>2012-10-31T15:07:00.000Z</time>
      </trkpt>
      <trkpt lat="46.77449" lon="5.4792">
        <ele>286.6</ele>
        <time>2012-10-31T15:07:03.000Z</time>
      </trkpt>
      <trkpt lat="46.77448" lon="5.47918">
        <ele>286.7</ele>
        <time>2012-10-31T15:07:04.000Z</time>
      </trkpt>
      <trkpt lat="46.77445" lon="5.47915">
        <ele>286.8</ele>
        <time>2012-10-31T15:07:07.000Z</time>
      </trkpt>
      <trkpt lat="46.77444" lon="5.47914">
        <ele>286.8</ele>
        <time>2012-10-31T15:07:08.000Z</time>
      </trkpt>
      <trkpt lat="46.7744" lon="5.47911">
        <ele>286.1</ele>
        <time>2012-10-31T15:07:12.000Z</time>
      </trkpt>
      <trkpt lat="46.7744" lon="5.4791">
        <ele>285.8</ele>
        <time>2012-10-31T15:07:13.000Z</time>
      </trkpt>
      <trkpt lat="46.77436" lon="5.47907">
        <ele>283.7</ele>
        <time>2012-10-31T15:07:19.000Z</time>
      </trkpt>
      <trkpt lat="46.77435" lon="5.47907">
        <ele>283.3</ele>
        <time>2012-10-31T15:07:20.000Z</time>
      </trkpt>
      <trkpt lat="46.77432" lon="5.47903">
        <ele>281.9</ele>
        <time>2012-10-31T15:07:24.000Z</time>
      </trkpt>
      <trkpt lat="46.77432" lon="5.47901">
        <ele>281.8</ele>
        <time>2012-10-31T15:07:25.000Z</time>
      </trkpt>
      <trkpt lat="46.77429" lon="5.47897">
        <ele>280.9</ele>
        <time>2012-10-31T15:07:29.000Z</time>
      </trkpt>
      <trkpt lat="46.77429" lon="5.47896">
        <ele>280.8</ele>
        <time>2012-10-31T15:07:30.000Z</time>
      </trkpt>
      <trkpt lat="46.77426" lon="5.47891">
        <ele>280.2</ele>
        <time>2012-10-31T15:07:35.000Z</time>
      </trkpt>
      <trkpt lat="46.77425" lon="5.4789">
        <ele>280.1</ele>
        <time>2012-10-31T15:07:36.000Z</time>
      </trkpt>
      <trkpt lat="46.77421" lon="5.47887">
        <ele>279.7</ele>
        <time>2012-10-31T15:07:40.000Z</time>
      </trkpt>
      <trkpt lat="46.7742" lon="5.47886">
        <ele>279.8</ele>
        <time>2012-10-31T15:07:41.000Z</time>
      </trkpt>
      <trkpt lat="46.77417" lon="5.47882">
        <ele>279.6</ele>
        <time>2012-10-31T15:07:45.000Z</time>
      </trkpt>
      <trkpt lat="46.77416" lon="5.47881">
        <ele>279.5</ele>
        <time>2012-10-31T15:07:46.000Z</time>
      </trkpt>
      <trkpt lat="46.77412" lon="5.47878">
        <ele>279.6</ele>
        <time>2012-10-31T15:07:50.000Z</time>
      </trkpt>
      <trkpt lat="46.77411" lon="5.47877">
        <ele>279.6</ele>
        <time>2012-10-31T15:07:51.000Z</time>
      </trkpt>
      <trkpt lat="46.77408" lon="5.47874">
        <ele>279.5</ele>
        <time>2012-10-31T15:07:55.000Z</time>
      </trkpt>
      <trkpt lat="46.77407" lon="5.47873">
        <ele>279.5</ele>
        <time>2012-10-31T15:07:56.000Z</time>
      </trkpt>
      <trkpt lat="46.77403" lon="5.47872">
        <ele>279.5</ele>
        <time>2012-10-31T15:08:00.000Z</time>
      </trkpt>
      <trkpt lat="46.77401" lon="5.47871">
        <ele>279.9</ele>
        <time>2012-10-31T15:08:01.000Z</time>
      </trkpt>
      <trkpt lat="46.77397" lon="5.47872">
        <ele>280.3</ele>
        <time>2012-10-31T15:08:05.000Z</time>
      </trkpt>
      <trkpt lat="46.77397" lon="5.47872">
        <ele>280.4</ele>
        <time>2012-10-31T15:08:06.000Z</time>
      </trkpt>
      <trkpt lat="46.77393" lon="5.47872">
        <ele>281.1</ele>
        <time>2012-10-31T15:08:11.000Z</time>
      </trkpt>
      <trkpt lat="46.77392" lon="5.47871">
        <ele>281</ele>
        <time>2012-10-31T15:08:12.000Z</time>
      </trkpt>
      <trkpt lat="46.77389" lon="5.47867">
        <ele>281.2</ele>
        <time>2012-10-31T15:08:16.000Z</time>
      </trkpt>
      <trkpt lat="46.77388" lon="5.47867">
        <ele>281.2</ele>
        <time>2012-10-31T15:08:17.000Z</time>
      </trkpt>
      <trkpt lat="46.77385" lon="5.47864">
        <ele>281.7</ele>
        <time>2012-10-31T15:08:31.000Z</time>
      </trkpt>
      <trkpt lat="46.77382" lon="5.47864">
        <ele>277.1</ele>
        <time>2012-10-31T15:09:02.000Z</time>
      </trkpt>
      <trkpt lat="46.77383" lon="5.47858">
        <ele>273.7</ele>
        <time>2012-10-31T15:09:13.000Z</time>
      </trkpt>
      <trkpt lat="46.77382" lon="5.47857">
        <ele>273</ele>
        <time>2012-10-31T15:09:14.000Z</time>
      </trkpt>
      <trkpt lat="46.77379" lon="5.47854">
        <ele>271.9</ele>
        <time>2012-10-31T15:09:17.000Z</time>
      </trkpt>
      <trkpt lat="46.77378" lon="5.47853">
        <ele>272.1</ele>
        <time>2012-10-31T15:09:18.000Z</time>
      </trkpt>
      <trkpt lat="46.77375" lon="5.47851">
        <ele>272.2</ele>
        <time>2012-10-31T15:09:21.000Z</time>
      </trkpt>
      <trkpt lat="46.77374" lon="5.4785">
        <ele>272.3</ele>
        <time>2012-10-31T15:09:22.000Z</time>
      </trkpt>
      <trkpt lat="46.7737" lon="5.47847">
        <ele>273.6</ele>
        <time>2012-10-31T15:09:25.000Z</time>
      </trkpt>
      <trkpt lat="46.77369" lon="5.47847">
        <ele>273.9</ele>
        <time>2012-10-31T15:09:26.000Z</time>
      </trkpt>
      <trkpt lat="46.77365" lon="5.47845">
        <ele>274.8</ele>
        <time>2012-10-31T15:09:29.000Z</time>
      </trkpt>
      <trkpt lat="46.77364" lon="5.47844">
        <ele>275.3</ele>
        <time>2012-10-31T15:09:30.000Z</time>
      </trkpt>
      <trkpt lat="46.7736" lon="5.47841">
        <ele>276</ele>
        <time>2012-10-31T15:09:33.000Z</time>
      </trkpt>
      <trkpt lat="46.77359" lon="5.47841">
        <ele>276.1</ele>
        <time>2012-10-31T15:09:34.000Z</time>
      </trkpt>
      <trkpt lat="46.77355" lon="5.47838">
        <ele>276.1</ele>
        <time>2012-10-31T15:09:38.000Z</time>
      </trkpt>
      <trkpt lat="46.77354" lon="5.47837">
        <ele>275.9</ele>
        <time>2012-10-31T15:09:39.000Z</time>
      </trkpt>
      <trkpt lat="46.77351" lon="5.47835">
        <ele>276.2</ele>
        <time>2012-10-31T15:09:43.000Z</time>
      </trkpt>
      <trkpt lat="46.7735" lon="5.47834">
        <ele>276.4</ele>
        <time>2012-10-31T15:09:44.000Z</time>
      </trkpt>
      <trkpt lat="46.77346" lon="5.47832">
        <ele>276.7</ele>
        <time>2012-10-31T15:09:48.000Z</time>
      </trkpt>
      <trkpt lat="46.77345" lon="5.47831">
        <ele>276.6</ele>
        <time>2012-10-31T15:09:49.000Z</time>
      </trkpt>
      <trkpt lat="46.77341" lon="5.47829">
        <ele>276.3</ele>
        <time>2012-10-31T15:09:53.000Z</time>
      </trkpt>
      <trkpt lat="46.7734" lon="5.47828">
        <ele>276.3</ele>
        <time>2012-10-31T15:09:54.000Z</time>
      </trkpt>
      <trkpt lat="46.77337" lon="5.47826">
        <ele>276.4</ele>
        <time>2012-10-31T15:09:58.000Z</time>
      </trkpt>
      <trkpt lat="46.77336" lon="5.47825">
        <ele>276.3</ele>
        <time>2012-10-31T15:09:59.000Z</time>
      </trkpt>
      <trkpt lat="46.77332" lon="5.47822">
        <ele>276.2</ele>
        <time>2012-10-31T15:10:03.000Z</time>
      </trkpt>
      <trkpt lat="46.77331" lon="5.47821">
        <ele>276.2</ele>
        <time>2012-10-31T15:10:04.000Z</time>
      </trkpt>
      <trkpt lat="46.77328" lon="5.47818">
        <ele>276.1</ele>
        <time>2012-10-31T15:10:08.000Z</time>
      </trkpt>
      <trkpt lat="46.77327" lon="5.47818">
        <ele>276.1</ele>
        <time>2012-10-31T15:10:09.000Z</time>
      </trkpt>
      <trkpt lat="46.77323" lon="5.47815">
        <ele>275.9</ele>
        <time>2012-10-31T15:10:13.000Z</time>
      </trkpt>
      <trkpt lat="46.77322" lon="5.47814">
        <ele>276</ele>
        <time>2012-10-31T15:10:14.000Z</time>
      </trkpt>
      <trkpt lat="46.77318" lon="5.47812">
        <ele>276.1</ele>
        <time>2012-10-31T15:10:18.000Z</time>
      </trkpt>
      <trkpt lat="46.77317" lon="5.47811">
        <ele>275.9</ele>
        <time>2012-10-31T15:10:19.000Z</time>
      </trkpt>
      <trkpt lat="46.77314" lon="5.47808">
        <ele>276</ele>
        <time>2012-10-31T15:10:23.000Z</time>
      </trkpt>
      <trkpt lat="46.77313" lon="5.47807">
        <ele>276.1</ele>
        <time>2012-10-31T15:10:24.000Z</time>
      </trkpt>
      <trkpt lat="46.77309" lon="5.47806">
        <ele>276.4</ele>
        <time>2012-10-31T15:10:28.000Z</time>
      </trkpt>
      <trkpt lat="46.77309" lon="5.47806">
        <ele>276.6</ele>
        <time>2012-10-31T15:10:29.000Z</time>
      </trkpt>
      <trkpt lat="46.77307" lon="5.47801">
        <ele>277</ele>
        <time>2012-10-31T15:10:33.000Z</time>
      </trkpt>
      <trkpt lat="46.77307" lon="5.47799">
        <ele>277.1</ele>
        <time>2012-10-31T15:10:34.000Z</time>
      </trkpt>
      <trkpt lat="46.77304" lon="5.47795">
        <ele>277.4</ele>
        <time>2012-10-31T15:10:40.000Z</time>
      </trkpt>
      <trkpt lat="46.77303" lon="5.47795">
        <ele>277.4</ele>
        <time>2012-10-31T15:10:41.000Z</time>
      </trkpt>
      <trkpt lat="46.77299" lon="5.47795">
        <ele>277.6</ele>
        <time>2012-10-31T15:10:45.000Z</time>
      </trkpt>
      <trkpt lat="46.77299" lon="5.47794">
        <ele>277.5</ele>
        <time>2012-10-31T15:10:46.000Z</time>
      </trkpt>
      <trkpt lat="46.77295" lon="5.47792">
        <ele>277.9</ele>
        <time>2012-10-31T15:10:50.000Z</time>
      </trkpt>
      <trkpt lat="46.77294" lon="5.47791">
        <ele>278</ele>
        <time>2012-10-31T15:10:51.000Z</time>
      </trkpt>
      <trkpt lat="46.7729" lon="5.47791">
        <ele>278</ele>
        <time>2012-10-31T15:10:55.000Z</time>
      </trkpt>
      <trkpt lat="46.77289" lon="5.4779">
        <ele>277.9</ele>
        <time>2012-10-31T15:10:56.000Z</time>
      </trkpt>
      <trkpt lat="46.77285" lon="5.47789">
        <ele>278.1</ele>
        <time>2012-10-31T15:10:59.000Z</time>
      </trkpt>
      <trkpt lat="46.77284" lon="5.47788">
        <ele>278.1</ele>
        <time>2012-10-31T15:11:00.000Z</time>
      </trkpt>
      <trkpt lat="46.7728" lon="5.47788">
        <ele>277.9</ele>
        <time>2012-10-31T15:11:04.000Z</time>
      </trkpt>
      <trkpt lat="46.77279" lon="5.47787">
        <ele>278</ele>
        <time>2012-10-31T15:11:05.000Z</time>
      </trkpt>
      <trkpt lat="46.77277" lon="5.47786">
        <ele>278</ele>
        <time>2012-10-31T15:11:12.000Z</time>
      </trkpt>
      <trkpt lat="46.77274" lon="5.47785">
        <ele>278.3</ele>
        <time>2012-10-31T15:11:13.000Z</time>
      </trkpt>
      <trkpt lat="46.7727" lon="5.47785">
        <ele>278.7</ele>
        <time>2012-10-31T15:11:16.000Z</time>
      </trkpt>
      <trkpt lat="46.77268" lon="5.47785">
        <ele>278.9</ele>
        <time>2012-10-31T15:11:17.000Z</time>
      </trkpt>
      <trkpt lat="46.77264" lon="5.47784">
        <ele>279.3</ele>
        <time>2012-10-31T15:11:20.000Z</time>
      </trkpt>
      <trkpt lat="46.77263" lon="5.47783">
        <ele>279.3</ele>
        <time>2012-10-31T15:11:21.000Z</time>
      </trkpt>
      <trkpt lat="46.7726" lon="5.47781">
        <ele>279.1</ele>
        <time>2012-10-31T15:11:23.000Z</time>
      </trkpt>
      <trkpt lat="46.77259" lon="5.4778">
        <ele>279</ele>
        <time>2012-10-31T15:11:24.000Z</time>
      </trkpt>
      <trkpt lat="46.77256" lon="5.47776">
        <ele>279</ele>
        <time>2012-10-31T15:11:26.000Z</time>
      </trkpt>
      <trkpt lat="46.77255" lon="5.47774">
        <ele>279.1</ele>
        <time>2012-10-31T15:11:27.000Z</time>
      </trkpt>
      <trkpt lat="46.77253" lon="5.47771">
        <ele>279.4</ele>
        <time>2012-10-31T15:11:29.000Z</time>
      </trkpt>
      <trkpt lat="46.77252" lon="5.47769">
        <ele>279.4</ele>
        <time>2012-10-31T15:11:30.000Z</time>
      </trkpt>
      <trkpt lat="46.7725" lon="5.47765">
        <ele>279.6</ele>
        <time>2012-10-31T15:11:32.000Z</time>
      </trkpt>
      <trkpt lat="46.77249" lon="5.47764">
        <ele>279.7</ele>
        <time>2012-10-31T15:11:33.000Z</time>
      </trkpt>
      <trkpt lat="46.77245" lon="5.47761">
        <ele>280.2</ele>
        <time>2012-10-31T15:11:36.000Z</time>
      </trkpt>
      <trkpt lat="46.77244" lon="5.4776">
        <ele>280.4</ele>
        <time>2012-10-31T15:11:37.000Z</time>
      </trkpt>
      <trkpt lat="46.7724" lon="5.4776">
        <ele>280.7</ele>
        <time>2012-10-31T15:11:40.000Z</time>
      </trkpt>
      <trkpt lat="46.77239" lon="5.4776">
        <ele>280.9</ele>
        <time>2012-10-31T15:11:41.000Z</time>
      </trkpt>
      <trkpt lat="46.77235" lon="5.47759">
        <ele>281.2</ele>
        <time>2012-10-31T15:11:44.000Z</time>
      </trkpt>
      <trkpt lat="46.77234" lon="5.47759">
        <ele>281.3</ele>
        <time>2012-10-31T15:11:45.000Z</time>
      </trkpt>
      <trkpt lat="46.7723" lon="5.47758">
        <ele>281.9</ele>
        <time>2012-10-31T15:11:48.000Z</time>
      </trkpt>
      <trkpt lat="46.77229" lon="5.47757">
        <ele>282</ele>
        <time>2012-10-31T15:11:49.000Z</time>
      </trkpt>
      <trkpt lat="46.77225" lon="5.47757">
        <ele>282.2</ele>
        <time>2012-10-31T15:11:52.000Z</time>
      </trkpt>
      <trkpt lat="46.77224" lon="5.47757">
        <ele>282.3</ele>
        <time>2012-10-31T15:11:53.000Z</time>
      </trkpt>
      <trkpt lat="46.7722" lon="5.47757">
        <ele>283</ele>
        <time>2012-10-31T15:11:57.000Z</time>
      </trkpt>
      <trkpt lat="46.77219" lon="5.47757">
        <ele>282.9</ele>
        <time>2012-10-31T15:11:58.000Z</time>
      </trkpt>
      <trkpt lat="46.77215" lon="5.47758">
        <ele>282.7</ele>
        <time>2012-10-31T15:12:02.000Z</time>
      </trkpt>
      <trkpt lat="46.77214" lon="5.47757">
        <ele>282.6</ele>
        <time>2012-10-31T15:12:03.000Z</time>
      </trkpt>
      <trkpt lat="46.77211" lon="5.47756">
        <ele>282.5</ele>
        <time>2012-10-31T15:12:06.000Z</time>
      </trkpt>
      <trkpt lat="46.7721" lon="5.47756">
        <ele>282.8</ele>
        <time>2012-10-31T15:12:07.000Z</time>
      </trkpt>
      <trkpt lat="46.77206" lon="5.47756">
        <ele>283.1</ele>
        <time>2012-10-31T15:12:10.000Z</time>
      </trkpt>
      <trkpt lat="46.77204" lon="5.47755">
        <ele>283.2</ele>
        <time>2012-10-31T15:12:11.000Z</time>
      </trkpt>
      <trkpt lat="46.77201" lon="5.47754">
        <ele>283.6</ele>
        <time>2012-10-31T15:12:14.000Z</time>
      </trkpt>
      <trkpt lat="46.772" lon="5.47753">
        <ele>283.7</ele>
        <time>2012-10-31T15:12:15.000Z</time>
      </trkpt>
      <trkpt lat="46.77196" lon="5.47752">
        <ele>283.7</ele>
        <time>2012-10-31T15:12:18.000Z</time>
      </trkpt>
      <trkpt lat="46.77195" lon="5.47752">
        <ele>283.8</ele>
        <time>2012-10-31T15:12:19.000Z</time>
      </trkpt>
      <trkpt lat="46.77191" lon="5.47751">
        <ele>283.9</ele>
        <time>2012-10-31T15:12:22.000Z</time>
      </trkpt>
      <trkpt lat="46.7719" lon="5.47751">
        <ele>283.6</ele>
        <time>2012-10-31T15:12:23.000Z</time>
      </trkpt>
      <trkpt lat="46.77186" lon="5.4775">
        <ele>283.9</ele>
        <time>2012-10-31T15:12:26.000Z</time>
      </trkpt>
      <trkpt lat="46.77185" lon="5.4775">
        <ele>283.9</ele>
        <time>2012-10-31T15:12:27.000Z</time>
      </trkpt>
      <trkpt lat="46.77181" lon="5.4775">
        <ele>284.2</ele>
        <time>2012-10-31T15:12:31.000Z</time>
      </trkpt>
      <trkpt lat="46.7718" lon="5.4775">
        <ele>284.3</ele>
        <time>2012-10-31T15:12:32.000Z</time>
      </trkpt>
      <trkpt lat="46.77176" lon="5.47751">
        <ele>283.7</ele>
        <time>2012-10-31T15:12:36.000Z</time>
      </trkpt>
      <trkpt lat="46.77175" lon="5.47751">
        <ele>283.4</ele>
        <time>2012-10-31T15:12:37.000Z</time>
      </trkpt>
      <trkpt lat="46.77171" lon="5.4775">
        <ele>282.6</ele>
        <time>2012-10-31T15:12:40.000Z</time>
      </trkpt>
      <trkpt lat="46.7717" lon="5.4775">
        <ele>282.8</ele>
        <time>2012-10-31T15:12:41.000Z</time>
      </trkpt>
      <trkpt lat="46.77165" lon="5.47751">
        <ele>283.1</ele>
        <time>2012-10-31T15:12:45.000Z</time>
      </trkpt>
      <trkpt lat="46.77165" lon="5.47751">
        <ele>283.1</ele>
        <time>2012-10-31T15:12:46.000Z</time>
      </trkpt>
      <trkpt lat="46.77161" lon="5.47755">
        <ele>283</ele>
        <time>2012-10-31T15:12:51.000Z</time>
      </trkpt>
      <trkpt lat="46.7716" lon="5.47755">
        <ele>283.1</ele>
        <time>2012-10-31T15:12:52.000Z</time>
      </trkpt>
      <trkpt lat="46.77156" lon="5.47757">
        <ele>283.2</ele>
        <time>2012-10-31T15:12:56.000Z</time>
      </trkpt>
      <trkpt lat="46.77155" lon="5.47757">
        <ele>283.1</ele>
        <time>2012-10-31T15:12:57.000Z</time>
      </trkpt>
      <trkpt lat="46.77151" lon="5.47755">
        <ele>282.4</ele>
        <time>2012-10-31T15:13:01.000Z</time>
      </trkpt>
      <trkpt lat="46.7715" lon="5.47755">
        <ele>282.4</ele>
        <time>2012-10-31T15:13:02.000Z</time>
      </trkpt>
      <trkpt lat="46.77147" lon="5.47754">
        <ele>281.7</ele>
        <time>2012-10-31T15:13:05.000Z</time>
      </trkpt>
      <trkpt lat="46.77146" lon="5.47754">
        <ele>281.7</ele>
        <time>2012-10-31T15:13:06.000Z</time>
      </trkpt>
      <trkpt lat="46.77142" lon="5.47754">
        <ele>281.2</ele>
        <time>2012-10-31T15:13:09.000Z</time>
      </trkpt>
      <trkpt lat="46.77141" lon="5.47754">
        <ele>281.1</ele>
        <time>2012-10-31T15:13:10.000Z</time>
      </trkpt>
      <trkpt lat="46.77137" lon="5.47754">
        <ele>280.8</ele>
        <time>2012-10-31T15:13:13.000Z</time>
      </trkpt>
      <trkpt lat="46.77136" lon="5.47753">
        <ele>280.7</ele>
        <time>2012-10-31T15:13:14.000Z</time>
      </trkpt>
      <trkpt lat="46.77133" lon="5.4775">
        <ele>280.4</ele>
        <time>2012-10-31T15:13:17.000Z</time>
      </trkpt>
      <trkpt lat="46.77131" lon="5.47749">
        <ele>280.2</ele>
        <time>2012-10-31T15:13:18.000Z</time>
      </trkpt>
      <trkpt lat="46.77128" lon="5.47746">
        <ele>280.1</ele>
        <time>2012-10-31T15:13:21.000Z</time>
      </trkpt>
      <trkpt lat="46.77126" lon="5.47744">
        <ele>280.3</ele>
        <time>2012-10-31T15:13:22.000Z</time>
      </trkpt>
      <trkpt lat="46.77123" lon="5.4774">
        <ele>280.3</ele>
        <time>2012-10-31T15:13:25.000Z</time>
      </trkpt>
      <trkpt lat="46.77122" lon="5.47739">
        <ele>280.1</ele>
        <time>2012-10-31T15:13:26.000Z</time>
      </trkpt>
      <trkpt lat="46.7712" lon="5.47734">
        <ele>279.9</ele>
        <time>2012-10-31T15:13:29.000Z</time>
      </trkpt>
      <trkpt lat="46.77119" lon="5.47733">
        <ele>279.7</ele>
        <time>2012-10-31T15:13:30.000Z</time>
      </trkpt>
      <trkpt lat="46.77116" lon="5.47729">
        <ele>278.9</ele>
        <time>2012-10-31T15:13:33.000Z</time>
      </trkpt>
      <trkpt lat="46.77115" lon="5.47728">
        <ele>278.4</ele>
        <time>2012-10-31T15:13:34.000Z</time>
      </trkpt>
      <trkpt lat="46.77113" lon="5.47723">
        <ele>277</ele>
        <time>2012-10-31T15:13:38.000Z</time>
      </trkpt>
      <trkpt lat="46.77112" lon="5.47721">
        <ele>276.5</ele>
        <time>2012-10-31T15:13:39.000Z</time>
      </trkpt>
      <trkpt lat="46.77111" lon="5.47716">
        <ele>276</ele>
        <time>2012-10-31T15:13:41.000Z</time>
      </trkpt>
      <trkpt lat="46.7711" lon="5.47715">
        <ele>275.7</ele>
        <time>2012-10-31T15:13:42.000Z</time>
      </trkpt>
      <trkpt lat="46.77108" lon="5.47709">
        <ele>274.2</ele>
        <time>2012-10-31T15:13:46.000Z</time>
      </trkpt>
      <trkpt lat="46.77107" lon="5.47708">
        <ele>274.2</ele>
        <time>2012-10-31T15:13:47.000Z</time>
      </trkpt>
      <trkpt lat="46.77104" lon="5.47703">
        <ele>273.7</ele>
        <time>2012-10-31T15:13:51.000Z</time>
      </trkpt>
      <trkpt lat="46.77104" lon="5.47702">
        <ele>273.5</ele>
        <time>2012-10-31T15:13:52.000Z</time>
      </trkpt>
      <trkpt lat="46.77102" lon="5.47696">
        <ele>273</ele>
        <time>2012-10-31T15:13:56.000Z</time>
      </trkpt>
      <trkpt lat="46.77101" lon="5.47694">
        <ele>273</ele>
        <time>2012-10-31T15:13:57.000Z</time>
      </trkpt>
      <trkpt lat="46.77099" lon="5.47689">
        <ele>272.1</ele>
        <time>2012-10-31T15:14:01.000Z</time>
      </trkpt>
      <trkpt lat="46.77098" lon="5.47688">
        <ele>272.2</ele>
        <time>2012-10-31T15:14:02.000Z</time>
      </trkpt>
      <trkpt lat="46.77096" lon="5.47683">
        <ele>272.1</ele>
        <time>2012-10-31T15:14:06.000Z</time>
      </trkpt>
      <trkpt lat="46.77095" lon="5.47682">
        <ele>272</ele>
        <time>2012-10-31T15:14:07.000Z</time>
      </trkpt>
      <trkpt lat="46.77091" lon="5.47678">
        <ele>272</ele>
        <time>2012-10-31T15:14:11.000Z</time>
      </trkpt>
      <trkpt lat="46.7709" lon="5.47677">
        <ele>272.1</ele>
        <time>2012-10-31T15:14:12.000Z</time>
      </trkpt>
      <trkpt lat="46.77087" lon="5.47673">
        <ele>271.7</ele>
        <time>2012-10-31T15:14:16.000Z</time>
      </trkpt>
      <trkpt lat="46.77086" lon="5.47672">
        <ele>271.6</ele>
        <time>2012-10-31T15:14:17.000Z</time>
      </trkpt>
      <trkpt lat="46.77084" lon="5.47668">
        <ele>271.2</ele>
        <time>2012-10-31T15:14:21.000Z</time>
      </trkpt>
      <trkpt lat="46.77083" lon="5.47667">
        <ele>271.1</ele>
        <time>2012-10-31T15:14:22.000Z</time>
      </trkpt>
      <trkpt lat="46.7708" lon="5.47664">
        <ele>270.4</ele>
        <time>2012-10-31T15:14:27.000Z</time>
      </trkpt>
      <trkpt lat="46.77079" lon="5.47663">
        <ele>270.3</ele>
        <time>2012-10-31T15:14:28.000Z</time>
      </trkpt>
      <trkpt lat="46.77076" lon="5.47658">
        <ele>269.4</ele>
        <time>2012-10-31T15:14:33.000Z</time>
      </trkpt>
      <trkpt lat="46.77075" lon="5.47658">
        <ele>269.2</ele>
        <time>2012-10-31T15:14:34.000Z</time>
      </trkpt>
      <trkpt lat="46.77073" lon="5.47654">
        <ele>269</ele>
        <time>2012-10-31T15:15:01.000Z</time>
      </trkpt>
      <trkpt lat="46.77066" lon="5.47646">
        <ele>268.3</ele>
        <time>2012-10-31T15:15:10.000Z</time>
      </trkpt>
      <trkpt lat="46.77063" lon="5.47641">
        <ele>267.9</ele>
        <time>2012-10-31T15:15:15.000Z</time>
      </trkpt>
      <trkpt lat="46.77063" lon="5.4764">
        <ele>267.1</ele>
        <time>2012-10-31T15:15:16.000Z</time>
      </trkpt>
      <trkpt lat="46.77061" lon="5.47636">
        <ele>266.1</ele>
        <time>2012-10-31T15:15:20.000Z</time>
      </trkpt>
      <trkpt lat="46.7706" lon="5.47635">
        <ele>265.8</ele>
        <time>2012-10-31T15:15:21.000Z</time>
      </trkpt>
      <trkpt lat="46.77057" lon="5.47631">
        <ele>265.4</ele>
        <time>2012-10-31T15:15:26.000Z</time>
      </trkpt>
      <trkpt lat="46.77056" lon="5.4763">
        <ele>265.9</ele>
        <time>2012-10-31T15:15:27.000Z</time>
      </trkpt>
      <trkpt lat="46.77054" lon="5.47626">
        <ele>266.6</ele>
        <time>2012-10-31T15:15:31.000Z</time>
      </trkpt>
      <trkpt lat="46.77053" lon="5.47625">
        <ele>266.7</ele>
        <time>2012-10-31T15:15:32.000Z</time>
      </trkpt>
      <trkpt lat="46.7705" lon="5.4762">
        <ele>266.8</ele>
        <time>2012-10-31T15:15:36.000Z</time>
      </trkpt>
      <trkpt lat="46.77049" lon="5.4762">
        <ele>266.7</ele>
        <time>2012-10-31T15:15:37.000Z</time>
      </trkpt>
      <trkpt lat="46.77046" lon="5.47616">
        <ele>266.8</ele>
        <time>2012-10-31T15:15:42.000Z</time>
      </trkpt>
      <trkpt lat="46.77045" lon="5.47615">
        <ele>266.8</ele>
        <time>2012-10-31T15:15:43.000Z</time>
      </trkpt>
      <trkpt lat="46.77043" lon="5.4761">
        <ele>267.1</ele>
        <time>2012-10-31T15:15:54.000Z</time>
      </trkpt>
      <trkpt lat="46.77043" lon="5.47609">
        <ele>267.2</ele>
        <time>2012-10-31T15:15:55.000Z</time>
      </trkpt>
      <trkpt lat="46.77039" lon="5.47605">
        <ele>267.1</ele>
        <time>2012-10-31T15:16:00.000Z</time>
      </trkpt>
      <trkpt lat="46.77039" lon="5.47604">
        <ele>267.1</ele>
        <time>2012-10-31T15:16:01.000Z</time>
      </trkpt>
      <trkpt lat="46.77036" lon="5.476">
        <ele>267.1</ele>
        <time>2012-10-31T15:16:08.000Z</time>
      </trkpt>
      <trkpt lat="46.77036" lon="5.47599">
        <ele>267</ele>
        <time>2012-10-31T15:16:09.000Z</time>
      </trkpt>
      <trkpt lat="46.77033" lon="5.47594">
        <ele>266.3</ele>
        <time>2012-10-31T15:16:45.000Z</time>
      </trkpt>
      <trkpt lat="46.77032" lon="5.47594">
        <ele>266.4</ele>
        <time>2012-10-31T15:16:46.000Z</time>
      </trkpt>
      <trkpt lat="46.77029" lon="5.47591">
        <ele>266.4</ele>
        <time>2012-10-31T15:16:49.000Z</time>
      </trkpt>
      <trkpt lat="46.77028" lon="5.47589">
        <ele>266.2</ele>
        <time>2012-10-31T15:16:50.000Z</time>
      </trkpt>
      <trkpt lat="46.77027" lon="5.47583">
        <ele>265.4</ele>
        <time>2012-10-31T15:16:55.000Z</time>
      </trkpt>
      <trkpt lat="46.77027" lon="5.47582">
        <ele>265.4</ele>
        <time>2012-10-31T15:16:56.000Z</time>
      </trkpt>
      <trkpt lat="46.77024" lon="5.47578">
        <ele>264.5</ele>
        <time>2012-10-31T15:17:02.000Z</time>
      </trkpt>
      <trkpt lat="46.77024" lon="5.47577">
        <ele>264.4</ele>
        <time>2012-10-31T15:17:03.000Z</time>
      </trkpt>
      <trkpt lat="46.77019" lon="5.47576">
        <ele>265</ele>
        <time>2012-10-31T15:17:09.000Z</time>
      </trkpt>
      <trkpt lat="46.77019" lon="5.47575">
        <ele>265.1</ele>
        <time>2012-10-31T15:17:10.000Z</time>
      </trkpt>
      <trkpt lat="46.77016" lon="5.4757">
        <ele>265.1</ele>
        <time>2012-10-31T15:17:14.000Z</time>
      </trkpt>
      <trkpt lat="46.77015" lon="5.47569">
        <ele>265.2</ele>
        <time>2012-10-31T15:17:15.000Z</time>
      </trkpt>
      <trkpt lat="46.77012" lon="5.47565">
        <ele>265.1</ele>
        <time>2012-10-31T15:17:20.000Z</time>
      </trkpt>
      <trkpt lat="46.77011" lon="5.47564">
        <ele>265.1</ele>
        <time>2012-10-31T15:17:21.000Z</time>
      </trkpt>
      <trkpt lat="46.77008" lon="5.4756">
        <ele>264.5</ele>
        <time>2012-10-31T15:17:25.000Z</time>
      </trkpt>
      <trkpt lat="46.77007" lon="5.47559">
        <ele>264.5</ele>
        <time>2012-10-31T15:17:26.000Z</time>
      </trkpt>
      <trkpt lat="46.77004" lon="5.47555">
        <ele>264.5</ele>
        <time>2012-10-31T15:17:30.000Z</time>
      </trkpt>
      <trkpt lat="46.77003" lon="5.47554">
        <ele>264.6</ele>
        <time>2012-10-31T15:17:31.000Z</time>
      </trkpt>
      <trkpt lat="46.77" lon="5.47549">
        <ele>264.8</ele>
        <time>2012-10-31T15:17:35.000Z</time>
      </trkpt>
      <trkpt lat="46.77" lon="5.47548">
        <ele>264.9</ele>
        <time>2012-10-31T15:17:36.000Z</time>
      </trkpt>
      <trkpt lat="46.76997" lon="5.47544">
        <ele>265.2</ele>
        <time>2012-10-31T15:17:39.000Z</time>
      </trkpt>
      <trkpt lat="46.76996" lon="5.47543">
        <ele>265.3</ele>
        <time>2012-10-31T15:17:40.000Z</time>
      </trkpt>
      <trkpt lat="46.76994" lon="5.47539">
        <ele>265.7</ele>
        <time>2012-10-31T15:17:44.000Z</time>
      </trkpt>
      <trkpt lat="46.76993" lon="5.47538">
        <ele>265.9</ele>
        <time>2012-10-31T15:17:45.000Z</time>
      </trkpt>
      <trkpt lat="46.76991" lon="5.47533">
        <ele>265.8</ele>
        <time>2012-10-31T15:17:50.000Z</time>
      </trkpt>
      <trkpt lat="46.7699" lon="5.47532">
        <ele>265.9</ele>
        <time>2012-10-31T15:17:51.000Z</time>
      </trkpt>
      <trkpt lat="46.76987" lon="5.47527">
        <ele>266.2</ele>
        <time>2012-10-31T15:17:56.000Z</time>
      </trkpt>
      <trkpt lat="46.76987" lon="5.47526">
        <ele>266.4</ele>
        <time>2012-10-31T15:17:57.000Z</time>
      </trkpt>
      <trkpt lat="46.76984" lon="5.47523">
        <ele>266.4</ele>
        <time>2012-10-31T15:18:00.000Z</time>
      </trkpt>
      <trkpt lat="46.76984" lon="5.47521">
        <ele>266.5</ele>
        <time>2012-10-31T15:18:01.000Z</time>
      </trkpt>
      <trkpt lat="46.76983" lon="5.4752">
        <ele>266.5</ele>
        <time>2012-10-31T15:18:02.000Z</time>
      </trkpt>
      <trkpt lat="46.7698" lon="5.47514">
        <ele>270.5</ele>
        <time>2012-10-31T15:18:10.000Z</time>
      </trkpt>
      <trkpt lat="46.76979" lon="5.47509">
        <ele>259.8</ele>
        <time>2012-10-31T15:18:17.000Z</time>
      </trkpt>
      <trkpt lat="46.76978" lon="5.47507">
        <ele>259.6</ele>
        <time>2012-10-31T15:18:18.000Z</time>
      </trkpt>
      <trkpt lat="46.76975" lon="5.47503">
        <ele>260.1</ele>
        <time>2012-10-31T15:18:22.000Z</time>
      </trkpt>
      <trkpt lat="46.76975" lon="5.47502">
        <ele>260</ele>
        <time>2012-10-31T15:18:23.000Z</time>
      </trkpt>
      <trkpt lat="46.76972" lon="5.47497">
        <ele>259.7</ele>
        <time>2012-10-31T15:18:28.000Z</time>
      </trkpt>
      <trkpt lat="46.76971" lon="5.47496">
        <ele>259.7</ele>
        <time>2012-10-31T15:18:29.000Z</time>
      </trkpt>
      <trkpt lat="46.76967" lon="5.47493">
        <ele>259.8</ele>
        <time>2012-10-31T15:18:34.000Z</time>
      </trkpt>
      <trkpt lat="46.76967" lon="5.47492">
        <ele>260.1</ele>
        <time>2012-10-31T15:18:35.000Z</time>
      </trkpt>
      <trkpt lat="46.76964" lon="5.47487">
        <ele>259.2</ele>
        <time>2012-10-31T15:18:41.000Z</time>
      </trkpt>
      <trkpt lat="46.76964" lon="5.47486">
        <ele>259.1</ele>
        <time>2012-10-31T15:18:42.000Z</time>
      </trkpt>
      <trkpt lat="46.76961" lon="5.4748">
        <ele>258.8</ele>
        <time>2012-10-31T15:18:47.000Z</time>
      </trkpt>
      <trkpt lat="46.76961" lon="5.47479">
        <ele>258.8</ele>
        <time>2012-10-31T15:18:48.000Z</time>
      </trkpt>
      <trkpt lat="46.76958" lon="5.47474">
        <ele>259.1</ele>
        <time>2012-10-31T15:18:52.000Z</time>
      </trkpt>
      <trkpt lat="46.76957" lon="5.47473">
        <ele>259</ele>
        <time>2012-10-31T15:18:53.000Z</time>
      </trkpt>
      <trkpt lat="46.76955" lon="5.47468">
        <ele>258.4</ele>
        <time>2012-10-31T15:18:57.000Z</time>
      </trkpt>
      <trkpt lat="46.76955" lon="5.47467">
        <ele>258.5</ele>
        <time>2012-10-31T15:18:58.000Z</time>
      </trkpt>
      <trkpt lat="46.76953" lon="5.47462">
        <ele>258.3</ele>
        <time>2012-10-31T15:19:02.000Z</time>
      </trkpt>
      <trkpt lat="46.76947" lon="5.47439">
        <ele>261.7</ele>
        <time>2012-10-31T15:19:09.000Z</time>
      </trkpt>
      <trkpt lat="46.76942" lon="5.47437">
        <ele>260.7</ele>
        <time>2012-10-31T15:19:20.000Z</time>
      </trkpt>
      <trkpt lat="46.76942" lon="5.47436">
        <ele>262.8</ele>
        <time>2012-10-31T15:19:21.000Z</time>
      </trkpt>
      <trkpt lat="46.76938" lon="5.47432">
        <ele>260.1</ele>
        <time>2012-10-31T15:19:30.000Z</time>
      </trkpt>
      <trkpt lat="46.76938" lon="5.47432">
        <ele>260.1</ele>
        <time>2012-10-31T15:19:31.000Z</time>
      </trkpt>
      <trkpt lat="46.76934" lon="5.4743">
        <ele>258.5</ele>
        <time>2012-10-31T15:19:38.000Z</time>
      </trkpt>
      <trkpt lat="46.76933" lon="5.47429">
        <ele>258.7</ele>
        <time>2012-10-31T15:19:39.000Z</time>
      </trkpt>
      <trkpt lat="46.76931" lon="5.47425">
        <ele>259.5</ele>
        <time>2012-10-31T15:19:43.000Z</time>
      </trkpt>
      <trkpt lat="46.7693" lon="5.47423">
        <ele>259.6</ele>
        <time>2012-10-31T15:19:44.000Z</time>
      </trkpt>
      <trkpt lat="46.76928" lon="5.47418">
        <ele>259.2</ele>
        <time>2012-10-31T15:19:48.000Z</time>
      </trkpt>
      <trkpt lat="46.76927" lon="5.47417">
        <ele>259.1</ele>
        <time>2012-10-31T15:19:49.000Z</time>
      </trkpt>
      <trkpt lat="46.76924" lon="5.47413">
        <ele>258.3</ele>
        <time>2012-10-31T15:19:53.000Z</time>
      </trkpt>
      <trkpt lat="46.76924" lon="5.47412">
        <ele>258.3</ele>
        <time>2012-10-31T15:19:54.000Z</time>
      </trkpt>
      <trkpt lat="46.76921" lon="5.47408">
        <ele>257.6</ele>
        <time>2012-10-31T15:19:58.000Z</time>
      </trkpt>
      <trkpt lat="46.76921" lon="5.47407">
        <ele>257.7</ele>
        <time>2012-10-31T15:19:59.000Z</time>
      </trkpt>
      <trkpt lat="46.76918" lon="5.47403">
        <ele>258.1</ele>
        <time>2012-10-31T15:20:03.000Z</time>
      </trkpt>
      <trkpt lat="46.76917" lon="5.47402">
        <ele>258.3</ele>
        <time>2012-10-31T15:20:04.000Z</time>
      </trkpt>
      <trkpt lat="46.76913" lon="5.47399">
        <ele>258.5</ele>
        <time>2012-10-31T15:20:09.000Z</time>
      </trkpt>
      <trkpt lat="46.76913" lon="5.47398">
        <ele>258.6</ele>
        <time>2012-10-31T15:20:10.000Z</time>
      </trkpt>
      <trkpt lat="46.76909" lon="5.47394">
        <ele>258.8</ele>
        <time>2012-10-31T15:20:15.000Z</time>
      </trkpt>
      <trkpt lat="46.76908" lon="5.47393">
        <ele>258.9</ele>
        <time>2012-10-31T15:20:16.000Z</time>
      </trkpt>
      <trkpt lat="46.76906" lon="5.47388">
        <ele>259</ele>
        <time>2012-10-31T15:20:20.000Z</time>
      </trkpt>
      <trkpt lat="46.76906" lon="5.47387">
        <ele>259.1</ele>
        <time>2012-10-31T15:20:21.000Z</time>
      </trkpt>
      <trkpt lat="46.76905" lon="5.47381">
        <ele>259.7</ele>
        <time>2012-10-31T15:20:25.000Z</time>
      </trkpt>
      <trkpt lat="46.76905" lon="5.4738">
        <ele>259.9</ele>
        <time>2012-10-31T15:20:26.000Z</time>
      </trkpt>
      <trkpt lat="46.76904" lon="5.47374">
        <ele>259.2</ele>
        <time>2012-10-31T15:20:39.000Z</time>
      </trkpt>
      <trkpt lat="46.76903" lon="5.47373">
        <ele>259.1</ele>
        <time>2012-10-31T15:20:40.000Z</time>
      </trkpt>
      <trkpt lat="46.76905" lon="5.47366">
        <ele>258.8</ele>
        <time>2012-10-31T15:20:45.000Z</time>
      </trkpt>
      <trkpt lat="46.76905" lon="5.47365">
        <ele>258.8</ele>
        <time>2012-10-31T15:20:46.000Z</time>
      </trkpt>
      <trkpt lat="46.76908" lon="5.47362">
        <ele>257.8</ele>
        <time>2012-10-31T15:20:52.000Z</time>
      </trkpt>
      <trkpt lat="46.76908" lon="5.47361">
        <ele>257.6</ele>
        <time>2012-10-31T15:20:53.000Z</time>
      </trkpt>
      <trkpt lat="46.7691" lon="5.47356">
        <ele>257.2</ele>
        <time>2012-10-31T15:20:57.000Z</time>
      </trkpt>
      <trkpt lat="46.76911" lon="5.47355">
        <ele>257.2</ele>
        <time>2012-10-31T15:20:58.000Z</time>
      </trkpt>
      <trkpt lat="46.76912" lon="5.47349">
        <ele>257.3</ele>
        <time>2012-10-31T15:21:02.000Z</time>
      </trkpt>
      <trkpt lat="46.76913" lon="5.47347">
        <ele>257.3</ele>
        <time>2012-10-31T15:21:03.000Z</time>
      </trkpt>
      <trkpt lat="46.76914" lon="5.47342">
        <ele>257.8</ele>
        <time>2012-10-31T15:21:06.000Z</time>
      </trkpt>
      <trkpt lat="46.76914" lon="5.4734">
        <ele>257.7</ele>
        <time>2012-10-31T15:21:07.000Z</time>
      </trkpt>
      <trkpt lat="46.76916" lon="5.47334">
        <ele>257.5</ele>
        <time>2012-10-31T15:21:11.000Z</time>
      </trkpt>
      <trkpt lat="46.76917" lon="5.47333">
        <ele>257.6</ele>
        <time>2012-10-31T15:21:12.000Z</time>
      </trkpt>
      <trkpt lat="46.76918" lon="5.47327">
        <ele>257.8</ele>
        <time>2012-10-31T15:21:16.000Z</time>
      </trkpt>
      <trkpt lat="46.76918" lon="5.47326">
        <ele>257.8</ele>
        <time>2012-10-31T15:21:17.000Z</time>
      </trkpt>
      <trkpt lat="46.76919" lon="5.47319">
        <ele>258.1</ele>
        <time>2012-10-31T15:21:21.000Z</time>
      </trkpt>
      <trkpt lat="46.76919" lon="5.47318">
        <ele>258.1</ele>
        <time>2012-10-31T15:21:22.000Z</time>
      </trkpt>
      <trkpt lat="46.76921" lon="5.47313">
        <ele>258.3</ele>
        <time>2012-10-31T15:21:27.000Z</time>
      </trkpt>
      <trkpt lat="46.76921" lon="5.47312">
        <ele>258.4</ele>
        <time>2012-10-31T15:21:28.000Z</time>
      </trkpt>
      <trkpt lat="46.76923" lon="5.47306">
        <ele>258.8</ele>
        <time>2012-10-31T15:21:33.000Z</time>
      </trkpt>
      <trkpt lat="46.76923" lon="5.47305">
        <ele>258.7</ele>
        <time>2012-10-31T15:21:34.000Z</time>
      </trkpt>
      <trkpt lat="46.76924" lon="5.47299">
        <ele>259</ele>
        <time>2012-10-31T15:21:39.000Z</time>
      </trkpt>
      <trkpt lat="46.76924" lon="5.47298">
        <ele>259</ele>
        <time>2012-10-31T15:21:40.000Z</time>
      </trkpt>
      <trkpt lat="46.76925" lon="5.47292">
        <ele>259</ele>
        <time>2012-10-31T15:21:45.000Z</time>
      </trkpt>
      <trkpt lat="46.76925" lon="5.47291">
        <ele>259.2</ele>
        <time>2012-10-31T15:21:46.000Z</time>
      </trkpt>
      <trkpt lat="46.76925" lon="5.47284">
        <ele>260.3</ele>
        <time>2012-10-31T15:21:51.000Z</time>
      </trkpt>
      <trkpt lat="46.76925" lon="5.47283">
        <ele>260.5</ele>
        <time>2012-10-31T15:21:52.000Z</time>
      </trkpt>
      <trkpt lat="46.76926" lon="5.47277">
        <ele>261</ele>
        <time>2012-10-31T15:21:56.000Z</time>
      </trkpt>
      <trkpt lat="46.76926" lon="5.47276">
        <ele>261.1</ele>
        <time>2012-10-31T15:21:57.000Z</time>
      </trkpt>
      <trkpt lat="46.76926" lon="5.47269">
        <ele>260.5</ele>
        <time>2012-10-31T15:22:09.000Z</time>
      </trkpt>
      <trkpt lat="46.76926" lon="5.47269">
        <ele>260.6</ele>
        <time>2012-10-31T15:22:10.000Z</time>
      </trkpt>
      <trkpt lat="46.76926" lon="5.47263">
        <ele>260.7</ele>
        <time>2012-10-31T15:22:15.000Z</time>
      </trkpt>
      <trkpt lat="46.76926" lon="5.47261">
        <ele>260.7</ele>
        <time>2012-10-31T15:22:16.000Z</time>
      </trkpt>
      <trkpt lat="46.76927" lon="5.47256">
        <ele>260.6</ele>
        <time>2012-10-31T15:22:20.000Z</time>
      </trkpt>
      <trkpt lat="46.76927" lon="5.47254">
        <ele>260.6</ele>
        <time>2012-10-31T15:22:21.000Z</time>
      </trkpt>
      <trkpt lat="46.76926" lon="5.47248">
        <ele>261.2</ele>
        <time>2012-10-31T15:22:25.000Z</time>
      </trkpt>
      <trkpt lat="46.76926" lon="5.47247">
        <ele>261.5</ele>
        <time>2012-10-31T15:22:26.000Z</time>
      </trkpt>
      <trkpt lat="46.76926" lon="5.47241">
        <ele>262.1</ele>
        <time>2012-10-31T15:22:31.000Z</time>
      </trkpt>
      <trkpt lat="46.76926" lon="5.47239">
        <ele>262.3</ele>
        <time>2012-10-31T15:22:32.000Z</time>
      </trkpt>
      <trkpt lat="46.76926" lon="5.47234">
        <ele>263.1</ele>
        <time>2012-10-31T15:22:36.000Z</time>
      </trkpt>
      <trkpt lat="46.76926" lon="5.47232">
        <ele>263.2</ele>
        <time>2012-10-31T15:22:37.000Z</time>
      </trkpt>
      <trkpt lat="46.76926" lon="5.47227">
        <ele>263.9</ele>
        <time>2012-10-31T15:22:41.000Z</time>
      </trkpt>
      <trkpt lat="46.76926" lon="5.47226">
        <ele>264</ele>
        <time>2012-10-31T15:22:42.000Z</time>
      </trkpt>
      <trkpt lat="46.76924" lon="5.47219">
        <ele>264.5</ele>
        <time>2012-10-31T15:22:46.000Z</time>
      </trkpt>
      <trkpt lat="46.76924" lon="5.47218">
        <ele>264.8</ele>
        <time>2012-10-31T15:22:47.000Z</time>
      </trkpt>
      <trkpt lat="46.76924" lon="5.47212">
        <ele>265.5</ele>
        <time>2012-10-31T15:22:51.000Z</time>
      </trkpt>
      <trkpt lat="46.76923" lon="5.4721">
        <ele>265.6</ele>
        <time>2012-10-31T15:22:52.000Z</time>
      </trkpt>
      <trkpt lat="46.76922" lon="5.47205">
        <ele>266.5</ele>
        <time>2012-10-31T15:22:56.000Z</time>
      </trkpt>
      <trkpt lat="46.76921" lon="5.47203">
        <ele>266.7</ele>
        <time>2012-10-31T15:22:57.000Z</time>
      </trkpt>
      <trkpt lat="46.7692" lon="5.47197">
        <ele>267.5</ele>
        <time>2012-10-31T15:23:01.000Z</time>
      </trkpt>
      <trkpt lat="46.76919" lon="5.47196">
        <ele>267.7</ele>
        <time>2012-10-31T15:23:02.000Z</time>
      </trkpt>
      <trkpt lat="46.76918" lon="5.47191">
        <ele>268.4</ele>
        <time>2012-10-31T15:23:05.000Z</time>
      </trkpt>
      <trkpt lat="46.76918" lon="5.47189">
        <ele>268.7</ele>
        <time>2012-10-31T15:23:06.000Z</time>
      </trkpt>
      <trkpt lat="46.76917" lon="5.47184">
        <ele>269.1</ele>
        <time>2012-10-31T15:23:09.000Z</time>
      </trkpt>
      <trkpt lat="46.76917" lon="5.47182">
        <ele>269.3</ele>
        <time>2012-10-31T15:23:10.000Z</time>
      </trkpt>
      <trkpt lat="46.76917" lon="5.47176">
        <ele>269.8</ele>
        <time>2012-10-31T15:23:14.000Z</time>
      </trkpt>
      <trkpt lat="46.76917" lon="5.47175">
        <ele>269.9</ele>
        <time>2012-10-31T15:23:15.000Z</time>
      </trkpt>
      <trkpt lat="46.76918" lon="5.47169">
        <ele>269.9</ele>
        <time>2012-10-31T15:23:20.000Z</time>
      </trkpt>
      <trkpt lat="46.76918" lon="5.47168">
        <ele>269.9</ele>
        <time>2012-10-31T15:23:21.000Z</time>
      </trkpt>
      <trkpt lat="46.76918" lon="5.47162">
        <ele>270.3</ele>
        <time>2012-10-31T15:23:25.000Z</time>
      </trkpt>
      <trkpt lat="46.76918" lon="5.47161">
        <ele>270.3</ele>
        <time>2012-10-31T15:23:26.000Z</time>
      </trkpt>
      <trkpt lat="46.76917" lon="5.47154">
        <ele>271.1</ele>
        <time>2012-10-31T15:23:30.000Z</time>
      </trkpt>
      <trkpt lat="46.76917" lon="5.47153">
        <ele>271.2</ele>
        <time>2012-10-31T15:23:31.000Z</time>
      </trkpt>
      <trkpt lat="46.76916" lon="5.47147">
        <ele>271.4</ele>
        <time>2012-10-31T15:23:35.000Z</time>
      </trkpt>
      <trkpt lat="46.76916" lon="5.47146">
        <ele>271.5</ele>
        <time>2012-10-31T15:23:36.000Z</time>
      </trkpt>
      <trkpt lat="46.76916" lon="5.4714">
        <ele>271.8</ele>
        <time>2012-10-31T15:23:40.000Z</time>
      </trkpt>
      <trkpt lat="46.76916" lon="5.47139">
        <ele>271.7</ele>
        <time>2012-10-31T15:23:41.000Z</time>
      </trkpt>
      <trkpt lat="46.76916" lon="5.47134">
        <ele>271.5</ele>
        <time>2012-10-31T15:23:45.000Z</time>
      </trkpt>
      <trkpt lat="46.76916" lon="5.47133">
        <ele>271.4</ele>
        <time>2012-10-31T15:23:46.000Z</time>
      </trkpt>
      <trkpt lat="46.76916" lon="5.47126">
        <ele>270.7</ele>
        <time>2012-10-31T15:23:50.000Z</time>
      </trkpt>
      <trkpt lat="46.76917" lon="5.47124">
        <ele>270.9</ele>
        <time>2012-10-31T15:23:51.000Z</time>
      </trkpt>
      <trkpt lat="46.76917" lon="5.47119">
        <ele>271.3</ele>
        <time>2012-10-31T15:23:54.000Z</time>
      </trkpt>
      <trkpt lat="46.76917" lon="5.47118">
        <ele>271.3</ele>
        <time>2012-10-31T15:23:55.000Z</time>
      </trkpt>
      <trkpt lat="46.76917" lon="5.47111">
        <ele>271.7</ele>
        <time>2012-10-31T15:23:59.000Z</time>
      </trkpt>
      <trkpt lat="46.76918" lon="5.4711">
        <ele>271.7</ele>
        <time>2012-10-31T15:24:00.000Z</time>
      </trkpt>
      <trkpt lat="46.76918" lon="5.47105">
        <ele>271.9</ele>
        <time>2012-10-31T15:24:03.000Z</time>
      </trkpt>
      <trkpt lat="46.76919" lon="5.47103">
        <ele>272</ele>
        <time>2012-10-31T15:24:04.000Z</time>
      </trkpt>
      <trkpt lat="46.76922" lon="5.47089">
        <ele>270.8</ele>
        <time>2012-10-31T15:24:12.000Z</time>
      </trkpt>
      <trkpt lat="46.76921" lon="5.47083">
        <ele>272.3</ele>
        <time>2012-10-31T15:24:14.000Z</time>
      </trkpt>
      <trkpt lat="46.7692" lon="5.47082">
        <ele>272</ele>
        <time>2012-10-31T15:24:15.000Z</time>
      </trkpt>
      <trkpt lat="46.76921" lon="5.47077">
        <ele>268</ele>
        <time>2012-10-31T15:24:22.000Z</time>
      </trkpt>
      <trkpt lat="46.76922" lon="5.47075">
        <ele>268.3</ele>
        <time>2012-10-31T15:24:23.000Z</time>
      </trkpt>
      <trkpt lat="46.76923" lon="5.47069">
        <ele>268.2</ele>
        <time>2012-10-31T15:24:27.000Z</time>
      </trkpt>
      <trkpt lat="46.76923" lon="5.47068">
        <ele>268</ele>
        <time>2012-10-31T15:24:28.000Z</time>
      </trkpt>
      <trkpt lat="46.76922" lon="5.47062">
        <ele>268</ele>
        <time>2012-10-31T15:24:32.000Z</time>
      </trkpt>
      <trkpt lat="46.76922" lon="5.4706">
        <ele>267.6</ele>
        <time>2012-10-31T15:24:33.000Z</time>
      </trkpt>
      <trkpt lat="46.76921" lon="5.47054">
        <ele>268</ele>
        <time>2012-10-31T15:24:37.000Z</time>
      </trkpt>
      <trkpt lat="46.76921" lon="5.47053">
        <ele>268.5</ele>
        <time>2012-10-31T15:24:38.000Z</time>
      </trkpt>
      <trkpt lat="46.7692" lon="5.47047">
        <ele>269.5</ele>
        <time>2012-10-31T15:24:41.000Z</time>
      </trkpt>
      <trkpt lat="46.76919" lon="5.47045">
        <ele>270</ele>
        <time>2012-10-31T15:24:42.000Z</time>
      </trkpt>
      <trkpt lat="46.76917" lon="5.47039">
        <ele>270.4</ele>
        <time>2012-10-31T15:24:46.000Z</time>
      </trkpt>
      <trkpt lat="46.76917" lon="5.47037">
        <ele>270.9</ele>
        <time>2012-10-31T15:24:47.000Z</time>
      </trkpt>
      <trkpt lat="46.76916" lon="5.47032">
        <ele>270.9</ele>
        <time>2012-10-31T15:24:51.000Z</time>
      </trkpt>
      <trkpt lat="46.76916" lon="5.4703">
        <ele>270.9</ele>
        <time>2012-10-31T15:24:52.000Z</time>
      </trkpt>
      <trkpt lat="46.76915" lon="5.47024">
        <ele>270.5</ele>
        <time>2012-10-31T15:24:57.000Z</time>
      </trkpt>
      <trkpt lat="46.76915" lon="5.47023">
        <ele>270.5</ele>
        <time>2012-10-31T15:24:58.000Z</time>
      </trkpt>
      <trkpt lat="46.76914" lon="5.47018">
        <ele>271.5</ele>
        <time>2012-10-31T15:25:12.000Z</time>
      </trkpt>
      <trkpt lat="46.76914" lon="5.47017">
        <ele>271.5</ele>
        <time>2012-10-31T15:25:13.000Z</time>
      </trkpt>
      <trkpt lat="46.76915" lon="5.47011">
        <ele>269.8</ele>
        <time>2012-10-31T15:25:17.000Z</time>
      </trkpt>
      <trkpt lat="46.76916" lon="5.4701">
        <ele>269.7</ele>
        <time>2012-10-31T15:25:18.000Z</time>
      </trkpt>
      <trkpt lat="46.76918" lon="5.47006">
        <ele>270.1</ele>
        <time>2012-10-31T15:25:22.000Z</time>
      </trkpt>
      <trkpt lat="46.76918" lon="5.47005">
        <ele>270.1</ele>
        <time>2012-10-31T15:25:23.000Z</time>
      </trkpt>
      <trkpt lat="46.7692" lon="5.46999">
        <ele>270.5</ele>
        <time>2012-10-31T15:25:28.000Z</time>
      </trkpt>
      <trkpt lat="46.7692" lon="5.46997">
        <ele>270.6</ele>
        <time>2012-10-31T15:25:29.000Z</time>
      </trkpt>
      <trkpt lat="46.7692" lon="5.46991">
        <ele>271.2</ele>
        <time>2012-10-31T15:25:33.000Z</time>
      </trkpt>
      <trkpt lat="46.7692" lon="5.4699">
        <ele>271.4</ele>
        <time>2012-10-31T15:25:34.000Z</time>
      </trkpt>
      <trkpt lat="46.76919" lon="5.46984">
        <ele>272.1</ele>
        <time>2012-10-31T15:25:38.000Z</time>
      </trkpt>
      <trkpt lat="46.76919" lon="5.46982">
        <ele>272.3</ele>
        <time>2012-10-31T15:25:39.000Z</time>
      </trkpt>
      <trkpt lat="46.76918" lon="5.46977">
        <ele>272.6</ele>
        <time>2012-10-31T15:25:43.000Z</time>
      </trkpt>
      <trkpt lat="46.76918" lon="5.46975">
        <ele>272.6</ele>
        <time>2012-10-31T15:25:44.000Z</time>
      </trkpt>
      <trkpt lat="46.76917" lon="5.46969">
        <ele>272.2</ele>
        <time>2012-10-31T15:25:48.000Z</time>
      </trkpt>
      <trkpt lat="46.76918" lon="5.46967">
        <ele>272.1</ele>
        <time>2012-10-31T15:25:49.000Z</time>
      </trkpt>
      <trkpt lat="46.76918" lon="5.46961">
        <ele>272.1</ele>
        <time>2012-10-31T15:25:54.000Z</time>
      </trkpt>
      <trkpt lat="46.76918" lon="5.4696">
        <ele>272.1</ele>
        <time>2012-10-31T15:25:55.000Z</time>
      </trkpt>
      <trkpt lat="46.76917" lon="5.46955">
        <ele>272.1</ele>
        <time>2012-10-31T15:25:58.000Z</time>
      </trkpt>
      <trkpt lat="46.76916" lon="5.46954">
        <ele>272.2</ele>
        <time>2012-10-31T15:25:59.000Z</time>
      </trkpt>
      <trkpt lat="46.76914" lon="5.46949">
        <ele>272.8</ele>
        <time>2012-10-31T15:26:02.000Z</time>
      </trkpt>
      <trkpt lat="46.76913" lon="5.46948">
        <ele>272.9</ele>
        <time>2012-10-31T15:26:03.000Z</time>
      </trkpt>
      <trkpt lat="46.76912" lon="5.46943">
        <ele>272.2</ele>
        <time>2012-10-31T15:26:09.000Z</time>
      </trkpt>
      <trkpt lat="46.76912" lon="5.46942">
        <ele>273.6</ele>
        <time>2012-10-31T15:26:10.000Z</time>
      </trkpt>
      <trkpt lat="46.7691" lon="5.46937">
        <ele>273.7</ele>
        <time>2012-10-31T15:26:13.000Z</time>
      </trkpt>
      <trkpt lat="46.7691" lon="5.46935">
        <ele>273.8</ele>
        <time>2012-10-31T15:26:14.000Z</time>
      </trkpt>
      <trkpt lat="46.76908" lon="5.4693">
        <ele>274.1</ele>
        <time>2012-10-31T15:26:17.000Z</time>
      </trkpt>
      <trkpt lat="46.76907" lon="5.46928">
        <ele>274.1</ele>
        <time>2012-10-31T15:26:18.000Z</time>
      </trkpt>
      <trkpt lat="46.76905" lon="5.46923">
        <ele>274.3</ele>
        <time>2012-10-31T15:26:21.000Z</time>
      </trkpt>
      <trkpt lat="46.76904" lon="5.46922">
        <ele>274.4</ele>
        <time>2012-10-31T15:26:22.000Z</time>
      </trkpt>
      <trkpt lat="46.76904" lon="5.46917">
        <ele>274.7</ele>
        <time>2012-10-31T15:26:25.000Z</time>
      </trkpt>
      <trkpt lat="46.76905" lon="5.46915">
        <ele>274.8</ele>
        <time>2012-10-31T15:26:26.000Z</time>
      </trkpt>
      <trkpt lat="46.76905" lon="5.46909">
        <ele>274.6</ele>
        <time>2012-10-31T15:26:30.000Z</time>
      </trkpt>
      <trkpt lat="46.76905" lon="5.46907">
        <ele>274.4</ele>
        <time>2012-10-31T15:26:31.000Z</time>
      </trkpt>
      <trkpt lat="46.76906" lon="5.46901">
        <ele>274.5</ele>
        <time>2012-10-31T15:26:36.000Z</time>
      </trkpt>
      <trkpt lat="46.76906" lon="5.469">
        <ele>274.6</ele>
        <time>2012-10-31T15:26:37.000Z</time>
      </trkpt>
      <trkpt lat="46.76906" lon="5.46894">
        <ele>274.7</ele>
        <time>2012-10-31T15:26:42.000Z</time>
      </trkpt>
      <trkpt lat="46.76906" lon="5.46892">
        <ele>274.6</ele>
        <time>2012-10-31T15:26:43.000Z</time>
      </trkpt>
      <trkpt lat="46.76906" lon="5.46887">
        <ele>274.6</ele>
        <time>2012-10-31T15:26:47.000Z</time>
      </trkpt>
      <trkpt lat="46.76905" lon="5.46885">
        <ele>274.5</ele>
        <time>2012-10-31T15:26:48.000Z</time>
      </trkpt>
      <trkpt lat="46.76906" lon="5.46879">
        <ele>273.8</ele>
        <time>2012-10-31T15:26:52.000Z</time>
      </trkpt>
      <trkpt lat="46.76906" lon="5.46878">
        <ele>273.8</ele>
        <time>2012-10-31T15:26:53.000Z</time>
      </trkpt>
      <trkpt lat="46.76905" lon="5.46872">
        <ele>273.7</ele>
        <time>2012-10-31T15:26:57.000Z</time>
      </trkpt>
      <trkpt lat="46.76905" lon="5.46871">
        <ele>273.7</ele>
        <time>2012-10-31T15:26:58.000Z</time>
      </trkpt>
      <trkpt lat="46.76906" lon="5.46865">
        <ele>274</ele>
        <time>2012-10-31T15:27:02.000Z</time>
      </trkpt>
      <trkpt lat="46.76906" lon="5.46863">
        <ele>274</ele>
        <time>2012-10-31T15:27:03.000Z</time>
      </trkpt>
      <trkpt lat="46.76906" lon="5.46857">
        <ele>273.5</ele>
        <time>2012-10-31T15:27:08.000Z</time>
      </trkpt>
      <trkpt lat="46.76906" lon="5.46856">
        <ele>273.6</ele>
        <time>2012-10-31T15:27:09.000Z</time>
      </trkpt>
      <trkpt lat="46.76907" lon="5.4685">
        <ele>273.7</ele>
        <time>2012-10-31T15:27:13.000Z</time>
      </trkpt>
      <trkpt lat="46.76907" lon="5.46849">
        <ele>273.8</ele>
        <time>2012-10-31T15:27:14.000Z</time>
      </trkpt>
      <trkpt lat="46.76906" lon="5.46844">
        <ele>274.7</ele>
        <time>2012-10-31T15:27:18.000Z</time>
      </trkpt>
      <trkpt lat="46.76906" lon="5.46842">
        <ele>275.1</ele>
        <time>2012-10-31T15:27:19.000Z</time>
      </trkpt>
      <trkpt lat="46.76905" lon="5.46836">
        <ele>275.5</ele>
        <time>2012-10-31T15:27:23.000Z</time>
      </trkpt>
      <trkpt lat="46.76905" lon="5.46835">
        <ele>275.6</ele>
        <time>2012-10-31T15:27:24.000Z</time>
      </trkpt>
      <trkpt lat="46.76905" lon="5.46828">
        <ele>275.8</ele>
        <time>2012-10-31T15:27:28.000Z</time>
      </trkpt>
      <trkpt lat="46.76905" lon="5.46827">
        <ele>275.8</ele>
        <time>2012-10-31T15:27:29.000Z</time>
      </trkpt>
      <trkpt lat="46.76906" lon="5.46821">
        <ele>276.1</ele>
        <time>2012-10-31T15:27:33.000Z</time>
      </trkpt>
      <trkpt lat="46.76906" lon="5.46819">
        <ele>276</ele>
        <time>2012-10-31T15:27:34.000Z</time>
      </trkpt>
      <trkpt lat="46.76905" lon="5.46813">
        <ele>276.2</ele>
        <time>2012-10-31T15:27:38.000Z</time>
      </trkpt>
      <trkpt lat="46.76905" lon="5.46811">
        <ele>276.4</ele>
        <time>2012-10-31T15:27:39.000Z</time>
      </trkpt>
      <trkpt lat="46.76903" lon="5.46806">
        <ele>277.2</ele>
        <time>2012-10-31T15:27:43.000Z</time>
      </trkpt>
      <trkpt lat="46.76903" lon="5.46804">
        <ele>277.3</ele>
        <time>2012-10-31T15:27:44.000Z</time>
      </trkpt>
      <trkpt lat="46.76903" lon="5.46798">
        <ele>277.7</ele>
        <time>2012-10-31T15:27:48.000Z</time>
      </trkpt>
      <trkpt lat="46.76903" lon="5.46796">
        <ele>277.7</ele>
        <time>2012-10-31T15:27:49.000Z</time>
      </trkpt>
      <trkpt lat="46.76903" lon="5.46791">
        <ele>277.8</ele>
        <time>2012-10-31T15:27:52.000Z</time>
      </trkpt>
      <trkpt lat="46.76903" lon="5.46789">
        <ele>278</ele>
        <time>2012-10-31T15:27:53.000Z</time>
      </trkpt>
      <trkpt lat="46.76903" lon="5.46783">
        <ele>278.1</ele>
        <time>2012-10-31T15:27:56.000Z</time>
      </trkpt>
      <trkpt lat="46.76903" lon="5.46781">
        <ele>278.3</ele>
        <time>2012-10-31T15:27:57.000Z</time>
      </trkpt>
      <trkpt lat="46.76904" lon="5.46776">
        <ele>278.5</ele>
        <time>2012-10-31T15:28:00.000Z</time>
      </trkpt>
      <trkpt lat="46.76904" lon="5.46775">
        <ele>278.6</ele>
        <time>2012-10-31T15:28:01.000Z</time>
      </trkpt>
      <trkpt lat="46.76902" lon="5.46769">
        <ele>278.7</ele>
        <time>2012-10-31T15:28:05.000Z</time>
      </trkpt>
      <trkpt lat="46.76902" lon="5.46767">
        <ele>278.8</ele>
        <time>2012-10-31T15:28:06.000Z</time>
      </trkpt>
      <trkpt lat="46.76902" lon="5.46761">
        <ele>278.8</ele>
        <time>2012-10-31T15:28:10.000Z</time>
      </trkpt>
      <trkpt lat="46.76902" lon="5.4676">
        <ele>278.7</ele>
        <time>2012-10-31T15:28:11.000Z</time>
      </trkpt>
      <trkpt lat="46.76901" lon="5.46754">
        <ele>278.6</ele>
        <time>2012-10-31T15:28:15.000Z</time>
      </trkpt>
      <trkpt lat="46.76901" lon="5.46752">
        <ele>278.7</ele>
        <time>2012-10-31T15:28:16.000Z</time>
      </trkpt>
      <trkpt lat="46.76901" lon="5.46746">
        <ele>279.1</ele>
        <time>2012-10-31T15:28:20.000Z</time>
      </trkpt>
      <trkpt lat="46.76901" lon="5.46744">
        <ele>279.2</ele>
        <time>2012-10-31T15:28:21.000Z</time>
      </trkpt>
      <trkpt lat="46.769" lon="5.46739">
        <ele>279.2</ele>
        <time>2012-10-31T15:28:25.000Z</time>
      </trkpt>
      <trkpt lat="46.769" lon="5.46737">
        <ele>279.3</ele>
        <time>2012-10-31T15:28:26.000Z</time>
      </trkpt>
      <trkpt lat="46.76899" lon="5.46731">
        <ele>279.3</ele>
        <time>2012-10-31T15:28:30.000Z</time>
      </trkpt>
      <trkpt lat="46.76899" lon="5.4673">
        <ele>279.1</ele>
        <time>2012-10-31T15:28:31.000Z</time>
      </trkpt>
      <trkpt lat="46.76899" lon="5.46724">
        <ele>278.5</ele>
        <time>2012-10-31T15:28:35.000Z</time>
      </trkpt>
      <trkpt lat="46.769" lon="5.46723">
        <ele>278.1</ele>
        <time>2012-10-31T15:28:36.000Z</time>
      </trkpt>
      <trkpt lat="46.769" lon="5.46717">
        <ele>277.9</ele>
        <time>2012-10-31T15:28:40.000Z</time>
      </trkpt>
      <trkpt lat="46.769" lon="5.46715">
        <ele>277.9</ele>
        <time>2012-10-31T15:28:41.000Z</time>
      </trkpt>
      <trkpt lat="46.76901" lon="5.4671">
        <ele>277.3</ele>
        <time>2012-10-31T15:28:44.000Z</time>
      </trkpt>
      <trkpt lat="46.76902" lon="5.46708">
        <ele>277.4</ele>
        <time>2012-10-31T15:28:45.000Z</time>
      </trkpt>
      <trkpt lat="46.76903" lon="5.46704">
        <ele>276.3</ele>
        <time>2012-10-31T15:28:47.000Z</time>
      </trkpt>
      <trkpt lat="46.76903" lon="5.46702">
        <ele>275.7</ele>
        <time>2012-10-31T15:28:48.000Z</time>
      </trkpt>
      <trkpt lat="46.76904" lon="5.46697">
        <ele>275.9</ele>
        <time>2012-10-31T15:28:50.000Z</time>
      </trkpt>
      <trkpt lat="46.76904" lon="5.46695">
        <ele>276.1</ele>
        <time>2012-10-31T15:28:51.000Z</time>
      </trkpt>
      <trkpt lat="46.76905" lon="5.46689">
        <ele>276.8</ele>
        <time>2012-10-31T15:28:54.000Z</time>
      </trkpt>
      <trkpt lat="46.76906" lon="5.46687">
        <ele>274.1</ele>
        <time>2012-10-31T15:28:55.000Z</time>
      </trkpt>
      <trkpt lat="46.76907" lon="5.4668">
        <ele>273</ele>
        <time>2012-10-31T15:28:58.000Z</time>
      </trkpt>
      <trkpt lat="46.76908" lon="5.46678">
        <ele>272.7</ele>
        <time>2012-10-31T15:28:59.000Z</time>
      </trkpt>
      <trkpt lat="46.76911" lon="5.46673">
        <ele>272.6</ele>
        <time>2012-10-31T15:29:01.000Z</time>
      </trkpt>
      <trkpt lat="46.76912" lon="5.46671">
        <ele>272.5</ele>
        <time>2012-10-31T15:29:02.000Z</time>
      </trkpt>
      <trkpt lat="46.76913" lon="5.46667">
        <ele>271.7</ele>
        <time>2012-10-31T15:29:05.000Z</time>
      </trkpt>
      <trkpt lat="46.76914" lon="5.46665">
        <ele>271.6</ele>
        <time>2012-10-31T15:29:06.000Z</time>
      </trkpt>
      <trkpt lat="46.76916" lon="5.4666">
        <ele>270.9</ele>
        <time>2012-10-31T15:29:10.000Z</time>
      </trkpt>
      <trkpt lat="46.76916" lon="5.46659">
        <ele>270.9</ele>
        <time>2012-10-31T15:29:11.000Z</time>
      </trkpt>
      <trkpt lat="46.76917" lon="5.46652">
        <ele>271.9</ele>
        <time>2012-10-31T15:29:15.000Z</time>
      </trkpt>
      <trkpt lat="46.76917" lon="5.46651">
        <ele>271.9</ele>
        <time>2012-10-31T15:29:16.000Z</time>
      </trkpt>
      <trkpt lat="46.76919" lon="5.46646">
        <ele>270.9</ele>
        <time>2012-10-31T15:29:21.000Z</time>
      </trkpt>
      <trkpt lat="46.76919" lon="5.46644">
        <ele>270.8</ele>
        <time>2012-10-31T15:29:22.000Z</time>
      </trkpt>
      <trkpt lat="46.76921" lon="5.46639">
        <ele>271.1</ele>
        <time>2012-10-31T15:29:26.000Z</time>
      </trkpt>
      <trkpt lat="46.76921" lon="5.46638">
        <ele>271.1</ele>
        <time>2012-10-31T15:29:27.000Z</time>
      </trkpt>
      <trkpt lat="46.76923" lon="5.46632">
        <ele>271.7</ele>
        <time>2012-10-31T15:29:31.000Z</time>
      </trkpt>
      <trkpt lat="46.76923" lon="5.4663">
        <ele>272</ele>
        <time>2012-10-31T15:29:32.000Z</time>
      </trkpt>
      <trkpt lat="46.76924" lon="5.46624">
        <ele>272.4</ele>
        <time>2012-10-31T15:29:36.000Z</time>
      </trkpt>
      <trkpt lat="46.76925" lon="5.46623">
        <ele>272.5</ele>
        <time>2012-10-31T15:29:37.000Z</time>
      </trkpt>
      <trkpt lat="46.76926" lon="5.46617">
        <ele>272.9</ele>
        <time>2012-10-31T15:29:41.000Z</time>
      </trkpt>
      <trkpt lat="46.76927" lon="5.46616">
        <ele>273</ele>
        <time>2012-10-31T15:29:42.000Z</time>
      </trkpt>
      <trkpt lat="46.76928" lon="5.4661">
        <ele>272.9</ele>
        <time>2012-10-31T15:29:46.000Z</time>
      </trkpt>
      <trkpt lat="46.76928" lon="5.46609">
        <ele>272.9</ele>
        <time>2012-10-31T15:29:47.000Z</time>
      </trkpt>
      <trkpt lat="46.7693" lon="5.46603">
        <ele>271.9</ele>
        <time>2012-10-31T15:29:52.000Z</time>
      </trkpt>
      <trkpt lat="46.7693" lon="5.46602">
        <ele>271.6</ele>
        <time>2012-10-31T15:29:53.000Z</time>
      </trkpt>
      <trkpt lat="46.7693" lon="5.46596">
        <ele>271</ele>
        <time>2012-10-31T15:29:57.000Z</time>
      </trkpt>
      <trkpt lat="46.7693" lon="5.46594">
        <ele>271</ele>
        <time>2012-10-31T15:29:58.000Z</time>
      </trkpt>
      <trkpt lat="46.7693" lon="5.46588">
        <ele>271.1</ele>
        <time>2012-10-31T15:30:03.000Z</time>
      </trkpt>
      <trkpt lat="46.76929" lon="5.46587">
        <ele>271.1</ele>
        <time>2012-10-31T15:30:04.000Z</time>
      </trkpt>
      <trkpt lat="46.76927" lon="5.46583">
        <ele>271.3</ele>
        <time>2012-10-31T15:30:08.000Z</time>
      </trkpt>
      <trkpt lat="46.76926" lon="5.46582">
        <ele>271.3</ele>
        <time>2012-10-31T15:30:09.000Z</time>
      </trkpt>
      <trkpt lat="46.76926" lon="5.46577">
        <ele>271.9</ele>
        <time>2012-10-31T15:30:13.000Z</time>
      </trkpt>
      <trkpt lat="46.76926" lon="5.46576">
        <ele>271.9</ele>
        <time>2012-10-31T15:30:14.000Z</time>
      </trkpt>
      <trkpt lat="46.76928" lon="5.4657">
        <ele>271.7</ele>
        <time>2012-10-31T15:30:19.000Z</time>
      </trkpt>
      <trkpt lat="46.76927" lon="5.46569">
        <ele>271.4</ele>
        <time>2012-10-31T15:30:20.000Z</time>
      </trkpt>
      <trkpt lat="46.76927" lon="5.46563">
        <ele>271.6</ele>
        <time>2012-10-31T15:30:24.000Z</time>
      </trkpt>
      <trkpt lat="46.76926" lon="5.46562">
        <ele>271.6</ele>
        <time>2012-10-31T15:30:25.000Z</time>
      </trkpt>
      <trkpt lat="46.76925" lon="5.46556">
        <ele>272.2</ele>
        <time>2012-10-31T15:30:29.000Z</time>
      </trkpt>
      <trkpt lat="46.76925" lon="5.46555">
        <ele>272.2</ele>
        <time>2012-10-31T15:30:30.000Z</time>
      </trkpt>
      <trkpt lat="46.76924" lon="5.4655">
        <ele>272.1</ele>
        <time>2012-10-31T15:30:33.000Z</time>
      </trkpt>
      <trkpt lat="46.76924" lon="5.46548">
        <ele>272.2</ele>
        <time>2012-10-31T15:30:34.000Z</time>
      </trkpt>
      <trkpt lat="46.76923" lon="5.46542">
        <ele>272.5</ele>
        <time>2012-10-31T15:30:37.000Z</time>
      </trkpt>
      <trkpt lat="46.76922" lon="5.4654">
        <ele>272.6</ele>
        <time>2012-10-31T15:30:38.000Z</time>
      </trkpt>
      <trkpt lat="46.76923" lon="5.46534">
        <ele>273.6</ele>
        <time>2012-10-31T15:30:41.000Z</time>
      </trkpt>
      <trkpt lat="46.76923" lon="5.46532">
        <ele>273.9</ele>
        <time>2012-10-31T15:30:42.000Z</time>
      </trkpt>
      <trkpt lat="46.76924" lon="5.46528">
        <ele>273.9</ele>
        <time>2012-10-31T15:30:44.000Z</time>
      </trkpt>
      <trkpt lat="46.76925" lon="5.46525">
        <ele>274</ele>
        <time>2012-10-31T15:30:45.000Z</time>
      </trkpt>
      <trkpt lat="46.76925" lon="5.46521">
        <ele>274</ele>
        <time>2012-10-31T15:30:47.000Z</time>
      </trkpt>
      <trkpt lat="46.76925" lon="5.46519">
        <ele>273.9</ele>
        <time>2012-10-31T15:30:48.000Z</time>
      </trkpt>
      <trkpt lat="46.76927" lon="5.46513">
        <ele>272.8</ele>
        <time>2012-10-31T15:30:51.000Z</time>
      </trkpt>
      <trkpt lat="46.76927" lon="5.46511">
        <ele>271.8</ele>
        <time>2012-10-31T15:30:52.000Z</time>
      </trkpt>
      <trkpt lat="46.7693" lon="5.46506">
        <ele>271.1</ele>
        <time>2012-10-31T15:30:55.000Z</time>
      </trkpt>
      <trkpt lat="46.7693" lon="5.46505">
        <ele>271</ele>
        <time>2012-10-31T15:30:56.000Z</time>
      </trkpt>
      <trkpt lat="46.76932" lon="5.465">
        <ele>270.4</ele>
        <time>2012-10-31T15:30:59.000Z</time>
      </trkpt>
      <trkpt lat="46.76933" lon="5.46499">
        <ele>270.2</ele>
        <time>2012-10-31T15:31:00.000Z</time>
      </trkpt>
      <trkpt lat="46.76935" lon="5.46495">
        <ele>270</ele>
        <time>2012-10-31T15:31:03.000Z</time>
      </trkpt>
      <trkpt lat="46.76936" lon="5.46494">
        <ele>269.9</ele>
        <time>2012-10-31T15:31:04.000Z</time>
      </trkpt>
      <trkpt lat="46.76938" lon="5.4649">
        <ele>269.8</ele>
        <time>2012-10-31T15:31:08.000Z</time>
      </trkpt>
      <trkpt lat="46.76939" lon="5.46489">
        <ele>269.7</ele>
        <time>2012-10-31T15:31:09.000Z</time>
      </trkpt>
      <trkpt lat="46.7694" lon="5.46484">
        <ele>269.6</ele>
        <time>2012-10-31T15:31:13.000Z</time>
      </trkpt>
      <trkpt lat="46.76941" lon="5.46483">
        <ele>269.5</ele>
        <time>2012-10-31T15:31:14.000Z</time>
      </trkpt>
      <trkpt lat="46.76942" lon="5.46477">
        <ele>269.3</ele>
        <time>2012-10-31T15:31:18.000Z</time>
      </trkpt>
      <trkpt lat="46.76942" lon="5.46476">
        <ele>269.3</ele>
        <time>2012-10-31T15:31:19.000Z</time>
      </trkpt>
      <trkpt lat="46.76944" lon="5.46471">
        <ele>269.3</ele>
        <time>2012-10-31T15:31:23.000Z</time>
      </trkpt>
      <trkpt lat="46.76945" lon="5.4647">
        <ele>269.5</ele>
        <time>2012-10-31T15:31:24.000Z</time>
      </trkpt>
      <trkpt lat="46.76948" lon="5.46466">
        <ele>269.4</ele>
        <time>2012-10-31T15:31:28.000Z</time>
      </trkpt>
      <trkpt lat="46.76948" lon="5.46466">
        <ele>269.5</ele>
        <time>2012-10-31T15:31:29.000Z</time>
      </trkpt>
      <trkpt lat="46.76952" lon="5.46463">
        <ele>268</ele>
        <time>2012-10-31T15:31:33.000Z</time>
      </trkpt>
      <trkpt lat="46.76953" lon="5.46461">
        <ele>267.6</ele>
        <time>2012-10-31T15:31:34.000Z</time>
      </trkpt>
      <trkpt lat="46.76955" lon="5.46457">
        <ele>266.6</ele>
        <time>2012-10-31T15:31:37.000Z</time>
      </trkpt>
      <trkpt lat="46.76956" lon="5.46456">
        <ele>266.3</ele>
        <time>2012-10-31T15:31:38.000Z</time>
      </trkpt>
      <trkpt lat="46.76959" lon="5.46452">
        <ele>265.7</ele>
        <time>2012-10-31T15:31:41.000Z</time>
      </trkpt>
      <trkpt lat="46.7696" lon="5.46451">
        <ele>265.7</ele>
        <time>2012-10-31T15:31:42.000Z</time>
      </trkpt>
      <trkpt lat="46.76962" lon="5.46448">
        <ele>265.2</ele>
        <time>2012-10-31T15:31:45.000Z</time>
      </trkpt>
      <trkpt lat="46.76963" lon="5.46447">
        <ele>265</ele>
        <time>2012-10-31T15:31:46.000Z</time>
      </trkpt>
      <trkpt lat="46.76966" lon="5.46443">
        <ele>264.9</ele>
        <time>2012-10-31T15:31:49.000Z</time>
      </trkpt>
      <trkpt lat="46.76967" lon="5.46441">
        <ele>264.7</ele>
        <time>2012-10-31T15:31:50.000Z</time>
      </trkpt>
      <trkpt lat="46.76969" lon="5.46437">
        <ele>265</ele>
        <time>2012-10-31T15:31:53.000Z</time>
      </trkpt>
      <trkpt lat="46.7697" lon="5.46436">
        <ele>265.2</ele>
        <time>2012-10-31T15:31:54.000Z</time>
      </trkpt>
      <trkpt lat="46.76972" lon="5.46432">
        <ele>265.5</ele>
        <time>2012-10-31T15:31:57.000Z</time>
      </trkpt>
      <trkpt lat="46.76973" lon="5.46431">
        <ele>265.2</ele>
        <time>2012-10-31T15:31:58.000Z</time>
      </trkpt>
      <trkpt lat="46.76976" lon="5.46429">
        <ele>264.7</ele>
        <time>2012-10-31T15:32:00.000Z</time>
      </trkpt>
      <trkpt lat="46.76977" lon="5.46428">
        <ele>264.6</ele>
        <time>2012-10-31T15:32:01.000Z</time>
      </trkpt>
      <trkpt lat="46.7698" lon="5.46426">
        <ele>264.7</ele>
        <time>2012-10-31T15:32:03.000Z</time>
      </trkpt>
      <trkpt lat="46.76981" lon="5.46424">
        <ele>264.5</ele>
        <time>2012-10-31T15:32:04.000Z</time>
      </trkpt>
      <trkpt lat="46.76985" lon="5.46422">
        <ele>264.6</ele>
        <time>2012-10-31T15:32:07.000Z</time>
      </trkpt>
      <trkpt lat="46.76987" lon="5.46421">
        <ele>264.7</ele>
        <time>2012-10-31T15:32:08.000Z</time>
      </trkpt>
      <trkpt lat="46.76991" lon="5.46419">
        <ele>264.9</ele>
        <time>2012-10-31T15:32:11.000Z</time>
      </trkpt>
      <trkpt lat="46.76992" lon="5.46418">
        <ele>264.6</ele>
        <time>2012-10-31T15:32:12.000Z</time>
      </trkpt>
      <trkpt lat="46.76995" lon="5.46415">
        <ele>264.4</ele>
        <time>2012-10-31T15:32:15.000Z</time>
      </trkpt>
      <trkpt lat="46.76996" lon="5.46414">
        <ele>264.4</ele>
        <time>2012-10-31T15:32:16.000Z</time>
      </trkpt>
      <trkpt lat="46.76999" lon="5.46412">
        <ele>264.4</ele>
        <time>2012-10-31T15:32:19.000Z</time>
      </trkpt>
      <trkpt lat="46.77" lon="5.46412">
        <ele>264.5</ele>
        <time>2012-10-31T15:32:20.000Z</time>
      </trkpt>
      <trkpt lat="46.77004" lon="5.46412">
        <ele>264.4</ele>
        <time>2012-10-31T15:32:24.000Z</time>
      </trkpt>
      <trkpt lat="46.77005" lon="5.46412">
        <ele>264.4</ele>
        <time>2012-10-31T15:32:25.000Z</time>
      </trkpt>
      <trkpt lat="46.77008" lon="5.46415">
        <ele>264</ele>
        <time>2012-10-31T15:32:28.000Z</time>
      </trkpt>
      <trkpt lat="46.7701" lon="5.46416">
        <ele>263.9</ele>
        <time>2012-10-31T15:32:29.000Z</time>
      </trkpt>
      <trkpt lat="46.77013" lon="5.4642">
        <ele>263.2</ele>
        <time>2012-10-31T15:32:32.000Z</time>
      </trkpt>
      <trkpt lat="46.77014" lon="5.46421">
        <ele>263</ele>
        <time>2012-10-31T15:32:33.000Z</time>
      </trkpt>
      <trkpt lat="46.77018" lon="5.46424">
        <ele>262.3</ele>
        <time>2012-10-31T15:32:36.000Z</time>
      </trkpt>
      <trkpt lat="46.77019" lon="5.46425">
        <ele>262.1</ele>
        <time>2012-10-31T15:32:37.000Z</time>
      </trkpt>
      <trkpt lat="46.77022" lon="5.46428">
        <ele>261.7</ele>
        <time>2012-10-31T15:32:40.000Z</time>
      </trkpt>
      <trkpt lat="46.77023" lon="5.46429">
        <ele>261.4</ele>
        <time>2012-10-31T15:32:41.000Z</time>
      </trkpt>
      <trkpt lat="46.77025" lon="5.46433">
        <ele>261.3</ele>
        <time>2012-10-31T15:32:45.000Z</time>
      </trkpt>
      <trkpt lat="46.77026" lon="5.46434">
        <ele>261.3</ele>
        <time>2012-10-31T15:32:46.000Z</time>
      </trkpt>
      <trkpt lat="46.77029" lon="5.46439">
        <ele>261.1</ele>
        <time>2012-10-31T15:32:52.000Z</time>
      </trkpt>
      <trkpt lat="46.77029" lon="5.46439">
        <ele>261.1</ele>
        <time>2012-10-31T15:32:53.000Z</time>
      </trkpt>
      <trkpt lat="46.77027" lon="5.46444">
        <ele>265.5</ele>
        <time>2012-10-31T15:33:30.000Z</time>
      </trkpt>
      <trkpt lat="46.77026" lon="5.46445">
        <ele>265.1</ele>
        <time>2012-10-31T15:33:31.000Z</time>
      </trkpt>
      <trkpt lat="46.77022" lon="5.46443">
        <ele>264.8</ele>
        <time>2012-10-31T15:33:35.000Z</time>
      </trkpt>
      <trkpt lat="46.77022" lon="5.46442">
        <ele>264.5</ele>
        <time>2012-10-31T15:33:36.000Z</time>
      </trkpt>
      <trkpt lat="46.7702" lon="5.46436">
        <ele>262.5</ele>
        <time>2012-10-31T15:33:40.000Z</time>
      </trkpt>
      <trkpt lat="46.7702" lon="5.46435">
        <ele>261.9</ele>
        <time>2012-10-31T15:33:41.000Z</time>
      </trkpt>
      <trkpt lat="46.77017" lon="5.46431">
        <ele>260.4</ele>
        <time>2012-10-31T15:33:45.000Z</time>
      </trkpt>
      <trkpt lat="46.77016" lon="5.4643">
        <ele>259.9</ele>
        <time>2012-10-31T15:33:46.000Z</time>
      </trkpt>
      <trkpt lat="46.77012" lon="5.46428">
        <ele>258.8</ele>
        <time>2012-10-31T15:33:49.000Z</time>
      </trkpt>
      <trkpt lat="46.7701" lon="5.46428">
        <ele>258.6</ele>
        <time>2012-10-31T15:33:50.000Z</time>
      </trkpt>
      <trkpt lat="46.77007" lon="5.46428">
        <ele>258.2</ele>
        <time>2012-10-31T15:33:55.000Z</time>
      </trkpt>
      <trkpt lat="46.77006" lon="5.46426">
        <ele>257.3</ele>
        <time>2012-10-31T15:33:56.000Z</time>
      </trkpt>
      <trkpt lat="46.77004" lon="5.46421">
        <ele>256.3</ele>
        <time>2012-10-31T15:33:59.000Z</time>
      </trkpt>
      <trkpt lat="46.77003" lon="5.46418">
        <ele>256.4</ele>
        <time>2012-10-31T15:34:00.000Z</time>
      </trkpt>
      <trkpt lat="46.77004" lon="5.46413">
        <ele>256.1</ele>
        <time>2012-10-31T15:34:03.000Z</time>
      </trkpt>
      <trkpt lat="46.77004" lon="5.46411">
        <ele>256</ele>
        <time>2012-10-31T15:34:04.000Z</time>
      </trkpt>
      <trkpt lat="46.77006" lon="5.46405">
        <ele>256.4</ele>
        <time>2012-10-31T15:34:08.000Z</time>
      </trkpt>
      <trkpt lat="46.77007" lon="5.46404">
        <ele>256.6</ele>
        <time>2012-10-31T15:34:09.000Z</time>
      </trkpt>
      <trkpt lat="46.77009" lon="5.464">
        <ele>257.1</ele>
        <time>2012-10-31T15:34:12.000Z</time>
      </trkpt>
      <trkpt lat="46.7701" lon="5.46399">
        <ele>257.2</ele>
        <time>2012-10-31T15:34:13.000Z</time>
      </trkpt>
      <trkpt lat="46.77012" lon="5.46395">
        <ele>258.7</ele>
        <time>2012-10-31T15:34:16.000Z</time>
      </trkpt>
      <trkpt lat="46.77013" lon="5.46393">
        <ele>259.1</ele>
        <time>2012-10-31T15:34:17.000Z</time>
      </trkpt>
      <trkpt lat="46.77016" lon="5.46389">
        <ele>260.3</ele>
        <time>2012-10-31T15:34:20.000Z</time>
      </trkpt>
      <trkpt lat="46.77016" lon="5.46388">
        <ele>260.7</ele>
        <time>2012-10-31T15:34:21.000Z</time>
      </trkpt>
      <trkpt lat="46.77019" lon="5.46384">
        <ele>261.3</ele>
        <time>2012-10-31T15:34:24.000Z</time>
      </trkpt>
      <trkpt lat="46.7702" lon="5.46383">
        <ele>261.4</ele>
        <time>2012-10-31T15:34:25.000Z</time>
      </trkpt>
      <trkpt lat="46.77023" lon="5.46378">
        <ele>261.7</ele>
        <time>2012-10-31T15:34:29.000Z</time>
      </trkpt>
      <trkpt lat="46.77024" lon="5.46377">
        <ele>261.8</ele>
        <time>2012-10-31T15:34:30.000Z</time>
      </trkpt>
      <trkpt lat="46.77026" lon="5.46374">
        <ele>262.6</ele>
        <time>2012-10-31T15:34:33.000Z</time>
      </trkpt>
      <trkpt lat="46.77027" lon="5.46372">
        <ele>262.7</ele>
        <time>2012-10-31T15:34:34.000Z</time>
      </trkpt>
      <trkpt lat="46.7703" lon="5.46368">
        <ele>263.5</ele>
        <time>2012-10-31T15:34:38.000Z</time>
      </trkpt>
      <trkpt lat="46.77031" lon="5.46367">
        <ele>263.6</ele>
        <time>2012-10-31T15:34:39.000Z</time>
      </trkpt>
      <trkpt lat="46.77034" lon="5.46362">
        <ele>264.4</ele>
        <time>2012-10-31T15:34:43.000Z</time>
      </trkpt>
      <trkpt lat="46.77034" lon="5.46361">
        <ele>264.4</ele>
        <time>2012-10-31T15:34:44.000Z</time>
      </trkpt>
      <trkpt lat="46.77037" lon="5.46357">
        <ele>264.6</ele>
        <time>2012-10-31T15:34:48.000Z</time>
      </trkpt>
      <trkpt lat="46.77037" lon="5.46356">
        <ele>264.6</ele>
        <time>2012-10-31T15:34:49.000Z</time>
      </trkpt>
      <trkpt lat="46.7704" lon="5.46351">
        <ele>265.9</ele>
        <time>2012-10-31T15:34:53.000Z</time>
      </trkpt>
      <trkpt lat="46.77041" lon="5.4635">
        <ele>266.1</ele>
        <time>2012-10-31T15:34:54.000Z</time>
      </trkpt>
      <trkpt lat="46.77043" lon="5.46345">
        <ele>266.9</ele>
        <time>2012-10-31T15:34:58.000Z</time>
      </trkpt>
      <trkpt lat="46.77044" lon="5.46345">
        <ele>267.1</ele>
        <time>2012-10-31T15:34:59.000Z</time>
      </trkpt>
      <trkpt lat="46.77046" lon="5.4634">
        <ele>267.7</ele>
        <time>2012-10-31T15:35:04.000Z</time>
      </trkpt>
      <trkpt lat="46.77047" lon="5.46339">
        <ele>267.6</ele>
        <time>2012-10-31T15:35:05.000Z</time>
      </trkpt>
      <trkpt lat="46.77049" lon="5.46334">
        <ele>268.2</ele>
        <time>2012-10-31T15:35:10.000Z</time>
      </trkpt>
      <trkpt lat="46.7705" lon="5.46333">
        <ele>268.1</ele>
        <time>2012-10-31T15:35:11.000Z</time>
      </trkpt>
      <trkpt lat="46.77052" lon="5.46328">
        <ele>268.1</ele>
        <time>2012-10-31T15:35:15.000Z</time>
      </trkpt>
      <trkpt lat="46.77053" lon="5.46327">
        <ele>267.9</ele>
        <time>2012-10-31T15:35:16.000Z</time>
      </trkpt>
      <trkpt lat="46.77055" lon="5.46322">
        <ele>267.4</ele>
        <time>2012-10-31T15:35:20.000Z</time>
      </trkpt>
      <trkpt lat="46.77056" lon="5.46321">
        <ele>267.6</ele>
        <time>2012-10-31T15:35:21.000Z</time>
      </trkpt>
      <trkpt lat="46.77058" lon="5.46316">
        <ele>268</ele>
        <time>2012-10-31T15:35:25.000Z</time>
      </trkpt>
      <trkpt lat="46.77059" lon="5.46314">
        <ele>267.9</ele>
        <time>2012-10-31T15:35:26.000Z</time>
      </trkpt>
      <trkpt lat="46.77062" lon="5.4631">
        <ele>267.8</ele>
        <time>2012-10-31T15:35:30.000Z</time>
      </trkpt>
      <trkpt lat="46.77062" lon="5.46308">
        <ele>267.8</ele>
        <time>2012-10-31T15:35:31.000Z</time>
      </trkpt>
      <trkpt lat="46.77064" lon="5.46303">
        <ele>268.1</ele>
        <time>2012-10-31T15:35:35.000Z</time>
      </trkpt>
      <trkpt lat="46.77065" lon="5.46302">
        <ele>268.4</ele>
        <time>2012-10-31T15:35:36.000Z</time>
      </trkpt>
      <trkpt lat="46.77067" lon="5.46296">
        <ele>269.2</ele>
        <time>2012-10-31T15:35:40.000Z</time>
      </trkpt>
      <trkpt lat="46.77067" lon="5.46295">
        <ele>269.1</ele>
        <time>2012-10-31T15:35:41.000Z</time>
      </trkpt>
      <trkpt lat="46.7707" lon="5.46291">
        <ele>268.9</ele>
        <time>2012-10-31T15:35:46.000Z</time>
      </trkpt>
      <trkpt lat="46.7707" lon="5.46289">
        <ele>268.9</ele>
        <time>2012-10-31T15:35:47.000Z</time>
      </trkpt>
      <trkpt lat="46.77071" lon="5.46284">
        <ele>269</ele>
        <time>2012-10-31T15:35:51.000Z</time>
      </trkpt>
      <trkpt lat="46.77071" lon="5.46283">
        <ele>269.3</ele>
        <time>2012-10-31T15:35:52.000Z</time>
      </trkpt>
      <trkpt lat="46.77072" lon="5.46278">
        <ele>269.6</ele>
        <time>2012-10-31T15:35:55.000Z</time>
      </trkpt>
      <trkpt lat="46.77072" lon="5.46276">
        <ele>269.9</ele>
        <time>2012-10-31T15:35:56.000Z</time>
      </trkpt>
      <trkpt lat="46.77073" lon="5.46271">
        <ele>270</ele>
        <time>2012-10-31T15:35:59.000Z</time>
      </trkpt>
      <trkpt lat="46.77073" lon="5.4627">
        <ele>269.9</ele>
        <time>2012-10-31T15:36:00.000Z</time>
      </trkpt>
      <trkpt lat="46.77075" lon="5.46265">
        <ele>269.5</ele>
        <time>2012-10-31T15:36:03.000Z</time>
      </trkpt>
      <trkpt lat="46.77077" lon="5.4625">
        <ele>265.3</ele>
        <time>2012-10-31T15:36:11.000Z</time>
      </trkpt>
      <trkpt lat="46.77079" lon="5.46245">
        <ele>264.4</ele>
        <time>2012-10-31T15:36:16.000Z</time>
      </trkpt>
      <trkpt lat="46.77079" lon="5.46244">
        <ele>264.2</ele>
        <time>2012-10-31T15:36:17.000Z</time>
      </trkpt>
      <trkpt lat="46.77079" lon="5.46238">
        <ele>264.5</ele>
        <time>2012-10-31T15:36:21.000Z</time>
      </trkpt>
      <trkpt lat="46.7708" lon="5.46237">
        <ele>264.6</ele>
        <time>2012-10-31T15:36:22.000Z</time>
      </trkpt>
      <trkpt lat="46.77083" lon="5.46232">
        <ele>263</ele>
        <time>2012-10-31T15:36:27.000Z</time>
      </trkpt>
      <trkpt lat="46.77083" lon="5.46231">
        <ele>262.6</ele>
        <time>2012-10-31T15:36:28.000Z</time>
      </trkpt>
      <trkpt lat="46.77085" lon="5.46227">
        <ele>261.8</ele>
        <time>2012-10-31T15:36:32.000Z</time>
      </trkpt>
      <trkpt lat="46.77085" lon="5.46225">
        <ele>262.7</ele>
        <time>2012-10-31T15:36:33.000Z</time>
      </trkpt>
      <trkpt lat="46.77087" lon="5.4622">
        <ele>262.9</ele>
        <time>2012-10-31T15:36:37.000Z</time>
      </trkpt>
      <trkpt lat="46.77088" lon="5.46219">
        <ele>262.7</ele>
        <time>2012-10-31T15:36:38.000Z</time>
      </trkpt>
      <trkpt lat="46.7709" lon="5.46214">
        <ele>262.8</ele>
        <time>2012-10-31T15:36:42.000Z</time>
      </trkpt>
      <trkpt lat="46.7709" lon="5.46213">
        <ele>262.9</ele>
        <time>2012-10-31T15:36:43.000Z</time>
      </trkpt>
      <trkpt lat="46.77092" lon="5.46208">
        <ele>263.4</ele>
        <time>2012-10-31T15:36:47.000Z</time>
      </trkpt>
      <trkpt lat="46.77092" lon="5.46207">
        <ele>263.5</ele>
        <time>2012-10-31T15:36:48.000Z</time>
      </trkpt>
      <trkpt lat="46.77093" lon="5.46201">
        <ele>263.2</ele>
        <time>2012-10-31T15:36:52.000Z</time>
      </trkpt>
      <trkpt lat="46.77093" lon="5.46199">
        <ele>263.3</ele>
        <time>2012-10-31T15:36:53.000Z</time>
      </trkpt>
      <trkpt lat="46.77094" lon="5.46193">
        <ele>263.3</ele>
        <time>2012-10-31T15:36:57.000Z</time>
      </trkpt>
      <trkpt lat="46.77095" lon="5.46191">
        <ele>263.4</ele>
        <time>2012-10-31T15:36:58.000Z</time>
      </trkpt>
      <trkpt lat="46.77096" lon="5.46186">
        <ele>264.4</ele>
        <time>2012-10-31T15:37:01.000Z</time>
      </trkpt>
      <trkpt lat="46.77097" lon="5.46185">
        <ele>264.4</ele>
        <time>2012-10-31T15:37:02.000Z</time>
      </trkpt>
      <trkpt lat="46.77098" lon="5.46179">
        <ele>264.8</ele>
        <time>2012-10-31T15:37:06.000Z</time>
      </trkpt>
      <trkpt lat="46.77098" lon="5.46177">
        <ele>264.8</ele>
        <time>2012-10-31T15:37:07.000Z</time>
      </trkpt>
      <trkpt lat="46.771" lon="5.46172">
        <ele>264.2</ele>
        <time>2012-10-31T15:37:11.000Z</time>
      </trkpt>
      <trkpt lat="46.771" lon="5.46171">
        <ele>264</ele>
        <time>2012-10-31T15:37:12.000Z</time>
      </trkpt>
      <trkpt lat="46.77102" lon="5.46166">
        <ele>263.8</ele>
        <time>2012-10-31T15:37:16.000Z</time>
      </trkpt>
      <trkpt lat="46.77102" lon="5.46164">
        <ele>263.9</ele>
        <time>2012-10-31T15:37:17.000Z</time>
      </trkpt>
      <trkpt lat="46.77102" lon="5.46158">
        <ele>264.3</ele>
        <time>2012-10-31T15:37:21.000Z</time>
      </trkpt>
      <trkpt lat="46.77102" lon="5.46156">
        <ele>264.4</ele>
        <time>2012-10-31T15:37:22.000Z</time>
      </trkpt>
      <trkpt lat="46.77102" lon="5.46151">
        <ele>265.4</ele>
        <time>2012-10-31T15:37:26.000Z</time>
      </trkpt>
      <trkpt lat="46.77101" lon="5.46149">
        <ele>265.6</ele>
        <time>2012-10-31T15:37:27.000Z</time>
      </trkpt>
      <trkpt lat="46.77103" lon="5.46155">
        <ele>263.1</ele>
        <time>2012-10-31T15:37:49.000Z</time>
      </trkpt>
      <trkpt lat="46.77104" lon="5.46155">
        <ele>263.2</ele>
        <time>2012-10-31T15:37:50.000Z</time>
      </trkpt>
      <trkpt lat="46.77108" lon="5.46153">
        <ele>263.9</ele>
        <time>2012-10-31T15:37:54.000Z</time>
      </trkpt>
      <trkpt lat="46.77108" lon="5.46152">
        <ele>264.1</ele>
        <time>2012-10-31T15:37:55.000Z</time>
      </trkpt>
      <trkpt lat="46.77108" lon="5.46147">
        <ele>264.4</ele>
        <time>2012-10-31T15:37:59.000Z</time>
      </trkpt>
      <trkpt lat="46.77108" lon="5.46145">
        <ele>264.7</ele>
        <time>2012-10-31T15:38:00.000Z</time>
      </trkpt>
      <trkpt lat="46.77107" lon="5.46139">
        <ele>265.1</ele>
        <time>2012-10-31T15:38:03.000Z</time>
      </trkpt>
      <trkpt lat="46.77106" lon="5.46137">
        <ele>265.1</ele>
        <time>2012-10-31T15:38:04.000Z</time>
      </trkpt>
      <trkpt lat="46.77103" lon="5.46133">
        <ele>264.1</ele>
        <time>2012-10-31T15:38:14.000Z</time>
      </trkpt>
      <trkpt lat="46.77102" lon="5.46133">
        <ele>264.1</ele>
        <time>2012-10-31T15:38:15.000Z</time>
      </trkpt>
      <trkpt lat="46.77099" lon="5.46135">
        <ele>264.8</ele>
        <time>2012-10-31T15:38:20.000Z</time>
      </trkpt>
      <trkpt lat="46.77097" lon="5.46135">
        <ele>264.8</ele>
        <time>2012-10-31T15:38:21.000Z</time>
      </trkpt>
      <trkpt lat="46.77093" lon="5.46132">
        <ele>265.3</ele>
        <time>2012-10-31T15:38:24.000Z</time>
      </trkpt>
      <trkpt lat="46.77092" lon="5.46131">
        <ele>265.5</ele>
        <time>2012-10-31T15:38:25.000Z</time>
      </trkpt>
      <trkpt lat="46.77089" lon="5.46127">
        <ele>266</ele>
        <time>2012-10-31T15:38:28.000Z</time>
      </trkpt>
      <trkpt lat="46.77088" lon="5.46126">
        <ele>266.2</ele>
        <time>2012-10-31T15:38:29.000Z</time>
      </trkpt>
      <trkpt lat="46.77086" lon="5.4612">
        <ele>266</ele>
        <time>2012-10-31T15:38:36.000Z</time>
      </trkpt>
      <trkpt lat="46.77084" lon="5.46121">
        <ele>266</ele>
        <time>2012-10-31T15:38:37.000Z</time>
      </trkpt>
      <trkpt lat="46.7708" lon="5.4612">
        <ele>266</ele>
        <time>2012-10-31T15:38:45.000Z</time>
      </trkpt>
      <trkpt lat="46.77079" lon="5.4612">
        <ele>266.1</ele>
        <time>2012-10-31T15:38:46.000Z</time>
      </trkpt>
      <trkpt lat="46.77076" lon="5.46119">
        <ele>265.4</ele>
        <time>2012-10-31T15:38:50.000Z</time>
      </trkpt>
      <trkpt lat="46.77074" lon="5.46119">
        <ele>265</ele>
        <time>2012-10-31T15:38:51.000Z</time>
      </trkpt>
      <trkpt lat="46.7707" lon="5.46118">
        <ele>265</ele>
        <time>2012-10-31T15:38:55.000Z</time>
      </trkpt>
      <trkpt lat="46.77069" lon="5.46118">
        <ele>265.2</ele>
        <time>2012-10-31T15:38:56.000Z</time>
      </trkpt>
      <trkpt lat="46.77065" lon="5.46114">
        <ele>265.5</ele>
        <time>2012-10-31T15:39:00.000Z</time>
      </trkpt>
      <trkpt lat="46.77065" lon="5.46113">
        <ele>265.4</ele>
        <time>2012-10-31T15:39:01.000Z</time>
      </trkpt>
      <trkpt lat="46.7706" lon="5.46111">
        <ele>265</ele>
        <time>2012-10-31T15:39:06.000Z</time>
      </trkpt>
      <trkpt lat="46.7706" lon="5.46111">
        <ele>264.8</ele>
        <time>2012-10-31T15:39:07.000Z</time>
      </trkpt>
      <trkpt lat="46.77056" lon="5.46111">
        <ele>264.8</ele>
        <time>2012-10-31T15:39:11.000Z</time>
      </trkpt>
      <trkpt lat="46.77055" lon="5.4611">
        <ele>265</ele>
        <time>2012-10-31T15:39:12.000Z</time>
      </trkpt>
      <trkpt lat="46.77051" lon="5.46109">
        <ele>266.1</ele>
        <time>2012-10-31T15:39:16.000Z</time>
      </trkpt>
      <trkpt lat="46.7705" lon="5.46108">
        <ele>266.4</ele>
        <time>2012-10-31T15:39:17.000Z</time>
      </trkpt>
      <trkpt lat="46.77046" lon="5.46108">
        <ele>266.1</ele>
        <time>2012-10-31T15:39:21.000Z</time>
      </trkpt>
      <trkpt lat="46.77045" lon="5.46108">
        <ele>266</ele>
        <time>2012-10-31T15:39:22.000Z</time>
      </trkpt>
      <trkpt lat="46.77041" lon="5.46106">
        <ele>266.6</ele>
        <time>2012-10-31T15:39:26.000Z</time>
      </trkpt>
      <trkpt lat="46.77041" lon="5.46106">
        <ele>266.6</ele>
        <time>2012-10-31T15:39:27.000Z</time>
      </trkpt>
      <trkpt lat="46.77037" lon="5.46104">
        <ele>266.9</ele>
        <time>2012-10-31T15:39:31.000Z</time>
      </trkpt>
      <trkpt lat="46.77036" lon="5.46104">
        <ele>267</ele>
        <time>2012-10-31T15:39:32.000Z</time>
      </trkpt>
      <trkpt lat="46.77032" lon="5.46103">
        <ele>266.6</ele>
        <time>2012-10-31T15:39:37.000Z</time>
      </trkpt>
      <trkpt lat="46.77031" lon="5.46103">
        <ele>266.5</ele>
        <time>2012-10-31T15:39:38.000Z</time>
      </trkpt>
      <trkpt lat="46.77027" lon="5.461">
        <ele>266.4</ele>
        <time>2012-10-31T15:39:43.000Z</time>
      </trkpt>
      <trkpt lat="46.77026" lon="5.461">
        <ele>266.3</ele>
        <time>2012-10-31T15:39:44.000Z</time>
      </trkpt>
      <trkpt lat="46.77022" lon="5.46098">
        <ele>266.2</ele>
        <time>2012-10-31T15:39:49.000Z</time>
      </trkpt>
      <trkpt lat="46.77022" lon="5.46097">
        <ele>266.3</ele>
        <time>2012-10-31T15:39:50.000Z</time>
      </trkpt>
      <trkpt lat="46.77018" lon="5.46094">
        <ele>267.3</ele>
        <time>2012-10-31T15:39:55.000Z</time>
      </trkpt>
      <trkpt lat="46.77017" lon="5.46094">
        <ele>267</ele>
        <time>2012-10-31T15:39:56.000Z</time>
      </trkpt>
      <trkpt lat="46.77013" lon="5.46092">
        <ele>267</ele>
        <time>2012-10-31T15:40:00.000Z</time>
      </trkpt>
      <trkpt lat="46.77012" lon="5.46092">
        <ele>267</ele>
        <time>2012-10-31T15:40:01.000Z</time>
      </trkpt>
      <trkpt lat="46.77008" lon="5.46091">
        <ele>266.3</ele>
        <time>2012-10-31T15:40:05.000Z</time>
      </trkpt>
      <trkpt lat="46.77007" lon="5.46091">
        <ele>266.4</ele>
        <time>2012-10-31T15:40:06.000Z</time>
      </trkpt>
      <trkpt lat="46.77003" lon="5.4609">
        <ele>266.5</ele>
        <time>2012-10-31T15:40:10.000Z</time>
      </trkpt>
      <trkpt lat="46.77002" lon="5.4609">
        <ele>266.6</ele>
        <time>2012-10-31T15:40:11.000Z</time>
      </trkpt>
      <trkpt lat="46.76998" lon="5.4609">
        <ele>266.2</ele>
        <time>2012-10-31T15:40:15.000Z</time>
      </trkpt>
      <trkpt lat="46.76997" lon="5.46089">
        <ele>265.9</ele>
        <time>2012-10-31T15:40:16.000Z</time>
      </trkpt>
      <trkpt lat="46.76993" lon="5.46086">
        <ele>265.6</ele>
        <time>2012-10-31T15:40:20.000Z</time>
      </trkpt>
      <trkpt lat="46.76992" lon="5.46086">
        <ele>265.6</ele>
        <time>2012-10-31T15:40:21.000Z</time>
      </trkpt>
      <trkpt lat="46.76988" lon="5.46083">
        <ele>266.1</ele>
        <time>2012-10-31T15:40:24.000Z</time>
      </trkpt>
      <trkpt lat="46.76987" lon="5.46082">
        <ele>266.3</ele>
        <time>2012-10-31T15:40:25.000Z</time>
      </trkpt>
      <trkpt lat="46.76983" lon="5.4608">
        <ele>266.7</ele>
        <time>2012-10-31T15:40:28.000Z</time>
      </trkpt>
      <trkpt lat="46.76982" lon="5.46079">
        <ele>266.8</ele>
        <time>2012-10-31T15:40:29.000Z</time>
      </trkpt>
      <trkpt lat="46.76979" lon="5.46077">
        <ele>267.4</ele>
        <time>2012-10-31T15:40:31.000Z</time>
      </trkpt>
      <trkpt lat="46.76977" lon="5.46075">
        <ele>267.8</ele>
        <time>2012-10-31T15:40:32.000Z</time>
      </trkpt>
      <trkpt lat="46.76975" lon="5.46073">
        <ele>268.1</ele>
        <time>2012-10-31T15:40:34.000Z</time>
      </trkpt>
      <trkpt lat="46.76973" lon="5.46072">
        <ele>268.3</ele>
        <time>2012-10-31T15:40:35.000Z</time>
      </trkpt>
      <trkpt lat="46.76969" lon="5.46069">
        <ele>268.7</ele>
        <time>2012-10-31T15:40:38.000Z</time>
      </trkpt>
      <trkpt lat="46.76968" lon="5.46068">
        <ele>268.8</ele>
        <time>2012-10-31T15:40:39.000Z</time>
      </trkpt>
      <trkpt lat="46.76965" lon="5.46065">
        <ele>268.9</ele>
        <time>2012-10-31T15:40:42.000Z</time>
      </trkpt>
      <trkpt lat="46.76964" lon="5.46064">
        <ele>268.9</ele>
        <time>2012-10-31T15:40:43.000Z</time>
      </trkpt>
      <trkpt lat="46.76959" lon="5.46063">
        <ele>269.6</ele>
        <time>2012-10-31T15:40:47.000Z</time>
      </trkpt>
      <trkpt lat="46.76958" lon="5.46064">
        <ele>269.9</ele>
        <time>2012-10-31T15:40:48.000Z</time>
      </trkpt>
      <trkpt lat="46.76954" lon="5.46065">
        <ele>270.2</ele>
        <time>2012-10-31T15:40:52.000Z</time>
      </trkpt>
      <trkpt lat="46.76953" lon="5.46066">
        <ele>270.2</ele>
        <time>2012-10-31T15:40:53.000Z</time>
      </trkpt>
      <trkpt lat="46.76949" lon="5.46066">
        <ele>270.5</ele>
        <time>2012-10-31T15:40:56.000Z</time>
      </trkpt>
      <trkpt lat="46.76948" lon="5.46066">
        <ele>270.6</ele>
        <time>2012-10-31T15:40:57.000Z</time>
      </trkpt>
      <trkpt lat="46.76945" lon="5.46063">
        <ele>270.8</ele>
        <time>2012-10-31T15:41:00.000Z</time>
      </trkpt>
      <trkpt lat="46.76944" lon="5.46062">
        <ele>271</ele>
        <time>2012-10-31T15:41:01.000Z</time>
      </trkpt>
      <trkpt lat="46.76941" lon="5.46059">
        <ele>271.4</ele>
        <time>2012-10-31T15:41:04.000Z</time>
      </trkpt>
      <trkpt lat="46.7694" lon="5.46058">
        <ele>271.5</ele>
        <time>2012-10-31T15:41:05.000Z</time>
      </trkpt>
      <trkpt lat="46.76936" lon="5.46055">
        <ele>270.9</ele>
        <time>2012-10-31T15:41:09.000Z</time>
      </trkpt>
      <trkpt lat="46.76935" lon="5.46054">
        <ele>270.7</ele>
        <time>2012-10-31T15:41:10.000Z</time>
      </trkpt>
      <trkpt lat="46.76931" lon="5.46053">
        <ele>270.4</ele>
        <time>2012-10-31T15:41:15.000Z</time>
      </trkpt>
      <trkpt lat="46.7693" lon="5.46053">
        <ele>270.1</ele>
        <time>2012-10-31T15:41:16.000Z</time>
      </trkpt>
      <trkpt lat="46.76926" lon="5.46051">
        <ele>269.8</ele>
        <time>2012-10-31T15:41:20.000Z</time>
      </trkpt>
      <trkpt lat="46.76925" lon="5.4605">
        <ele>269.8</ele>
        <time>2012-10-31T15:41:21.000Z</time>
      </trkpt>
      <trkpt lat="46.76922" lon="5.46049">
        <ele>270</ele>
        <time>2012-10-31T15:41:25.000Z</time>
      </trkpt>
      <trkpt lat="46.76921" lon="5.46049">
        <ele>270.1</ele>
        <time>2012-10-31T15:41:26.000Z</time>
      </trkpt>
      <trkpt lat="46.76917" lon="5.46047">
        <ele>270.6</ele>
        <time>2012-10-31T15:41:30.000Z</time>
      </trkpt>
      <trkpt lat="46.76916" lon="5.46046">
        <ele>270.7</ele>
        <time>2012-10-31T15:41:31.000Z</time>
      </trkpt>
      <trkpt lat="46.76913" lon="5.46041">
        <ele>271.1</ele>
        <time>2012-10-31T15:41:34.000Z</time>
      </trkpt>
      <trkpt lat="46.76913" lon="5.46039">
        <ele>271</ele>
        <time>2012-10-31T15:41:35.000Z</time>
      </trkpt>
      <trkpt lat="46.76909" lon="5.46036">
        <ele>270.2</ele>
        <time>2012-10-31T15:41:39.000Z</time>
      </trkpt>
      <trkpt lat="46.76908" lon="5.46035">
        <ele>269.9</ele>
        <time>2012-10-31T15:41:40.000Z</time>
      </trkpt>
      <trkpt lat="46.76904" lon="5.46034">
        <ele>269.7</ele>
        <time>2012-10-31T15:41:44.000Z</time>
      </trkpt>
      <trkpt lat="46.76903" lon="5.46033">
        <ele>269.3</ele>
        <time>2012-10-31T15:41:45.000Z</time>
      </trkpt>
      <trkpt lat="46.769" lon="5.4603">
        <ele>268.7</ele>
        <time>2012-10-31T15:41:48.000Z</time>
      </trkpt>
      <trkpt lat="46.76898" lon="5.4603">
        <ele>268.5</ele>
        <time>2012-10-31T15:41:49.000Z</time>
      </trkpt>
      <trkpt lat="46.76895" lon="5.46027">
        <ele>268.7</ele>
        <time>2012-10-31T15:41:52.000Z</time>
      </trkpt>
      <trkpt lat="46.76894" lon="5.46027">
        <ele>268.7</ele>
        <time>2012-10-31T15:41:53.000Z</time>
      </trkpt>
      <trkpt lat="46.76891" lon="5.46025">
        <ele>268.7</ele>
        <time>2012-10-31T15:41:56.000Z</time>
      </trkpt>
      <trkpt lat="46.7689" lon="5.46024">
        <ele>268.8</ele>
        <time>2012-10-31T15:41:57.000Z</time>
      </trkpt>
      <trkpt lat="46.76886" lon="5.46023">
        <ele>269</ele>
        <time>2012-10-31T15:42:02.000Z</time>
      </trkpt>
      <trkpt lat="46.76885" lon="5.46023">
        <ele>269.1</ele>
        <time>2012-10-31T15:42:03.000Z</time>
      </trkpt>
      <trkpt lat="46.76881" lon="5.46022">
        <ele>268.5</ele>
        <time>2012-10-31T15:42:07.000Z</time>
      </trkpt>
      <trkpt lat="46.76879" lon="5.46022">
        <ele>268.3</ele>
        <time>2012-10-31T15:42:08.000Z</time>
      </trkpt>
      <trkpt lat="46.76876" lon="5.46022">
        <ele>267.5</ele>
        <time>2012-10-31T15:42:12.000Z</time>
      </trkpt>
      <trkpt lat="46.76875" lon="5.46021">
        <ele>267.6</ele>
        <time>2012-10-31T15:42:13.000Z</time>
      </trkpt>
      <trkpt lat="46.7687" lon="5.4602">
        <ele>268</ele>
        <time>2012-10-31T15:42:17.000Z</time>
      </trkpt>
      <trkpt lat="46.76869" lon="5.46019">
        <ele>267.9</ele>
        <time>2012-10-31T15:42:18.000Z</time>
      </trkpt>
      <trkpt lat="46.76867" lon="5.46014">
        <ele>267</ele>
        <time>2012-10-31T15:42:22.000Z</time>
      </trkpt>
      <trkpt lat="46.76866" lon="5.46013">
        <ele>267.1</ele>
        <time>2012-10-31T15:42:23.000Z</time>
      </trkpt>
      <trkpt lat="46.76862" lon="5.46011">
        <ele>267.3</ele>
        <time>2012-10-31T15:42:28.000Z</time>
      </trkpt>
      <trkpt lat="46.76862" lon="5.46011">
        <ele>267.4</ele>
        <time>2012-10-31T15:42:29.000Z</time>
      </trkpt>
      <trkpt lat="46.76858" lon="5.46008">
        <ele>267.5</ele>
        <time>2012-10-31T15:42:34.000Z</time>
      </trkpt>
      <trkpt lat="46.76857" lon="5.46008">
        <ele>267.4</ele>
        <time>2012-10-31T15:42:35.000Z</time>
      </trkpt>
      <trkpt lat="46.76853" lon="5.46006">
        <ele>267.8</ele>
        <time>2012-10-31T15:42:39.000Z</time>
      </trkpt>
      <trkpt lat="46.76852" lon="5.46006">
        <ele>267.8</ele>
        <time>2012-10-31T15:42:40.000Z</time>
      </trkpt>
      <trkpt lat="46.76848" lon="5.46005">
        <ele>267.9</ele>
        <time>2012-10-31T15:42:43.000Z</time>
      </trkpt>
      <trkpt lat="46.76848" lon="5.46004">
        <ele>267.9</ele>
        <time>2012-10-31T15:42:44.000Z</time>
      </trkpt>
      <trkpt lat="46.76844" lon="5.46001">
        <ele>267.8</ele>
        <time>2012-10-31T15:42:48.000Z</time>
      </trkpt>
      <trkpt lat="46.76843" lon="5.46001">
        <ele>267.9</ele>
        <time>2012-10-31T15:42:49.000Z</time>
      </trkpt>
      <trkpt lat="46.76839" lon="5.45998">
        <ele>268.6</ele>
        <time>2012-10-31T15:42:53.000Z</time>
      </trkpt>
      <trkpt lat="46.76838" lon="5.45997">
        <ele>268.7</ele>
        <time>2012-10-31T15:42:54.000Z</time>
      </trkpt>
      <trkpt lat="46.76835" lon="5.45994">
        <ele>268.1</ele>
        <time>2012-10-31T15:42:58.000Z</time>
      </trkpt>
      <trkpt lat="46.76833" lon="5.45994">
        <ele>268</ele>
        <time>2012-10-31T15:42:59.000Z</time>
      </trkpt>
      <trkpt lat="46.7683" lon="5.45994">
        <ele>267.2</ele>
        <time>2012-10-31T15:43:02.000Z</time>
      </trkpt>
      <trkpt lat="46.76829" lon="5.45994">
        <ele>267.2</ele>
        <time>2012-10-31T15:43:03.000Z</time>
      </trkpt>
      <trkpt lat="46.76825" lon="5.45993">
        <ele>267.1</ele>
        <time>2012-10-31T15:43:07.000Z</time>
      </trkpt>
      <trkpt lat="46.76824" lon="5.45993">
        <ele>267.2</ele>
        <time>2012-10-31T15:43:08.000Z</time>
      </trkpt>
      <trkpt lat="46.7682" lon="5.45992">
        <ele>267.6</ele>
        <time>2012-10-31T15:43:12.000Z</time>
      </trkpt>
      <trkpt lat="46.76819" lon="5.45992">
        <ele>267.5</ele>
        <time>2012-10-31T15:43:13.000Z</time>
      </trkpt>
      <trkpt lat="46.76815" lon="5.45989">
        <ele>267.6</ele>
        <time>2012-10-31T15:43:16.000Z</time>
      </trkpt>
      <trkpt lat="46.76814" lon="5.45988">
        <ele>267.8</ele>
        <time>2012-10-31T15:43:17.000Z</time>
      </trkpt>
      <trkpt lat="46.76811" lon="5.45986">
        <ele>268.5</ele>
        <time>2012-10-31T15:43:20.000Z</time>
      </trkpt>
      <trkpt lat="46.76809" lon="5.45985">
        <ele>269.1</ele>
        <time>2012-10-31T15:43:21.000Z</time>
      </trkpt>
      <trkpt lat="46.76806" lon="5.45983">
        <ele>269.5</ele>
        <time>2012-10-31T15:43:24.000Z</time>
      </trkpt>
      <trkpt lat="46.76805" lon="5.45982">
        <ele>269.5</ele>
        <time>2012-10-31T15:43:25.000Z</time>
      </trkpt>
      <trkpt lat="46.76802" lon="5.45979">
        <ele>269.5</ele>
        <time>2012-10-31T15:43:28.000Z</time>
      </trkpt>
      <trkpt lat="46.76801" lon="5.45978">
        <ele>269.5</ele>
        <time>2012-10-31T15:43:29.000Z</time>
      </trkpt>
      <trkpt lat="46.76798" lon="5.45975">
        <ele>269.5</ele>
        <time>2012-10-31T15:43:33.000Z</time>
      </trkpt>
      <trkpt lat="46.76797" lon="5.45974">
        <ele>269.5</ele>
        <time>2012-10-31T15:43:34.000Z</time>
      </trkpt>
      <trkpt lat="46.76795" lon="5.45969">
        <ele>269.5</ele>
        <time>2012-10-31T15:43:40.000Z</time>
      </trkpt>
      <trkpt lat="46.76794" lon="5.45968">
        <ele>269.3</ele>
        <time>2012-10-31T15:43:41.000Z</time>
      </trkpt>
      <trkpt lat="46.76791" lon="5.45967">
        <ele>268.9</ele>
        <time>2012-10-31T15:43:45.000Z</time>
      </trkpt>
      <trkpt lat="46.7679" lon="5.45967">
        <ele>268.7</ele>
        <time>2012-10-31T15:43:46.000Z</time>
      </trkpt>
      <trkpt lat="46.76785" lon="5.45966">
        <ele>269.3</ele>
        <time>2012-10-31T15:43:50.000Z</time>
      </trkpt>
      <trkpt lat="46.76784" lon="5.45965">
        <ele>269.6</ele>
        <time>2012-10-31T15:43:51.000Z</time>
      </trkpt>
      <trkpt lat="46.76781" lon="5.45964">
        <ele>269.9</ele>
        <time>2012-10-31T15:43:54.000Z</time>
      </trkpt>
      <trkpt lat="46.76779" lon="5.45964">
        <ele>270</ele>
        <time>2012-10-31T15:43:55.000Z</time>
      </trkpt>
      <trkpt lat="46.76776" lon="5.45962">
        <ele>269.7</ele>
        <time>2012-10-31T15:43:58.000Z</time>
      </trkpt>
      <trkpt lat="46.76774" lon="5.45962">
        <ele>269.6</ele>
        <time>2012-10-31T15:43:59.000Z</time>
      </trkpt>
      <trkpt lat="46.76772" lon="5.45957">
        <ele>268.7</ele>
        <time>2012-10-31T15:44:04.000Z</time>
      </trkpt>
      <trkpt lat="46.76772" lon="5.45956">
        <ele>268.7</ele>
        <time>2012-10-31T15:44:05.000Z</time>
      </trkpt>
      <trkpt lat="46.76769" lon="5.45953">
        <ele>267.9</ele>
        <time>2012-10-31T15:44:09.000Z</time>
      </trkpt>
      <trkpt lat="46.76768" lon="5.45952">
        <ele>267.6</ele>
        <time>2012-10-31T15:44:10.000Z</time>
      </trkpt>
      <trkpt lat="46.76764" lon="5.45951">
        <ele>267</ele>
        <time>2012-10-31T15:44:13.000Z</time>
      </trkpt>
      <trkpt lat="46.76763" lon="5.45951">
        <ele>266.9</ele>
        <time>2012-10-31T15:44:14.000Z</time>
      </trkpt>
      <trkpt lat="46.76758" lon="5.4595">
        <ele>266.8</ele>
        <time>2012-10-31T15:44:18.000Z</time>
      </trkpt>
      <trkpt lat="46.76758" lon="5.45949">
        <ele>266.8</ele>
        <time>2012-10-31T15:44:19.000Z</time>
      </trkpt>
      <trkpt lat="46.76755" lon="5.45944">
        <ele>267.2</ele>
        <time>2012-10-31T15:44:24.000Z</time>
      </trkpt>
      <trkpt lat="46.76754" lon="5.45944">
        <ele>267.2</ele>
        <time>2012-10-31T15:44:25.000Z</time>
      </trkpt>
      <trkpt lat="46.7675" lon="5.45942">
        <ele>267.7</ele>
        <time>2012-10-31T15:44:29.000Z</time>
      </trkpt>
      <trkpt lat="46.76749" lon="5.45941">
        <ele>267.7</ele>
        <time>2012-10-31T15:44:30.000Z</time>
      </trkpt>
      <trkpt lat="46.76745" lon="5.4594">
        <ele>267.6</ele>
        <time>2012-10-31T15:44:34.000Z</time>
      </trkpt>
      <trkpt lat="46.76744" lon="5.4594">
        <ele>267.5</ele>
        <time>2012-10-31T15:44:35.000Z</time>
      </trkpt>
      <trkpt lat="46.7674" lon="5.45939">
        <ele>267.8</ele>
        <time>2012-10-31T15:44:39.000Z</time>
      </trkpt>
      <trkpt lat="46.76739" lon="5.45939">
        <ele>267.6</ele>
        <time>2012-10-31T15:44:40.000Z</time>
      </trkpt>
      <trkpt lat="46.76734" lon="5.45939">
        <ele>266.1</ele>
        <time>2012-10-31T15:44:44.000Z</time>
      </trkpt>
      <trkpt lat="46.76733" lon="5.45939">
        <ele>265.6</ele>
        <time>2012-10-31T15:44:45.000Z</time>
      </trkpt>
      <trkpt lat="46.76729" lon="5.45938">
        <ele>265.8</ele>
        <time>2012-10-31T15:44:48.000Z</time>
      </trkpt>
      <trkpt lat="46.76728" lon="5.45938">
        <ele>265.7</ele>
        <time>2012-10-31T15:44:49.000Z</time>
      </trkpt>
      <trkpt lat="46.76725" lon="5.45939">
        <ele>265.1</ele>
        <time>2012-10-31T15:44:53.000Z</time>
      </trkpt>
      <trkpt lat="46.76724" lon="5.45938">
        <ele>264.8</ele>
        <time>2012-10-31T15:44:54.000Z</time>
      </trkpt>
      <trkpt lat="46.7672" lon="5.45937">
        <ele>264.7</ele>
        <time>2012-10-31T15:44:57.000Z</time>
      </trkpt>
      <trkpt lat="46.76719" lon="5.45937">
        <ele>265</ele>
        <time>2012-10-31T15:44:58.000Z</time>
      </trkpt>
      <trkpt lat="46.76715" lon="5.45935">
        <ele>265</ele>
        <time>2012-10-31T15:45:02.000Z</time>
      </trkpt>
      <trkpt lat="46.76714" lon="5.45935">
        <ele>265.1</ele>
        <time>2012-10-31T15:45:03.000Z</time>
      </trkpt>
      <trkpt lat="46.76713" lon="5.45935">
        <ele>265.2</ele>
        <time>2012-10-31T15:45:04.000Z</time>
      </trkpt>
      <trkpt lat="46.76705" lon="5.45934">
        <ele>257.2</ele>
        <time>2012-10-31T15:45:12.000Z</time>
      </trkpt>
      <trkpt lat="46.76694" lon="5.45929">
        <ele>264.6</ele>
        <time>2012-10-31T15:45:13.000Z</time>
      </trkpt>
      <trkpt lat="46.7669" lon="5.45926">
        <ele>263.8</ele>
        <time>2012-10-31T15:45:20.000Z</time>
      </trkpt>
      <trkpt lat="46.7669" lon="5.45926">
        <ele>263.5</ele>
        <time>2012-10-31T15:45:21.000Z</time>
      </trkpt>
      <trkpt lat="46.76685" lon="5.45926">
        <ele>263.5</ele>
        <time>2012-10-31T15:45:26.000Z</time>
      </trkpt>
      <trkpt lat="46.76685" lon="5.45925">
        <ele>263.3</ele>
        <time>2012-10-31T15:45:27.000Z</time>
      </trkpt>
      <trkpt lat="46.76682" lon="5.45921">
        <ele>261.3</ele>
        <time>2012-10-31T15:45:32.000Z</time>
      </trkpt>
      <trkpt lat="46.76681" lon="5.45921">
        <ele>260.6</ele>
        <time>2012-10-31T15:45:33.000Z</time>
      </trkpt>
      <trkpt lat="46.76676" lon="5.45922">
        <ele>259.9</ele>
        <time>2012-10-31T15:45:37.000Z</time>
      </trkpt>
      <trkpt lat="46.76675" lon="5.45922">
        <ele>260.2</ele>
        <time>2012-10-31T15:45:38.000Z</time>
      </trkpt>
      <trkpt lat="46.76672" lon="5.45923">
        <ele>262.1</ele>
        <time>2012-10-31T15:45:41.000Z</time>
      </trkpt>
      <trkpt lat="46.76671" lon="5.45923">
        <ele>262.7</ele>
        <time>2012-10-31T15:45:42.000Z</time>
      </trkpt>
      <trkpt lat="46.76667" lon="5.45924">
        <ele>264.9</ele>
        <time>2012-10-31T15:45:45.000Z</time>
      </trkpt>
      <trkpt lat="46.76666" lon="5.45924">
        <ele>265.4</ele>
        <time>2012-10-31T15:45:46.000Z</time>
      </trkpt>
      <trkpt lat="46.76662" lon="5.45926">
        <ele>265.3</ele>
        <time>2012-10-31T15:45:49.000Z</time>
      </trkpt>
      <trkpt lat="46.76661" lon="5.45926">
        <ele>265.2</ele>
        <time>2012-10-31T15:45:50.000Z</time>
      </trkpt>
      <trkpt lat="46.76657" lon="5.45927">
        <ele>266.6</ele>
        <time>2012-10-31T15:45:54.000Z</time>
      </trkpt>
      <trkpt lat="46.76656" lon="5.45928">
        <ele>266.9</ele>
        <time>2012-10-31T15:45:55.000Z</time>
      </trkpt>
      <trkpt lat="46.76653" lon="5.4593">
        <ele>267.1</ele>
        <time>2012-10-31T15:46:01.000Z</time>
      </trkpt>
      <trkpt lat="46.76652" lon="5.45931">
        <ele>266.9</ele>
        <time>2012-10-31T15:46:02.000Z</time>
      </trkpt>
      <trkpt lat="46.76652" lon="5.45937">
        <ele>267.2</ele>
        <time>2012-10-31T15:46:10.000Z</time>
      </trkpt>
      <trkpt lat="46.76651" lon="5.45938">
        <ele>267</ele>
        <time>2012-10-31T15:46:11.000Z</time>
      </trkpt>
      <trkpt lat="46.76648" lon="5.45942">
        <ele>265.9</ele>
        <time>2012-10-31T15:46:18.000Z</time>
      </trkpt>
      <trkpt lat="46.76648" lon="5.45944">
        <ele>265.5</ele>
        <time>2012-10-31T15:46:19.000Z</time>
      </trkpt>
      <trkpt lat="46.76648" lon="5.4595">
        <ele>264.2</ele>
        <time>2012-10-31T15:46:22.000Z</time>
      </trkpt>
      <trkpt lat="46.76648" lon="5.45952">
        <ele>264</ele>
        <time>2012-10-31T15:46:23.000Z</time>
      </trkpt>
      <trkpt lat="46.76647" lon="5.45958">
        <ele>264.1</ele>
        <time>2012-10-31T15:46:26.000Z</time>
      </trkpt>
      <trkpt lat="46.76647" lon="5.45961">
        <ele>263.2</ele>
        <time>2012-10-31T15:46:27.000Z</time>
      </trkpt>
      <trkpt lat="46.76647" lon="5.45965">
        <ele>263.1</ele>
        <time>2012-10-31T15:46:29.000Z</time>
      </trkpt>
      <trkpt lat="46.76647" lon="5.45968">
        <ele>263.2</ele>
        <time>2012-10-31T15:46:30.000Z</time>
      </trkpt>
      <trkpt lat="46.76646" lon="5.45973">
        <ele>262.9</ele>
        <time>2012-10-31T15:46:32.000Z</time>
      </trkpt>
      <trkpt lat="46.76646" lon="5.45975">
        <ele>263</ele>
        <time>2012-10-31T15:46:33.000Z</time>
      </trkpt>
      <trkpt lat="46.76645" lon="5.45979">
        <ele>262.8</ele>
        <time>2012-10-31T15:46:35.000Z</time>
      </trkpt>
      <trkpt lat="46.76644" lon="5.45982">
        <ele>262.9</ele>
        <time>2012-10-31T15:46:36.000Z</time>
      </trkpt>
      <trkpt lat="46.76642" lon="5.45987">
        <ele>263.1</ele>
        <time>2012-10-31T15:46:38.000Z</time>
      </trkpt>
      <trkpt lat="46.76642" lon="5.4599">
        <ele>263.4</ele>
        <time>2012-10-31T15:46:39.000Z</time>
      </trkpt>
      <trkpt lat="46.7664" lon="5.45995">
        <ele>263.8</ele>
        <time>2012-10-31T15:46:42.000Z</time>
      </trkpt>
      <trkpt lat="46.76639" lon="5.45997">
        <ele>263.8</ele>
        <time>2012-10-31T15:46:43.000Z</time>
      </trkpt>
      <trkpt lat="46.76637" lon="5.46001">
        <ele>264</ele>
        <time>2012-10-31T15:46:46.000Z</time>
      </trkpt>
      <trkpt lat="46.76636" lon="5.46002">
        <ele>264.1</ele>
        <time>2012-10-31T15:46:47.000Z</time>
      </trkpt>
      <trkpt lat="46.76635" lon="5.46008">
        <ele>263.7</ele>
        <time>2012-10-31T15:47:02.000Z</time>
      </trkpt>
      <trkpt lat="46.76635" lon="5.46009">
        <ele>263</ele>
        <time>2012-10-31T15:47:03.000Z</time>
      </trkpt>
      <trkpt lat="46.76634" lon="5.46012">
        <ele>262</ele>
        <time>2012-10-31T15:47:05.000Z</time>
      </trkpt>
      <trkpt lat="46.76641" lon="5.46007">
        <ele>253.7</ele>
        <time>2012-10-31T15:47:12.000Z</time>
      </trkpt>
      <trkpt lat="46.76636" lon="5.46007">
        <ele>257.4</ele>
        <time>2012-10-31T15:47:13.000Z</time>
      </trkpt>
      <trkpt lat="46.76632" lon="5.46009">
        <ele>254.4</ele>
        <time>2012-10-31T15:47:19.000Z</time>
      </trkpt>
      <trkpt lat="46.76632" lon="5.46009">
        <ele>254.3</ele>
        <time>2012-10-31T15:47:20.000Z</time>
      </trkpt>
      <trkpt lat="46.76632" lon="5.46014">
        <ele>257.8</ele>
        <time>2012-10-31T15:47:25.000Z</time>
      </trkpt>
      <trkpt lat="46.76631" lon="5.46016">
        <ele>258.2</ele>
        <time>2012-10-31T15:47:26.000Z</time>
      </trkpt>
      <trkpt lat="46.7663" lon="5.46021">
        <ele>258.8</ele>
        <time>2012-10-31T15:47:28.000Z</time>
      </trkpt>
      <trkpt lat="46.7663" lon="5.46023">
        <ele>259.6</ele>
        <time>2012-10-31T15:47:29.000Z</time>
      </trkpt>
      <trkpt lat="46.76627" lon="5.46028">
        <ele>259</ele>
        <time>2012-10-31T15:47:34.000Z</time>
      </trkpt>
      <trkpt lat="46.76627" lon="5.46029">
        <ele>259</ele>
        <time>2012-10-31T15:47:35.000Z</time>
      </trkpt>
      <trkpt lat="46.76625" lon="5.46034">
        <ele>260.1</ele>
        <time>2012-10-31T15:47:38.000Z</time>
      </trkpt>
      <trkpt lat="46.76625" lon="5.46035">
        <ele>259.8</ele>
        <time>2012-10-31T15:47:39.000Z</time>
      </trkpt>
      <trkpt lat="46.76623" lon="5.46041">
        <ele>260.4</ele>
        <time>2012-10-31T15:47:43.000Z</time>
      </trkpt>
      <trkpt lat="46.76622" lon="5.46042">
        <ele>260.7</ele>
        <time>2012-10-31T15:47:44.000Z</time>
      </trkpt>
      <trkpt lat="46.7662" lon="5.46037">
        <ele>255.7</ele>
        <time>2012-10-31T15:47:50.000Z</time>
      </trkpt>
      <trkpt lat="46.7662" lon="5.46035">
        <ele>255.3</ele>
        <time>2012-10-31T15:47:51.000Z</time>
      </trkpt>
      <trkpt lat="46.76621" lon="5.4603">
        <ele>255.1</ele>
        <time>2012-10-31T15:47:55.000Z</time>
      </trkpt>
      <trkpt lat="46.76622" lon="5.46029">
        <ele>255.1</ele>
        <time>2012-10-31T15:47:56.000Z</time>
      </trkpt>
      <trkpt lat="46.76623" lon="5.46035">
        <ele>255.4</ele>
        <time>2012-10-31T15:48:02.000Z</time>
      </trkpt>
      <trkpt lat="46.76623" lon="5.46036">
        <ele>255.5</ele>
        <time>2012-10-31T15:48:03.000Z</time>
      </trkpt>
      <trkpt lat="46.7662" lon="5.46041">
        <ele>254.8</ele>
        <time>2012-10-31T15:48:30.000Z</time>
      </trkpt>
      <trkpt lat="46.76619" lon="5.46042">
        <ele>254.8</ele>
        <time>2012-10-31T15:48:31.000Z</time>
      </trkpt>
      <trkpt lat="46.76617" lon="5.46047">
        <ele>254.9</ele>
        <time>2012-10-31T15:48:34.000Z</time>
      </trkpt>
      <trkpt lat="46.76616" lon="5.46048">
        <ele>255</ele>
        <time>2012-10-31T15:48:35.000Z</time>
      </trkpt>
      <trkpt lat="46.76614" lon="5.46053">
        <ele>255.3</ele>
        <time>2012-10-31T15:48:38.000Z</time>
      </trkpt>
      <trkpt lat="46.76614" lon="5.46055">
        <ele>255.4</ele>
        <time>2012-10-31T15:48:39.000Z</time>
      </trkpt>
      <trkpt lat="46.76612" lon="5.4606">
        <ele>255.5</ele>
        <time>2012-10-31T15:48:42.000Z</time>
      </trkpt>
      <trkpt lat="46.76612" lon="5.46061">
        <ele>255.5</ele>
        <time>2012-10-31T15:48:43.000Z</time>
      </trkpt>
      <trkpt lat="46.7661" lon="5.46067">
        <ele>255.7</ele>
        <time>2012-10-31T15:48:47.000Z</time>
      </trkpt>
      <trkpt lat="46.76609" lon="5.46068">
        <ele>255.9</ele>
        <time>2012-10-31T15:48:48.000Z</time>
      </trkpt>
      <trkpt lat="46.76608" lon="5.46073">
        <ele>256</ele>
        <time>2012-10-31T15:48:51.000Z</time>
      </trkpt>
      <trkpt lat="46.76607" lon="5.46074">
        <ele>256</ele>
        <time>2012-10-31T15:48:52.000Z</time>
      </trkpt>
      <trkpt lat="46.76606" lon="5.4608">
        <ele>256.6</ele>
        <time>2012-10-31T15:48:56.000Z</time>
      </trkpt>
      <trkpt lat="46.76605" lon="5.46082">
        <ele>256.8</ele>
        <time>2012-10-31T15:48:57.000Z</time>
      </trkpt>
      <trkpt lat="46.76604" lon="5.46086">
        <ele>257.3</ele>
        <time>2012-10-31T15:49:00.000Z</time>
      </trkpt>
      <trkpt lat="46.76603" lon="5.46088">
        <ele>257.6</ele>
        <time>2012-10-31T15:49:01.000Z</time>
      </trkpt>
      <trkpt lat="46.76602" lon="5.46093">
        <ele>258.7</ele>
        <time>2012-10-31T15:49:04.000Z</time>
      </trkpt>
      <trkpt lat="46.76601" lon="5.46095">
        <ele>259.2</ele>
        <time>2012-10-31T15:49:05.000Z</time>
      </trkpt>
      <trkpt lat="46.766" lon="5.46101">
        <ele>260.2</ele>
        <time>2012-10-31T15:49:08.000Z</time>
      </trkpt>
      <trkpt lat="46.76599" lon="5.46102">
        <ele>260.6</ele>
        <time>2012-10-31T15:49:09.000Z</time>
      </trkpt>
      <trkpt lat="46.76598" lon="5.46107">
        <ele>261.5</ele>
        <time>2012-10-31T15:49:12.000Z</time>
      </trkpt>
      <trkpt lat="46.76597" lon="5.46109">
        <ele>261.8</ele>
        <time>2012-10-31T15:49:13.000Z</time>
      </trkpt>
      <trkpt lat="46.76596" lon="5.46115">
        <ele>262.7</ele>
        <time>2012-10-31T15:49:16.000Z</time>
      </trkpt>
      <trkpt lat="46.76595" lon="5.46117">
        <ele>263</ele>
        <time>2012-10-31T15:49:17.000Z</time>
      </trkpt>
      <trkpt lat="46.76594" lon="5.46123">
        <ele>264.2</ele>
        <time>2012-10-31T15:49:20.000Z</time>
      </trkpt>
      <trkpt lat="46.76593" lon="5.46125">
        <ele>264.6</ele>
        <time>2012-10-31T15:49:21.000Z</time>
      </trkpt>
      <trkpt lat="46.76592" lon="5.4613">
        <ele>265.4</ele>
        <time>2012-10-31T15:49:24.000Z</time>
      </trkpt>
      <trkpt lat="46.76591" lon="5.46132">
        <ele>266</ele>
        <time>2012-10-31T15:49:25.000Z</time>
      </trkpt>
      <trkpt lat="46.7659" lon="5.46137">
        <ele>266.7</ele>
        <time>2012-10-31T15:49:28.000Z</time>
      </trkpt>
      <trkpt lat="46.7659" lon="5.46139">
        <ele>266.7</ele>
        <time>2012-10-31T15:49:29.000Z</time>
      </trkpt>
      <trkpt lat="46.76588" lon="5.46144">
        <ele>267</ele>
        <time>2012-10-31T15:49:32.000Z</time>
      </trkpt>
      <trkpt lat="46.76588" lon="5.46146">
        <ele>266.8</ele>
        <time>2012-10-31T15:49:33.000Z</time>
      </trkpt>
      <trkpt lat="46.76586" lon="5.46151">
        <ele>266.1</ele>
        <time>2012-10-31T15:49:37.000Z</time>
      </trkpt>
      <trkpt lat="46.76586" lon="5.46152">
        <ele>265.9</ele>
        <time>2012-10-31T15:49:38.000Z</time>
      </trkpt>
      <trkpt lat="46.76584" lon="5.46157">
        <ele>264.8</ele>
        <time>2012-10-31T15:49:43.000Z</time>
      </trkpt>
      <trkpt lat="46.76583" lon="5.46158">
        <ele>264.9</ele>
        <time>2012-10-31T15:49:44.000Z</time>
      </trkpt>
      <trkpt lat="46.76581" lon="5.46163">
        <ele>264.1</ele>
        <time>2012-10-31T15:49:49.000Z</time>
      </trkpt>
      <trkpt lat="46.76581" lon="5.46164">
        <ele>264</ele>
        <time>2012-10-31T15:49:50.000Z</time>
      </trkpt>
      <trkpt lat="46.76581" lon="5.4617">
        <ele>262.9</ele>
        <time>2012-10-31T15:50:00.000Z</time>
      </trkpt>
      <trkpt lat="46.7658" lon="5.46171">
        <ele>263</ele>
        <time>2012-10-31T15:50:01.000Z</time>
      </trkpt>
      <trkpt lat="46.76582" lon="5.46177">
        <ele>263</ele>
        <time>2012-10-31T15:50:10.000Z</time>
      </trkpt>
      <trkpt lat="46.76582" lon="5.46178">
        <ele>263</ele>
        <time>2012-10-31T15:50:11.000Z</time>
      </trkpt>
      <trkpt lat="46.76585" lon="5.46182">
        <ele>260.3</ele>
        <time>2012-10-31T15:50:22.000Z</time>
      </trkpt>
      <trkpt lat="46.76585" lon="5.46183">
        <ele>260.2</ele>
        <time>2012-10-31T15:50:23.000Z</time>
      </trkpt>
      <trkpt lat="46.76587" lon="5.46188">
        <ele>259.5</ele>
        <time>2012-10-31T15:50:31.000Z</time>
      </trkpt>
      <trkpt lat="46.76587" lon="5.46189">
        <ele>259.6</ele>
        <time>2012-10-31T15:50:32.000Z</time>
      </trkpt>
      <trkpt lat="46.76588" lon="5.46195">
        <ele>259.7</ele>
        <time>2012-10-31T15:50:37.000Z</time>
      </trkpt>
      <trkpt lat="46.76588" lon="5.46196">
        <ele>259.6</ele>
        <time>2012-10-31T15:50:38.000Z</time>
      </trkpt>
      <trkpt lat="46.7659" lon="5.462">
        <ele>259</ele>
        <time>2012-10-31T15:50:43.000Z</time>
      </trkpt>
      <trkpt lat="46.76591" lon="5.46201">
        <ele>258.9</ele>
        <time>2012-10-31T15:50:44.000Z</time>
      </trkpt>
      <trkpt lat="46.76592" lon="5.46207">
        <ele>258.7</ele>
        <time>2012-10-31T15:50:49.000Z</time>
      </trkpt>
      <trkpt lat="46.76593" lon="5.46208">
        <ele>258.6</ele>
        <time>2012-10-31T15:50:50.000Z</time>
      </trkpt>
      <trkpt lat="46.76594" lon="5.46213">
        <ele>258.3</ele>
        <time>2012-10-31T15:50:54.000Z</time>
      </trkpt>
      <trkpt lat="46.76595" lon="5.46214">
        <ele>258.3</ele>
        <time>2012-10-31T15:50:55.000Z</time>
      </trkpt>
      <trkpt lat="46.76596" lon="5.46219">
        <ele>258.9</ele>
        <time>2012-10-31T15:50:59.000Z</time>
      </trkpt>
      <trkpt lat="46.76597" lon="5.46221">
        <ele>259.1</ele>
        <time>2012-10-31T15:51:00.000Z</time>
      </trkpt>
      <trkpt lat="46.76599" lon="5.46226">
        <ele>260</ele>
        <time>2012-10-31T15:51:04.000Z</time>
      </trkpt>
      <trkpt lat="46.76599" lon="5.46227">
        <ele>260.1</ele>
        <time>2012-10-31T15:51:05.000Z</time>
      </trkpt>
      <trkpt lat="46.76602" lon="5.46231">
        <ele>259.9</ele>
        <time>2012-10-31T15:51:10.000Z</time>
      </trkpt>
      <trkpt lat="46.76603" lon="5.46232">
        <ele>260.1</ele>
        <time>2012-10-31T15:51:11.000Z</time>
      </trkpt>
      <trkpt lat="46.76605" lon="5.46236">
        <ele>259.7</ele>
        <time>2012-10-31T15:51:16.000Z</time>
      </trkpt>
      <trkpt lat="46.76605" lon="5.46237">
        <ele>259.6</ele>
        <time>2012-10-31T15:51:17.000Z</time>
      </trkpt>
      <trkpt lat="46.76608" lon="5.46241">
        <ele>257.2</ele>
        <time>2012-10-31T15:51:23.000Z</time>
      </trkpt>
      <trkpt lat="46.76608" lon="5.46242">
        <ele>257</ele>
        <time>2012-10-31T15:51:24.000Z</time>
      </trkpt>
      <trkpt lat="46.7661" lon="5.46248">
        <ele>256.5</ele>
        <time>2012-10-31T15:51:29.000Z</time>
      </trkpt>
      <trkpt lat="46.76611" lon="5.46249">
        <ele>256.7</ele>
        <time>2012-10-31T15:51:30.000Z</time>
      </trkpt>
      <trkpt lat="46.76613" lon="5.46254">
        <ele>257</ele>
        <time>2012-10-31T15:51:34.000Z</time>
      </trkpt>
      <trkpt lat="46.76614" lon="5.46255">
        <ele>256.9</ele>
        <time>2012-10-31T15:51:35.000Z</time>
      </trkpt>
      <trkpt lat="46.76615" lon="5.4626">
        <ele>256.9</ele>
        <time>2012-10-31T15:51:38.000Z</time>
      </trkpt>
      <trkpt lat="46.76616" lon="5.46261">
        <ele>256.9</ele>
        <time>2012-10-31T15:51:39.000Z</time>
      </trkpt>
      <trkpt lat="46.76616" lon="5.46267">
        <ele>256.9</ele>
        <time>2012-10-31T15:51:47.000Z</time>
      </trkpt>
      <trkpt lat="46.76616" lon="5.46268">
        <ele>256.7</ele>
        <time>2012-10-31T15:51:48.000Z</time>
      </trkpt>
      <trkpt lat="46.76618" lon="5.46273">
        <ele>256.7</ele>
        <time>2012-10-31T15:51:52.000Z</time>
      </trkpt>
      <trkpt lat="46.76618" lon="5.46275">
        <ele>256.8</ele>
        <time>2012-10-31T15:51:53.000Z</time>
      </trkpt>
      <trkpt lat="46.7662" lon="5.46279">
        <ele>256.9</ele>
        <time>2012-10-31T15:51:56.000Z</time>
      </trkpt>
      <trkpt lat="46.76621" lon="5.46281">
        <ele>257</ele>
        <time>2012-10-31T15:51:57.000Z</time>
      </trkpt>
      <trkpt lat="46.76623" lon="5.46284">
        <ele>257.5</ele>
        <time>2012-10-31T15:52:00.000Z</time>
      </trkpt>
      <trkpt lat="46.76624" lon="5.46286">
        <ele>257.6</ele>
        <time>2012-10-31T15:52:01.000Z</time>
      </trkpt>
      <trkpt lat="46.76627" lon="5.46289">
        <ele>257.8</ele>
        <time>2012-10-31T15:52:04.000Z</time>
      </trkpt>
      <trkpt lat="46.76628" lon="5.4629">
        <ele>257.8</ele>
        <time>2012-10-31T15:52:05.000Z</time>
      </trkpt>
      <trkpt lat="46.76632" lon="5.46293">
        <ele>258.2</ele>
        <time>2012-10-31T15:52:08.000Z</time>
      </trkpt>
      <trkpt lat="46.76633" lon="5.46294">
        <ele>258.4</ele>
        <time>2012-10-31T15:52:09.000Z</time>
      </trkpt>
      <trkpt lat="46.76636" lon="5.46296">
        <ele>259.3</ele>
        <time>2012-10-31T15:52:12.000Z</time>
      </trkpt>
      <trkpt lat="46.76637" lon="5.46297">
        <ele>259.6</ele>
        <time>2012-10-31T15:52:13.000Z</time>
      </trkpt>
      <trkpt lat="46.7664" lon="5.46302">
        <ele>259.7</ele>
        <time>2012-10-31T15:52:17.000Z</time>
      </trkpt>
      <trkpt lat="46.76641" lon="5.46303">
        <ele>259.7</ele>
        <time>2012-10-31T15:52:18.000Z</time>
      </trkpt>
      <trkpt lat="46.76644" lon="5.46305">
        <ele>259.8</ele>
        <time>2012-10-31T15:52:21.000Z</time>
      </trkpt>
      <trkpt lat="46.76645" lon="5.46306">
        <ele>259.9</ele>
        <time>2012-10-31T15:52:22.000Z</time>
      </trkpt>
      <trkpt lat="46.76648" lon="5.46308">
        <ele>260.3</ele>
        <time>2012-10-31T15:52:25.000Z</time>
      </trkpt>
      <trkpt lat="46.76649" lon="5.46309">
        <ele>260.4</ele>
        <time>2012-10-31T15:52:26.000Z</time>
      </trkpt>
      <trkpt lat="46.76653" lon="5.46311">
        <ele>260.9</ele>
        <time>2012-10-31T15:52:29.000Z</time>
      </trkpt>
      <trkpt lat="46.76654" lon="5.46312">
        <ele>261.3</ele>
        <time>2012-10-31T15:52:30.000Z</time>
      </trkpt>
      <trkpt lat="46.76657" lon="5.46314">
        <ele>262.1</ele>
        <time>2012-10-31T15:52:33.000Z</time>
      </trkpt>
      <trkpt lat="46.76658" lon="5.46315">
        <ele>262.3</ele>
        <time>2012-10-31T15:52:34.000Z</time>
      </trkpt>
      <trkpt lat="46.76662" lon="5.46318">
        <ele>263</ele>
        <time>2012-10-31T15:52:38.000Z</time>
      </trkpt>
      <trkpt lat="46.76663" lon="5.46318">
        <ele>263</ele>
        <time>2012-10-31T15:52:39.000Z</time>
      </trkpt>
      <trkpt lat="46.76666" lon="5.46322">
        <ele>262.9</ele>
        <time>2012-10-31T15:52:44.000Z</time>
      </trkpt>
      <trkpt lat="46.76667" lon="5.46322">
        <ele>263</ele>
        <time>2012-10-31T15:52:45.000Z</time>
      </trkpt>
      <trkpt lat="46.7667" lon="5.46325">
        <ele>263.9</ele>
        <time>2012-10-31T15:52:49.000Z</time>
      </trkpt>
      <trkpt lat="46.76671" lon="5.46326">
        <ele>263.9</ele>
        <time>2012-10-31T15:52:50.000Z</time>
      </trkpt>
      <trkpt lat="46.76674" lon="5.46329">
        <ele>264.1</ele>
        <time>2012-10-31T15:52:53.000Z</time>
      </trkpt>
      <trkpt lat="46.76675" lon="5.4633">
        <ele>264</ele>
        <time>2012-10-31T15:52:54.000Z</time>
      </trkpt>
      <trkpt lat="46.76678" lon="5.46334">
        <ele>264</ele>
        <time>2012-10-31T15:52:58.000Z</time>
      </trkpt>
      <trkpt lat="46.76678" lon="5.46335">
        <ele>263.9</ele>
        <time>2012-10-31T15:52:59.000Z</time>
      </trkpt>
      <trkpt lat="46.7668" lon="5.46339">
        <ele>263.5</ele>
        <time>2012-10-31T15:53:03.000Z</time>
      </trkpt>
      <trkpt lat="46.76681" lon="5.4634">
        <ele>263.5</ele>
        <time>2012-10-31T15:53:04.000Z</time>
      </trkpt>
      <trkpt lat="46.76684" lon="5.46344">
        <ele>263.4</ele>
        <time>2012-10-31T15:53:08.000Z</time>
      </trkpt>
      <trkpt lat="46.76685" lon="5.46345">
        <ele>263.4</ele>
        <time>2012-10-31T15:53:09.000Z</time>
      </trkpt>
      <trkpt lat="46.76688" lon="5.46349">
        <ele>263.1</ele>
        <time>2012-10-31T15:53:13.000Z</time>
      </trkpt>
      <trkpt lat="46.76689" lon="5.46349">
        <ele>263</ele>
        <time>2012-10-31T15:53:14.000Z</time>
      </trkpt>
      <trkpt lat="46.76692" lon="5.46352">
        <ele>263</ele>
        <time>2012-10-31T15:53:18.000Z</time>
      </trkpt>
      <trkpt lat="46.76693" lon="5.46353">
        <ele>263.2</ele>
        <time>2012-10-31T15:53:19.000Z</time>
      </trkpt>
      <trkpt lat="46.76697" lon="5.46356">
        <ele>263.7</ele>
        <time>2012-10-31T15:53:23.000Z</time>
      </trkpt>
      <trkpt lat="46.76698" lon="5.46357">
        <ele>263.7</ele>
        <time>2012-10-31T15:53:24.000Z</time>
      </trkpt>
      <trkpt lat="46.767" lon="5.46362">
        <ele>263.9</ele>
        <time>2012-10-31T15:53:28.000Z</time>
      </trkpt>
      <trkpt lat="46.76701" lon="5.46363">
        <ele>263.9</ele>
        <time>2012-10-31T15:53:29.000Z</time>
      </trkpt>
      <trkpt lat="46.76702" lon="5.46369">
        <ele>264.8</ele>
        <time>2012-10-31T15:53:33.000Z</time>
      </trkpt>
      <trkpt lat="46.76703" lon="5.4637">
        <ele>265</ele>
        <time>2012-10-31T15:53:34.000Z</time>
      </trkpt>
      <trkpt lat="46.76706" lon="5.46373">
        <ele>265.3</ele>
        <time>2012-10-31T15:53:37.000Z</time>
      </trkpt>
      <trkpt lat="46.76707" lon="5.46374">
        <ele>265.5</ele>
        <time>2012-10-31T15:53:38.000Z</time>
      </trkpt>
      <trkpt lat="46.7671" lon="5.46375">
        <ele>265.6</ele>
        <time>2012-10-31T15:53:41.000Z</time>
      </trkpt>
      <trkpt lat="46.76712" lon="5.46376">
        <ele>266</ele>
        <time>2012-10-31T15:53:42.000Z</time>
      </trkpt>
      <trkpt lat="46.76715" lon="5.46378">
        <ele>266.9</ele>
        <time>2012-10-31T15:53:45.000Z</time>
      </trkpt>
      <trkpt lat="46.76716" lon="5.46379">
        <ele>267.1</ele>
        <time>2012-10-31T15:53:46.000Z</time>
      </trkpt>
      <trkpt lat="46.7672" lon="5.46381">
        <ele>267.8</ele>
        <time>2012-10-31T15:53:49.000Z</time>
      </trkpt>
      <trkpt lat="46.76722" lon="5.46381">
        <ele>267.8</ele>
        <time>2012-10-31T15:53:50.000Z</time>
      </trkpt>
      <trkpt lat="46.76725" lon="5.46383">
        <ele>267.7</ele>
        <time>2012-10-31T15:53:53.000Z</time>
      </trkpt>
      <trkpt lat="46.76726" lon="5.46383">
        <ele>267.6</ele>
        <time>2012-10-31T15:53:54.000Z</time>
      </trkpt>
      <trkpt lat="46.7673" lon="5.46385">
        <ele>267.1</ele>
        <time>2012-10-31T15:53:58.000Z</time>
      </trkpt>
      <trkpt lat="46.7673" lon="5.46386">
        <ele>267.2</ele>
        <time>2012-10-31T15:53:59.000Z</time>
      </trkpt>
      <trkpt lat="46.76734" lon="5.46389">
        <ele>267.8</ele>
        <time>2012-10-31T15:54:03.000Z</time>
      </trkpt>
      <trkpt lat="46.76734" lon="5.4639">
        <ele>267.9</ele>
        <time>2012-10-31T15:54:04.000Z</time>
      </trkpt>
      <trkpt lat="46.76735" lon="5.46392">
        <ele>267.9</ele>
        <time>2012-10-31T15:54:05.000Z</time>
      </trkpt>
      <trkpt lat="46.76746" lon="5.46393">
        <ele>268.4</ele>
        <time>2012-10-31T15:54:12.000Z</time>
      </trkpt>
      <trkpt lat="46.76732" lon="5.46399">
        <ele>256.7</ele>
        <time>2012-10-31T15:54:13.000Z</time>
      </trkpt>
      <trkpt lat="46.76733" lon="5.46405">
        <ele>256.9</ele>
        <time>2012-10-31T15:54:18.000Z</time>
      </trkpt>
      <trkpt lat="46.76734" lon="5.46405">
        <ele>256.6</ele>
        <time>2012-10-31T15:54:19.000Z</time>
      </trkpt>
      <trkpt lat="46.76737" lon="5.46409">
        <ele>258.1</ele>
        <time>2012-10-31T15:54:25.000Z</time>
      </trkpt>
      <trkpt lat="46.76738" lon="5.4641">
        <ele>258.4</ele>
        <time>2012-10-31T15:54:26.000Z</time>
      </trkpt>
      <trkpt lat="46.76741" lon="5.46413">
        <ele>259.2</ele>
        <time>2012-10-31T15:54:30.000Z</time>
      </trkpt>
      <trkpt lat="46.76741" lon="5.46414">
        <ele>258.7</ele>
        <time>2012-10-31T15:54:31.000Z</time>
      </trkpt>
      <trkpt lat="46.76745" lon="5.46418">
        <ele>259.2</ele>
        <time>2012-10-31T15:54:36.000Z</time>
      </trkpt>
      <trkpt lat="46.76745" lon="5.46419">
        <ele>259.4</ele>
        <time>2012-10-31T15:54:37.000Z</time>
      </trkpt>
      <trkpt lat="46.76749" lon="5.46423">
        <ele>261.4</ele>
        <time>2012-10-31T15:54:42.000Z</time>
      </trkpt>
      <trkpt lat="46.7675" lon="5.46424">
        <ele>261.9</ele>
        <time>2012-10-31T15:54:43.000Z</time>
      </trkpt>
      <trkpt lat="46.76753" lon="5.46428">
        <ele>262.9</ele>
        <time>2012-10-31T15:54:47.000Z</time>
      </trkpt>
      <trkpt lat="46.76753" lon="5.46429">
        <ele>263.2</ele>
        <time>2012-10-31T15:54:48.000Z</time>
      </trkpt>
      <trkpt lat="46.76755" lon="5.46434">
        <ele>262.5</ele>
        <time>2012-10-31T15:54:52.000Z</time>
      </trkpt>
      <trkpt lat="46.76755" lon="5.46435">
        <ele>262.3</ele>
        <time>2012-10-31T15:54:53.000Z</time>
      </trkpt>
      <trkpt lat="46.76756" lon="5.46441">
        <ele>262.4</ele>
        <time>2012-10-31T15:54:57.000Z</time>
      </trkpt>
      <trkpt lat="46.76757" lon="5.46441">
        <ele>262.5</ele>
        <time>2012-10-31T15:54:58.000Z</time>
      </trkpt>
      <trkpt lat="46.76758" lon="5.46447">
        <ele>262.4</ele>
        <time>2012-10-31T15:55:03.000Z</time>
      </trkpt>
      <trkpt lat="46.76758" lon="5.46448">
        <ele>262.5</ele>
        <time>2012-10-31T15:55:04.000Z</time>
      </trkpt>
      <trkpt lat="46.76756" lon="5.46467">
        <ele>263.2</ele>
        <time>2012-10-31T15:55:13.000Z</time>
      </trkpt>
      <trkpt lat="46.76753" lon="5.46471">
        <ele>261.9</ele>
        <time>2012-10-31T15:55:18.000Z</time>
      </trkpt>
      <trkpt lat="46.76752" lon="5.46473">
        <ele>262.2</ele>
        <time>2012-10-31T15:55:19.000Z</time>
      </trkpt>
      <trkpt lat="46.7675" lon="5.46478">
        <ele>262.6</ele>
        <time>2012-10-31T15:55:22.000Z</time>
      </trkpt>
      <trkpt lat="46.76749" lon="5.46479">
        <ele>263</ele>
        <time>2012-10-31T15:55:23.000Z</time>
      </trkpt>
      <trkpt lat="46.76747" lon="5.46483">
        <ele>263.4</ele>
        <time>2012-10-31T15:55:26.000Z</time>
      </trkpt>
      <trkpt lat="46.76746" lon="5.46485">
        <ele>263.4</ele>
        <time>2012-10-31T15:55:27.000Z</time>
      </trkpt>
      <trkpt lat="46.76744" lon="5.4649">
        <ele>264</ele>
        <time>2012-10-31T15:55:30.000Z</time>
      </trkpt>
      <trkpt lat="46.76743" lon="5.46491">
        <ele>264.4</ele>
        <time>2012-10-31T15:55:31.000Z</time>
      </trkpt>
      <trkpt lat="46.76739" lon="5.46493">
        <ele>265.2</ele>
        <time>2012-10-31T15:55:48.000Z</time>
      </trkpt>
      <trkpt lat="46.76739" lon="5.46495">
        <ele>265.4</ele>
        <time>2012-10-31T15:55:49.000Z</time>
      </trkpt>
      <trkpt lat="46.76738" lon="5.465">
        <ele>265.8</ele>
        <time>2012-10-31T15:55:52.000Z</time>
      </trkpt>
      <trkpt lat="46.76737" lon="5.46501">
        <ele>265.8</ele>
        <time>2012-10-31T15:55:53.000Z</time>
      </trkpt>
      <trkpt lat="46.76736" lon="5.46506">
        <ele>265.9</ele>
        <time>2012-10-31T15:55:56.000Z</time>
      </trkpt>
      <trkpt lat="46.76735" lon="5.46508">
        <ele>266.1</ele>
        <time>2012-10-31T15:55:57.000Z</time>
      </trkpt>
      <trkpt lat="46.76733" lon="5.46513">
        <ele>266.4</ele>
        <time>2012-10-31T15:56:00.000Z</time>
      </trkpt>
      <trkpt lat="46.76733" lon="5.46514">
        <ele>266.6</ele>
        <time>2012-10-31T15:56:01.000Z</time>
      </trkpt>
      <trkpt lat="46.76731" lon="5.46518">
        <ele>266.8</ele>
        <time>2012-10-31T15:56:04.000Z</time>
      </trkpt>
      <trkpt lat="46.7673" lon="5.4652">
        <ele>266.9</ele>
        <time>2012-10-31T15:56:05.000Z</time>
      </trkpt>
      <trkpt lat="46.76727" lon="5.46525">
        <ele>266.9</ele>
        <time>2012-10-31T15:56:09.000Z</time>
      </trkpt>
      <trkpt lat="46.76727" lon="5.46526">
        <ele>267</ele>
        <time>2012-10-31T15:56:10.000Z</time>
      </trkpt>
      <trkpt lat="46.76724" lon="5.46532">
        <ele>266.7</ele>
        <time>2012-10-31T15:56:14.000Z</time>
      </trkpt>
      <trkpt lat="46.76724" lon="5.46533">
        <ele>266.6</ele>
        <time>2012-10-31T15:56:15.000Z</time>
      </trkpt>
      <trkpt lat="46.76722" lon="5.46537">
        <ele>267</ele>
        <time>2012-10-31T15:56:18.000Z</time>
      </trkpt>
      <trkpt lat="46.76721" lon="5.46539">
        <ele>267.2</ele>
        <time>2012-10-31T15:56:19.000Z</time>
      </trkpt>
      <trkpt lat="46.7672" lon="5.46544">
        <ele>267.1</ele>
        <time>2012-10-31T15:56:22.000Z</time>
      </trkpt>
      <trkpt lat="46.76719" lon="5.46545">
        <ele>267</ele>
        <time>2012-10-31T15:56:23.000Z</time>
      </trkpt>
      <trkpt lat="46.76717" lon="5.4655">
        <ele>267.1</ele>
        <time>2012-10-31T15:56:26.000Z</time>
      </trkpt>
      <trkpt lat="46.76717" lon="5.46551">
        <ele>267.1</ele>
        <time>2012-10-31T15:56:27.000Z</time>
      </trkpt>
      <trkpt lat="46.76715" lon="5.46556">
        <ele>267</ele>
        <time>2012-10-31T15:56:30.000Z</time>
      </trkpt>
      <trkpt lat="46.76714" lon="5.46557">
        <ele>266.9</ele>
        <time>2012-10-31T15:56:31.000Z</time>
      </trkpt>
      <trkpt lat="46.76713" lon="5.46562">
        <ele>266.8</ele>
        <time>2012-10-31T15:56:34.000Z</time>
      </trkpt>
      <trkpt lat="46.76712" lon="5.46564">
        <ele>266.7</ele>
        <time>2012-10-31T15:56:35.000Z</time>
      </trkpt>
      <trkpt lat="46.7671" lon="5.46568">
        <ele>266.7</ele>
        <time>2012-10-31T15:56:38.000Z</time>
      </trkpt>
      <trkpt lat="46.7671" lon="5.46569">
        <ele>266.9</ele>
        <time>2012-10-31T15:56:39.000Z</time>
      </trkpt>
      <trkpt lat="46.76707" lon="5.46574">
        <ele>267</ele>
        <time>2012-10-31T15:56:43.000Z</time>
      </trkpt>
      <trkpt lat="46.76706" lon="5.46575">
        <ele>267.5</ele>
        <time>2012-10-31T15:56:44.000Z</time>
      </trkpt>
      <trkpt lat="46.76703" lon="5.4658">
        <ele>268.7</ele>
        <time>2012-10-31T15:56:48.000Z</time>
      </trkpt>
      <trkpt lat="46.76702" lon="5.46581">
        <ele>268.9</ele>
        <time>2012-10-31T15:56:49.000Z</time>
      </trkpt>
      <trkpt lat="46.76699" lon="5.46586">
        <ele>269.6</ele>
        <time>2012-10-31T15:56:53.000Z</time>
      </trkpt>
      <trkpt lat="46.76698" lon="5.46587">
        <ele>269.5</ele>
        <time>2012-10-31T15:56:54.000Z</time>
      </trkpt>
      <trkpt lat="46.76695" lon="5.46591">
        <ele>270</ele>
        <time>2012-10-31T15:56:58.000Z</time>
      </trkpt>
      <trkpt lat="46.76694" lon="5.46592">
        <ele>270.1</ele>
        <time>2012-10-31T15:56:59.000Z</time>
      </trkpt>
      <trkpt lat="46.76691" lon="5.46595">
        <ele>270.2</ele>
        <time>2012-10-31T15:57:03.000Z</time>
      </trkpt>
      <trkpt lat="46.76691" lon="5.46595">
        <ele>270.1</ele>
        <time>2012-10-31T15:57:04.000Z</time>
      </trkpt>
      <trkpt lat="46.76688" lon="5.466">
        <ele>270.1</ele>
        <time>2012-10-31T15:57:08.000Z</time>
      </trkpt>
      <trkpt lat="46.76688" lon="5.46602">
        <ele>270</ele>
        <time>2012-10-31T15:57:09.000Z</time>
      </trkpt>
      <trkpt lat="46.76687" lon="5.46607">
        <ele>269.7</ele>
        <time>2012-10-31T15:57:12.000Z</time>
      </trkpt>
      <trkpt lat="46.76686" lon="5.46609">
        <ele>269.6</ele>
        <time>2012-10-31T15:57:13.000Z</time>
      </trkpt>
      <trkpt lat="46.76684" lon="5.46615">
        <ele>269.9</ele>
        <time>2012-10-31T15:57:16.000Z</time>
      </trkpt>
      <trkpt lat="46.76684" lon="5.46616">
        <ele>269.9</ele>
        <time>2012-10-31T15:57:17.000Z</time>
      </trkpt>
      <trkpt lat="46.76682" lon="5.46622">
        <ele>270.2</ele>
        <time>2012-10-31T15:57:20.000Z</time>
      </trkpt>
      <trkpt lat="46.76681" lon="5.46624">
        <ele>270.4</ele>
        <time>2012-10-31T15:57:21.000Z</time>
      </trkpt>
      <trkpt lat="46.76679" lon="5.46628">
        <ele>271</ele>
        <time>2012-10-31T15:57:24.000Z</time>
      </trkpt>
      <trkpt lat="46.76679" lon="5.46629">
        <ele>271.2</ele>
        <time>2012-10-31T15:57:25.000Z</time>
      </trkpt>
      <trkpt lat="46.76676" lon="5.46633">
        <ele>271</ele>
        <time>2012-10-31T15:57:29.000Z</time>
      </trkpt>
      <trkpt lat="46.76676" lon="5.46634">
        <ele>270.9</ele>
        <time>2012-10-31T15:57:30.000Z</time>
      </trkpt>
      <trkpt lat="46.76674" lon="5.4664">
        <ele>271</ele>
        <time>2012-10-31T15:57:34.000Z</time>
      </trkpt>
      <trkpt lat="46.76673" lon="5.46642">
        <ele>270.9</ele>
        <time>2012-10-31T15:57:35.000Z</time>
      </trkpt>
      <trkpt lat="46.76671" lon="5.46646">
        <ele>271</ele>
        <time>2012-10-31T15:57:38.000Z</time>
      </trkpt>
      <trkpt lat="46.7667" lon="5.46648">
        <ele>270.9</ele>
        <time>2012-10-31T15:57:39.000Z</time>
      </trkpt>
      <trkpt lat="46.76668" lon="5.46653">
        <ele>270.9</ele>
        <time>2012-10-31T15:57:42.000Z</time>
      </trkpt>
      <trkpt lat="46.76668" lon="5.46654">
        <ele>270.9</ele>
        <time>2012-10-31T15:57:43.000Z</time>
      </trkpt>
      <trkpt lat="46.76665" lon="5.46659">
        <ele>271.4</ele>
        <time>2012-10-31T15:57:47.000Z</time>
      </trkpt>
      <trkpt lat="46.76664" lon="5.4666">
        <ele>271.5</ele>
        <time>2012-10-31T15:57:48.000Z</time>
      </trkpt>
      <trkpt lat="46.76662" lon="5.46665">
        <ele>271.5</ele>
        <time>2012-10-31T15:57:51.000Z</time>
      </trkpt>
      <trkpt lat="46.76661" lon="5.46666">
        <ele>271.6</ele>
        <time>2012-10-31T15:57:52.000Z</time>
      </trkpt>
      <trkpt lat="46.76659" lon="5.46671">
        <ele>271.6</ele>
        <time>2012-10-31T15:57:55.000Z</time>
      </trkpt>
      <trkpt lat="46.76658" lon="5.46672">
        <ele>271.6</ele>
        <time>2012-10-31T15:57:56.000Z</time>
      </trkpt>
      <trkpt lat="46.76656" lon="5.46677">
        <ele>271.7</ele>
        <time>2012-10-31T15:57:59.000Z</time>
      </trkpt>
      <trkpt lat="46.76656" lon="5.46679">
        <ele>272</ele>
        <time>2012-10-31T15:58:00.000Z</time>
      </trkpt>
      <trkpt lat="46.76652" lon="5.4668">
        <ele>270</ele>
        <time>2012-10-31T15:58:09.000Z</time>
      </trkpt>
      <trkpt lat="46.76651" lon="5.46681">
        <ele>270</ele>
        <time>2012-10-31T15:58:10.000Z</time>
      </trkpt>
      <trkpt lat="46.76648" lon="5.46686">
        <ele>270.2</ele>
        <time>2012-10-31T15:58:14.000Z</time>
      </trkpt>
      <trkpt lat="46.76647" lon="5.46687">
        <ele>270.1</ele>
        <time>2012-10-31T15:58:15.000Z</time>
      </trkpt>
      <trkpt lat="46.76645" lon="5.46692">
        <ele>269.7</ele>
        <time>2012-10-31T15:58:19.000Z</time>
      </trkpt>
      <trkpt lat="46.76644" lon="5.46694">
        <ele>269.7</ele>
        <time>2012-10-31T15:58:20.000Z</time>
      </trkpt>
      <trkpt lat="46.76642" lon="5.46699">
        <ele>270.1</ele>
        <time>2012-10-31T15:58:23.000Z</time>
      </trkpt>
      <trkpt lat="46.76641" lon="5.467">
        <ele>270.4</ele>
        <time>2012-10-31T15:58:24.000Z</time>
      </trkpt>
      <trkpt lat="46.76639" lon="5.46705">
        <ele>271.1</ele>
        <time>2012-10-31T15:58:27.000Z</time>
      </trkpt>
      <trkpt lat="46.76638" lon="5.46707">
        <ele>271.2</ele>
        <time>2012-10-31T15:58:28.000Z</time>
      </trkpt>
      <trkpt lat="46.76636" lon="5.46712">
        <ele>271.6</ele>
        <time>2012-10-31T15:58:31.000Z</time>
      </trkpt>
      <trkpt lat="46.76635" lon="5.46714">
        <ele>271.6</ele>
        <time>2012-10-31T15:58:32.000Z</time>
      </trkpt>
      <trkpt lat="46.76633" lon="5.46719">
        <ele>271.4</ele>
        <time>2012-10-31T15:58:36.000Z</time>
      </trkpt>
      <trkpt lat="46.76633" lon="5.46721">
        <ele>271.2</ele>
        <time>2012-10-31T15:58:37.000Z</time>
      </trkpt>
      <trkpt lat="46.76632" lon="5.46726">
        <ele>270.4</ele>
        <time>2012-10-31T15:58:41.000Z</time>
      </trkpt>
      <trkpt lat="46.76632" lon="5.46728">
        <ele>270.1</ele>
        <time>2012-10-31T15:58:42.000Z</time>
      </trkpt>
      <trkpt lat="46.76631" lon="5.46733">
        <ele>269.5</ele>
        <time>2012-10-31T15:58:46.000Z</time>
      </trkpt>
      <trkpt lat="46.7663" lon="5.46734">
        <ele>269.4</ele>
        <time>2012-10-31T15:58:47.000Z</time>
      </trkpt>
      <trkpt lat="46.76629" lon="5.46739">
        <ele>268.7</ele>
        <time>2012-10-31T15:58:51.000Z</time>
      </trkpt>
      <trkpt lat="46.76629" lon="5.4674">
        <ele>268.5</ele>
        <time>2012-10-31T15:58:52.000Z</time>
      </trkpt>
      <trkpt lat="46.76627" lon="5.46746">
        <ele>267.9</ele>
        <time>2012-10-31T15:58:56.000Z</time>
      </trkpt>
      <trkpt lat="46.76627" lon="5.46747">
        <ele>267.9</ele>
        <time>2012-10-31T15:58:57.000Z</time>
      </trkpt>
      <trkpt lat="46.76625" lon="5.46752">
        <ele>267.3</ele>
        <time>2012-10-31T15:59:01.000Z</time>
      </trkpt>
      <trkpt lat="46.76625" lon="5.46754">
        <ele>267.3</ele>
        <time>2012-10-31T15:59:02.000Z</time>
      </trkpt>
      <trkpt lat="46.76623" lon="5.4676">
        <ele>267.1</ele>
        <time>2012-10-31T15:59:06.000Z</time>
      </trkpt>
      <trkpt lat="46.76623" lon="5.46761">
        <ele>266.8</ele>
        <time>2012-10-31T15:59:07.000Z</time>
      </trkpt>
      <trkpt lat="46.76621" lon="5.46766">
        <ele>266.3</ele>
        <time>2012-10-31T15:59:11.000Z</time>
      </trkpt>
      <trkpt lat="46.76621" lon="5.46768">
        <ele>266.3</ele>
        <time>2012-10-31T15:59:12.000Z</time>
      </trkpt>
      <trkpt lat="46.76621" lon="5.46773">
        <ele>266.4</ele>
        <time>2012-10-31T15:59:15.000Z</time>
      </trkpt>
      <trkpt lat="46.76621" lon="5.46775">
        <ele>266.3</ele>
        <time>2012-10-31T15:59:16.000Z</time>
      </trkpt>
      <trkpt lat="46.76619" lon="5.4678">
        <ele>266.5</ele>
        <time>2012-10-31T15:59:20.000Z</time>
      </trkpt>
      <trkpt lat="46.76619" lon="5.46781">
        <ele>266.4</ele>
        <time>2012-10-31T15:59:21.000Z</time>
      </trkpt>
      <trkpt lat="46.76617" lon="5.46786">
        <ele>265.9</ele>
        <time>2012-10-31T15:59:25.000Z</time>
      </trkpt>
      <trkpt lat="46.76616" lon="5.46787">
        <ele>265.7</ele>
        <time>2012-10-31T15:59:26.000Z</time>
      </trkpt>
      <trkpt lat="46.76615" lon="5.46793">
        <ele>264.5</ele>
        <time>2012-10-31T15:59:31.000Z</time>
      </trkpt>
      <trkpt lat="46.76614" lon="5.46794">
        <ele>264.4</ele>
        <time>2012-10-31T15:59:32.000Z</time>
      </trkpt>
      <trkpt lat="46.76612" lon="5.468">
        <ele>263.7</ele>
        <time>2012-10-31T15:59:37.000Z</time>
      </trkpt>
      <trkpt lat="46.76612" lon="5.46801">
        <ele>263.4</ele>
        <time>2012-10-31T15:59:38.000Z</time>
      </trkpt>
      <trkpt lat="46.76611" lon="5.46807">
        <ele>262.2</ele>
        <time>2012-10-31T15:59:43.000Z</time>
      </trkpt>
      <trkpt lat="46.7661" lon="5.46809">
        <ele>261.9</ele>
        <time>2012-10-31T15:59:44.000Z</time>
      </trkpt>
      <trkpt lat="46.76609" lon="5.46814">
        <ele>260.6</ele>
        <time>2012-10-31T15:59:48.000Z</time>
      </trkpt>
      <trkpt lat="46.76608" lon="5.46816">
        <ele>260.4</ele>
        <time>2012-10-31T15:59:49.000Z</time>
      </trkpt>
      <trkpt lat="46.76608" lon="5.46822">
        <ele>260.4</ele>
        <time>2012-10-31T15:59:54.000Z</time>
      </trkpt>
      <trkpt lat="46.76609" lon="5.46823">
        <ele>260.3</ele>
        <time>2012-10-31T15:59:55.000Z</time>
      </trkpt>
      <trkpt lat="46.76612" lon="5.46826">
        <ele>259.8</ele>
        <time>2012-10-31T16:00:02.000Z</time>
      </trkpt>
      <trkpt lat="46.76613" lon="5.46826">
        <ele>259.8</ele>
        <time>2012-10-31T16:00:03.000Z</time>
      </trkpt>
      <trkpt lat="46.76616" lon="5.4683">
        <ele>260.2</ele>
        <time>2012-10-31T16:00:08.000Z</time>
      </trkpt>
      <trkpt lat="46.76617" lon="5.46831">
        <ele>260.2</ele>
        <time>2012-10-31T16:00:09.000Z</time>
      </trkpt>
      <trkpt lat="46.7662" lon="5.46835">
        <ele>260.1</ele>
        <time>2012-10-31T16:00:13.000Z</time>
      </trkpt>
      <trkpt lat="46.7662" lon="5.46836">
        <ele>260.1</ele>
        <time>2012-10-31T16:00:14.000Z</time>
      </trkpt>
      <trkpt lat="46.76623" lon="5.46839">
        <ele>260.2</ele>
        <time>2012-10-31T16:00:18.000Z</time>
      </trkpt>
      <trkpt lat="46.76624" lon="5.4684">
        <ele>260.2</ele>
        <time>2012-10-31T16:00:19.000Z</time>
      </trkpt>
      <trkpt lat="46.76626" lon="5.46845">
        <ele>260</ele>
        <time>2012-10-31T16:00:23.000Z</time>
      </trkpt>
      <trkpt lat="46.76627" lon="5.46846">
        <ele>260.2</ele>
        <time>2012-10-31T16:00:24.000Z</time>
      </trkpt>
      <trkpt lat="46.76631" lon="5.46844">
        <ele>259.5</ele>
        <time>2012-10-31T16:00:31.000Z</time>
      </trkpt>
      <trkpt lat="46.76632" lon="5.46844">
        <ele>259.5</ele>
        <time>2012-10-31T16:00:32.000Z</time>
      </trkpt>
      <trkpt lat="46.76635" lon="5.46847">
        <ele>259.7</ele>
        <time>2012-10-31T16:00:36.000Z</time>
      </trkpt>
      <trkpt lat="46.76635" lon="5.46849">
        <ele>259.5</ele>
        <time>2012-10-31T16:00:37.000Z</time>
      </trkpt>
      <trkpt lat="46.76638" lon="5.46853">
        <ele>259.8</ele>
        <time>2012-10-31T16:00:41.000Z</time>
      </trkpt>
      <trkpt lat="46.76639" lon="5.46854">
        <ele>259.8</ele>
        <time>2012-10-31T16:00:42.000Z</time>
      </trkpt>
      <trkpt lat="46.76642" lon="5.46857">
        <ele>259.9</ele>
        <time>2012-10-31T16:00:46.000Z</time>
      </trkpt>
      <trkpt lat="46.76642" lon="5.46858">
        <ele>259.9</ele>
        <time>2012-10-31T16:00:47.000Z</time>
      </trkpt>
      <trkpt lat="46.76646" lon="5.46854">
        <ele>259.2</ele>
        <time>2012-10-31T16:00:53.000Z</time>
      </trkpt>
      <trkpt lat="46.76647" lon="5.46854">
        <ele>259.3</ele>
        <time>2012-10-31T16:00:54.000Z</time>
      </trkpt>
      <trkpt lat="46.76649" lon="5.46849">
        <ele>259.7</ele>
        <time>2012-10-31T16:00:59.000Z</time>
      </trkpt>
      <trkpt lat="46.7665" lon="5.46849">
        <ele>259.6</ele>
        <time>2012-10-31T16:01:00.000Z</time>
      </trkpt>
      <trkpt lat="46.76653" lon="5.46845">
        <ele>259.6</ele>
        <time>2012-10-31T16:01:04.000Z</time>
      </trkpt>
      <trkpt lat="46.76654" lon="5.46844">
        <ele>259.6</ele>
        <time>2012-10-31T16:01:05.000Z</time>
      </trkpt>
      <trkpt lat="46.76657" lon="5.46839">
        <ele>260</ele>
        <time>2012-10-31T16:01:09.000Z</time>
      </trkpt>
      <trkpt lat="46.76657" lon="5.46838">
        <ele>260.1</ele>
        <time>2012-10-31T16:01:10.000Z</time>
      </trkpt>
      <trkpt lat="46.7666" lon="5.46834">
        <ele>260.5</ele>
        <time>2012-10-31T16:01:14.000Z</time>
      </trkpt>
      <trkpt lat="46.76661" lon="5.46833">
        <ele>260.7</ele>
        <time>2012-10-31T16:01:15.000Z</time>
      </trkpt>
      <trkpt lat="46.76664" lon="5.46829">
        <ele>260.9</ele>
        <time>2012-10-31T16:01:20.000Z</time>
      </trkpt>
      <trkpt lat="46.76665" lon="5.46829">
        <ele>260.8</ele>
        <time>2012-10-31T16:01:21.000Z</time>
      </trkpt>
      <trkpt lat="46.76668" lon="5.46825">
        <ele>261.1</ele>
        <time>2012-10-31T16:01:25.000Z</time>
      </trkpt>
      <trkpt lat="46.76669" lon="5.46824">
        <ele>261.1</ele>
        <time>2012-10-31T16:01:26.000Z</time>
      </trkpt>
      <trkpt lat="46.76672" lon="5.4682">
        <ele>261.3</ele>
        <time>2012-10-31T16:01:30.000Z</time>
      </trkpt>
      <trkpt lat="46.76672" lon="5.46819">
        <ele>261.3</ele>
        <time>2012-10-31T16:01:31.000Z</time>
      </trkpt>
      <trkpt lat="46.76674" lon="5.46814">
        <ele>261.4</ele>
        <time>2012-10-31T16:01:36.000Z</time>
      </trkpt>
      <trkpt lat="46.76674" lon="5.46813">
        <ele>261.4</ele>
        <time>2012-10-31T16:01:37.000Z</time>
      </trkpt>
      <trkpt lat="46.76676" lon="5.46807">
        <ele>263.1</ele>
        <time>2012-10-31T16:02:09.000Z</time>
      </trkpt>
      <trkpt lat="46.76677" lon="5.46807">
        <ele>263.1</ele>
        <time>2012-10-31T16:02:10.000Z</time>
      </trkpt>
      <trkpt lat="46.76675" lon="5.4681">
        <ele>262.5</ele>
        <time>2012-10-31T16:03:05.000Z</time>
      </trkpt>
      <trkpt lat="46.76672" lon="5.46792">
        <ele>266.7</ele>
        <time>2012-10-31T16:03:12.000Z</time>
      </trkpt>
      <trkpt lat="46.76674" lon="5.46798">
        <ele>270.5</ele>
        <time>2012-10-31T16:05:54.000Z</time>
      </trkpt>
      <trkpt lat="46.76678" lon="5.46805">
        <ele>266.5</ele>
        <time>2012-10-31T16:05:55.000Z</time>
      </trkpt>
      <trkpt lat="46.76677" lon="5.46811">
        <ele>262.6</ele>
        <time>2012-10-31T16:05:59.000Z</time>
      </trkpt>
      <trkpt lat="46.76677" lon="5.46812">
        <ele>262.3</ele>
        <time>2012-10-31T16:06:00.000Z</time>
      </trkpt>
      <trkpt lat="46.76674" lon="5.46816">
        <ele>261.5</ele>
        <time>2012-10-31T16:06:05.000Z</time>
      </trkpt>
      <trkpt lat="46.76673" lon="5.46817">
        <ele>261.7</ele>
        <time>2012-10-31T16:06:06.000Z</time>
      </trkpt>
      <trkpt lat="46.76671" lon="5.46822">
        <ele>261.4</ele>
        <time>2012-10-31T16:06:33.000Z</time>
      </trkpt>
      <trkpt lat="46.7667" lon="5.46823">
        <ele>261.4</ele>
        <time>2012-10-31T16:06:34.000Z</time>
      </trkpt>
      <trkpt lat="46.76667" lon="5.46827">
        <ele>262.1</ele>
        <time>2012-10-31T16:06:38.000Z</time>
      </trkpt>
      <trkpt lat="46.76666" lon="5.46829">
        <ele>262.3</ele>
        <time>2012-10-31T16:06:39.000Z</time>
      </trkpt>
      <trkpt lat="46.76663" lon="5.46832">
        <ele>262.9</ele>
        <time>2012-10-31T16:06:42.000Z</time>
      </trkpt>
      <trkpt lat="46.76662" lon="5.46834">
        <ele>263</ele>
        <time>2012-10-31T16:06:43.000Z</time>
      </trkpt>
      <trkpt lat="46.7666" lon="5.46837">
        <ele>263.8</ele>
        <time>2012-10-31T16:06:46.000Z</time>
      </trkpt>
      <trkpt lat="46.76659" lon="5.46838">
        <ele>264</ele>
        <time>2012-10-31T16:06:47.000Z</time>
      </trkpt>
      <trkpt lat="46.76657" lon="5.46842">
        <ele>264.3</ele>
        <time>2012-10-31T16:06:51.000Z</time>
      </trkpt>
      <trkpt lat="46.76657" lon="5.46844">
        <ele>264.4</ele>
        <time>2012-10-31T16:06:52.000Z</time>
      </trkpt>
      <trkpt lat="46.76654" lon="5.46848">
        <ele>264.2</ele>
        <time>2012-10-31T16:07:00.000Z</time>
      </trkpt>
      <trkpt lat="46.76653" lon="5.46849">
        <ele>264.2</ele>
        <time>2012-10-31T16:07:01.000Z</time>
      </trkpt>
      <trkpt lat="46.7665" lon="5.46853">
        <ele>263.3</ele>
        <time>2012-10-31T16:07:13.000Z</time>
      </trkpt>
      <trkpt lat="46.76649" lon="5.46854">
        <ele>263.4</ele>
        <time>2012-10-31T16:07:14.000Z</time>
      </trkpt>
      <trkpt lat="46.76646" lon="5.46856">
        <ele>259.9</ele>
        <time>2012-10-31T16:07:33.000Z</time>
      </trkpt>
      <trkpt lat="46.76645" lon="5.46857">
        <ele>260</ele>
        <time>2012-10-31T16:07:34.000Z</time>
      </trkpt>
      <trkpt lat="46.76641" lon="5.46858">
        <ele>259.4</ele>
        <time>2012-10-31T16:07:41.000Z</time>
      </trkpt>
      <trkpt lat="46.76641" lon="5.46858">
        <ele>259.5</ele>
        <time>2012-10-31T16:07:42.000Z</time>
      </trkpt>
      <trkpt lat="46.76637" lon="5.46854">
        <ele>259.1</ele>
        <time>2012-10-31T16:07:50.000Z</time>
      </trkpt>
      <trkpt lat="46.76637" lon="5.46853">
        <ele>258.8</ele>
        <time>2012-10-31T16:07:51.000Z</time>
      </trkpt>
      <trkpt lat="46.76635" lon="5.46849">
        <ele>259.4</ele>
        <time>2012-10-31T16:07:56.000Z</time>
      </trkpt>
      <trkpt lat="46.76634" lon="5.46848">
        <ele>259.3</ele>
        <time>2012-10-31T16:07:57.000Z</time>
      </trkpt>
      <trkpt lat="46.7663" lon="5.46844">
        <ele>258.7</ele>
        <time>2012-10-31T16:08:01.000Z</time>
      </trkpt>
      <trkpt lat="46.7663" lon="5.46844">
        <ele>258.8</ele>
        <time>2012-10-31T16:08:02.000Z</time>
      </trkpt>
      <trkpt lat="46.76626" lon="5.46847">
        <ele>257.3</ele>
        <time>2012-10-31T16:08:08.000Z</time>
      </trkpt>
      <trkpt lat="46.76626" lon="5.46849">
        <ele>257.2</ele>
        <time>2012-10-31T16:08:09.000Z</time>
      </trkpt>
      <trkpt lat="46.76624" lon="5.46854">
        <ele>258</ele>
        <time>2012-10-31T16:08:13.000Z</time>
      </trkpt>
      <trkpt lat="46.76623" lon="5.46856">
        <ele>258</ele>
        <time>2012-10-31T16:08:14.000Z</time>
      </trkpt>
      <trkpt lat="46.76622" lon="5.4686">
        <ele>258.7</ele>
        <time>2012-10-31T16:08:17.000Z</time>
      </trkpt>
      <trkpt lat="46.76621" lon="5.46861">
        <ele>259.1</ele>
        <time>2012-10-31T16:08:18.000Z</time>
      </trkpt>
      <trkpt lat="46.76618" lon="5.46865">
        <ele>259.6</ele>
        <time>2012-10-31T16:08:21.000Z</time>
      </trkpt>
      <trkpt lat="46.76617" lon="5.46866">
        <ele>259.7</ele>
        <time>2012-10-31T16:08:22.000Z</time>
      </trkpt>
      <trkpt lat="46.76614" lon="5.4687">
        <ele>260</ele>
        <time>2012-10-31T16:08:25.000Z</time>
      </trkpt>
      <trkpt lat="46.76613" lon="5.46871">
        <ele>260</ele>
        <time>2012-10-31T16:08:26.000Z</time>
      </trkpt>
      <trkpt lat="46.76611" lon="5.46874">
        <ele>259.9</ele>
        <time>2012-10-31T16:08:29.000Z</time>
      </trkpt>
      <trkpt lat="46.7661" lon="5.46875">
        <ele>260</ele>
        <time>2012-10-31T16:08:30.000Z</time>
      </trkpt>
      <trkpt lat="46.76606" lon="5.4688">
        <ele>260.3</ele>
        <time>2012-10-31T16:08:34.000Z</time>
      </trkpt>
      <trkpt lat="46.76606" lon="5.46881">
        <ele>260.4</ele>
        <time>2012-10-31T16:08:35.000Z</time>
      </trkpt>
      <trkpt lat="46.76603" lon="5.46885">
        <ele>260.7</ele>
        <time>2012-10-31T16:08:38.000Z</time>
      </trkpt>
      <trkpt lat="46.76602" lon="5.46886">
        <ele>260.8</ele>
        <time>2012-10-31T16:08:39.000Z</time>
      </trkpt>
      <trkpt lat="46.76599" lon="5.46891">
        <ele>261.9</ele>
        <time>2012-10-31T16:08:42.000Z</time>
      </trkpt>
      <trkpt lat="46.76598" lon="5.46892">
        <ele>262.4</ele>
        <time>2012-10-31T16:08:43.000Z</time>
      </trkpt>
      <trkpt lat="46.76595" lon="5.46896">
        <ele>262.3</ele>
        <time>2012-10-31T16:08:46.000Z</time>
      </trkpt>
      <trkpt lat="46.76594" lon="5.46897">
        <ele>262</ele>
        <time>2012-10-31T16:08:47.000Z</time>
      </trkpt>
      <trkpt lat="46.76592" lon="5.469">
        <ele>259.9</ele>
        <time>2012-10-31T16:08:51.000Z</time>
      </trkpt>
    </trkseg>
  </trk>
</gpx>